<?xml version="1.0" encoding="UTF-8" standalone="no" ?>
<gpx xmlns="http://www.topografix.com/GPX/1/1" xmlns:xsi="http://www.w3.org/2001/XMLSchema-instance" xsi:schemaLocation="http://www.topografix.com/GPX/1/1 http://www.topografix.com/GPX/1/1/gpx.xsd" version="1.1" creator="VisuGPX - https://www.visugpx.com">
  <metadata>
    <name>Balade hivernale</name>
    <desc><![CDATA[Balade effectuée du 9 décembre 2022 au 7 janvier 2023.]]></desc>
  </metadata>
  <trk>
    <name><![CDATA[Le Porge - Arcachon]]></name>
    <extensions>
      <line xmlns="http://www.topografix.com/GPX/gpx_style/0/2">
        <color>0000ff</color>
        <width>4</width>
      </line>
    </extensions>
    <trkseg>
      <trkpt lat="44.87535" lon="-1.08278">
        <ele>72.162353</ele>
        <time>2022-12-25T09:13:42.965Z</time>
      </trkpt>
      <trkpt lat="44.8753" lon="-1.08289">
        <ele>72.162353</ele>
        <time>2022-12-25T09:13:55.342Z</time>
      </trkpt>
      <trkpt lat="44.8753" lon="-1.08304">
        <ele>72.162353</ele>
        <time>2022-12-25T09:14:00.345Z</time>
      </trkpt>
      <trkpt lat="44.87531" lon="-1.0832">
        <ele>72.162353</ele>
        <time>2022-12-25T09:14:04.345Z</time>
      </trkpt>
      <trkpt lat="44.87533" lon="-1.08334">
        <ele>72.162353</ele>
        <time>2022-12-25T09:14:09.346Z</time>
      </trkpt>
      <trkpt lat="44.8754" lon="-1.08344">
        <ele>72.162353</ele>
        <time>2022-12-25T09:14:13.351Z</time>
      </trkpt>
      <trkpt lat="44.87543" lon="-1.08358">
        <ele>72.162353</ele>
        <time>2022-12-25T09:14:17.341Z</time>
      </trkpt>
      <trkpt lat="44.87544" lon="-1.08371">
        <ele>72.162353</ele>
        <time>2022-12-25T09:14:20.342Z</time>
      </trkpt>
      <trkpt lat="44.87545" lon="-1.08385">
        <ele>72.162353</ele>
        <time>2022-12-25T09:14:23.364Z</time>
      </trkpt>
      <trkpt lat="44.87546" lon="-1.08399">
        <ele>72.163645</ele>
        <time>2022-12-25T09:14:26.355Z</time>
      </trkpt>
      <trkpt lat="44.87549" lon="-1.08413">
        <ele>72.173862</ele>
        <time>2022-12-25T09:14:29.358Z</time>
      </trkpt>
      <trkpt lat="44.87553" lon="-1.08426">
        <ele>72.184524</ele>
        <time>2022-12-25T09:14:32.362Z</time>
      </trkpt>
      <trkpt lat="44.87557" lon="-1.08441">
        <ele>72.195851</ele>
        <time>2022-12-25T09:14:35.365Z</time>
      </trkpt>
      <trkpt lat="44.87562" lon="-1.08455">
        <ele>72.207783</ele>
        <time>2022-12-25T09:14:38.343Z</time>
      </trkpt>
      <trkpt lat="44.87568" lon="-1.08467">
        <ele>72.218687</ele>
        <time>2022-12-25T09:14:41.343Z</time>
      </trkpt>
      <trkpt lat="44.8757" lon="-1.0848">
        <ele>72.228197</ele>
        <time>2022-12-25T09:14:44.346Z</time>
      </trkpt>
      <trkpt lat="44.87565" lon="-1.08493">
        <ele>72.239631</ele>
        <time>2022-12-25T09:14:48.340Z</time>
      </trkpt>
      <trkpt lat="44.87554" lon="-1.08502">
        <ele>72.252069</ele>
        <time>2022-12-25T09:14:52.360Z</time>
      </trkpt>
      <trkpt lat="44.87548" lon="-1.08514">
        <ele>72.263218</ele>
        <time>2022-12-25T09:14:55.346Z</time>
      </trkpt>
      <trkpt lat="44.87543" lon="-1.08528">
        <ele>72.274683</ele>
        <time>2022-12-25T09:14:58.345Z</time>
      </trkpt>
      <trkpt lat="44.87539" lon="-1.08543">
        <ele>72.286449</ele>
        <time>2022-12-25T09:15:01.341Z</time>
      </trkpt>
      <trkpt lat="44.87537" lon="-1.08559">
        <ele>72.298264</ele>
        <time>2022-12-25T09:15:04.360Z</time>
      </trkpt>
      <trkpt lat="44.87535" lon="-1.08576">
        <ele>72.31083</ele>
        <time>2022-12-25T09:15:07.351Z</time>
      </trkpt>
      <trkpt lat="44.87535" lon="-1.08593">
        <ele>72.323414</ele>
        <time>2022-12-25T09:15:10.357Z</time>
      </trkpt>
      <trkpt lat="44.87535" lon="-1.0861">
        <ele>72.336045</ele>
        <time>2022-12-25T09:15:13.357Z</time>
      </trkpt>
      <trkpt lat="44.87535" lon="-1.08627">
        <ele>72.348674</ele>
        <time>2022-12-25T09:15:16.339Z</time>
      </trkpt>
      <trkpt lat="44.87533" lon="-1.08643">
        <ele>72.290569</ele>
        <time>2022-12-25T09:15:19.348Z</time>
      </trkpt>
      <trkpt lat="44.87533" lon="-1.08659">
        <ele>72.23212</ele>
        <time>2022-12-25T09:15:22.339Z</time>
      </trkpt>
      <trkpt lat="44.87532" lon="-1.08675">
        <ele>72.171362</ele>
        <time>2022-12-25T09:15:25.363Z</time>
      </trkpt>
      <trkpt lat="44.87531" lon="-1.08693">
        <ele>72.108284</ele>
        <time>2022-12-25T09:15:28.360Z</time>
      </trkpt>
      <trkpt lat="44.8753" lon="-1.0871">
        <ele>72.044255</ele>
        <time>2022-12-25T09:15:31.359Z</time>
      </trkpt>
      <trkpt lat="44.87529" lon="-1.08727">
        <ele>71.979756</ele>
        <time>2022-12-25T09:15:34.359Z</time>
      </trkpt>
      <trkpt lat="44.87527" lon="-1.08744">
        <ele>71.916755</ele>
        <time>2022-12-25T09:15:37.366Z</time>
      </trkpt>
      <trkpt lat="44.87526" lon="-1.0876">
        <ele>71.858685</ele>
        <time>2022-12-25T09:15:40.359Z</time>
      </trkpt>
      <trkpt lat="44.87524" lon="-1.08774">
        <ele>71.806085</ele>
        <time>2022-12-25T09:15:43.355Z</time>
      </trkpt>
      <trkpt lat="44.87523" lon="-1.08789">
        <ele>71.750933</ele>
        <time>2022-12-25T09:15:46.355Z</time>
      </trkpt>
      <trkpt lat="44.87522" lon="-1.08805">
        <ele>71.692072</ele>
        <time>2022-12-25T09:15:49.342Z</time>
      </trkpt>
      <trkpt lat="44.87521" lon="-1.08821">
        <ele>71.632414</ele>
        <time>2022-12-25T09:15:52.351Z</time>
      </trkpt>
      <trkpt lat="44.87519" lon="-1.08837">
        <ele>71.573416</ele>
        <time>2022-12-25T09:15:55.384Z</time>
      </trkpt>
      <trkpt lat="44.87518" lon="-1.08853">
        <ele>71.514489</ele>
        <time>2022-12-25T09:15:58.343Z</time>
      </trkpt>
      <trkpt lat="44.87516" lon="-1.08868">
        <ele>71.458109</ele>
        <time>2022-12-25T09:16:01.359Z</time>
      </trkpt>
      <trkpt lat="44.87514" lon="-1.08883">
        <ele>71.413686</ele>
        <time>2022-12-25T09:16:04.356Z</time>
      </trkpt>
      <trkpt lat="44.87512" lon="-1.08899">
        <ele>71.402876</ele>
        <time>2022-12-25T09:16:07.349Z</time>
      </trkpt>
      <trkpt lat="44.87509" lon="-1.08915">
        <ele>71.391874</ele>
        <time>2022-12-25T09:16:10.350Z</time>
      </trkpt>
      <trkpt lat="44.87507" lon="-1.08931">
        <ele>71.380827</ele>
        <time>2022-12-25T09:16:13.361Z</time>
      </trkpt>
      <trkpt lat="44.87504" lon="-1.08948">
        <ele>71.369325</ele>
        <time>2022-12-25T09:16:16.359Z</time>
      </trkpt>
      <trkpt lat="44.87501" lon="-1.08964">
        <ele>71.358254</ele>
        <time>2022-12-25T09:16:19.355Z</time>
      </trkpt>
      <trkpt lat="44.87497" lon="-1.08978">
        <ele>71.348386</ele>
        <time>2022-12-25T09:16:22.359Z</time>
      </trkpt>
      <trkpt lat="44.87492" lon="-1.08991">
        <ele>71.338255</ele>
        <time>2022-12-25T09:16:25.340Z</time>
      </trkpt>
      <trkpt lat="44.87486" lon="-1.09004">
        <ele>71.327502</ele>
        <time>2022-12-25T09:16:28.343Z</time>
      </trkpt>
      <trkpt lat="44.87479" lon="-1.09017">
        <ele>71.316838</ele>
        <time>2022-12-25T09:16:31.360Z</time>
      </trkpt>
      <trkpt lat="44.87471" lon="-1.09028">
        <ele>71.306247</ele>
        <time>2022-12-25T09:16:34.357Z</time>
      </trkpt>
      <trkpt lat="44.87463" lon="-1.09039">
        <ele>71.295675</ele>
        <time>2022-12-25T09:16:37.362Z</time>
      </trkpt>
      <trkpt lat="44.87456" lon="-1.0905">
        <ele>71.285585</ele>
        <time>2022-12-25T09:16:40.357Z</time>
      </trkpt>
      <trkpt lat="44.87449" lon="-1.09063">
        <ele>71.275103</ele>
        <time>2022-12-25T09:16:43.358Z</time>
      </trkpt>
      <trkpt lat="44.87444" lon="-1.09077">
        <ele>71.26429</ele>
        <time>2022-12-25T09:16:46.340Z</time>
      </trkpt>
      <trkpt lat="44.87439" lon="-1.09093">
        <ele>71.253058</ele>
        <time>2022-12-25T09:16:49.349Z</time>
      </trkpt>
      <trkpt lat="44.87435" lon="-1.09109">
        <ele>71.262412</ele>
        <time>2022-12-25T09:16:52.356Z</time>
      </trkpt>
      <trkpt lat="44.8743" lon="-1.09124">
        <ele>71.299568</ele>
        <time>2022-12-25T09:16:55.359Z</time>
      </trkpt>
      <trkpt lat="44.87425" lon="-1.09139">
        <ele>71.334921</ele>
        <time>2022-12-25T09:16:58.354Z</time>
      </trkpt>
      <trkpt lat="44.87421" lon="-1.09152">
        <ele>71.368022</ele>
        <time>2022-12-25T09:17:01.345Z</time>
      </trkpt>
      <trkpt lat="44.87416" lon="-1.09165">
        <ele>71.399015</ele>
        <time>2022-12-25T09:17:04.361Z</time>
      </trkpt>
      <trkpt lat="44.87409" lon="-1.09175">
        <ele>71.430397</ele>
        <time>2022-12-25T09:17:07.347Z</time>
      </trkpt>
      <trkpt lat="44.874" lon="-1.09182">
        <ele>71.460748</ele>
        <time>2022-12-25T09:17:10.346Z</time>
      </trkpt>
      <trkpt lat="44.87392" lon="-1.09189">
        <ele>71.490656</ele>
        <time>2022-12-25T09:17:13.360Z</time>
      </trkpt>
      <trkpt lat="44.87383" lon="-1.09196">
        <ele>71.522723</ele>
        <time>2022-12-25T09:17:16.357Z</time>
      </trkpt>
      <trkpt lat="44.87373" lon="-1.09204">
        <ele>71.55722</ele>
        <time>2022-12-25T09:17:19.361Z</time>
      </trkpt>
      <trkpt lat="44.87363" lon="-1.09211">
        <ele>71.592259</ele>
        <time>2022-12-25T09:17:22.364Z</time>
      </trkpt>
      <trkpt lat="44.87354" lon="-1.09219">
        <ele>71.62564</ele>
        <time>2022-12-25T09:17:25.357Z</time>
      </trkpt>
      <trkpt lat="44.87344" lon="-1.09227">
        <ele>71.660624</ele>
        <time>2022-12-25T09:17:28.346Z</time>
      </trkpt>
      <trkpt lat="44.87335" lon="-1.09235">
        <ele>71.695716</ele>
        <time>2022-12-25T09:17:31.368Z</time>
      </trkpt>
      <trkpt lat="44.87325" lon="-1.09243">
        <ele>71.73</ele>
        <time>2022-12-25T09:17:34.364Z</time>
      </trkpt>
      <trkpt lat="44.87316" lon="-1.0925">
        <ele>71.762398</ele>
        <time>2022-12-25T09:17:37.359Z</time>
      </trkpt>
      <trkpt lat="44.87309" lon="-1.09261">
        <ele>71.794058</ele>
        <time>2022-12-25T09:17:40.346Z</time>
      </trkpt>
      <trkpt lat="44.87302" lon="-1.09271">
        <ele>71.775005</ele>
        <time>2022-12-25T09:17:43.360Z</time>
      </trkpt>
      <trkpt lat="44.87293" lon="-1.09268">
        <ele>71.73039</ele>
        <time>2022-12-25T09:17:47.354Z</time>
      </trkpt>
      <trkpt lat="44.87288" lon="-1.09256">
        <ele>71.687305</ele>
        <time>2022-12-25T09:17:50.349Z</time>
      </trkpt>
      <trkpt lat="44.8728" lon="-1.09244">
        <ele>71.635368</ele>
        <time>2022-12-25T09:17:53.341Z</time>
      </trkpt>
      <trkpt lat="44.87273" lon="-1.09231">
        <ele>71.582593</ele>
        <time>2022-12-25T09:17:56.355Z</time>
      </trkpt>
      <trkpt lat="44.87264" lon="-1.09219">
        <ele>71.52873</ele>
        <time>2022-12-25T09:17:59.352Z</time>
      </trkpt>
      <trkpt lat="44.87256" lon="-1.09209">
        <ele>71.478284</ele>
        <time>2022-12-25T09:18:02.357Z</time>
      </trkpt>
      <trkpt lat="44.87247" lon="-1.092">
        <ele>71.430226</ele>
        <time>2022-12-25T09:18:05.347Z</time>
      </trkpt>
      <trkpt lat="44.87237" lon="-1.09193">
        <ele>71.38029</ele>
        <time>2022-12-25T09:18:08.354Z</time>
      </trkpt>
      <trkpt lat="44.87227" lon="-1.09186">
        <ele>71.329047</ele>
        <time>2022-12-25T09:18:11.362Z</time>
      </trkpt>
      <trkpt lat="44.87218" lon="-1.09178">
        <ele>71.281485</ele>
        <time>2022-12-25T09:18:14.358Z</time>
      </trkpt>
      <trkpt lat="44.87209" lon="-1.09172">
        <ele>71.235926</ele>
        <time>2022-12-25T09:18:17.340Z</time>
      </trkpt>
      <trkpt lat="44.87199" lon="-1.09165">
        <ele>71.187333</ele>
        <time>2022-12-25T09:18:20.347Z</time>
      </trkpt>
      <trkpt lat="44.87189" lon="-1.09158">
        <ele>71.136485</ele>
        <time>2022-12-25T09:18:23.364Z</time>
      </trkpt>
      <trkpt lat="44.87179" lon="-1.09151">
        <ele>71.085106</ele>
        <time>2022-12-25T09:18:26.357Z</time>
      </trkpt>
      <trkpt lat="44.87169" lon="-1.09144">
        <ele>71.032905</ele>
        <time>2022-12-25T09:18:29.345Z</time>
      </trkpt>
      <trkpt lat="44.87158" lon="-1.09136">
        <ele>70.98865</ele>
        <time>2022-12-25T09:18:32.362Z</time>
      </trkpt>
      <trkpt lat="44.87148" lon="-1.09129">
        <ele>70.968473</ele>
        <time>2022-12-25T09:18:35.359Z</time>
      </trkpt>
      <trkpt lat="44.87137" lon="-1.09122">
        <ele>70.948445</ele>
        <time>2022-12-25T09:18:38.357Z</time>
      </trkpt>
      <trkpt lat="44.87126" lon="-1.09115">
        <ele>70.928011</ele>
        <time>2022-12-25T09:18:41.359Z</time>
      </trkpt>
      <trkpt lat="44.87115" lon="-1.09107">
        <ele>70.90737</ele>
        <time>2022-12-25T09:18:44.343Z</time>
      </trkpt>
      <trkpt lat="44.87105" lon="-1.091">
        <ele>70.887708</ele>
        <time>2022-12-25T09:18:47.346Z</time>
      </trkpt>
      <trkpt lat="44.87094" lon="-1.09093">
        <ele>70.868043</ele>
        <time>2022-12-25T09:18:50.344Z</time>
      </trkpt>
      <trkpt lat="44.87084" lon="-1.09086">
        <ele>70.848227</ele>
        <time>2022-12-25T09:18:53.342Z</time>
      </trkpt>
      <trkpt lat="44.87074" lon="-1.0908">
        <ele>70.829337</ele>
        <time>2022-12-25T09:18:56.368Z</time>
      </trkpt>
      <trkpt lat="44.87064" lon="-1.09073">
        <ele>70.809722</ele>
        <time>2022-12-25T09:18:59.360Z</time>
      </trkpt>
      <trkpt lat="44.87053" lon="-1.09065">
        <ele>70.788822</ele>
        <time>2022-12-25T09:19:02.357Z</time>
      </trkpt>
      <trkpt lat="44.87041" lon="-1.09058">
        <ele>70.76787</ele>
        <time>2022-12-25T09:19:05.347Z</time>
      </trkpt>
      <trkpt lat="44.87031" lon="-1.0905">
        <ele>70.747112</ele>
        <time>2022-12-25T09:19:08.350Z</time>
      </trkpt>
      <trkpt lat="44.8702" lon="-1.09043">
        <ele>70.72647</ele>
        <time>2022-12-25T09:19:11.350Z</time>
      </trkpt>
      <trkpt lat="44.87009" lon="-1.09036">
        <ele>70.706802</ele>
        <time>2022-12-25T09:19:14.349Z</time>
      </trkpt>
      <trkpt lat="44.86998" lon="-1.09028">
        <ele>70.687419</ele>
        <time>2022-12-25T09:19:17.356Z</time>
      </trkpt>
      <trkpt lat="44.86986" lon="-1.0902">
        <ele>70.715993</ele>
        <time>2022-12-25T09:19:20.341Z</time>
      </trkpt>
      <trkpt lat="44.86974" lon="-1.09013">
        <ele>70.74445</ele>
        <time>2022-12-25T09:19:23.353Z</time>
      </trkpt>
      <trkpt lat="44.86962" lon="-1.09007">
        <ele>70.772128</ele>
        <time>2022-12-25T09:19:26.357Z</time>
      </trkpt>
      <trkpt lat="44.86951" lon="-1.09003">
        <ele>70.798344</ele>
        <time>2022-12-25T09:19:29.345Z</time>
      </trkpt>
      <trkpt lat="44.8694" lon="-1.09">
        <ele>70.822558</ele>
        <time>2022-12-25T09:19:32.353Z</time>
      </trkpt>
      <trkpt lat="44.86929" lon="-1.08998">
        <ele>70.846691</ele>
        <time>2022-12-25T09:19:35.358Z</time>
      </trkpt>
      <trkpt lat="44.86918" lon="-1.08997">
        <ele>70.87112</ele>
        <time>2022-12-25T09:19:38.356Z</time>
      </trkpt>
      <trkpt lat="44.86906" lon="-1.08996">
        <ele>70.896026</ele>
        <time>2022-12-25T09:19:41.358Z</time>
      </trkpt>
      <trkpt lat="44.86895" lon="-1.08995">
        <ele>70.921317</ele>
        <time>2022-12-25T09:19:44.354Z</time>
      </trkpt>
      <trkpt lat="44.86883" lon="-1.08994">
        <ele>70.945777</ele>
        <time>2022-12-25T09:19:47.355Z</time>
      </trkpt>
      <trkpt lat="44.86874" lon="-1.08992">
        <ele>70.965912</ele>
        <time>2022-12-25T09:19:50.361Z</time>
      </trkpt>
      <trkpt lat="44.86865" lon="-1.08992">
        <ele>70.98552</ele>
        <time>2022-12-25T09:19:53.367Z</time>
      </trkpt>
      <trkpt lat="44.86855" lon="-1.08991">
        <ele>71.006897</ele>
        <time>2022-12-25T09:19:56.338Z</time>
      </trkpt>
      <trkpt lat="44.86845" lon="-1.0899">
        <ele>71.028728</ele>
        <time>2022-12-25T09:19:59.343Z</time>
      </trkpt>
      <trkpt lat="44.86835" lon="-1.0899">
        <ele>71.05182</ele>
        <time>2022-12-25T09:20:02.361Z</time>
      </trkpt>
      <trkpt lat="44.86824" lon="-1.08988">
        <ele>71.076292</ele>
        <time>2022-12-25T09:20:05.365Z</time>
      </trkpt>
      <trkpt lat="44.86812" lon="-1.08987">
        <ele>71.02751</ele>
        <time>2022-12-25T09:20:08.362Z</time>
      </trkpt>
      <trkpt lat="44.86801" lon="-1.08986">
        <ele>70.970908</ele>
        <time>2022-12-25T09:20:11.366Z</time>
      </trkpt>
      <trkpt lat="44.86789" lon="-1.08985">
        <ele>70.912929</ele>
        <time>2022-12-25T09:20:14.356Z</time>
      </trkpt>
      <trkpt lat="44.86777" lon="-1.08984">
        <ele>70.855534</ele>
        <time>2022-12-25T09:20:17.361Z</time>
      </trkpt>
      <trkpt lat="44.86765" lon="-1.08983">
        <ele>70.799033</ele>
        <time>2022-12-25T09:20:20.355Z</time>
      </trkpt>
      <trkpt lat="44.86753" lon="-1.08982">
        <ele>70.740627</ele>
        <time>2022-12-25T09:20:23.358Z</time>
      </trkpt>
      <trkpt lat="44.86741" lon="-1.08982">
        <ele>70.682286</ele>
        <time>2022-12-25T09:20:26.369Z</time>
      </trkpt>
      <trkpt lat="44.86729" lon="-1.08984">
        <ele>70.623288</ele>
        <time>2022-12-25T09:20:29.368Z</time>
      </trkpt>
      <trkpt lat="44.86717" lon="-1.08987">
        <ele>70.564038</ele>
        <time>2022-12-25T09:20:32.353Z</time>
      </trkpt>
      <trkpt lat="44.86707" lon="-1.08992">
        <ele>70.50959</ele>
        <time>2022-12-25T09:20:35.362Z</time>
      </trkpt>
      <trkpt lat="44.86697" lon="-1.08999">
        <ele>70.455282</ele>
        <time>2022-12-25T09:20:38.349Z</time>
      </trkpt>
      <trkpt lat="44.86687" lon="-1.09007">
        <ele>70.399644</ele>
        <time>2022-12-25T09:20:41.355Z</time>
      </trkpt>
      <trkpt lat="44.86677" lon="-1.09017">
        <ele>70.341629</ele>
        <time>2022-12-25T09:20:44.357Z</time>
      </trkpt>
      <trkpt lat="44.86667" lon="-1.09026">
        <ele>70.281207</ele>
        <time>2022-12-25T09:20:47.353Z</time>
      </trkpt>
      <trkpt lat="44.86657" lon="-1.09036">
        <ele>70.223595</ele>
        <time>2022-12-25T09:20:50.355Z</time>
      </trkpt>
      <trkpt lat="44.86648" lon="-1.09044">
        <ele>70.181608</ele>
        <time>2022-12-25T09:20:53.361Z</time>
      </trkpt>
      <trkpt lat="44.8664" lon="-1.09051">
        <ele>70.14956</ele>
        <time>2022-12-25T09:20:56.337Z</time>
      </trkpt>
      <trkpt lat="44.86631" lon="-1.0906">
        <ele>70.11382</ele>
        <time>2022-12-25T09:20:59.352Z</time>
      </trkpt>
      <trkpt lat="44.86621" lon="-1.09069">
        <ele>70.074636</ele>
        <time>2022-12-25T09:21:02.353Z</time>
      </trkpt>
      <trkpt lat="44.86612" lon="-1.09078">
        <ele>70.035319</ele>
        <time>2022-12-25T09:21:05.361Z</time>
      </trkpt>
      <trkpt lat="44.86602" lon="-1.09086">
        <ele>69.997446</ele>
        <time>2022-12-25T09:21:08.361Z</time>
      </trkpt>
      <trkpt lat="44.86593" lon="-1.09095">
        <ele>69.960453</ele>
        <time>2022-12-25T09:21:11.372Z</time>
      </trkpt>
      <trkpt lat="44.86584" lon="-1.09103">
        <ele>69.923873</ele>
        <time>2022-12-25T09:21:14.358Z</time>
      </trkpt>
      <trkpt lat="44.86574" lon="-1.09113">
        <ele>69.88304</ele>
        <time>2022-12-25T09:21:17.360Z</time>
      </trkpt>
      <trkpt lat="44.86564" lon="-1.09121">
        <ele>69.842698</ele>
        <time>2022-12-25T09:21:20.343Z</time>
      </trkpt>
      <trkpt lat="44.86553" lon="-1.09131">
        <ele>69.802387</ele>
        <time>2022-12-25T09:21:23.367Z</time>
      </trkpt>
      <trkpt lat="44.86542" lon="-1.0914">
        <ele>69.758497</ele>
        <time>2022-12-25T09:21:26.355Z</time>
      </trkpt>
      <trkpt lat="44.86532" lon="-1.0915">
        <ele>69.717515</ele>
        <time>2022-12-25T09:21:29.347Z</time>
      </trkpt>
      <trkpt lat="44.86522" lon="-1.09159">
        <ele>69.677094</ele>
        <time>2022-12-25T09:21:32.359Z</time>
      </trkpt>
      <trkpt lat="44.86512" lon="-1.09168">
        <ele>69.637348</ele>
        <time>2022-12-25T09:21:35.359Z</time>
      </trkpt>
      <trkpt lat="44.86502" lon="-1.09178">
        <ele>69.601354</ele>
        <time>2022-12-25T09:21:38.369Z</time>
      </trkpt>
      <trkpt lat="44.86491" lon="-1.09188">
        <ele>69.623915</ele>
        <time>2022-12-25T09:21:41.360Z</time>
      </trkpt>
      <trkpt lat="44.86481" lon="-1.09198">
        <ele>69.646275</ele>
        <time>2022-12-25T09:21:44.357Z</time>
      </trkpt>
      <trkpt lat="44.8647" lon="-1.09207">
        <ele>69.668855</ele>
        <time>2022-12-25T09:21:47.348Z</time>
      </trkpt>
      <trkpt lat="44.8646" lon="-1.09217">
        <ele>69.691147</ele>
        <time>2022-12-25T09:21:50.354Z</time>
      </trkpt>
      <trkpt lat="44.86449" lon="-1.09226">
        <ele>69.713457</ele>
        <time>2022-12-25T09:21:53.364Z</time>
      </trkpt>
      <trkpt lat="44.86439" lon="-1.09235">
        <ele>69.73435</ele>
        <time>2022-12-25T09:21:56.356Z</time>
      </trkpt>
      <trkpt lat="44.86429" lon="-1.09245">
        <ele>69.757208</ele>
        <time>2022-12-25T09:21:59.358Z</time>
      </trkpt>
      <trkpt lat="44.86418" lon="-1.09255">
        <ele>69.780666</ele>
        <time>2022-12-25T09:22:02.351Z</time>
      </trkpt>
      <trkpt lat="44.86407" lon="-1.09265">
        <ele>69.804106</ele>
        <time>2022-12-25T09:22:05.354Z</time>
      </trkpt>
      <trkpt lat="44.86396" lon="-1.09274">
        <ele>69.826044</ele>
        <time>2022-12-25T09:22:08.358Z</time>
      </trkpt>
      <trkpt lat="44.86387" lon="-1.09282">
        <ele>69.846186</ele>
        <time>2022-12-25T09:22:11.366Z</time>
      </trkpt>
      <trkpt lat="44.86377" lon="-1.09292">
        <ele>69.867287</ele>
        <time>2022-12-25T09:22:14.367Z</time>
      </trkpt>
      <trkpt lat="44.86366" lon="-1.09302">
        <ele>69.890212</ele>
        <time>2022-12-25T09:22:17.338Z</time>
      </trkpt>
      <trkpt lat="44.86356" lon="-1.09313">
        <ele>69.913503</ele>
        <time>2022-12-25T09:22:20.357Z</time>
      </trkpt>
      <trkpt lat="44.86345" lon="-1.09323">
        <ele>69.871774</ele>
        <time>2022-12-25T09:22:23.370Z</time>
      </trkpt>
      <trkpt lat="44.86334" lon="-1.09333">
        <ele>69.794241</ele>
        <time>2022-12-25T09:22:26.359Z</time>
      </trkpt>
      <trkpt lat="44.86326" lon="-1.0934">
        <ele>69.736041</ele>
        <time>2022-12-25T09:22:28.359Z</time>
      </trkpt>
      <trkpt lat="44.86315" lon="-1.0935">
        <ele>69.658244</ele>
        <time>2022-12-25T09:22:31.354Z</time>
      </trkpt>
      <trkpt lat="44.86305" lon="-1.0936">
        <ele>69.585256</ele>
        <time>2022-12-25T09:22:34.361Z</time>
      </trkpt>
      <trkpt lat="44.86294" lon="-1.09369">
        <ele>69.509591</ele>
        <time>2022-12-25T09:22:37.371Z</time>
      </trkpt>
      <trkpt lat="44.86283" lon="-1.0938">
        <ele>69.431355</ele>
        <time>2022-12-25T09:22:40.367Z</time>
      </trkpt>
      <trkpt lat="44.86272" lon="-1.0939">
        <ele>69.354821</ele>
        <time>2022-12-25T09:22:43.362Z</time>
      </trkpt>
      <trkpt lat="44.86261" lon="-1.094">
        <ele>69.276979</ele>
        <time>2022-12-25T09:22:46.362Z</time>
      </trkpt>
      <trkpt lat="44.86251" lon="-1.0941">
        <ele>69.200633</ele>
        <time>2022-12-25T09:22:49.349Z</time>
      </trkpt>
      <trkpt lat="44.86239" lon="-1.0942">
        <ele>69.123237</ele>
        <time>2022-12-25T09:22:52.361Z</time>
      </trkpt>
      <trkpt lat="44.86229" lon="-1.0943">
        <ele>69.045727</ele>
        <time>2022-12-25T09:22:55.359Z</time>
      </trkpt>
      <trkpt lat="44.86218" lon="-1.0944">
        <ele>68.968943</ele>
        <time>2022-12-25T09:22:58.357Z</time>
      </trkpt>
      <trkpt lat="44.86207" lon="-1.09451">
        <ele>68.891669</ele>
        <time>2022-12-25T09:23:01.356Z</time>
      </trkpt>
      <trkpt lat="44.86197" lon="-1.09461">
        <ele>68.874869</ele>
        <time>2022-12-25T09:23:04.352Z</time>
      </trkpt>
      <trkpt lat="44.86186" lon="-1.0947">
        <ele>68.912788</ele>
        <time>2022-12-25T09:23:07.355Z</time>
      </trkpt>
      <trkpt lat="44.86176" lon="-1.0948">
        <ele>68.950322</ele>
        <time>2022-12-25T09:23:10.356Z</time>
      </trkpt>
      <trkpt lat="44.86166" lon="-1.0949">
        <ele>68.989609</ele>
        <time>2022-12-25T09:23:13.357Z</time>
      </trkpt>
      <trkpt lat="44.86155" lon="-1.09501">
        <ele>69.028266</ele>
        <time>2022-12-25T09:23:16.353Z</time>
      </trkpt>
      <trkpt lat="44.86144" lon="-1.09512">
        <ele>69.07018</ele>
        <time>2022-12-25T09:23:19.369Z</time>
      </trkpt>
      <trkpt lat="44.86134" lon="-1.09522">
        <ele>69.108962</ele>
        <time>2022-12-25T09:23:22.355Z</time>
      </trkpt>
      <trkpt lat="44.86126" lon="-1.09529">
        <ele>69.137114</ele>
        <time>2022-12-25T09:23:24.359Z</time>
      </trkpt>
      <trkpt lat="44.86119" lon="-1.09537">
        <ele>69.164894</ele>
        <time>2022-12-25T09:23:26.359Z</time>
      </trkpt>
      <trkpt lat="44.86108" lon="-1.09547">
        <ele>69.204587</ele>
        <time>2022-12-25T09:23:29.360Z</time>
      </trkpt>
      <trkpt lat="44.86097" lon="-1.09557">
        <ele>69.244892</ele>
        <time>2022-12-25T09:23:32.365Z</time>
      </trkpt>
      <trkpt lat="44.86086" lon="-1.09567">
        <ele>69.284191</ele>
        <time>2022-12-25T09:23:35.345Z</time>
      </trkpt>
      <trkpt lat="44.86076" lon="-1.09577">
        <ele>69.322853</ele>
        <time>2022-12-25T09:23:38.369Z</time>
      </trkpt>
      <trkpt lat="44.86066" lon="-1.09586">
        <ele>69.358896</ele>
        <time>2022-12-25T09:23:41.360Z</time>
      </trkpt>
      <trkpt lat="44.86057" lon="-1.09594">
        <ele>69.390459</ele>
        <time>2022-12-25T09:23:44.363Z</time>
      </trkpt>
      <trkpt lat="44.86049" lon="-1.09602">
        <ele>69.40715</ele>
        <time>2022-12-25T09:23:47.368Z</time>
      </trkpt>
      <trkpt lat="44.8604" lon="-1.09611">
        <ele>69.410312</ele>
        <time>2022-12-25T09:23:50.366Z</time>
      </trkpt>
      <trkpt lat="44.8603" lon="-1.0962">
        <ele>69.413815</ele>
        <time>2022-12-25T09:23:53.359Z</time>
      </trkpt>
      <trkpt lat="44.86019" lon="-1.0963">
        <ele>69.417435</ele>
        <time>2022-12-25T09:23:56.358Z</time>
      </trkpt>
      <trkpt lat="44.86009" lon="-1.0964">
        <ele>69.421044</ele>
        <time>2022-12-25T09:23:59.357Z</time>
      </trkpt>
      <trkpt lat="44.85998" lon="-1.09651">
        <ele>69.424791</ele>
        <time>2022-12-25T09:24:02.360Z</time>
      </trkpt>
      <trkpt lat="44.85987" lon="-1.09661">
        <ele>69.428574</ele>
        <time>2022-12-25T09:24:05.363Z</time>
      </trkpt>
      <trkpt lat="44.85977" lon="-1.09672">
        <ele>69.432299</ele>
        <time>2022-12-25T09:24:08.357Z</time>
      </trkpt>
      <trkpt lat="44.85966" lon="-1.09682">
        <ele>69.436034</ele>
        <time>2022-12-25T09:24:11.371Z</time>
      </trkpt>
      <trkpt lat="44.85955" lon="-1.09693">
        <ele>69.439782</ele>
        <time>2022-12-25T09:24:14.359Z</time>
      </trkpt>
      <trkpt lat="44.85944" lon="-1.09703">
        <ele>69.443577</ele>
        <time>2022-12-25T09:24:17.361Z</time>
      </trkpt>
      <trkpt lat="44.85933" lon="-1.09713">
        <ele>69.44735</ele>
        <time>2022-12-25T09:24:20.367Z</time>
      </trkpt>
      <trkpt lat="44.85923" lon="-1.09723">
        <ele>69.450922</ele>
        <time>2022-12-25T09:24:23.349Z</time>
      </trkpt>
      <trkpt lat="44.85913" lon="-1.09734">
        <ele>69.454553</ele>
        <time>2022-12-25T09:24:26.363Z</time>
      </trkpt>
      <trkpt lat="44.85902" lon="-1.09744">
        <ele>69.45931</ele>
        <time>2022-12-25T09:24:29.360Z</time>
      </trkpt>
      <trkpt lat="44.85891" lon="-1.09754">
        <ele>69.467166</ele>
        <time>2022-12-25T09:24:32.358Z</time>
      </trkpt>
      <trkpt lat="44.85882" lon="-1.09763">
        <ele>69.47454</ele>
        <time>2022-12-25T09:24:35.361Z</time>
      </trkpt>
      <trkpt lat="44.85872" lon="-1.09772">
        <ele>69.481872</ele>
        <time>2022-12-25T09:24:38.362Z</time>
      </trkpt>
      <trkpt lat="44.85861" lon="-1.09782">
        <ele>69.489578</ele>
        <time>2022-12-25T09:24:41.365Z</time>
      </trkpt>
      <trkpt lat="44.8585" lon="-1.09793">
        <ele>69.49789</ele>
        <time>2022-12-25T09:24:44.354Z</time>
      </trkpt>
      <trkpt lat="44.85843" lon="-1.098">
        <ele>69.503598</ele>
        <time>2022-12-25T09:24:46.365Z</time>
      </trkpt>
      <trkpt lat="44.85835" lon="-1.09807">
        <ele>69.509408</ele>
        <time>2022-12-25T09:24:48.353Z</time>
      </trkpt>
      <trkpt lat="44.85827" lon="-1.09815">
        <ele>69.514939</ele>
        <time>2022-12-25T09:24:50.366Z</time>
      </trkpt>
      <trkpt lat="44.85816" lon="-1.09825">
        <ele>69.523231</ele>
        <time>2022-12-25T09:24:53.365Z</time>
      </trkpt>
      <trkpt lat="44.85806" lon="-1.09836">
        <ele>69.531315</ele>
        <time>2022-12-25T09:24:56.368Z</time>
      </trkpt>
      <trkpt lat="44.85795" lon="-1.09846">
        <ele>69.539348</ele>
        <time>2022-12-25T09:24:59.367Z</time>
      </trkpt>
      <trkpt lat="44.85784" lon="-1.09856">
        <ele>69.547357</ele>
        <time>2022-12-25T09:25:02.361Z</time>
      </trkpt>
      <trkpt lat="44.85773" lon="-1.09867">
        <ele>69.555567</ele>
        <time>2022-12-25T09:25:05.368Z</time>
      </trkpt>
      <trkpt lat="44.85762" lon="-1.09877">
        <ele>69.563574</ele>
        <time>2022-12-25T09:25:08.368Z</time>
      </trkpt>
      <trkpt lat="44.85752" lon="-1.09887">
        <ele>69.547994</ele>
        <time>2022-12-25T09:25:11.364Z</time>
      </trkpt>
      <trkpt lat="44.85742" lon="-1.09896">
        <ele>69.487509</ele>
        <time>2022-12-25T09:25:14.365Z</time>
      </trkpt>
      <trkpt lat="44.85732" lon="-1.09906">
        <ele>69.427663</ele>
        <time>2022-12-25T09:25:17.359Z</time>
      </trkpt>
      <trkpt lat="44.85722" lon="-1.09916">
        <ele>69.366766</ele>
        <time>2022-12-25T09:25:20.359Z</time>
      </trkpt>
      <trkpt lat="44.85711" lon="-1.09926">
        <ele>69.30531</ele>
        <time>2022-12-25T09:25:23.355Z</time>
      </trkpt>
      <trkpt lat="44.85702" lon="-1.09935">
        <ele>69.249883</ele>
        <time>2022-12-25T09:25:26.347Z</time>
      </trkpt>
      <trkpt lat="44.85694" lon="-1.09943">
        <ele>69.198673</ele>
        <time>2022-12-25T09:25:29.359Z</time>
      </trkpt>
      <trkpt lat="44.85685" lon="-1.09951">
        <ele>69.146156</ele>
        <time>2022-12-25T09:25:32.355Z</time>
      </trkpt>
      <trkpt lat="44.85675" lon="-1.09961">
        <ele>69.086507</ele>
        <time>2022-12-25T09:25:35.366Z</time>
      </trkpt>
      <trkpt lat="44.85665" lon="-1.09971">
        <ele>69.025658</ele>
        <time>2022-12-25T09:25:38.351Z</time>
      </trkpt>
      <trkpt lat="44.85655" lon="-1.09981">
        <ele>68.965811</ele>
        <time>2022-12-25T09:25:41.374Z</time>
      </trkpt>
      <trkpt lat="44.85645" lon="-1.09991">
        <ele>68.90476</ele>
        <time>2022-12-25T09:25:44.366Z</time>
      </trkpt>
      <trkpt lat="44.85634" lon="-1.10001">
        <ele>68.845479</ele>
        <time>2022-12-25T09:25:47.369Z</time>
      </trkpt>
      <trkpt lat="44.85625" lon="-1.1001">
        <ele>68.788436</ele>
        <time>2022-12-25T09:25:50.367Z</time>
      </trkpt>
      <trkpt lat="44.85615" lon="-1.10019">
        <ele>68.729992</ele>
        <time>2022-12-25T09:25:53.362Z</time>
      </trkpt>
      <trkpt lat="44.85605" lon="-1.10028">
        <ele>68.674418</ele>
        <time>2022-12-25T09:25:56.358Z</time>
      </trkpt>
      <trkpt lat="44.85596" lon="-1.10038">
        <ele>68.62804</ele>
        <time>2022-12-25T09:25:59.370Z</time>
      </trkpt>
      <trkpt lat="44.85588" lon="-1.10046">
        <ele>68.587003</ele>
        <time>2022-12-25T09:26:02.361Z</time>
      </trkpt>
      <trkpt lat="44.85579" lon="-1.10054">
        <ele>68.544434</ele>
        <time>2022-12-25T09:26:05.357Z</time>
      </trkpt>
      <trkpt lat="44.8557" lon="-1.10064">
        <ele>68.497085</ele>
        <time>2022-12-25T09:26:08.368Z</time>
      </trkpt>
      <trkpt lat="44.8556" lon="-1.10073">
        <ele>68.449396</ele>
        <time>2022-12-25T09:26:11.367Z</time>
      </trkpt>
      <trkpt lat="44.8555" lon="-1.10083">
        <ele>68.401544</ele>
        <time>2022-12-25T09:26:14.353Z</time>
      </trkpt>
      <trkpt lat="44.8554" lon="-1.10092">
        <ele>68.352842</ele>
        <time>2022-12-25T09:26:17.373Z</time>
      </trkpt>
      <trkpt lat="44.8553" lon="-1.10102">
        <ele>68.302498</ele>
        <time>2022-12-25T09:26:20.358Z</time>
      </trkpt>
      <trkpt lat="44.8552" lon="-1.10112">
        <ele>68.251981</ele>
        <time>2022-12-25T09:26:23.364Z</time>
      </trkpt>
      <trkpt lat="44.8551" lon="-1.10121">
        <ele>68.202638</ele>
        <time>2022-12-25T09:26:26.364Z</time>
      </trkpt>
      <trkpt lat="44.85499" lon="-1.10132">
        <ele>68.150635</ele>
        <time>2022-12-25T09:26:29.358Z</time>
      </trkpt>
      <trkpt lat="44.85489" lon="-1.10142">
        <ele>68.098468</ele>
        <time>2022-12-25T09:26:32.363Z</time>
      </trkpt>
      <trkpt lat="44.85478" lon="-1.10153">
        <ele>68.045137</ele>
        <time>2022-12-25T09:26:35.362Z</time>
      </trkpt>
      <trkpt lat="44.85468" lon="-1.10163">
        <ele>67.992969</ele>
        <time>2022-12-25T09:26:38.358Z</time>
      </trkpt>
      <trkpt lat="44.85457" lon="-1.10174">
        <ele>67.953397</ele>
        <time>2022-12-25T09:26:41.362Z</time>
      </trkpt>
      <trkpt lat="44.85446" lon="-1.10183">
        <ele>67.954781</ele>
        <time>2022-12-25T09:26:44.364Z</time>
      </trkpt>
      <trkpt lat="44.85435" lon="-1.10194">
        <ele>67.956172</ele>
        <time>2022-12-25T09:26:47.361Z</time>
      </trkpt>
      <trkpt lat="44.85425" lon="-1.10205">
        <ele>67.957546</ele>
        <time>2022-12-25T09:26:50.354Z</time>
      </trkpt>
      <trkpt lat="44.85414" lon="-1.10215">
        <ele>67.958962</ele>
        <time>2022-12-25T09:26:53.370Z</time>
      </trkpt>
      <trkpt lat="44.85403" lon="-1.10225">
        <ele>67.960354</ele>
        <time>2022-12-25T09:26:56.353Z</time>
      </trkpt>
      <trkpt lat="44.85392" lon="-1.10236">
        <ele>67.961771</ele>
        <time>2022-12-25T09:26:59.370Z</time>
      </trkpt>
      <trkpt lat="44.85381" lon="-1.10247">
        <ele>67.963141</ele>
        <time>2022-12-25T09:27:02.365Z</time>
      </trkpt>
      <trkpt lat="44.8537" lon="-1.10257">
        <ele>67.964536</ele>
        <time>2022-12-25T09:27:05.357Z</time>
      </trkpt>
      <trkpt lat="44.8536" lon="-1.10268">
        <ele>67.965896</ele>
        <time>2022-12-25T09:27:08.357Z</time>
      </trkpt>
      <trkpt lat="44.8535" lon="-1.10278">
        <ele>67.96724</ele>
        <time>2022-12-25T09:27:11.361Z</time>
      </trkpt>
      <trkpt lat="44.8534" lon="-1.10288">
        <ele>67.968506</ele>
        <time>2022-12-25T09:27:14.359Z</time>
      </trkpt>
      <trkpt lat="44.8533" lon="-1.10297">
        <ele>67.969816</ele>
        <time>2022-12-25T09:27:17.362Z</time>
      </trkpt>
      <trkpt lat="44.85319" lon="-1.10307">
        <ele>67.971185</ele>
        <time>2022-12-25T09:27:20.362Z</time>
      </trkpt>
      <trkpt lat="44.85311" lon="-1.10314">
        <ele>67.972134</ele>
        <time>2022-12-25T09:27:22.360Z</time>
      </trkpt>
      <trkpt lat="44.85304" lon="-1.10323">
        <ele>67.966116</ele>
        <time>2022-12-25T09:27:24.357Z</time>
      </trkpt>
      <trkpt lat="44.85296" lon="-1.1033">
        <ele>67.959982</ele>
        <time>2022-12-25T09:27:26.348Z</time>
      </trkpt>
      <trkpt lat="44.85289" lon="-1.10338">
        <ele>67.953849</ele>
        <time>2022-12-25T09:27:28.358Z</time>
      </trkpt>
      <trkpt lat="44.85278" lon="-1.1035">
        <ele>67.944921</ele>
        <time>2022-12-25T09:27:31.368Z</time>
      </trkpt>
      <trkpt lat="44.85269" lon="-1.10361">
        <ele>67.936558</ele>
        <time>2022-12-25T09:27:34.363Z</time>
      </trkpt>
      <trkpt lat="44.85259" lon="-1.10373">
        <ele>67.928265</ele>
        <time>2022-12-25T09:27:37.352Z</time>
      </trkpt>
      <trkpt lat="44.8525" lon="-1.10385">
        <ele>67.920078</ele>
        <time>2022-12-25T09:27:40.351Z</time>
      </trkpt>
      <trkpt lat="44.85241" lon="-1.10397">
        <ele>67.911924</ele>
        <time>2022-12-25T09:27:43.362Z</time>
      </trkpt>
      <trkpt lat="44.85231" lon="-1.10408">
        <ele>67.903792</ele>
        <time>2022-12-25T09:27:46.353Z</time>
      </trkpt>
      <trkpt lat="44.85222" lon="-1.1042">
        <ele>67.895334</ele>
        <time>2022-12-25T09:27:49.347Z</time>
      </trkpt>
      <trkpt lat="44.85213" lon="-1.10433">
        <ele>67.886587</ele>
        <time>2022-12-25T09:27:52.366Z</time>
      </trkpt>
      <trkpt lat="44.85206" lon="-1.10443">
        <ele>67.880252</ele>
        <time>2022-12-25T09:27:54.357Z</time>
      </trkpt>
      <trkpt lat="44.852" lon="-1.10452">
        <ele>67.874338</ele>
        <time>2022-12-25T09:27:56.362Z</time>
      </trkpt>
      <trkpt lat="44.85193" lon="-1.10462">
        <ele>67.868379</ele>
        <time>2022-12-25T09:27:58.366Z</time>
      </trkpt>
      <trkpt lat="44.85185" lon="-1.10474">
        <ele>67.860236</ele>
        <time>2022-12-25T09:28:01.365Z</time>
      </trkpt>
      <trkpt lat="44.85176" lon="-1.10487">
        <ele>67.858298</ele>
        <time>2022-12-25T09:28:04.354Z</time>
      </trkpt>
      <trkpt lat="44.85167" lon="-1.105">
        <ele>67.879318</ele>
        <time>2022-12-25T09:28:07.365Z</time>
      </trkpt>
      <trkpt lat="44.85158" lon="-1.10512">
        <ele>67.900083</ele>
        <time>2022-12-25T09:28:10.359Z</time>
      </trkpt>
      <trkpt lat="44.85148" lon="-1.10526">
        <ele>67.922126</ele>
        <time>2022-12-25T09:28:13.351Z</time>
      </trkpt>
      <trkpt lat="44.85139" lon="-1.10539">
        <ele>67.943657</ele>
        <time>2022-12-25T09:28:16.358Z</time>
      </trkpt>
      <trkpt lat="44.8513" lon="-1.10551">
        <ele>67.963918</ele>
        <time>2022-12-25T09:28:19.368Z</time>
      </trkpt>
      <trkpt lat="44.85121" lon="-1.10565">
        <ele>67.985524</ele>
        <time>2022-12-25T09:28:22.357Z</time>
      </trkpt>
      <trkpt lat="44.85112" lon="-1.10578">
        <ele>68.007137</ele>
        <time>2022-12-25T09:28:25.360Z</time>
      </trkpt>
      <trkpt lat="44.85102" lon="-1.10591">
        <ele>68.028982</ele>
        <time>2022-12-25T09:28:28.358Z</time>
      </trkpt>
      <trkpt lat="44.85094" lon="-1.10604">
        <ele>68.04969</ele>
        <time>2022-12-25T09:28:31.360Z</time>
      </trkpt>
      <trkpt lat="44.85085" lon="-1.10615">
        <ele>68.068267</ele>
        <time>2022-12-25T09:28:34.358Z</time>
      </trkpt>
      <trkpt lat="44.85077" lon="-1.10626">
        <ele>68.087094</ele>
        <time>2022-12-25T09:28:37.369Z</time>
      </trkpt>
      <trkpt lat="44.85068" lon="-1.10638">
        <ele>68.107501</ele>
        <time>2022-12-25T09:28:40.343Z</time>
      </trkpt>
      <trkpt lat="44.85059" lon="-1.10651">
        <ele>68.128209</ele>
        <time>2022-12-25T09:28:43.361Z</time>
      </trkpt>
      <trkpt lat="44.8505" lon="-1.10664">
        <ele>68.146219</ele>
        <time>2022-12-25T09:28:46.348Z</time>
      </trkpt>
      <trkpt lat="44.85042" lon="-1.10676">
        <ele>68.094941</ele>
        <time>2022-12-25T09:28:49.355Z</time>
      </trkpt>
      <trkpt lat="44.85033" lon="-1.10689">
        <ele>68.043577</ele>
        <time>2022-12-25T09:28:52.366Z</time>
      </trkpt>
      <trkpt lat="44.85024" lon="-1.10702">
        <ele>67.990816</ele>
        <time>2022-12-25T09:28:55.356Z</time>
      </trkpt>
      <trkpt lat="44.85015" lon="-1.10715">
        <ele>67.936324</ele>
        <time>2022-12-25T09:28:58.356Z</time>
      </trkpt>
      <trkpt lat="44.85006" lon="-1.10728">
        <ele>67.881832</ele>
        <time>2022-12-25T09:29:01.358Z</time>
      </trkpt>
      <trkpt lat="44.84997" lon="-1.10741">
        <ele>67.828212</ele>
        <time>2022-12-25T09:29:04.359Z</time>
      </trkpt>
      <trkpt lat="44.84987" lon="-1.10754">
        <ele>67.77372</ele>
        <time>2022-12-25T09:29:07.355Z</time>
      </trkpt>
      <trkpt lat="44.84978" lon="-1.10767">
        <ele>67.719228</ele>
        <time>2022-12-25T09:29:10.349Z</time>
      </trkpt>
      <trkpt lat="44.84969" lon="-1.1078">
        <ele>67.664819</ele>
        <time>2022-12-25T09:29:13.353Z</time>
      </trkpt>
      <trkpt lat="44.8496" lon="-1.10793">
        <ele>67.611654</ele>
        <time>2022-12-25T09:29:16.355Z</time>
      </trkpt>
      <trkpt lat="44.84953" lon="-1.10803">
        <ele>67.572347</ele>
        <time>2022-12-25T09:29:18.346Z</time>
      </trkpt>
      <trkpt lat="44.84944" lon="-1.10816">
        <ele>67.517437</ele>
        <time>2022-12-25T09:29:21.356Z</time>
      </trkpt>
      <trkpt lat="44.84935" lon="-1.10828">
        <ele>67.465949</ele>
        <time>2022-12-25T09:29:24.362Z</time>
      </trkpt>
      <trkpt lat="44.84926" lon="-1.10841">
        <ele>67.413167</ele>
        <time>2022-12-25T09:29:27.357Z</time>
      </trkpt>
      <trkpt lat="44.84918" lon="-1.10854">
        <ele>67.355319</ele>
        <time>2022-12-25T09:29:30.347Z</time>
      </trkpt>
      <trkpt lat="44.84909" lon="-1.10867">
        <ele>67.293491</ele>
        <time>2022-12-25T09:29:33.361Z</time>
      </trkpt>
      <trkpt lat="44.849" lon="-1.10879">
        <ele>67.233755</ele>
        <time>2022-12-25T09:29:36.344Z</time>
      </trkpt>
      <trkpt lat="44.84892" lon="-1.1089">
        <ele>67.182233</ele>
        <time>2022-12-25T09:29:39.358Z</time>
      </trkpt>
      <trkpt lat="44.84885" lon="-1.10901">
        <ele>67.13037</ele>
        <time>2022-12-25T09:29:42.360Z</time>
      </trkpt>
      <trkpt lat="44.84878" lon="-1.10911">
        <ele>67.081179</ele>
        <time>2022-12-25T09:29:45.355Z</time>
      </trkpt>
      <trkpt lat="44.8487" lon="-1.10922">
        <ele>67.027345</ele>
        <time>2022-12-25T09:29:48.354Z</time>
      </trkpt>
      <trkpt lat="44.84861" lon="-1.10933">
        <ele>66.971011</ele>
        <time>2022-12-25T09:29:51.359Z</time>
      </trkpt>
      <trkpt lat="44.84854" lon="-1.10945">
        <ele>66.916675</ele>
        <time>2022-12-25T09:29:54.355Z</time>
      </trkpt>
      <trkpt lat="44.84846" lon="-1.10957">
        <ele>66.861844</ele>
        <time>2022-12-25T09:29:57.344Z</time>
      </trkpt>
      <trkpt lat="44.84838" lon="-1.10968">
        <ele>66.806676</ele>
        <time>2022-12-25T09:30:00.352Z</time>
      </trkpt>
      <trkpt lat="44.8483" lon="-1.1098">
        <ele>66.749759</ele>
        <time>2022-12-25T09:30:03.363Z</time>
      </trkpt>
      <trkpt lat="44.84821" lon="-1.10992">
        <ele>66.691525</ele>
        <time>2022-12-25T09:30:06.351Z</time>
      </trkpt>
      <trkpt lat="44.84813" lon="-1.11004">
        <ele>66.632615</ele>
        <time>2022-12-25T09:30:09.364Z</time>
      </trkpt>
      <trkpt lat="44.84804" lon="-1.11017">
        <ele>66.572435</ele>
        <time>2022-12-25T09:30:12.372Z</time>
      </trkpt>
      <trkpt lat="44.84795" lon="-1.11028">
        <ele>66.523906</ele>
        <time>2022-12-25T09:30:15.359Z</time>
      </trkpt>
      <trkpt lat="44.84786" lon="-1.11041">
        <ele>66.494191</ele>
        <time>2022-12-25T09:30:18.362Z</time>
      </trkpt>
      <trkpt lat="44.84777" lon="-1.11054">
        <ele>66.46308</ele>
        <time>2022-12-25T09:30:21.355Z</time>
      </trkpt>
      <trkpt lat="44.84768" lon="-1.11067">
        <ele>66.43192</ele>
        <time>2022-12-25T09:30:24.361Z</time>
      </trkpt>
      <trkpt lat="44.84758" lon="-1.1108">
        <ele>66.399943</ele>
        <time>2022-12-25T09:30:27.361Z</time>
      </trkpt>
      <trkpt lat="44.84749" lon="-1.11094">
        <ele>66.368254</ele>
        <time>2022-12-25T09:30:30.350Z</time>
      </trkpt>
      <trkpt lat="44.8474" lon="-1.11107">
        <ele>66.337054</ele>
        <time>2022-12-25T09:30:33.356Z</time>
      </trkpt>
      <trkpt lat="44.84731" lon="-1.1112">
        <ele>66.306723</ele>
        <time>2022-12-25T09:30:36.372Z</time>
      </trkpt>
      <trkpt lat="44.84722" lon="-1.11133">
        <ele>66.275564</ele>
        <time>2022-12-25T09:30:39.355Z</time>
      </trkpt>
      <trkpt lat="44.84713" lon="-1.11144">
        <ele>66.246163</ele>
        <time>2022-12-25T09:30:42.364Z</time>
      </trkpt>
      <trkpt lat="44.84705" lon="-1.11156">
        <ele>66.218271</ele>
        <time>2022-12-25T09:30:45.364Z</time>
      </trkpt>
      <trkpt lat="44.84696" lon="-1.11168">
        <ele>66.189953</ele>
        <time>2022-12-25T09:30:48.352Z</time>
      </trkpt>
      <trkpt lat="44.84688" lon="-1.1118">
        <ele>66.160837</ele>
        <time>2022-12-25T09:30:51.361Z</time>
      </trkpt>
      <trkpt lat="44.84678" lon="-1.11192">
        <ele>66.130042</ele>
        <time>2022-12-25T09:30:54.347Z</time>
      </trkpt>
      <trkpt lat="44.84669" lon="-1.11206">
        <ele>66.107167</ele>
        <time>2022-12-25T09:30:57.349Z</time>
      </trkpt>
      <trkpt lat="44.84659" lon="-1.11219">
        <ele>66.126021</ele>
        <time>2022-12-25T09:31:00.352Z</time>
      </trkpt>
      <trkpt lat="44.8465" lon="-1.11232">
        <ele>66.144146</ele>
        <time>2022-12-25T09:31:03.369Z</time>
      </trkpt>
      <trkpt lat="44.84641" lon="-1.11244">
        <ele>66.161675</ele>
        <time>2022-12-25T09:31:06.357Z</time>
      </trkpt>
      <trkpt lat="44.84633" lon="-1.11256">
        <ele>66.178488</ele>
        <time>2022-12-25T09:31:09.350Z</time>
      </trkpt>
      <trkpt lat="44.84624" lon="-1.11268">
        <ele>66.195879</ele>
        <time>2022-12-25T09:31:12.360Z</time>
      </trkpt>
      <trkpt lat="44.84615" lon="-1.1128">
        <ele>66.213805</ele>
        <time>2022-12-25T09:31:15.355Z</time>
      </trkpt>
      <trkpt lat="44.84607" lon="-1.11292">
        <ele>66.230991</ele>
        <time>2022-12-25T09:31:18.364Z</time>
      </trkpt>
      <trkpt lat="44.84598" lon="-1.11304">
        <ele>66.248076</ele>
        <time>2022-12-25T09:31:21.350Z</time>
      </trkpt>
      <trkpt lat="44.84589" lon="-1.11316">
        <ele>66.265274</ele>
        <time>2022-12-25T09:31:24.355Z</time>
      </trkpt>
      <trkpt lat="44.84581" lon="-1.11328">
        <ele>66.28143</ele>
        <time>2022-12-25T09:31:27.364Z</time>
      </trkpt>
      <trkpt lat="44.84574" lon="-1.11337">
        <ele>66.295411</ele>
        <time>2022-12-25T09:31:30.361Z</time>
      </trkpt>
      <trkpt lat="44.84568" lon="-1.11347">
        <ele>66.308784</ele>
        <time>2022-12-25T09:31:33.348Z</time>
      </trkpt>
      <trkpt lat="44.8456" lon="-1.11357">
        <ele>66.323387</ele>
        <time>2022-12-25T09:31:36.358Z</time>
      </trkpt>
      <trkpt lat="44.84552" lon="-1.11368">
        <ele>66.339201</ele>
        <time>2022-12-25T09:31:39.363Z</time>
      </trkpt>
      <trkpt lat="44.84544" lon="-1.1138">
        <ele>66.356184</ele>
        <time>2022-12-25T09:31:42.356Z</time>
      </trkpt>
      <trkpt lat="44.84535" lon="-1.11392">
        <ele>66.317726</ele>
        <time>2022-12-25T09:31:45.356Z</time>
      </trkpt>
      <trkpt lat="44.84526" lon="-1.11405">
        <ele>66.269824</ele>
        <time>2022-12-25T09:31:48.369Z</time>
      </trkpt>
      <trkpt lat="44.84517" lon="-1.11417">
        <ele>66.221594</ele>
        <time>2022-12-25T09:31:51.344Z</time>
      </trkpt>
      <trkpt lat="44.84508" lon="-1.1143">
        <ele>66.172368</ele>
        <time>2022-12-25T09:31:54.355Z</time>
      </trkpt>
      <trkpt lat="44.84499" lon="-1.11443">
        <ele>66.123077</ele>
        <time>2022-12-25T09:31:57.358Z</time>
      </trkpt>
      <trkpt lat="44.8449" lon="-1.11455">
        <ele>66.075306</ele>
        <time>2022-12-25T09:32:00.343Z</time>
      </trkpt>
      <trkpt lat="44.84481" lon="-1.11467">
        <ele>66.028792</ele>
        <time>2022-12-25T09:32:03.354Z</time>
      </trkpt>
      <trkpt lat="44.84472" lon="-1.1148">
        <ele>65.979834</ele>
        <time>2022-12-25T09:32:06.360Z</time>
      </trkpt>
      <trkpt lat="44.84463" lon="-1.11493">
        <ele>65.929894</ele>
        <time>2022-12-25T09:32:09.340Z</time>
      </trkpt>
      <trkpt lat="44.84456" lon="-1.11502">
        <ele>65.895221</ele>
        <time>2022-12-25T09:32:11.345Z</time>
      </trkpt>
      <trkpt lat="44.84447" lon="-1.11515">
        <ele>65.845342</ele>
        <time>2022-12-25T09:32:14.342Z</time>
      </trkpt>
      <trkpt lat="44.84438" lon="-1.11527">
        <ele>65.798178</ele>
        <time>2022-12-25T09:32:17.369Z</time>
      </trkpt>
      <trkpt lat="44.84429" lon="-1.1154">
        <ele>65.749164</ele>
        <time>2022-12-25T09:32:20.357Z</time>
      </trkpt>
      <trkpt lat="44.8442" lon="-1.11553">
        <ele>65.698899</ele>
        <time>2022-12-25T09:32:23.349Z</time>
      </trkpt>
      <trkpt lat="44.84413" lon="-1.11562">
        <ele>65.665244</ele>
        <time>2022-12-25T09:32:25.364Z</time>
      </trkpt>
      <trkpt lat="44.84403" lon="-1.11575">
        <ele>65.623335</ele>
        <time>2022-12-25T09:32:28.366Z</time>
      </trkpt>
      <trkpt lat="44.84397" lon="-1.11585">
        <ele>65.594696</ele>
        <time>2022-12-25T09:32:30.349Z</time>
      </trkpt>
      <trkpt lat="44.8439" lon="-1.11594">
        <ele>65.566433</ele>
        <time>2022-12-25T09:32:32.369Z</time>
      </trkpt>
      <trkpt lat="44.84384" lon="-1.11603">
        <ele>65.536959</ele>
        <time>2022-12-25T09:32:34.355Z</time>
      </trkpt>
      <trkpt lat="44.84377" lon="-1.11613">
        <ele>65.50823</ele>
        <time>2022-12-25T09:32:36.353Z</time>
      </trkpt>
      <trkpt lat="44.8437" lon="-1.11622">
        <ele>65.477329</ele>
        <time>2022-12-25T09:32:38.360Z</time>
      </trkpt>
      <trkpt lat="44.84363" lon="-1.11632">
        <ele>65.446658</ele>
        <time>2022-12-25T09:32:40.365Z</time>
      </trkpt>
      <trkpt lat="44.84356" lon="-1.11642">
        <ele>65.416922</ele>
        <time>2022-12-25T09:32:42.368Z</time>
      </trkpt>
      <trkpt lat="44.84347" lon="-1.11654">
        <ele>65.377131</ele>
        <time>2022-12-25T09:32:45.357Z</time>
      </trkpt>
      <trkpt lat="44.84339" lon="-1.11666">
        <ele>65.3405</ele>
        <time>2022-12-25T09:32:48.361Z</time>
      </trkpt>
      <trkpt lat="44.8433" lon="-1.11678">
        <ele>65.302742</ele>
        <time>2022-12-25T09:32:51.370Z</time>
      </trkpt>
      <trkpt lat="44.84321" lon="-1.11691">
        <ele>65.262552</ele>
        <time>2022-12-25T09:32:54.347Z</time>
      </trkpt>
      <trkpt lat="44.84314" lon="-1.117">
        <ele>65.234509</ele>
        <time>2022-12-25T09:32:56.356Z</time>
      </trkpt>
      <trkpt lat="44.84308" lon="-1.11709">
        <ele>65.205561</ele>
        <time>2022-12-25T09:32:58.360Z</time>
      </trkpt>
      <trkpt lat="44.84301" lon="-1.11718">
        <ele>65.17594</ele>
        <time>2022-12-25T09:33:00.353Z</time>
      </trkpt>
      <trkpt lat="44.84295" lon="-1.11728">
        <ele>65.147534</ele>
        <time>2022-12-25T09:33:02.358Z</time>
      </trkpt>
      <trkpt lat="44.84288" lon="-1.11737">
        <ele>65.118961</ele>
        <time>2022-12-25T09:33:04.365Z</time>
      </trkpt>
      <trkpt lat="44.84279" lon="-1.1175">
        <ele>65.150988</ele>
        <time>2022-12-25T09:33:07.368Z</time>
      </trkpt>
      <trkpt lat="44.8427" lon="-1.11763">
        <ele>65.192298</ele>
        <time>2022-12-25T09:33:10.358Z</time>
      </trkpt>
      <trkpt lat="44.84263" lon="-1.11772">
        <ele>65.221039</ele>
        <time>2022-12-25T09:33:12.343Z</time>
      </trkpt>
      <trkpt lat="44.84256" lon="-1.11781">
        <ele>65.252193</ele>
        <time>2022-12-25T09:33:14.364Z</time>
      </trkpt>
      <trkpt lat="44.84249" lon="-1.1179">
        <ele>65.281861</ele>
        <time>2022-12-25T09:33:16.369Z</time>
      </trkpt>
      <trkpt lat="44.84243" lon="-1.118">
        <ele>65.311611</ele>
        <time>2022-12-25T09:33:18.365Z</time>
      </trkpt>
      <trkpt lat="44.84236" lon="-1.11809">
        <ele>65.341453</ele>
        <time>2022-12-25T09:33:20.359Z</time>
      </trkpt>
      <trkpt lat="44.84228" lon="-1.11821">
        <ele>65.380521</ele>
        <time>2022-12-25T09:33:23.351Z</time>
      </trkpt>
      <trkpt lat="44.84218" lon="-1.11834">
        <ele>65.42173</ele>
        <time>2022-12-25T09:33:26.361Z</time>
      </trkpt>
      <trkpt lat="44.84209" lon="-1.11847">
        <ele>65.463071</ele>
        <time>2022-12-25T09:33:29.361Z</time>
      </trkpt>
      <trkpt lat="44.842" lon="-1.1186">
        <ele>65.503032</ele>
        <time>2022-12-25T09:33:32.361Z</time>
      </trkpt>
      <trkpt lat="44.84193" lon="-1.1187">
        <ele>65.536409</ele>
        <time>2022-12-25T09:33:35.369Z</time>
      </trkpt>
      <trkpt lat="44.84185" lon="-1.11881">
        <ele>65.57087</ele>
        <time>2022-12-25T09:33:38.365Z</time>
      </trkpt>
      <trkpt lat="44.84176" lon="-1.11892">
        <ele>65.608885</ele>
        <time>2022-12-25T09:33:41.359Z</time>
      </trkpt>
      <trkpt lat="44.84167" lon="-1.11905">
        <ele>65.648846</ele>
        <time>2022-12-25T09:33:44.352Z</time>
      </trkpt>
      <trkpt lat="44.84158" lon="-1.11917">
        <ele>65.690592</ele>
        <time>2022-12-25T09:33:47.375Z</time>
      </trkpt>
      <trkpt lat="44.84149" lon="-1.1193">
        <ele>65.752276</ele>
        <time>2022-12-25T09:33:50.340Z</time>
      </trkpt>
      <trkpt lat="44.8414" lon="-1.11942">
        <ele>65.8113</ele>
        <time>2022-12-25T09:33:53.356Z</time>
      </trkpt>
      <trkpt lat="44.8413" lon="-1.11955">
        <ele>65.873551</ele>
        <time>2022-12-25T09:33:56.362Z</time>
      </trkpt>
      <trkpt lat="44.84121" lon="-1.11968">
        <ele>65.936151</ele>
        <time>2022-12-25T09:33:59.359Z</time>
      </trkpt>
      <trkpt lat="44.84111" lon="-1.11981">
        <ele>65.998411</ele>
        <time>2022-12-25T09:34:02.364Z</time>
      </trkpt>
      <trkpt lat="44.84102" lon="-1.11993">
        <ele>66.059419</ele>
        <time>2022-12-25T09:34:05.354Z</time>
      </trkpt>
      <trkpt lat="44.84094" lon="-1.12006">
        <ele>66.119187</ele>
        <time>2022-12-25T09:34:08.343Z</time>
      </trkpt>
      <trkpt lat="44.84084" lon="-1.12019">
        <ele>66.181726</ele>
        <time>2022-12-25T09:34:11.353Z</time>
      </trkpt>
      <trkpt lat="44.84075" lon="-1.12033">
        <ele>66.245371</ele>
        <time>2022-12-25T09:34:14.361Z</time>
      </trkpt>
      <trkpt lat="44.84065" lon="-1.12046">
        <ele>66.308205</ele>
        <time>2022-12-25T09:34:17.367Z</time>
      </trkpt>
      <trkpt lat="44.84056" lon="-1.12059">
        <ele>66.370986</ele>
        <time>2022-12-25T09:34:20.348Z</time>
      </trkpt>
      <trkpt lat="44.84047" lon="-1.12072">
        <ele>66.433619</ele>
        <time>2022-12-25T09:34:23.371Z</time>
      </trkpt>
      <trkpt lat="44.84038" lon="-1.12084">
        <ele>66.491385</ele>
        <time>2022-12-25T09:34:26.352Z</time>
      </trkpt>
      <trkpt lat="44.8403" lon="-1.12095">
        <ele>66.541106</ele>
        <time>2022-12-25T09:34:29.361Z</time>
      </trkpt>
      <trkpt lat="44.84023" lon="-1.12107">
        <ele>66.553277</ele>
        <time>2022-12-25T09:34:32.360Z</time>
      </trkpt>
      <trkpt lat="44.84014" lon="-1.12118">
        <ele>66.566721</ele>
        <time>2022-12-25T09:34:35.363Z</time>
      </trkpt>
      <trkpt lat="44.84006" lon="-1.12131">
        <ele>66.580474</ele>
        <time>2022-12-25T09:34:38.340Z</time>
      </trkpt>
      <trkpt lat="44.83997" lon="-1.12143">
        <ele>66.594818</ele>
        <time>2022-12-25T09:34:41.372Z</time>
      </trkpt>
      <trkpt lat="44.83988" lon="-1.12155">
        <ele>66.608674</ele>
        <time>2022-12-25T09:34:44.363Z</time>
      </trkpt>
      <trkpt lat="44.83979" lon="-1.12168">
        <ele>66.622733</ele>
        <time>2022-12-25T09:34:47.357Z</time>
      </trkpt>
      <trkpt lat="44.8397" lon="-1.1218">
        <ele>66.636942</ele>
        <time>2022-12-25T09:34:50.344Z</time>
      </trkpt>
      <trkpt lat="44.83961" lon="-1.12193">
        <ele>66.650878</ele>
        <time>2022-12-25T09:34:53.358Z</time>
      </trkpt>
      <trkpt lat="44.83952" lon="-1.12205">
        <ele>66.664678</ele>
        <time>2022-12-25T09:34:56.340Z</time>
      </trkpt>
      <trkpt lat="44.83943" lon="-1.12217">
        <ele>66.679109</ele>
        <time>2022-12-25T09:34:59.357Z</time>
      </trkpt>
      <trkpt lat="44.83933" lon="-1.1223">
        <ele>66.69419</ele>
        <time>2022-12-25T09:35:02.363Z</time>
      </trkpt>
      <trkpt lat="44.83927" lon="-1.12239">
        <ele>66.704338</ele>
        <time>2022-12-25T09:35:04.359Z</time>
      </trkpt>
      <trkpt lat="44.83917" lon="-1.12252">
        <ele>66.719283</ele>
        <time>2022-12-25T09:35:07.357Z</time>
      </trkpt>
      <trkpt lat="44.83908" lon="-1.12266">
        <ele>66.734269</ele>
        <time>2022-12-25T09:35:10.359Z</time>
      </trkpt>
      <trkpt lat="44.83902" lon="-1.12275">
        <ele>66.730597</ele>
        <time>2022-12-25T09:35:12.371Z</time>
      </trkpt>
      <trkpt lat="44.83895" lon="-1.12285">
        <ele>66.67583</ele>
        <time>2022-12-25T09:35:14.355Z</time>
      </trkpt>
      <trkpt lat="44.83888" lon="-1.12294">
        <ele>66.620873</ele>
        <time>2022-12-25T09:35:16.367Z</time>
      </trkpt>
      <trkpt lat="44.83881" lon="-1.12304">
        <ele>66.565768</ele>
        <time>2022-12-25T09:35:18.352Z</time>
      </trkpt>
      <trkpt lat="44.83875" lon="-1.12313">
        <ele>66.512565</ele>
        <time>2022-12-25T09:35:20.369Z</time>
      </trkpt>
      <trkpt lat="44.83866" lon="-1.12325">
        <ele>66.443453</ele>
        <time>2022-12-25T09:35:23.362Z</time>
      </trkpt>
      <trkpt lat="44.83858" lon="-1.12336">
        <ele>66.377484</ele>
        <time>2022-12-25T09:35:26.366Z</time>
      </trkpt>
      <trkpt lat="44.8385" lon="-1.12347">
        <ele>66.317114</ele>
        <time>2022-12-25T09:35:29.369Z</time>
      </trkpt>
      <trkpt lat="44.83842" lon="-1.12358">
        <ele>66.251314</ele>
        <time>2022-12-25T09:35:32.346Z</time>
      </trkpt>
      <trkpt lat="44.83833" lon="-1.12371">
        <ele>66.179651</ele>
        <time>2022-12-25T09:35:35.349Z</time>
      </trkpt>
      <trkpt lat="44.83824" lon="-1.12384">
        <ele>66.104822</ele>
        <time>2022-12-25T09:35:38.342Z</time>
      </trkpt>
      <trkpt lat="44.83814" lon="-1.12397">
        <ele>66.029587</ele>
        <time>2022-12-25T09:35:41.368Z</time>
      </trkpt>
      <trkpt lat="44.83805" lon="-1.1241">
        <ele>65.951708</ele>
        <time>2022-12-25T09:35:44.360Z</time>
      </trkpt>
      <trkpt lat="44.83798" lon="-1.12419">
        <ele>65.899082</ele>
        <time>2022-12-25T09:35:46.362Z</time>
      </trkpt>
      <trkpt lat="44.83791" lon="-1.12428">
        <ele>65.846762</ele>
        <time>2022-12-25T09:35:48.354Z</time>
      </trkpt>
      <trkpt lat="44.83782" lon="-1.12441">
        <ele>65.771679</ele>
        <time>2022-12-25T09:35:51.362Z</time>
      </trkpt>
      <trkpt lat="44.83773" lon="-1.12453">
        <ele>65.713944</ele>
        <time>2022-12-25T09:35:54.350Z</time>
      </trkpt>
      <trkpt lat="44.83763" lon="-1.12467">
        <ele>65.711521</ele>
        <time>2022-12-25T09:35:57.352Z</time>
      </trkpt>
      <trkpt lat="44.83754" lon="-1.1248">
        <ele>65.70907</ele>
        <time>2022-12-25T09:36:00.363Z</time>
      </trkpt>
      <trkpt lat="44.83748" lon="-1.12489">
        <ele>65.707425</ele>
        <time>2022-12-25T09:36:02.346Z</time>
      </trkpt>
      <trkpt lat="44.83741" lon="-1.12499">
        <ele>65.705668</ele>
        <time>2022-12-25T09:36:04.362Z</time>
      </trkpt>
      <trkpt lat="44.83734" lon="-1.12508">
        <ele>65.704017</ele>
        <time>2022-12-25T09:36:06.365Z</time>
      </trkpt>
      <trkpt lat="44.83725" lon="-1.12521">
        <ele>65.701612</ele>
        <time>2022-12-25T09:36:09.361Z</time>
      </trkpt>
      <trkpt lat="44.83716" lon="-1.12534">
        <ele>65.699214</ele>
        <time>2022-12-25T09:36:12.365Z</time>
      </trkpt>
      <trkpt lat="44.83706" lon="-1.12547">
        <ele>65.696803</ele>
        <time>2022-12-25T09:36:15.360Z</time>
      </trkpt>
      <trkpt lat="44.83697" lon="-1.1256">
        <ele>65.694396</ele>
        <time>2022-12-25T09:36:18.368Z</time>
      </trkpt>
      <trkpt lat="44.83688" lon="-1.12573">
        <ele>65.692115</ele>
        <time>2022-12-25T09:36:21.354Z</time>
      </trkpt>
      <trkpt lat="44.83679" lon="-1.12584">
        <ele>65.689946</ele>
        <time>2022-12-25T09:36:24.357Z</time>
      </trkpt>
      <trkpt lat="44.83671" lon="-1.12595">
        <ele>65.687851</ele>
        <time>2022-12-25T09:36:27.364Z</time>
      </trkpt>
      <trkpt lat="44.83663" lon="-1.12606">
        <ele>65.685726</ele>
        <time>2022-12-25T09:36:30.357Z</time>
      </trkpt>
      <trkpt lat="44.83654" lon="-1.12618">
        <ele>65.68348</ele>
        <time>2022-12-25T09:36:33.370Z</time>
      </trkpt>
      <trkpt lat="44.83644" lon="-1.12629">
        <ele>65.65284</ele>
        <time>2022-12-25T09:36:36.358Z</time>
      </trkpt>
      <trkpt lat="44.83634" lon="-1.12639">
        <ele>65.489923</ele>
        <time>2022-12-25T09:36:39.348Z</time>
      </trkpt>
      <trkpt lat="44.83624" lon="-1.12647">
        <ele>65.332594</ele>
        <time>2022-12-25T09:36:42.363Z</time>
      </trkpt>
      <trkpt lat="44.83614" lon="-1.12654">
        <ele>65.183322</ele>
        <time>2022-12-25T09:36:45.360Z</time>
      </trkpt>
      <trkpt lat="44.83604" lon="-1.12661">
        <ele>65.028225</ele>
        <time>2022-12-25T09:36:48.355Z</time>
      </trkpt>
      <trkpt lat="44.83593" lon="-1.12667">
        <ele>64.870482</ele>
        <time>2022-12-25T09:36:51.363Z</time>
      </trkpt>
      <trkpt lat="44.83582" lon="-1.12671">
        <ele>64.708665</ele>
        <time>2022-12-25T09:36:54.353Z</time>
      </trkpt>
      <trkpt lat="44.8357" lon="-1.12676">
        <ele>64.539935</ele>
        <time>2022-12-25T09:36:57.364Z</time>
      </trkpt>
      <trkpt lat="44.83557" lon="-1.12679">
        <ele>64.371681</ele>
        <time>2022-12-25T09:37:00.365Z</time>
      </trkpt>
      <trkpt lat="44.83545" lon="-1.12682">
        <ele>64.201411</ele>
        <time>2022-12-25T09:37:03.369Z</time>
      </trkpt>
      <trkpt lat="44.83536" lon="-1.12683">
        <ele>64.078292</ele>
        <time>2022-12-25T09:37:05.352Z</time>
      </trkpt>
      <trkpt lat="44.83523" lon="-1.12686">
        <ele>63.899985</ele>
        <time>2022-12-25T09:37:08.342Z</time>
      </trkpt>
      <trkpt lat="44.83511" lon="-1.12688">
        <ele>63.738952</ele>
        <time>2022-12-25T09:37:11.351Z</time>
      </trkpt>
      <trkpt lat="44.83499" lon="-1.1269">
        <ele>63.571934</ele>
        <time>2022-12-25T09:37:14.341Z</time>
      </trkpt>
      <trkpt lat="44.83487" lon="-1.12693">
        <ele>63.403825</ele>
        <time>2022-12-25T09:37:17.351Z</time>
      </trkpt>
      <trkpt lat="44.83474" lon="-1.12694">
        <ele>63.247182</ele>
        <time>2022-12-25T09:37:20.346Z</time>
      </trkpt>
      <trkpt lat="44.83461" lon="-1.12696">
        <ele>63.327646</ele>
        <time>2022-12-25T09:37:23.342Z</time>
      </trkpt>
      <trkpt lat="44.83449" lon="-1.12698">
        <ele>63.40375</ele>
        <time>2022-12-25T09:37:26.356Z</time>
      </trkpt>
      <trkpt lat="44.83437" lon="-1.127">
        <ele>63.481607</ele>
        <time>2022-12-25T09:37:29.366Z</time>
      </trkpt>
      <trkpt lat="44.83424" lon="-1.12702">
        <ele>63.559663</ele>
        <time>2022-12-25T09:37:32.360Z</time>
      </trkpt>
      <trkpt lat="44.83412" lon="-1.12705">
        <ele>63.635376</ele>
        <time>2022-12-25T09:37:35.369Z</time>
      </trkpt>
      <trkpt lat="44.834" lon="-1.12708">
        <ele>63.712509</ele>
        <time>2022-12-25T09:37:38.353Z</time>
      </trkpt>
      <trkpt lat="44.83387" lon="-1.12709">
        <ele>63.789796</ele>
        <time>2022-12-25T09:37:41.369Z</time>
      </trkpt>
      <trkpt lat="44.83375" lon="-1.12711">
        <ele>63.868979</ele>
        <time>2022-12-25T09:37:44.360Z</time>
      </trkpt>
      <trkpt lat="44.83362" lon="-1.12714">
        <ele>63.948264</ele>
        <time>2022-12-25T09:37:47.350Z</time>
      </trkpt>
      <trkpt lat="44.83349" lon="-1.12716">
        <ele>64.026831</ele>
        <time>2022-12-25T09:37:50.342Z</time>
      </trkpt>
      <trkpt lat="44.83336" lon="-1.12718">
        <ele>64.107346</ele>
        <time>2022-12-25T09:37:53.352Z</time>
      </trkpt>
      <trkpt lat="44.83324" lon="-1.1272">
        <ele>64.186129</ele>
        <time>2022-12-25T09:37:56.362Z</time>
      </trkpt>
      <trkpt lat="44.83312" lon="-1.12723">
        <ele>64.262456</ele>
        <time>2022-12-25T09:37:59.350Z</time>
      </trkpt>
      <trkpt lat="44.83299" lon="-1.12725">
        <ele>64.337945</ele>
        <time>2022-12-25T09:38:02.369Z</time>
      </trkpt>
      <trkpt lat="44.83288" lon="-1.12727">
        <ele>64.344297</ele>
        <time>2022-12-25T09:38:05.343Z</time>
      </trkpt>
      <trkpt lat="44.83277" lon="-1.12729">
        <ele>64.327761</ele>
        <time>2022-12-25T09:38:08.362Z</time>
      </trkpt>
      <trkpt lat="44.83266" lon="-1.12731">
        <ele>64.311317</ele>
        <time>2022-12-25T09:38:11.357Z</time>
      </trkpt>
      <trkpt lat="44.83255" lon="-1.12734">
        <ele>64.294019</ele>
        <time>2022-12-25T09:38:14.348Z</time>
      </trkpt>
      <trkpt lat="44.83243" lon="-1.12736">
        <ele>64.275899</ele>
        <time>2022-12-25T09:38:17.360Z</time>
      </trkpt>
      <trkpt lat="44.83231" lon="-1.12738">
        <ele>64.257955</ele>
        <time>2022-12-25T09:38:20.350Z</time>
      </trkpt>
      <trkpt lat="44.83219" lon="-1.1274">
        <ele>64.239971</ele>
        <time>2022-12-25T09:38:23.350Z</time>
      </trkpt>
      <trkpt lat="44.83207" lon="-1.12742">
        <ele>64.221239</ele>
        <time>2022-12-25T09:38:26.351Z</time>
      </trkpt>
      <trkpt lat="44.83195" lon="-1.12745">
        <ele>64.202463</ele>
        <time>2022-12-25T09:38:29.365Z</time>
      </trkpt>
      <trkpt lat="44.83183" lon="-1.12747">
        <ele>64.184016</ele>
        <time>2022-12-25T09:38:32.340Z</time>
      </trkpt>
      <trkpt lat="44.8317" lon="-1.12748">
        <ele>64.165514</ele>
        <time>2022-12-25T09:38:35.363Z</time>
      </trkpt>
      <trkpt lat="44.83158" lon="-1.12751">
        <ele>64.147171</ele>
        <time>2022-12-25T09:38:38.365Z</time>
      </trkpt>
      <trkpt lat="44.83146" lon="-1.12753">
        <ele>64.128764</ele>
        <time>2022-12-25T09:38:41.365Z</time>
      </trkpt>
      <trkpt lat="44.83134" lon="-1.12755">
        <ele>64.110194</ele>
        <time>2022-12-25T09:38:44.357Z</time>
      </trkpt>
      <trkpt lat="44.83123" lon="-1.12757">
        <ele>64.09296</ele>
        <time>2022-12-25T09:38:47.360Z</time>
      </trkpt>
      <trkpt lat="44.83113" lon="-1.12759">
        <ele>64.089243</ele>
        <time>2022-12-25T09:38:50.368Z</time>
      </trkpt>
      <trkpt lat="44.83101" lon="-1.12761">
        <ele>64.098052</ele>
        <time>2022-12-25T09:38:54.367Z</time>
      </trkpt>
      <trkpt lat="44.83092" lon="-1.12763">
        <ele>64.105127</ele>
        <time>2022-12-25T09:38:57.370Z</time>
      </trkpt>
      <trkpt lat="44.83081" lon="-1.12765">
        <ele>64.11273</ele>
        <time>2022-12-25T09:39:00.367Z</time>
      </trkpt>
      <trkpt lat="44.8307" lon="-1.12766">
        <ele>64.120652</ele>
        <time>2022-12-25T09:39:03.370Z</time>
      </trkpt>
      <trkpt lat="44.83059" lon="-1.12768">
        <ele>64.128968</ele>
        <time>2022-12-25T09:39:06.365Z</time>
      </trkpt>
      <trkpt lat="44.83048" lon="-1.1277">
        <ele>64.137248</ele>
        <time>2022-12-25T09:39:09.362Z</time>
      </trkpt>
      <trkpt lat="44.83037" lon="-1.12772">
        <ele>64.145466</ele>
        <time>2022-12-25T09:39:12.357Z</time>
      </trkpt>
      <trkpt lat="44.83025" lon="-1.12774">
        <ele>64.153933</ele>
        <time>2022-12-25T09:39:15.368Z</time>
      </trkpt>
      <trkpt lat="44.83013" lon="-1.12776">
        <ele>64.162498</ele>
        <time>2022-12-25T09:39:18.365Z</time>
      </trkpt>
      <trkpt lat="44.83001" lon="-1.12778">
        <ele>64.171262</ele>
        <time>2022-12-25T09:39:21.366Z</time>
      </trkpt>
      <trkpt lat="44.8299" lon="-1.1278">
        <ele>64.179946</ele>
        <time>2022-12-25T09:39:24.365Z</time>
      </trkpt>
      <trkpt lat="44.82978" lon="-1.12783">
        <ele>64.188854</ele>
        <time>2022-12-25T09:39:27.369Z</time>
      </trkpt>
      <trkpt lat="44.82965" lon="-1.12785">
        <ele>64.197827</ele>
        <time>2022-12-25T09:39:30.371Z</time>
      </trkpt>
      <trkpt lat="44.82953" lon="-1.12787">
        <ele>64.206787</ele>
        <time>2022-12-25T09:39:33.368Z</time>
      </trkpt>
      <trkpt lat="44.82941" lon="-1.12789">
        <ele>64.215736</ele>
        <time>2022-12-25T09:39:36.360Z</time>
      </trkpt>
      <trkpt lat="44.82929" lon="-1.12791">
        <ele>64.189364</ele>
        <time>2022-12-25T09:39:39.361Z</time>
      </trkpt>
      <trkpt lat="44.82917" lon="-1.12793">
        <ele>64.159556</ele>
        <time>2022-12-25T09:39:42.361Z</time>
      </trkpt>
      <trkpt lat="44.82905" lon="-1.12795">
        <ele>64.128833</ele>
        <time>2022-12-25T09:39:45.370Z</time>
      </trkpt>
      <trkpt lat="44.82893" lon="-1.12797">
        <ele>64.097716</ele>
        <time>2022-12-25T09:39:48.362Z</time>
      </trkpt>
      <trkpt lat="44.82881" lon="-1.128">
        <ele>64.065928</ele>
        <time>2022-12-25T09:39:51.365Z</time>
      </trkpt>
      <trkpt lat="44.82869" lon="-1.12802">
        <ele>64.033686</ele>
        <time>2022-12-25T09:39:54.364Z</time>
      </trkpt>
      <trkpt lat="44.82857" lon="-1.12805">
        <ele>64.002851</ele>
        <time>2022-12-25T09:39:57.350Z</time>
      </trkpt>
      <trkpt lat="44.82846" lon="-1.12807">
        <ele>63.975746</ele>
        <time>2022-12-25T09:40:00.348Z</time>
      </trkpt>
      <trkpt lat="44.82835" lon="-1.12809">
        <ele>63.948264</ele>
        <time>2022-12-25T09:40:03.369Z</time>
      </trkpt>
      <trkpt lat="44.82824" lon="-1.12811">
        <ele>63.919311</ele>
        <time>2022-12-25T09:40:06.350Z</time>
      </trkpt>
      <trkpt lat="44.82813" lon="-1.12813">
        <ele>63.891142</ele>
        <time>2022-12-25T09:40:09.362Z</time>
      </trkpt>
      <trkpt lat="44.82802" lon="-1.12816">
        <ele>63.861936</ele>
        <time>2022-12-25T09:40:12.363Z</time>
      </trkpt>
      <trkpt lat="44.8279" lon="-1.12819">
        <ele>63.831887</ele>
        <time>2022-12-25T09:40:15.344Z</time>
      </trkpt>
      <trkpt lat="44.82779" lon="-1.1282">
        <ele>63.802548</ele>
        <time>2022-12-25T09:40:18.364Z</time>
      </trkpt>
      <trkpt lat="44.82767" lon="-1.12823">
        <ele>63.77238</ele>
        <time>2022-12-25T09:40:21.362Z</time>
      </trkpt>
      <trkpt lat="44.82756" lon="-1.12825">
        <ele>63.737295</ele>
        <time>2022-12-25T09:40:24.361Z</time>
      </trkpt>
      <trkpt lat="44.82747" lon="-1.12826">
        <ele>63.699527</ele>
        <time>2022-12-25T09:40:27.343Z</time>
      </trkpt>
      <trkpt lat="44.82737" lon="-1.12827">
        <ele>63.661396</ele>
        <time>2022-12-25T09:40:30.372Z</time>
      </trkpt>
      <trkpt lat="44.82726" lon="-1.12829">
        <ele>63.619531</ele>
        <time>2022-12-25T09:40:33.370Z</time>
      </trkpt>
      <trkpt lat="44.82715" lon="-1.1283">
        <ele>63.577465</ele>
        <time>2022-12-25T09:40:36.367Z</time>
      </trkpt>
      <trkpt lat="44.82704" lon="-1.12832">
        <ele>63.533642</ele>
        <time>2022-12-25T09:40:39.366Z</time>
      </trkpt>
      <trkpt lat="44.82693" lon="-1.12834">
        <ele>63.489534</ele>
        <time>2022-12-25T09:40:42.375Z</time>
      </trkpt>
      <trkpt lat="44.82682" lon="-1.12836">
        <ele>63.445746</ele>
        <time>2022-12-25T09:40:45.364Z</time>
      </trkpt>
      <trkpt lat="44.82671" lon="-1.12839">
        <ele>63.402573</ele>
        <time>2022-12-25T09:40:48.352Z</time>
      </trkpt>
      <trkpt lat="44.82659" lon="-1.12841">
        <ele>63.358749</ele>
        <time>2022-12-25T09:40:51.342Z</time>
      </trkpt>
      <trkpt lat="44.82648" lon="-1.12843">
        <ele>63.315234</ele>
        <time>2022-12-25T09:40:54.355Z</time>
      </trkpt>
      <trkpt lat="44.82637" lon="-1.12845">
        <ele>63.270676</ele>
        <time>2022-12-25T09:40:57.348Z</time>
      </trkpt>
      <trkpt lat="44.82626" lon="-1.12847">
        <ele>63.226083</ele>
        <time>2022-12-25T09:41:00.358Z</time>
      </trkpt>
      <trkpt lat="44.82614" lon="-1.12849">
        <ele>63.181454</ele>
        <time>2022-12-25T09:41:03.360Z</time>
      </trkpt>
      <trkpt lat="44.82603" lon="-1.12851">
        <ele>63.136477</ele>
        <time>2022-12-25T09:41:06.361Z</time>
      </trkpt>
      <trkpt lat="44.82591" lon="-1.12854">
        <ele>63.091848</ele>
        <time>2022-12-25T09:41:09.347Z</time>
      </trkpt>
      <trkpt lat="44.82579" lon="-1.12856">
        <ele>63.05354</ele>
        <time>2022-12-25T09:41:12.363Z</time>
      </trkpt>
      <trkpt lat="44.82568" lon="-1.12857">
        <ele>63.035193</ele>
        <time>2022-12-25T09:41:15.362Z</time>
      </trkpt>
      <trkpt lat="44.82558" lon="-1.12859">
        <ele>63.018605</ele>
        <time>2022-12-25T09:41:18.350Z</time>
      </trkpt>
      <trkpt lat="44.82548" lon="-1.12861">
        <ele>63.00159</ele>
        <time>2022-12-25T09:41:21.361Z</time>
      </trkpt>
      <trkpt lat="44.82536" lon="-1.12863">
        <ele>62.983243</ele>
        <time>2022-12-25T09:41:24.364Z</time>
      </trkpt>
      <trkpt lat="44.82525" lon="-1.12866">
        <ele>62.9642</ele>
        <time>2022-12-25T09:41:27.363Z</time>
      </trkpt>
      <trkpt lat="44.82513" lon="-1.12868">
        <ele>62.94531</ele>
        <time>2022-12-25T09:41:30.346Z</time>
      </trkpt>
      <trkpt lat="44.82501" lon="-1.12871">
        <ele>62.92476</ele>
        <time>2022-12-25T09:41:33.368Z</time>
      </trkpt>
      <trkpt lat="44.82488" lon="-1.12873">
        <ele>62.903698</ele>
        <time>2022-12-25T09:41:36.367Z</time>
      </trkpt>
      <trkpt lat="44.82475" lon="-1.12875">
        <ele>62.882228</ele>
        <time>2022-12-25T09:41:39.367Z</time>
      </trkpt>
      <trkpt lat="44.82463" lon="-1.12877">
        <ele>62.863234</ele>
        <time>2022-12-25T09:41:42.352Z</time>
      </trkpt>
      <trkpt lat="44.82451" lon="-1.12878">
        <ele>62.843514</ele>
        <time>2022-12-25T09:41:45.368Z</time>
      </trkpt>
      <trkpt lat="44.82438" lon="-1.1288">
        <ele>62.822407</ele>
        <time>2022-12-25T09:41:48.358Z</time>
      </trkpt>
      <trkpt lat="44.82425" lon="-1.12881">
        <ele>62.800697</ele>
        <time>2022-12-25T09:41:51.344Z</time>
      </trkpt>
      <trkpt lat="44.82412" lon="-1.12884">
        <ele>62.779901</ele>
        <time>2022-12-25T09:41:54.341Z</time>
      </trkpt>
      <trkpt lat="44.824" lon="-1.12886">
        <ele>62.815551</ele>
        <time>2022-12-25T09:41:57.346Z</time>
      </trkpt>
      <trkpt lat="44.82387" lon="-1.12888">
        <ele>62.949545</ele>
        <time>2022-12-25T09:42:00.341Z</time>
      </trkpt>
      <trkpt lat="44.82375" lon="-1.12891">
        <ele>63.087398</ele>
        <time>2022-12-25T09:42:03.353Z</time>
      </trkpt>
      <trkpt lat="44.82362" lon="-1.12893">
        <ele>63.220611</ele>
        <time>2022-12-25T09:42:06.347Z</time>
      </trkpt>
      <trkpt lat="44.8235" lon="-1.12896">
        <ele>63.352671</ele>
        <time>2022-12-25T09:42:09.361Z</time>
      </trkpt>
      <trkpt lat="44.82338" lon="-1.12898">
        <ele>63.482717</ele>
        <time>2022-12-25T09:42:12.361Z</time>
      </trkpt>
      <trkpt lat="44.82326" lon="-1.129">
        <ele>63.611512</ele>
        <time>2022-12-25T09:42:15.354Z</time>
      </trkpt>
      <trkpt lat="44.82315" lon="-1.12902">
        <ele>63.733228</ele>
        <time>2022-12-25T09:42:18.343Z</time>
      </trkpt>
      <trkpt lat="44.82303" lon="-1.12905">
        <ele>63.853674</ele>
        <time>2022-12-25T09:42:21.358Z</time>
      </trkpt>
      <trkpt lat="44.82293" lon="-1.12907">
        <ele>63.968741</ele>
        <time>2022-12-25T09:42:24.359Z</time>
      </trkpt>
      <trkpt lat="44.82282" lon="-1.12909">
        <ele>64.081496</ele>
        <time>2022-12-25T09:42:27.355Z</time>
      </trkpt>
      <trkpt lat="44.82271" lon="-1.1291">
        <ele>64.196272</ele>
        <time>2022-12-25T09:42:30.358Z</time>
      </trkpt>
      <trkpt lat="44.82261" lon="-1.12912">
        <ele>64.30982</ele>
        <time>2022-12-25T09:42:33.368Z</time>
      </trkpt>
      <trkpt lat="44.8225" lon="-1.12914">
        <ele>64.424688</ele>
        <time>2022-12-25T09:42:36.368Z</time>
      </trkpt>
      <trkpt lat="44.8224" lon="-1.12916">
        <ele>64.533122</ele>
        <time>2022-12-25T09:42:39.365Z</time>
      </trkpt>
      <trkpt lat="44.82229" lon="-1.12917">
        <ele>64.647729</ele>
        <time>2022-12-25T09:42:42.360Z</time>
      </trkpt>
      <trkpt lat="44.82219" lon="-1.12919">
        <ele>64.671104</ele>
        <time>2022-12-25T09:42:45.359Z</time>
      </trkpt>
      <trkpt lat="44.82207" lon="-1.12922">
        <ele>64.653703</ele>
        <time>2022-12-25T09:42:48.353Z</time>
      </trkpt>
      <trkpt lat="44.82196" lon="-1.12924">
        <ele>64.636651</ele>
        <time>2022-12-25T09:42:51.361Z</time>
      </trkpt>
      <trkpt lat="44.82184" lon="-1.12926">
        <ele>64.618708</ele>
        <time>2022-12-25T09:42:54.342Z</time>
      </trkpt>
      <trkpt lat="44.82172" lon="-1.12929">
        <ele>64.600072</ele>
        <time>2022-12-25T09:42:57.347Z</time>
      </trkpt>
      <trkpt lat="44.8216" lon="-1.12931">
        <ele>64.581166</ele>
        <time>2022-12-25T09:43:00.362Z</time>
      </trkpt>
      <trkpt lat="44.82148" lon="-1.12934">
        <ele>64.562379</ele>
        <time>2022-12-25T09:43:03.341Z</time>
      </trkpt>
      <trkpt lat="44.82135" lon="-1.12936">
        <ele>64.543037</ele>
        <time>2022-12-25T09:43:06.342Z</time>
      </trkpt>
      <trkpt lat="44.82124" lon="-1.12938">
        <ele>64.525848</ele>
        <time>2022-12-25T09:43:09.350Z</time>
      </trkpt>
      <trkpt lat="44.82113" lon="-1.12941">
        <ele>64.509216</ele>
        <time>2022-12-25T09:43:12.349Z</time>
      </trkpt>
      <trkpt lat="44.82102" lon="-1.12943">
        <ele>64.491764</ele>
        <time>2022-12-25T09:43:15.362Z</time>
      </trkpt>
      <trkpt lat="44.8209" lon="-1.12944">
        <ele>64.473557</ele>
        <time>2022-12-25T09:43:18.365Z</time>
      </trkpt>
      <trkpt lat="44.82078" lon="-1.12946">
        <ele>64.455011</ele>
        <time>2022-12-25T09:43:21.367Z</time>
      </trkpt>
      <trkpt lat="44.82066" lon="-1.12949">
        <ele>64.436451</ele>
        <time>2022-12-25T09:43:24.358Z</time>
      </trkpt>
      <trkpt lat="44.82053" lon="-1.12951">
        <ele>64.417602</ele>
        <time>2022-12-25T09:43:27.356Z</time>
      </trkpt>
      <trkpt lat="44.82041" lon="-1.12952">
        <ele>64.366644</ele>
        <time>2022-12-25T09:43:30.368Z</time>
      </trkpt>
      <trkpt lat="44.82029" lon="-1.12954">
        <ele>64.288511</ele>
        <time>2022-12-25T09:43:33.341Z</time>
      </trkpt>
      <trkpt lat="44.82017" lon="-1.12957">
        <ele>64.210068</ele>
        <time>2022-12-25T09:43:36.361Z</time>
      </trkpt>
      <trkpt lat="44.82005" lon="-1.12959">
        <ele>64.12939</ele>
        <time>2022-12-25T09:43:39.346Z</time>
      </trkpt>
      <trkpt lat="44.81992" lon="-1.12962">
        <ele>64.046936</ele>
        <time>2022-12-25T09:43:42.342Z</time>
      </trkpt>
      <trkpt lat="44.81979" lon="-1.12964">
        <ele>63.965086</ele>
        <time>2022-12-25T09:43:45.364Z</time>
      </trkpt>
      <trkpt lat="44.81967" lon="-1.12966">
        <ele>63.886775</ele>
        <time>2022-12-25T09:43:48.344Z</time>
      </trkpt>
      <trkpt lat="44.81955" lon="-1.12968">
        <ele>63.809333</ele>
        <time>2022-12-25T09:43:51.340Z</time>
      </trkpt>
      <trkpt lat="44.81943" lon="-1.12971">
        <ele>63.732988</ele>
        <time>2022-12-25T09:43:54.342Z</time>
      </trkpt>
      <trkpt lat="44.81932" lon="-1.12972">
        <ele>63.660744</ele>
        <time>2022-12-25T09:43:57.370Z</time>
      </trkpt>
      <trkpt lat="44.8192" lon="-1.12974">
        <ele>63.580755</ele>
        <time>2022-12-25T09:44:00.386Z</time>
      </trkpt>
      <trkpt lat="44.81907" lon="-1.12977">
        <ele>63.500022</ele>
        <time>2022-12-25T09:44:03.369Z</time>
      </trkpt>
      <trkpt lat="44.81895" lon="-1.12979">
        <ele>63.418536</ele>
        <time>2022-12-25T09:44:06.344Z</time>
      </trkpt>
      <trkpt lat="44.81882" lon="-1.12981">
        <ele>63.33705</ele>
        <time>2022-12-25T09:44:09.351Z</time>
      </trkpt>
      <trkpt lat="44.8187" lon="-1.12983">
        <ele>63.257843</ele>
        <time>2022-12-25T09:44:12.348Z</time>
      </trkpt>
      <trkpt lat="44.81858" lon="-1.12985">
        <ele>63.212722</ele>
        <time>2022-12-25T09:44:15.374Z</time>
      </trkpt>
      <trkpt lat="44.81846" lon="-1.12987">
        <ele>63.168677</ele>
        <time>2022-12-25T09:44:18.362Z</time>
      </trkpt>
      <trkpt lat="44.81835" lon="-1.12989">
        <ele>63.126047</ele>
        <time>2022-12-25T09:44:21.365Z</time>
      </trkpt>
      <trkpt lat="44.81823" lon="-1.12991">
        <ele>63.0825</ele>
        <time>2022-12-25T09:44:24.363Z</time>
      </trkpt>
      <trkpt lat="44.81811" lon="-1.12993">
        <ele>63.038027</ele>
        <time>2022-12-25T09:44:27.370Z</time>
      </trkpt>
      <trkpt lat="44.81799" lon="-1.12995">
        <ele>62.992081</ele>
        <time>2022-12-25T09:44:30.347Z</time>
      </trkpt>
      <trkpt lat="44.81786" lon="-1.12998">
        <ele>62.945192</ele>
        <time>2022-12-25T09:44:33.363Z</time>
      </trkpt>
      <trkpt lat="44.81774" lon="-1.13">
        <ele>62.89777</ele>
        <time>2022-12-25T09:44:36.348Z</time>
      </trkpt>
      <trkpt lat="44.81762" lon="-1.13002">
        <ele>62.854403</ele>
        <time>2022-12-25T09:44:39.363Z</time>
      </trkpt>
      <trkpt lat="44.81752" lon="-1.13004">
        <ele>62.817491</ele>
        <time>2022-12-25T09:44:42.348Z</time>
      </trkpt>
      <trkpt lat="44.81741" lon="-1.13006">
        <ele>62.776734</ele>
        <time>2022-12-25T09:44:46.367Z</time>
      </trkpt>
      <trkpt lat="44.81729" lon="-1.13008">
        <ele>62.729832</ele>
        <time>2022-12-25T09:45:26.362Z</time>
      </trkpt>
      <trkpt lat="44.81718" lon="-1.1301">
        <ele>62.689811</ele>
        <time>2022-12-25T09:45:30.342Z</time>
      </trkpt>
      <trkpt lat="44.81709" lon="-1.13011">
        <ele>62.654939</ele>
        <time>2022-12-25T09:45:33.350Z</time>
      </trkpt>
      <trkpt lat="44.81698" lon="-1.13013">
        <ele>62.614919</ele>
        <time>2022-12-25T09:45:36.350Z</time>
      </trkpt>
      <trkpt lat="44.81687" lon="-1.13015">
        <ele>62.62547</ele>
        <time>2022-12-25T09:45:39.336Z</time>
      </trkpt>
      <trkpt lat="44.81675" lon="-1.13016">
        <ele>62.731903</ele>
        <time>2022-12-25T09:45:42.347Z</time>
      </trkpt>
      <trkpt lat="44.81662" lon="-1.13018">
        <ele>62.83987</ele>
        <time>2022-12-25T09:45:45.361Z</time>
      </trkpt>
      <trkpt lat="44.81649" lon="-1.13019">
        <ele>62.950575</ele>
        <time>2022-12-25T09:45:48.346Z</time>
      </trkpt>
      <trkpt lat="44.81637" lon="-1.13021">
        <ele>63.060787</ele>
        <time>2022-12-25T09:45:51.357Z</time>
      </trkpt>
      <trkpt lat="44.81624" lon="-1.13023">
        <ele>63.16935</ele>
        <time>2022-12-25T09:45:54.344Z</time>
      </trkpt>
      <trkpt lat="44.81612" lon="-1.13025">
        <ele>63.27736</ele>
        <time>2022-12-25T09:45:57.355Z</time>
      </trkpt>
      <trkpt lat="44.81599" lon="-1.13027">
        <ele>63.387501</ele>
        <time>2022-12-25T09:46:00.361Z</time>
      </trkpt>
      <trkpt lat="44.81587" lon="-1.13028">
        <ele>63.494645</ele>
        <time>2022-12-25T09:46:03.371Z</time>
      </trkpt>
      <trkpt lat="44.81574" lon="-1.13029">
        <ele>63.605254</ele>
        <time>2022-12-25T09:46:06.359Z</time>
      </trkpt>
      <trkpt lat="44.81562" lon="-1.1303">
        <ele>63.717554</ele>
        <time>2022-12-25T09:46:09.352Z</time>
      </trkpt>
      <trkpt lat="44.81549" lon="-1.13032">
        <ele>63.830908</ele>
        <time>2022-12-25T09:46:12.364Z</time>
      </trkpt>
      <trkpt lat="44.81536" lon="-1.13034">
        <ele>63.937462</ele>
        <time>2022-12-25T09:46:15.349Z</time>
      </trkpt>
      <trkpt lat="44.81524" lon="-1.13035">
        <ele>64.048029</ele>
        <time>2022-12-25T09:46:18.358Z</time>
      </trkpt>
      <trkpt lat="44.81511" lon="-1.13036">
        <ele>64.147887</ele>
        <time>2022-12-25T09:46:21.353Z</time>
      </trkpt>
      <trkpt lat="44.81498" lon="-1.13038">
        <ele>64.009553</ele>
        <time>2022-12-25T09:46:24.361Z</time>
      </trkpt>
      <trkpt lat="44.81489" lon="-1.13039">
        <ele>63.914756</ele>
        <time>2022-12-25T09:46:26.355Z</time>
      </trkpt>
      <trkpt lat="44.8148" lon="-1.1304">
        <ele>63.8192</ele>
        <time>2022-12-25T09:46:28.362Z</time>
      </trkpt>
      <trkpt lat="44.81466" lon="-1.13042">
        <ele>63.680698</ele>
        <time>2022-12-25T09:46:31.348Z</time>
      </trkpt>
      <trkpt lat="44.81453" lon="-1.13044">
        <ele>63.543384</ele>
        <time>2022-12-25T09:46:34.354Z</time>
      </trkpt>
      <trkpt lat="44.81443" lon="-1.13045">
        <ele>63.446606</ele>
        <time>2022-12-25T09:46:36.355Z</time>
      </trkpt>
      <trkpt lat="44.81434" lon="-1.13046">
        <ele>63.35283</ele>
        <time>2022-12-25T09:46:38.369Z</time>
      </trkpt>
      <trkpt lat="44.81422" lon="-1.13048">
        <ele>63.222128</ele>
        <time>2022-12-25T09:46:41.371Z</time>
      </trkpt>
      <trkpt lat="44.81409" lon="-1.1305">
        <ele>63.089993</ele>
        <time>2022-12-25T09:46:44.361Z</time>
      </trkpt>
      <trkpt lat="44.81396" lon="-1.13051">
        <ele>62.961491</ele>
        <time>2022-12-25T09:46:47.365Z</time>
      </trkpt>
      <trkpt lat="44.81383" lon="-1.13053">
        <ele>62.825424</ele>
        <time>2022-12-25T09:46:50.362Z</time>
      </trkpt>
      <trkpt lat="44.81374" lon="-1.13054">
        <ele>62.731332</ele>
        <time>2022-12-25T09:46:52.364Z</time>
      </trkpt>
      <trkpt lat="44.81361" lon="-1.13057">
        <ele>62.597921</ele>
        <time>2022-12-25T09:46:55.359Z</time>
      </trkpt>
      <trkpt lat="44.81348" lon="-1.13058">
        <ele>62.467097</ele>
        <time>2022-12-25T09:46:58.369Z</time>
      </trkpt>
      <trkpt lat="44.81335" lon="-1.1306">
        <ele>62.330076</ele>
        <time>2022-12-25T09:47:01.355Z</time>
      </trkpt>
      <trkpt lat="44.81326" lon="-1.13061">
        <ele>62.293738</ele>
        <time>2022-12-25T09:47:03.358Z</time>
      </trkpt>
      <trkpt lat="44.81313" lon="-1.13062">
        <ele>62.270385</ele>
        <time>2022-12-25T09:47:06.367Z</time>
      </trkpt>
      <trkpt lat="44.81299" lon="-1.13064">
        <ele>62.246152</ele>
        <time>2022-12-25T09:47:09.344Z</time>
      </trkpt>
      <trkpt lat="44.8129" lon="-1.13065">
        <ele>62.229558</ele>
        <time>2022-12-25T09:47:11.359Z</time>
      </trkpt>
      <trkpt lat="44.81281" lon="-1.13066">
        <ele>62.213432</ele>
        <time>2022-12-25T09:47:13.361Z</time>
      </trkpt>
      <trkpt lat="44.81267" lon="-1.13068">
        <ele>62.188889</ele>
        <time>2022-12-25T09:47:16.363Z</time>
      </trkpt>
      <trkpt lat="44.81258" lon="-1.1307">
        <ele>62.172445</ele>
        <time>2022-12-25T09:47:18.341Z</time>
      </trkpt>
      <trkpt lat="44.81245" lon="-1.13071">
        <ele>62.148902</ele>
        <time>2022-12-25T09:47:21.366Z</time>
      </trkpt>
      <trkpt lat="44.81235" lon="-1.13072">
        <ele>62.130256</ele>
        <time>2022-12-25T09:47:23.362Z</time>
      </trkpt>
      <trkpt lat="44.81225" lon="-1.13073">
        <ele>62.113136</ele>
        <time>2022-12-25T09:47:25.345Z</time>
      </trkpt>
      <trkpt lat="44.81216" lon="-1.13075">
        <ele>62.096752</ele>
        <time>2022-12-25T09:47:27.358Z</time>
      </trkpt>
      <trkpt lat="44.81207" lon="-1.13076">
        <ele>62.079931</ele>
        <time>2022-12-25T09:47:29.364Z</time>
      </trkpt>
      <trkpt lat="44.81197" lon="-1.13078">
        <ele>62.063053</ele>
        <time>2022-12-25T09:47:31.362Z</time>
      </trkpt>
      <trkpt lat="44.81184" lon="-1.1308">
        <ele>62.04032</ele>
        <time>2022-12-25T09:47:34.361Z</time>
      </trkpt>
      <trkpt lat="44.81172" lon="-1.13081">
        <ele>62.018741</ele>
        <time>2022-12-25T09:47:37.364Z</time>
      </trkpt>
      <trkpt lat="44.8116" lon="-1.13082">
        <ele>61.996185</ele>
        <time>2022-12-25T09:47:40.361Z</time>
      </trkpt>
      <trkpt lat="44.81147" lon="-1.13084">
        <ele>62.020895</ele>
        <time>2022-12-25T09:47:43.373Z</time>
      </trkpt>
      <trkpt lat="44.81134" lon="-1.13084">
        <ele>62.085713</ele>
        <time>2022-12-25T09:47:46.357Z</time>
      </trkpt>
      <trkpt lat="44.81121" lon="-1.13086">
        <ele>62.1503</ele>
        <time>2022-12-25T09:47:49.341Z</time>
      </trkpt>
      <trkpt lat="44.81112" lon="-1.13088">
        <ele>62.196531</ele>
        <time>2022-12-25T09:47:51.356Z</time>
      </trkpt>
      <trkpt lat="44.81102" lon="-1.13088">
        <ele>62.242403</ele>
        <time>2022-12-25T09:47:53.360Z</time>
      </trkpt>
      <trkpt lat="44.81093" lon="-1.13089">
        <ele>62.288377</ele>
        <time>2022-12-25T09:47:55.356Z</time>
      </trkpt>
      <trkpt lat="44.81084" lon="-1.13091">
        <ele>62.335057</ele>
        <time>2022-12-25T09:47:57.371Z</time>
      </trkpt>
      <trkpt lat="44.81075" lon="-1.13093">
        <ele>62.381695</ele>
        <time>2022-12-25T09:47:59.340Z</time>
      </trkpt>
      <trkpt lat="44.81065" lon="-1.13093">
        <ele>62.427123</ele>
        <time>2022-12-25T09:48:01.374Z</time>
      </trkpt>
      <trkpt lat="44.81056" lon="-1.13095">
        <ele>62.472695</ele>
        <time>2022-12-25T09:48:03.345Z</time>
      </trkpt>
      <trkpt lat="44.81047" lon="-1.13096">
        <ele>62.519166</ele>
        <time>2022-12-25T09:48:05.373Z</time>
      </trkpt>
      <trkpt lat="44.81034" lon="-1.13097">
        <ele>62.582664</ele>
        <time>2022-12-25T09:48:08.365Z</time>
      </trkpt>
      <trkpt lat="44.81022" lon="-1.13099">
        <ele>62.646162</ele>
        <time>2022-12-25T09:48:11.367Z</time>
      </trkpt>
      <trkpt lat="44.81009" lon="-1.13101">
        <ele>62.711776</ele>
        <time>2022-12-25T09:48:14.365Z</time>
      </trkpt>
      <trkpt lat="44.81" lon="-1.13102">
        <ele>62.756973</ele>
        <time>2022-12-25T09:48:16.362Z</time>
      </trkpt>
      <trkpt lat="44.80991" lon="-1.13103">
        <ele>62.801554</ele>
        <time>2022-12-25T09:48:18.370Z</time>
      </trkpt>
      <trkpt lat="44.80977" lon="-1.13105">
        <ele>62.868588</ele>
        <time>2022-12-25T09:48:21.351Z</time>
      </trkpt>
      <trkpt lat="44.80968" lon="-1.13106">
        <ele>62.85272</ele>
        <time>2022-12-25T09:48:23.371Z</time>
      </trkpt>
      <trkpt lat="44.80959" lon="-1.13108">
        <ele>62.811486</ele>
        <time>2022-12-25T09:48:25.372Z</time>
      </trkpt>
      <trkpt lat="44.8095" lon="-1.13109">
        <ele>62.768944</ele>
        <time>2022-12-25T09:48:27.370Z</time>
      </trkpt>
      <trkpt lat="44.80941" lon="-1.1311">
        <ele>62.727679</ele>
        <time>2022-12-25T09:48:29.347Z</time>
      </trkpt>
      <trkpt lat="44.80927" lon="-1.13112">
        <ele>62.66524</ele>
        <time>2022-12-25T09:48:32.361Z</time>
      </trkpt>
      <trkpt lat="44.80918" lon="-1.13113">
        <ele>62.624006</ele>
        <time>2022-12-25T09:48:34.356Z</time>
      </trkpt>
      <trkpt lat="44.80909" lon="-1.13114">
        <ele>62.58291</ele>
        <time>2022-12-25T09:48:36.369Z</time>
      </trkpt>
      <trkpt lat="44.809" lon="-1.13115">
        <ele>62.541574</ele>
        <time>2022-12-25T09:48:38.367Z</time>
      </trkpt>
      <trkpt lat="44.80888" lon="-1.13118">
        <ele>62.482306</ele>
        <time>2022-12-25T09:48:41.368Z</time>
      </trkpt>
      <trkpt lat="44.80876" lon="-1.13119">
        <ele>62.427476</ele>
        <time>2022-12-25T09:48:44.365Z</time>
      </trkpt>
      <trkpt lat="44.80863" lon="-1.1312">
        <ele>62.367983</ele>
        <time>2022-12-25T09:48:47.362Z</time>
      </trkpt>
      <trkpt lat="44.80849" lon="-1.13122">
        <ele>62.307846</ele>
        <time>2022-12-25T09:48:50.365Z</time>
      </trkpt>
      <trkpt lat="44.80837" lon="-1.13124">
        <ele>62.250143</ele>
        <time>2022-12-25T09:48:53.362Z</time>
      </trkpt>
      <trkpt lat="44.80825" lon="-1.13125">
        <ele>62.195727</ele>
        <time>2022-12-25T09:48:56.364Z</time>
      </trkpt>
      <trkpt lat="44.80815" lon="-1.13126">
        <ele>62.14995</ele>
        <time>2022-12-25T09:48:59.364Z</time>
      </trkpt>
      <trkpt lat="44.80804" lon="-1.13128">
        <ele>62.098987</ele>
        <time>2022-12-25T09:49:02.365Z</time>
      </trkpt>
      <trkpt lat="44.80793" lon="-1.13129">
        <ele>62.055842</ele>
        <time>2022-12-25T09:49:05.345Z</time>
      </trkpt>
      <trkpt lat="44.80782" lon="-1.13131">
        <ele>62.034659</ele>
        <time>2022-12-25T09:49:08.349Z</time>
      </trkpt>
      <trkpt lat="44.8077" lon="-1.13133">
        <ele>62.013102</ele>
        <time>2022-12-25T09:49:11.363Z</time>
      </trkpt>
      <trkpt lat="44.80758" lon="-1.13134">
        <ele>61.990642</ele>
        <time>2022-12-25T09:49:14.361Z</time>
      </trkpt>
      <trkpt lat="44.80746" lon="-1.13136">
        <ele>61.967934</ele>
        <time>2022-12-25T09:49:17.350Z</time>
      </trkpt>
      <trkpt lat="44.80734" lon="-1.13138">
        <ele>61.94518</ele>
        <time>2022-12-25T09:49:20.348Z</time>
      </trkpt>
      <trkpt lat="44.80722" lon="-1.13139">
        <ele>61.921209</ele>
        <time>2022-12-25T09:49:23.361Z</time>
      </trkpt>
      <trkpt lat="44.80708" lon="-1.13141">
        <ele>61.896414</ele>
        <time>2022-12-25T09:49:26.351Z</time>
      </trkpt>
      <trkpt lat="44.80699" lon="-1.13142">
        <ele>61.879203</ele>
        <time>2022-12-25T09:49:28.347Z</time>
      </trkpt>
      <trkpt lat="44.8069" lon="-1.13143">
        <ele>61.862046</ele>
        <time>2022-12-25T09:49:30.341Z</time>
      </trkpt>
      <trkpt lat="44.80677" lon="-1.13145">
        <ele>61.837064</ele>
        <time>2022-12-25T09:49:33.347Z</time>
      </trkpt>
      <trkpt lat="44.80668" lon="-1.13146">
        <ele>61.819514</ele>
        <time>2022-12-25T09:49:35.374Z</time>
      </trkpt>
      <trkpt lat="44.80654" lon="-1.13148">
        <ele>61.794407</ele>
        <time>2022-12-25T09:49:38.347Z</time>
      </trkpt>
      <trkpt lat="44.80645" lon="-1.13149">
        <ele>61.777368</ele>
        <time>2022-12-25T09:49:40.367Z</time>
      </trkpt>
      <trkpt lat="44.80637" lon="-1.1315">
        <ele>61.760545</ele>
        <time>2022-12-25T09:49:42.344Z</time>
      </trkpt>
      <trkpt lat="44.80627" lon="-1.13151">
        <ele>61.742994</ele>
        <time>2022-12-25T09:49:44.363Z</time>
      </trkpt>
      <trkpt lat="44.80618" lon="-1.13153">
        <ele>61.725551</ele>
        <time>2022-12-25T09:49:46.343Z</time>
      </trkpt>
      <trkpt lat="44.80609" lon="-1.13154">
        <ele>61.678958</ele>
        <time>2022-12-25T09:49:48.365Z</time>
      </trkpt>
      <trkpt lat="44.80599" lon="-1.13156">
        <ele>61.629326</ele>
        <time>2022-12-25T09:49:50.352Z</time>
      </trkpt>
      <trkpt lat="44.80586" lon="-1.13158">
        <ele>61.55854</ele>
        <time>2022-12-25T09:49:53.364Z</time>
      </trkpt>
      <trkpt lat="44.80573" lon="-1.1316">
        <ele>61.485481</ele>
        <time>2022-12-25T09:49:56.348Z</time>
      </trkpt>
      <trkpt lat="44.8056" lon="-1.1316">
        <ele>61.414971</ele>
        <time>2022-12-25T09:49:59.349Z</time>
      </trkpt>
      <trkpt lat="44.80547" lon="-1.13162">
        <ele>61.345766</ele>
        <time>2022-12-25T09:50:02.346Z</time>
      </trkpt>
      <trkpt lat="44.80534" lon="-1.13164">
        <ele>61.273864</ele>
        <time>2022-12-25T09:50:05.363Z</time>
      </trkpt>
      <trkpt lat="44.80522" lon="-1.13166">
        <ele>61.207764</ele>
        <time>2022-12-25T09:50:08.364Z</time>
      </trkpt>
      <trkpt lat="44.80511" lon="-1.13167">
        <ele>61.148306</ele>
        <time>2022-12-25T09:50:11.366Z</time>
      </trkpt>
      <trkpt lat="44.805" lon="-1.1317">
        <ele>61.088302</ele>
        <time>2022-12-25T09:50:14.345Z</time>
      </trkpt>
      <trkpt lat="44.80489" lon="-1.13173">
        <ele>61.024892</ele>
        <time>2022-12-25T09:50:17.352Z</time>
      </trkpt>
      <trkpt lat="44.80477" lon="-1.13176">
        <ele>60.958944</ele>
        <time>2022-12-25T09:50:20.350Z</time>
      </trkpt>
      <trkpt lat="44.80465" lon="-1.13178">
        <ele>60.89382</ele>
        <time>2022-12-25T09:50:23.360Z</time>
      </trkpt>
      <trkpt lat="44.80453" lon="-1.13181">
        <ele>60.827209</ele>
        <time>2022-12-25T09:50:26.348Z</time>
      </trkpt>
      <trkpt lat="44.80441" lon="-1.13185">
        <ele>60.762439</ele>
        <time>2022-12-25T09:50:29.365Z</time>
      </trkpt>
      <trkpt lat="44.80429" lon="-1.13189">
        <ele>60.806135</ele>
        <time>2022-12-25T09:50:32.348Z</time>
      </trkpt>
      <trkpt lat="44.80418" lon="-1.13193">
        <ele>60.880697</ele>
        <time>2022-12-25T09:50:35.346Z</time>
      </trkpt>
      <trkpt lat="44.80407" lon="-1.132">
        <ele>60.956136</ele>
        <time>2022-12-25T09:50:38.361Z</time>
      </trkpt>
      <trkpt lat="44.80396" lon="-1.13207">
        <ele>61.034841</ele>
        <time>2022-12-25T09:50:41.369Z</time>
      </trkpt>
      <trkpt lat="44.80384" lon="-1.13215">
        <ele>61.117182</ele>
        <time>2022-12-25T09:50:44.358Z</time>
      </trkpt>
      <trkpt lat="44.80373" lon="-1.13224">
        <ele>61.19978</ele>
        <time>2022-12-25T09:50:47.364Z</time>
      </trkpt>
      <trkpt lat="44.80362" lon="-1.13234">
        <ele>61.28097</ele>
        <time>2022-12-25T09:50:50.363Z</time>
      </trkpt>
      <trkpt lat="44.80354" lon="-1.13241">
        <ele>61.339436</ele>
        <time>2022-12-25T09:50:52.342Z</time>
      </trkpt>
      <trkpt lat="44.80344" lon="-1.13252">
        <ele>61.419383</ele>
        <time>2022-12-25T09:50:55.366Z</time>
      </trkpt>
      <trkpt lat="44.80335" lon="-1.13262">
        <ele>61.492273</ele>
        <time>2022-12-25T09:50:58.359Z</time>
      </trkpt>
      <trkpt lat="44.80328" lon="-1.13272">
        <ele>61.555679</ele>
        <time>2022-12-25T09:51:01.345Z</time>
      </trkpt>
      <trkpt lat="44.80322" lon="-1.13282">
        <ele>61.61451</ele>
        <time>2022-12-25T09:51:04.349Z</time>
      </trkpt>
      <trkpt lat="44.80314" lon="-1.13294">
        <ele>61.689329</ele>
        <time>2022-12-25T09:51:08.345Z</time>
      </trkpt>
      <trkpt lat="44.80306" lon="-1.13303">
        <ele>61.753293</ele>
        <time>2022-12-25T09:51:11.359Z</time>
      </trkpt>
      <trkpt lat="44.80298" lon="-1.13313">
        <ele>61.820336</ele>
        <time>2022-12-25T09:51:14.362Z</time>
      </trkpt>
      <trkpt lat="44.80291" lon="-1.13324">
        <ele>61.885536</ele>
        <time>2022-12-25T09:51:17.363Z</time>
      </trkpt>
      <trkpt lat="44.80283" lon="-1.13336">
        <ele>61.874392</ele>
        <time>2022-12-25T09:51:20.363Z</time>
      </trkpt>
      <trkpt lat="44.80276" lon="-1.13347">
        <ele>61.863842</ele>
        <time>2022-12-25T09:51:23.362Z</time>
      </trkpt>
      <trkpt lat="44.8027" lon="-1.13357">
        <ele>61.85393</ele>
        <time>2022-12-25T09:51:26.362Z</time>
      </trkpt>
      <trkpt lat="44.80262" lon="-1.1337">
        <ele>61.841864</ele>
        <time>2022-12-25T09:51:30.359Z</time>
      </trkpt>
      <trkpt lat="44.80255" lon="-1.13381">
        <ele>61.831453</ele>
        <time>2022-12-25T09:51:33.372Z</time>
      </trkpt>
      <trkpt lat="44.80248" lon="-1.13393">
        <ele>61.820403</ele>
        <time>2022-12-25T09:51:36.367Z</time>
      </trkpt>
      <trkpt lat="44.80241" lon="-1.13405">
        <ele>61.809667</ele>
        <time>2022-12-25T09:51:39.354Z</time>
      </trkpt>
      <trkpt lat="44.80235" lon="-1.13416">
        <ele>61.799604</ele>
        <time>2022-12-25T09:51:42.351Z</time>
      </trkpt>
      <trkpt lat="44.80227" lon="-1.13428">
        <ele>61.788025</ele>
        <time>2022-12-25T09:51:46.363Z</time>
      </trkpt>
      <trkpt lat="44.80221" lon="-1.13438">
        <ele>61.778752</ele>
        <time>2022-12-25T09:51:49.357Z</time>
      </trkpt>
      <trkpt lat="44.80215" lon="-1.13449">
        <ele>61.768341</ele>
        <time>2022-12-25T09:51:52.367Z</time>
      </trkpt>
      <trkpt lat="44.80208" lon="-1.1346">
        <ele>61.758268</ele>
        <time>2022-12-25T09:51:55.360Z</time>
      </trkpt>
      <trkpt lat="44.80202" lon="-1.1347">
        <ele>61.748803</ele>
        <time>2022-12-25T09:51:58.369Z</time>
      </trkpt>
      <trkpt lat="44.80197" lon="-1.13481">
        <ele>61.739172</ele>
        <time>2022-12-25T09:52:01.365Z</time>
      </trkpt>
      <trkpt lat="44.80191" lon="-1.13492">
        <ele>61.729629</ele>
        <time>2022-12-25T09:52:04.359Z</time>
      </trkpt>
      <trkpt lat="44.80185" lon="-1.13501">
        <ele>61.720529</ele>
        <time>2022-12-25T09:52:07.368Z</time>
      </trkpt>
      <trkpt lat="44.80177" lon="-1.13512">
        <ele>61.709659</ele>
        <time>2022-12-25T09:52:11.355Z</time>
      </trkpt>
      <trkpt lat="44.80171" lon="-1.13523">
        <ele>61.674249</ele>
        <time>2022-12-25T09:52:15.364Z</time>
      </trkpt>
      <trkpt lat="44.80163" lon="-1.13533">
        <ele>61.611812</ele>
        <time>2022-12-25T09:52:19.345Z</time>
      </trkpt>
      <trkpt lat="44.80153" lon="-1.13539">
        <ele>61.546082</ele>
        <time>2022-12-25T09:52:23.343Z</time>
      </trkpt>
      <trkpt lat="44.80143" lon="-1.13539">
        <ele>61.490507</ele>
        <time>2022-12-25T09:52:26.340Z</time>
      </trkpt>
      <trkpt lat="44.80133" lon="-1.13538">
        <ele>61.430202</ele>
        <time>2022-12-25T09:52:29.363Z</time>
      </trkpt>
      <trkpt lat="44.80122" lon="-1.13537">
        <ele>61.367105</ele>
        <time>2022-12-25T09:52:32.361Z</time>
      </trkpt>
      <trkpt lat="44.80111" lon="-1.13537">
        <ele>61.302273</ele>
        <time>2022-12-25T09:52:35.350Z</time>
      </trkpt>
      <trkpt lat="44.80099" lon="-1.13536">
        <ele>61.237346</ele>
        <time>2022-12-25T09:52:38.366Z</time>
      </trkpt>
      <trkpt lat="44.80087" lon="-1.13535">
        <ele>61.167257</ele>
        <time>2022-12-25T09:52:41.348Z</time>
      </trkpt>
      <trkpt lat="44.80075" lon="-1.13536">
        <ele>61.098354</ele>
        <time>2022-12-25T09:52:44.358Z</time>
      </trkpt>
      <trkpt lat="44.80063" lon="-1.13536">
        <ele>61.028324</ele>
        <time>2022-12-25T09:52:47.359Z</time>
      </trkpt>
      <trkpt lat="44.80051" lon="-1.13537">
        <ele>60.95706</ele>
        <time>2022-12-25T09:52:50.372Z</time>
      </trkpt>
      <trkpt lat="44.8004" lon="-1.13538">
        <ele>60.891556</ele>
        <time>2022-12-25T09:52:53.362Z</time>
      </trkpt>
      <trkpt lat="44.80028" lon="-1.13539">
        <ele>60.824675</ele>
        <time>2022-12-25T09:52:56.365Z</time>
      </trkpt>
      <trkpt lat="44.80016" lon="-1.13542">
        <ele>60.754849</ele>
        <time>2022-12-25T09:52:59.368Z</time>
      </trkpt>
      <trkpt lat="44.80004" lon="-1.13546">
        <ele>60.680274</ele>
        <time>2022-12-25T09:53:02.363Z</time>
      </trkpt>
      <trkpt lat="44.79991" lon="-1.1355">
        <ele>60.653027</ele>
        <time>2022-12-25T09:53:05.367Z</time>
      </trkpt>
      <trkpt lat="44.79979" lon="-1.13556">
        <ele>60.638929</ele>
        <time>2022-12-25T09:53:08.352Z</time>
      </trkpt>
      <trkpt lat="44.79967" lon="-1.1356">
        <ele>60.623888</ele>
        <time>2022-12-25T09:53:11.351Z</time>
      </trkpt>
      <trkpt lat="44.79958" lon="-1.13564">
        <ele>60.613527</ele>
        <time>2022-12-25T09:53:13.362Z</time>
      </trkpt>
      <trkpt lat="44.79945" lon="-1.13568">
        <ele>60.598397</ele>
        <time>2022-12-25T09:53:16.364Z</time>
      </trkpt>
      <trkpt lat="44.79932" lon="-1.13573">
        <ele>60.583203</ele>
        <time>2022-12-25T09:53:19.357Z</time>
      </trkpt>
      <trkpt lat="44.79919" lon="-1.13578">
        <ele>60.567931</ele>
        <time>2022-12-25T09:53:22.361Z</time>
      </trkpt>
      <trkpt lat="44.79907" lon="-1.13583">
        <ele>60.553595</ele>
        <time>2022-12-25T09:53:25.359Z</time>
      </trkpt>
      <trkpt lat="44.79896" lon="-1.13587">
        <ele>60.540555</ele>
        <time>2022-12-25T09:53:28.365Z</time>
      </trkpt>
      <trkpt lat="44.79885" lon="-1.1359">
        <ele>60.527502</ele>
        <time>2022-12-25T09:53:31.347Z</time>
      </trkpt>
      <trkpt lat="44.79876" lon="-1.13594">
        <ele>60.516309</ele>
        <time>2022-12-25T09:53:34.365Z</time>
      </trkpt>
      <trkpt lat="44.79866" lon="-1.13597">
        <ele>60.505334</ele>
        <time>2022-12-25T09:53:37.364Z</time>
      </trkpt>
      <trkpt lat="44.79857" lon="-1.13601">
        <ele>60.493936</ele>
        <time>2022-12-25T09:53:40.346Z</time>
      </trkpt>
      <trkpt lat="44.79846" lon="-1.13603">
        <ele>60.481923</ele>
        <time>2022-12-25T09:53:43.370Z</time>
      </trkpt>
      <trkpt lat="44.79835" lon="-1.13606">
        <ele>60.469264</ele>
        <time>2022-12-25T09:53:46.359Z</time>
      </trkpt>
      <trkpt lat="44.79824" lon="-1.13611">
        <ele>60.451559</ele>
        <time>2022-12-25T09:53:49.355Z</time>
      </trkpt>
      <trkpt lat="44.79812" lon="-1.13616">
        <ele>60.419529</ele>
        <time>2022-12-25T09:53:52.362Z</time>
      </trkpt>
      <trkpt lat="44.798" lon="-1.1362">
        <ele>60.38758</ele>
        <time>2022-12-25T09:53:55.343Z</time>
      </trkpt>
      <trkpt lat="44.79788" lon="-1.13625">
        <ele>60.355338</ele>
        <time>2022-12-25T09:53:58.369Z</time>
      </trkpt>
      <trkpt lat="44.79776" lon="-1.1363">
        <ele>60.322913</ele>
        <time>2022-12-25T09:54:01.364Z</time>
      </trkpt>
      <trkpt lat="44.79763" lon="-1.13635">
        <ele>60.289252</ele>
        <time>2022-12-25T09:54:04.361Z</time>
      </trkpt>
      <trkpt lat="44.79755" lon="-1.13639">
        <ele>60.266034</ele>
        <time>2022-12-25T09:54:06.359Z</time>
      </trkpt>
      <trkpt lat="44.79743" lon="-1.13644">
        <ele>60.234538</ele>
        <time>2022-12-25T09:54:09.359Z</time>
      </trkpt>
      <trkpt lat="44.79732" lon="-1.13647">
        <ele>60.207038</ele>
        <time>2022-12-25T09:54:12.362Z</time>
      </trkpt>
      <trkpt lat="44.79722" lon="-1.13651">
        <ele>60.180283</ele>
        <time>2022-12-25T09:54:15.363Z</time>
      </trkpt>
      <trkpt lat="44.79711" lon="-1.13655">
        <ele>60.151806</ele>
        <time>2022-12-25T09:54:18.368Z</time>
      </trkpt>
      <trkpt lat="44.797" lon="-1.1366">
        <ele>60.12017</ele>
        <time>2022-12-25T09:54:21.355Z</time>
      </trkpt>
      <trkpt lat="44.79687" lon="-1.13664">
        <ele>60.086506</ele>
        <time>2022-12-25T09:54:24.347Z</time>
      </trkpt>
      <trkpt lat="44.79674" lon="-1.13669">
        <ele>60.05239</ele>
        <time>2022-12-25T09:54:27.363Z</time>
      </trkpt>
      <trkpt lat="44.79662" lon="-1.13675">
        <ele>60.019062</ele>
        <time>2022-12-25T09:54:30.370Z</time>
      </trkpt>
      <trkpt lat="44.79649" lon="-1.1368">
        <ele>59.9508</ele>
        <time>2022-12-25T09:54:33.368Z</time>
      </trkpt>
      <trkpt lat="44.79637" lon="-1.13685">
        <ele>59.824162</ele>
        <time>2022-12-25T09:54:36.367Z</time>
      </trkpt>
      <trkpt lat="44.79624" lon="-1.1369">
        <ele>59.703004</ele>
        <time>2022-12-25T09:54:39.370Z</time>
      </trkpt>
      <trkpt lat="44.79614" lon="-1.13694">
        <ele>59.59552</ele>
        <time>2022-12-25T09:54:42.354Z</time>
      </trkpt>
      <trkpt lat="44.79603" lon="-1.13698">
        <ele>59.486113</ele>
        <time>2022-12-25T09:54:45.363Z</time>
      </trkpt>
      <trkpt lat="44.79591" lon="-1.137">
        <ele>59.371898</ele>
        <time>2022-12-25T09:54:48.369Z</time>
      </trkpt>
      <trkpt lat="44.7958" lon="-1.13698">
        <ele>59.261006</ele>
        <time>2022-12-25T09:54:51.347Z</time>
      </trkpt>
      <trkpt lat="44.79572" lon="-1.13689">
        <ele>59.161258</ele>
        <time>2022-12-25T09:54:54.347Z</time>
      </trkpt>
      <trkpt lat="44.7957" lon="-1.13676">
        <ele>59.068061</ele>
        <time>2022-12-25T09:54:57.347Z</time>
      </trkpt>
      <trkpt lat="44.79569" lon="-1.1366">
        <ele>58.963068</ele>
        <time>2022-12-25T09:55:00.345Z</time>
      </trkpt>
      <trkpt lat="44.79568" lon="-1.13644">
        <ele>58.853114</ele>
        <time>2022-12-25T09:55:03.338Z</time>
      </trkpt>
      <trkpt lat="44.79566" lon="-1.13628">
        <ele>58.739414</ele>
        <time>2022-12-25T09:55:06.364Z</time>
      </trkpt>
      <trkpt lat="44.79566" lon="-1.13611">
        <ele>58.621408</ele>
        <time>2022-12-25T09:55:09.362Z</time>
      </trkpt>
      <trkpt lat="44.79565" lon="-1.13593">
        <ele>58.502153</ele>
        <time>2022-12-25T09:55:12.370Z</time>
      </trkpt>
      <trkpt lat="44.79563" lon="-1.13576">
        <ele>58.379489</ele>
        <time>2022-12-25T09:55:15.362Z</time>
      </trkpt>
      <trkpt lat="44.79562" lon="-1.13558">
        <ele>58.257598</ele>
        <time>2022-12-25T09:55:18.363Z</time>
      </trkpt>
      <trkpt lat="44.79561" lon="-1.1354">
        <ele>58.173302</ele>
        <time>2022-12-25T09:55:21.361Z</time>
      </trkpt>
      <trkpt lat="44.7956" lon="-1.13522">
        <ele>58.089905</ele>
        <time>2022-12-25T09:55:24.352Z</time>
      </trkpt>
      <trkpt lat="44.79559" lon="-1.13505">
        <ele>58.005459</ele>
        <time>2022-12-25T09:55:27.362Z</time>
      </trkpt>
      <trkpt lat="44.79558" lon="-1.13487">
        <ele>57.921041</ele>
        <time>2022-12-25T09:55:30.371Z</time>
      </trkpt>
      <trkpt lat="44.79557" lon="-1.13469">
        <ele>57.83454</ele>
        <time>2022-12-25T09:55:33.343Z</time>
      </trkpt>
      <trkpt lat="44.79556" lon="-1.1345">
        <ele>57.74505</ele>
        <time>2022-12-25T09:55:36.364Z</time>
      </trkpt>
      <trkpt lat="44.79554" lon="-1.13432">
        <ele>57.661657</ele>
        <time>2022-12-25T09:55:39.372Z</time>
      </trkpt>
      <trkpt lat="44.79553" lon="-1.13417">
        <ele>57.58789</ele>
        <time>2022-12-25T09:55:42.368Z</time>
      </trkpt>
      <trkpt lat="44.79553" lon="-1.13403">
        <ele>57.523612</ele>
        <time>2022-12-25T09:55:45.341Z</time>
      </trkpt>
      <trkpt lat="44.79549" lon="-1.13389">
        <ele>57.452345</ele>
        <time>2022-12-25T09:55:49.340Z</time>
      </trkpt>
      <trkpt lat="44.79541" lon="-1.13381">
        <ele>57.387553</ele>
        <time>2022-12-25T09:55:53.344Z</time>
      </trkpt>
      <trkpt lat="44.7953" lon="-1.13381">
        <ele>57.31096</ele>
        <time>2022-12-25T09:55:57.348Z</time>
      </trkpt>
      <trkpt lat="44.7952" lon="-1.13384">
        <ele>57.246506</ele>
        <time>2022-12-25T09:56:00.342Z</time>
      </trkpt>
      <trkpt lat="44.79511" lon="-1.13385">
        <ele>57.18505</ele>
        <time>2022-12-25T09:56:03.345Z</time>
      </trkpt>
      <trkpt lat="44.79503" lon="-1.13378">
        <ele>57.124696</ele>
        <time>2022-12-25T09:56:07.360Z</time>
      </trkpt>
      <trkpt lat="44.79501" lon="-1.13364">
        <ele>57.073225</ele>
        <time>2022-12-25T09:56:11.347Z</time>
      </trkpt>
      <trkpt lat="44.79499" lon="-1.13349">
        <ele>57.241888</ele>
        <time>2022-12-25T09:56:15.359Z</time>
      </trkpt>
      <trkpt lat="44.79496" lon="-1.13336">
        <ele>57.391263</ele>
        <time>2022-12-25T09:56:19.364Z</time>
      </trkpt>
      <trkpt lat="44.79487" lon="-1.13335">
        <ele>57.534534</ele>
        <time>2022-12-25T09:56:23.346Z</time>
      </trkpt>
      <trkpt lat="44.79486" lon="-1.13336">
        <ele>57.553668</ele>
        <time>2022-12-25T09:56:32.871Z</time>
      </trkpt>
      <trkpt lat="44.79462" lon="-1.13339">
        <ele>57.926524</ele>
        <time>2022-12-25T09:59:39.359Z</time>
      </trkpt>
      <trkpt lat="44.79452" lon="-1.13342">
        <ele>58.090234</ele>
        <time>2022-12-25T09:59:43.361Z</time>
      </trkpt>
      <trkpt lat="44.7944" lon="-1.13344">
        <ele>58.268634</ele>
        <time>2022-12-25T09:59:47.355Z</time>
      </trkpt>
      <trkpt lat="44.79428" lon="-1.13346">
        <ele>58.454134</ele>
        <time>2022-12-25T09:59:51.343Z</time>
      </trkpt>
      <trkpt lat="44.79419" lon="-1.13348">
        <ele>58.600927</ele>
        <time>2022-12-25T09:59:54.363Z</time>
      </trkpt>
      <trkpt lat="44.79409" lon="-1.13349">
        <ele>58.764807</ele>
        <time>2022-12-25T09:59:57.356Z</time>
      </trkpt>
      <trkpt lat="44.79398" lon="-1.13352">
        <ele>58.929314</ele>
        <time>2022-12-25T10:00:00.366Z</time>
      </trkpt>
      <trkpt lat="44.79387" lon="-1.13355">
        <ele>59.101439</ele>
        <time>2022-12-25T10:00:03.363Z</time>
      </trkpt>
      <trkpt lat="44.79376" lon="-1.13358">
        <ele>59.272462</ele>
        <time>2022-12-25T10:00:06.367Z</time>
      </trkpt>
      <trkpt lat="44.79365" lon="-1.13359">
        <ele>59.445968</ele>
        <time>2022-12-25T10:00:09.362Z</time>
      </trkpt>
      <trkpt lat="44.79354" lon="-1.13363">
        <ele>59.620256</ele>
        <time>2022-12-25T10:00:12.347Z</time>
      </trkpt>
      <trkpt lat="44.79343" lon="-1.13364">
        <ele>59.79055</ele>
        <time>2022-12-25T10:00:15.367Z</time>
      </trkpt>
      <trkpt lat="44.79331" lon="-1.13367">
        <ele>59.83656</ele>
        <time>2022-12-25T10:00:18.364Z</time>
      </trkpt>
      <trkpt lat="44.7932" lon="-1.13369">
        <ele>59.811779</ele>
        <time>2022-12-25T10:00:21.347Z</time>
      </trkpt>
      <trkpt lat="44.79308" lon="-1.13372">
        <ele>59.784872</ele>
        <time>2022-12-25T10:00:24.345Z</time>
      </trkpt>
      <trkpt lat="44.79295" lon="-1.13375">
        <ele>59.757824</ele>
        <time>2022-12-25T10:00:27.374Z</time>
      </trkpt>
      <trkpt lat="44.79283" lon="-1.13378">
        <ele>59.731021</ele>
        <time>2022-12-25T10:00:30.371Z</time>
      </trkpt>
      <trkpt lat="44.79271" lon="-1.13381">
        <ele>59.704613</ele>
        <time>2022-12-25T10:00:33.350Z</time>
      </trkpt>
      <trkpt lat="44.79259" lon="-1.13384">
        <ele>59.677968</ele>
        <time>2022-12-25T10:00:36.358Z</time>
      </trkpt>
      <trkpt lat="44.79247" lon="-1.13386">
        <ele>59.65092</ele>
        <time>2022-12-25T10:00:39.364Z</time>
      </trkpt>
      <trkpt lat="44.79234" lon="-1.13389">
        <ele>59.624556</ele>
        <time>2022-12-25T10:00:42.375Z</time>
      </trkpt>
      <trkpt lat="44.79224" lon="-1.13392">
        <ele>59.602043</ele>
        <time>2022-12-25T10:00:45.373Z</time>
      </trkpt>
      <trkpt lat="44.79214" lon="-1.13393">
        <ele>59.580187</ele>
        <time>2022-12-25T10:00:48.353Z</time>
      </trkpt>
      <trkpt lat="44.79203" lon="-1.13396">
        <ele>59.55583</ele>
        <time>2022-12-25T10:00:51.348Z</time>
      </trkpt>
      <trkpt lat="44.79191" lon="-1.13398">
        <ele>59.529209</ele>
        <time>2022-12-25T10:00:54.367Z</time>
      </trkpt>
      <trkpt lat="44.79178" lon="-1.13401">
        <ele>59.501562</ele>
        <time>2022-12-25T10:00:57.365Z</time>
      </trkpt>
      <trkpt lat="44.79166" lon="-1.13404">
        <ele>59.473992</ele>
        <time>2022-12-25T10:01:00.359Z</time>
      </trkpt>
      <trkpt lat="44.79153" lon="-1.13406">
        <ele>59.581561</ele>
        <time>2022-12-25T10:01:03.374Z</time>
      </trkpt>
      <trkpt lat="44.79141" lon="-1.13409">
        <ele>59.752558</ele>
        <time>2022-12-25T10:01:06.356Z</time>
      </trkpt>
      <trkpt lat="44.79129" lon="-1.13412">
        <ele>59.927344</ele>
        <time>2022-12-25T10:01:09.375Z</time>
      </trkpt>
      <trkpt lat="44.79117" lon="-1.13414">
        <ele>60.091325</ele>
        <time>2022-12-25T10:01:12.345Z</time>
      </trkpt>
      <trkpt lat="44.79105" lon="-1.13416">
        <ele>60.262739</ele>
        <time>2022-12-25T10:01:15.346Z</time>
      </trkpt>
      <trkpt lat="44.79094" lon="-1.13418">
        <ele>60.417961</ele>
        <time>2022-12-25T10:01:18.371Z</time>
      </trkpt>
      <trkpt lat="44.79085" lon="-1.13419">
        <ele>60.54722</ele>
        <time>2022-12-25T10:01:21.357Z</time>
      </trkpt>
      <trkpt lat="44.79075" lon="-1.1342">
        <ele>60.684166</ele>
        <time>2022-12-25T10:01:24.371Z</time>
      </trkpt>
      <trkpt lat="44.79064" lon="-1.13424">
        <ele>60.840829</ele>
        <time>2022-12-25T10:01:27.377Z</time>
      </trkpt>
      <trkpt lat="44.79052" lon="-1.13427">
        <ele>61.01341</ele>
        <time>2022-12-25T10:01:30.366Z</time>
      </trkpt>
      <trkpt lat="44.79039" lon="-1.1343">
        <ele>61.194184</ele>
        <time>2022-12-25T10:01:33.379Z</time>
      </trkpt>
      <trkpt lat="44.79026" lon="-1.13433">
        <ele>61.367948</ele>
        <time>2022-12-25T10:01:36.361Z</time>
      </trkpt>
      <trkpt lat="44.79014" lon="-1.13435">
        <ele>61.542609</ele>
        <time>2022-12-25T10:01:39.365Z</time>
      </trkpt>
      <trkpt lat="44.79001" lon="-1.13438">
        <ele>61.721039</ele>
        <time>2022-12-25T10:01:42.368Z</time>
      </trkpt>
      <trkpt lat="44.78988" lon="-1.13441">
        <ele>61.902838</ele>
        <time>2022-12-25T10:01:45.378Z</time>
      </trkpt>
      <trkpt lat="44.78976" lon="-1.13444">
        <ele>61.934964</ele>
        <time>2022-12-25T10:01:48.363Z</time>
      </trkpt>
      <trkpt lat="44.78962" lon="-1.13447">
        <ele>61.888995</ele>
        <time>2022-12-25T10:01:51.364Z</time>
      </trkpt>
      <trkpt lat="44.78949" lon="-1.1345">
        <ele>61.842611</ele>
        <time>2022-12-25T10:01:54.363Z</time>
      </trkpt>
      <trkpt lat="44.78936" lon="-1.13453">
        <ele>61.796906</ele>
        <time>2022-12-25T10:01:57.364Z</time>
      </trkpt>
      <trkpt lat="44.78927" lon="-1.13455">
        <ele>61.764811</ele>
        <time>2022-12-25T10:01:59.365Z</time>
      </trkpt>
      <trkpt lat="44.78918" lon="-1.13457">
        <ele>61.733435</ele>
        <time>2022-12-25T10:02:01.363Z</time>
      </trkpt>
      <trkpt lat="44.78908" lon="-1.13459">
        <ele>61.70096</ele>
        <time>2022-12-25T10:02:03.373Z</time>
      </trkpt>
      <trkpt lat="44.78899" lon="-1.13461">
        <ele>61.668599</ele>
        <time>2022-12-25T10:02:05.374Z</time>
      </trkpt>
      <trkpt lat="44.7889" lon="-1.13463">
        <ele>61.636882</ele>
        <time>2022-12-25T10:02:07.375Z</time>
      </trkpt>
      <trkpt lat="44.78881" lon="-1.13464">
        <ele>61.60496</ele>
        <time>2022-12-25T10:02:09.375Z</time>
      </trkpt>
      <trkpt lat="44.78872" lon="-1.13466">
        <ele>61.573583</ele>
        <time>2022-12-25T10:02:11.363Z</time>
      </trkpt>
      <trkpt lat="44.78862" lon="-1.13469">
        <ele>61.540429</ele>
        <time>2022-12-25T10:02:13.355Z</time>
      </trkpt>
      <trkpt lat="44.78849" lon="-1.13471">
        <ele>61.493098</ele>
        <time>2022-12-25T10:02:16.365Z</time>
      </trkpt>
      <trkpt lat="44.7884" lon="-1.13474">
        <ele>61.461797</ele>
        <time>2022-12-25T10:02:18.366Z</time>
      </trkpt>
      <trkpt lat="44.78831" lon="-1.13476">
        <ele>61.429874</ele>
        <time>2022-12-25T10:02:20.358Z</time>
      </trkpt>
      <trkpt lat="44.78822" lon="-1.13477">
        <ele>61.398262</ele>
        <time>2022-12-25T10:02:22.367Z</time>
      </trkpt>
      <trkpt lat="44.78812" lon="-1.1348">
        <ele>61.366424</ele>
        <time>2022-12-25T10:02:24.365Z</time>
      </trkpt>
      <trkpt lat="44.788" lon="-1.13481">
        <ele>61.275999</ele>
        <time>2022-12-25T10:02:27.361Z</time>
      </trkpt>
      <trkpt lat="44.78787" lon="-1.13485">
        <ele>61.140676</ele>
        <time>2022-12-25T10:02:30.363Z</time>
      </trkpt>
      <trkpt lat="44.78774" lon="-1.13487">
        <ele>61.010384</ele>
        <time>2022-12-25T10:02:33.356Z</time>
      </trkpt>
      <trkpt lat="44.78763" lon="-1.1349">
        <ele>60.894154</ele>
        <time>2022-12-25T10:02:36.370Z</time>
      </trkpt>
      <trkpt lat="44.78754" lon="-1.13492">
        <ele>60.794373</ele>
        <time>2022-12-25T10:02:39.358Z</time>
      </trkpt>
      <trkpt lat="44.78744" lon="-1.13493">
        <ele>60.695017</ele>
        <time>2022-12-25T10:02:42.362Z</time>
      </trkpt>
      <trkpt lat="44.78734" lon="-1.13495">
        <ele>60.582113</ele>
        <time>2022-12-25T10:02:45.363Z</time>
      </trkpt>
      <trkpt lat="44.78722" lon="-1.13498">
        <ele>60.459209</ele>
        <time>2022-12-25T10:02:48.373Z</time>
      </trkpt>
      <trkpt lat="44.78711" lon="-1.13501">
        <ele>60.337596</ele>
        <time>2022-12-25T10:02:51.372Z</time>
      </trkpt>
      <trkpt lat="44.78698" lon="-1.13503">
        <ele>60.209905</ele>
        <time>2022-12-25T10:02:54.365Z</time>
      </trkpt>
      <trkpt lat="44.78686" lon="-1.13505">
        <ele>60.080744</ele>
        <time>2022-12-25T10:02:57.349Z</time>
      </trkpt>
      <trkpt lat="44.78674" lon="-1.13509">
        <ele>59.950542</ele>
        <time>2022-12-25T10:03:00.351Z</time>
      </trkpt>
      <trkpt lat="44.78662" lon="-1.13511">
        <ele>59.825508</ele>
        <time>2022-12-25T10:03:03.373Z</time>
      </trkpt>
      <trkpt lat="44.7865" lon="-1.13514">
        <ele>59.704023</ele>
        <time>2022-12-25T10:03:06.354Z</time>
      </trkpt>
      <trkpt lat="44.78638" lon="-1.13515">
        <ele>59.577514</ele>
        <time>2022-12-25T10:03:09.370Z</time>
      </trkpt>
      <trkpt lat="44.78626" lon="-1.13518">
        <ele>59.477597</ele>
        <time>2022-12-25T10:03:12.363Z</time>
      </trkpt>
      <trkpt lat="44.78614" lon="-1.13521">
        <ele>59.504668</ele>
        <time>2022-12-25T10:03:15.372Z</time>
      </trkpt>
      <trkpt lat="44.78601" lon="-1.13523">
        <ele>59.531461</ele>
        <time>2022-12-25T10:03:18.371Z</time>
      </trkpt>
      <trkpt lat="44.78589" lon="-1.13526">
        <ele>59.557633</ele>
        <time>2022-12-25T10:03:21.373Z</time>
      </trkpt>
      <trkpt lat="44.78578" lon="-1.13529">
        <ele>59.583711</ele>
        <time>2022-12-25T10:03:24.364Z</time>
      </trkpt>
      <trkpt lat="44.78567" lon="-1.13531">
        <ele>59.607582</ele>
        <time>2022-12-25T10:03:27.366Z</time>
      </trkpt>
      <trkpt lat="44.78555" lon="-1.13534">
        <ele>59.632384</ele>
        <time>2022-12-25T10:03:30.366Z</time>
      </trkpt>
      <trkpt lat="44.78543" lon="-1.13537">
        <ele>59.658815</ele>
        <time>2022-12-25T10:03:33.372Z</time>
      </trkpt>
      <trkpt lat="44.78531" lon="-1.13539">
        <ele>59.685885</ele>
        <time>2022-12-25T10:03:36.371Z</time>
      </trkpt>
      <trkpt lat="44.78518" lon="-1.13542">
        <ele>59.713505</ele>
        <time>2022-12-25T10:03:39.377Z</time>
      </trkpt>
      <trkpt lat="44.78506" lon="-1.13544">
        <ele>59.740885</ele>
        <time>2022-12-25T10:03:42.356Z</time>
      </trkpt>
      <trkpt lat="44.78495" lon="-1.13546">
        <ele>59.763296</ele>
        <time>2022-12-25T10:03:45.367Z</time>
      </trkpt>
      <trkpt lat="44.78486" lon="-1.13548">
        <ele>59.783184</ele>
        <time>2022-12-25T10:03:48.365Z</time>
      </trkpt>
      <trkpt lat="44.78476" lon="-1.1355">
        <ele>59.804973</ele>
        <time>2022-12-25T10:03:51.373Z</time>
      </trkpt>
      <trkpt lat="44.78465" lon="-1.13552">
        <ele>59.830076</ele>
        <time>2022-12-25T10:03:54.353Z</time>
      </trkpt>
      <trkpt lat="44.78453" lon="-1.13556">
        <ele>59.856633</ele>
        <time>2022-12-25T10:03:57.376Z</time>
      </trkpt>
      <trkpt lat="44.7844" lon="-1.13558">
        <ele>59.71908</ele>
        <time>2022-12-25T10:04:00.370Z</time>
      </trkpt>
      <trkpt lat="44.78427" lon="-1.13561">
        <ele>59.549689</ele>
        <time>2022-12-25T10:04:03.372Z</time>
      </trkpt>
      <trkpt lat="44.78414" lon="-1.13563">
        <ele>59.381714</ele>
        <time>2022-12-25T10:04:06.364Z</time>
      </trkpt>
      <trkpt lat="44.78401" lon="-1.13567">
        <ele>59.211288</ele>
        <time>2022-12-25T10:04:09.363Z</time>
      </trkpt>
      <trkpt lat="44.78388" lon="-1.13569">
        <ele>59.036873</ele>
        <time>2022-12-25T10:04:12.365Z</time>
      </trkpt>
      <trkpt lat="44.78375" lon="-1.13572">
        <ele>58.8645</ele>
        <time>2022-12-25T10:04:15.344Z</time>
      </trkpt>
      <trkpt lat="44.78362" lon="-1.13575">
        <ele>58.69369</ele>
        <time>2022-12-25T10:04:18.353Z</time>
      </trkpt>
      <trkpt lat="44.78349" lon="-1.13578">
        <ele>58.522743</ele>
        <time>2022-12-25T10:04:21.361Z</time>
      </trkpt>
      <trkpt lat="44.78337" lon="-1.13581">
        <ele>58.36048</ele>
        <time>2022-12-25T10:04:24.364Z</time>
      </trkpt>
      <trkpt lat="44.78324" lon="-1.13583">
        <ele>58.198666</ele>
        <time>2022-12-25T10:04:27.363Z</time>
      </trkpt>
      <trkpt lat="44.78312" lon="-1.13586">
        <ele>58.038413</ele>
        <time>2022-12-25T10:04:30.375Z</time>
      </trkpt>
      <trkpt lat="44.78299" lon="-1.13588">
        <ele>57.865406</ele>
        <time>2022-12-25T10:04:33.374Z</time>
      </trkpt>
      <trkpt lat="44.7829" lon="-1.1359">
        <ele>57.748106</ele>
        <time>2022-12-25T10:04:35.359Z</time>
      </trkpt>
      <trkpt lat="44.78277" lon="-1.13593">
        <ele>57.580001</ele>
        <time>2022-12-25T10:04:38.368Z</time>
      </trkpt>
      <trkpt lat="44.78264" lon="-1.13596">
        <ele>57.581653</ele>
        <time>2022-12-25T10:04:41.347Z</time>
      </trkpt>
      <trkpt lat="44.78251" lon="-1.13599">
        <ele>57.672684</ele>
        <time>2022-12-25T10:04:44.364Z</time>
      </trkpt>
      <trkpt lat="44.78238" lon="-1.13602">
        <ele>57.763782</ele>
        <time>2022-12-25T10:04:47.362Z</time>
      </trkpt>
      <trkpt lat="44.78225" lon="-1.13604">
        <ele>57.84998</ele>
        <time>2022-12-25T10:04:50.364Z</time>
      </trkpt>
      <trkpt lat="44.78212" lon="-1.13607">
        <ele>57.940115</ele>
        <time>2022-12-25T10:04:53.371Z</time>
      </trkpt>
      <trkpt lat="44.782" lon="-1.13611">
        <ele>58.024335</ele>
        <time>2022-12-25T10:04:56.362Z</time>
      </trkpt>
      <trkpt lat="44.78189" lon="-1.13613">
        <ele>58.097644</ele>
        <time>2022-12-25T10:04:59.374Z</time>
      </trkpt>
      <trkpt lat="44.78179" lon="-1.13614">
        <ele>58.166446</ele>
        <time>2022-12-25T10:05:02.364Z</time>
      </trkpt>
      <trkpt lat="44.78168" lon="-1.13617">
        <ele>58.244663</ele>
        <time>2022-12-25T10:05:05.376Z</time>
      </trkpt>
      <trkpt lat="44.78156" lon="-1.13619">
        <ele>58.325237</ele>
        <time>2022-12-25T10:05:08.377Z</time>
      </trkpt>
      <trkpt lat="44.78143" lon="-1.13622">
        <ele>58.411121</ele>
        <time>2022-12-25T10:05:11.367Z</time>
      </trkpt>
      <trkpt lat="44.78131" lon="-1.13624">
        <ele>58.498865</ele>
        <time>2022-12-25T10:05:14.369Z</time>
      </trkpt>
      <trkpt lat="44.78118" lon="-1.13627">
        <ele>58.582984</ele>
        <time>2022-12-25T10:05:17.378Z</time>
      </trkpt>
      <trkpt lat="44.78106" lon="-1.1363">
        <ele>58.670365</ele>
        <time>2022-12-25T10:05:20.365Z</time>
      </trkpt>
      <trkpt lat="44.78093" lon="-1.13632">
        <ele>58.734315</ele>
        <time>2022-12-25T10:05:23.368Z</time>
      </trkpt>
      <trkpt lat="44.78079" lon="-1.13635">
        <ele>58.689045</ele>
        <time>2022-12-25T10:05:26.367Z</time>
      </trkpt>
      <trkpt lat="44.78066" lon="-1.13637">
        <ele>58.64481</ele>
        <time>2022-12-25T10:05:29.358Z</time>
      </trkpt>
      <trkpt lat="44.78057" lon="-1.1364">
        <ele>58.613995</ele>
        <time>2022-12-25T10:05:31.364Z</time>
      </trkpt>
      <trkpt lat="44.78044" lon="-1.13642">
        <ele>58.570246</ele>
        <time>2022-12-25T10:05:34.368Z</time>
      </trkpt>
      <trkpt lat="44.78031" lon="-1.13645">
        <ele>58.524664</ele>
        <time>2022-12-25T10:05:37.370Z</time>
      </trkpt>
      <trkpt lat="44.78018" lon="-1.13647">
        <ele>58.479884</ele>
        <time>2022-12-25T10:05:40.363Z</time>
      </trkpt>
      <trkpt lat="44.78005" lon="-1.13651">
        <ele>58.43675</ele>
        <time>2022-12-25T10:05:43.371Z</time>
      </trkpt>
      <trkpt lat="44.77993" lon="-1.13653">
        <ele>58.39555</ele>
        <time>2022-12-25T10:05:46.374Z</time>
      </trkpt>
      <trkpt lat="44.77982" lon="-1.13656">
        <ele>58.356349</ele>
        <time>2022-12-25T10:05:49.375Z</time>
      </trkpt>
      <trkpt lat="44.77971" lon="-1.13658">
        <ele>58.320844</ele>
        <time>2022-12-25T10:05:52.363Z</time>
      </trkpt>
      <trkpt lat="44.77962" lon="-1.1366">
        <ele>58.287997</ele>
        <time>2022-12-25T10:05:55.361Z</time>
      </trkpt>
      <trkpt lat="44.7795" lon="-1.13663">
        <ele>58.248264</ele>
        <time>2022-12-25T10:05:59.375Z</time>
      </trkpt>
      <trkpt lat="44.7794" lon="-1.13665">
        <ele>58.215028</ele>
        <time>2022-12-25T10:06:02.374Z</time>
      </trkpt>
      <trkpt lat="44.77931" lon="-1.13667">
        <ele>58.184626</ele>
        <time>2022-12-25T10:06:05.350Z</time>
      </trkpt>
      <trkpt lat="44.7792" lon="-1.13669">
        <ele>58.147395</ele>
        <time>2022-12-25T10:06:08.365Z</time>
      </trkpt>
      <trkpt lat="44.77911" lon="-1.13671">
        <ele>58.114656</ele>
        <time>2022-12-25T10:06:11.375Z</time>
      </trkpt>
      <trkpt lat="44.779" lon="-1.13673">
        <ele>58.077534</ele>
        <time>2022-12-25T10:06:15.371Z</time>
      </trkpt>
      <trkpt lat="44.77891" lon="-1.13675">
        <ele>58.04676</ele>
        <time>2022-12-25T10:06:18.347Z</time>
      </trkpt>
      <trkpt lat="44.77881" lon="-1.13677">
        <ele>58.010585</ele>
        <time>2022-12-25T10:06:21.363Z</time>
      </trkpt>
      <trkpt lat="44.77869" lon="-1.13679">
        <ele>57.970456</ele>
        <time>2022-12-25T10:06:24.367Z</time>
      </trkpt>
      <trkpt lat="44.77857" lon="-1.13682">
        <ele>57.928563</ele>
        <time>2022-12-25T10:06:27.372Z</time>
      </trkpt>
      <trkpt lat="44.77845" lon="-1.13685">
        <ele>57.885878</ele>
        <time>2022-12-25T10:06:30.376Z</time>
      </trkpt>
      <trkpt lat="44.77832" lon="-1.13687">
        <ele>57.842083</ele>
        <time>2022-12-25T10:06:33.345Z</time>
      </trkpt>
      <trkpt lat="44.77819" lon="-1.13689">
        <ele>57.798396</ele>
        <time>2022-12-25T10:06:36.347Z</time>
      </trkpt>
      <trkpt lat="44.77807" lon="-1.13691">
        <ele>57.75481</ele>
        <time>2022-12-25T10:06:39.367Z</time>
      </trkpt>
      <trkpt lat="44.77795" lon="-1.13695">
        <ele>57.711908</ele>
        <time>2022-12-25T10:06:42.373Z</time>
      </trkpt>
      <trkpt lat="44.77782" lon="-1.13697">
        <ele>57.668287</ele>
        <time>2022-12-25T10:06:45.345Z</time>
      </trkpt>
      <trkpt lat="44.77769" lon="-1.137">
        <ele>57.623914</ele>
        <time>2022-12-25T10:06:48.345Z</time>
      </trkpt>
      <trkpt lat="44.77756" lon="-1.13703">
        <ele>57.578599</ele>
        <time>2022-12-25T10:06:51.361Z</time>
      </trkpt>
      <trkpt lat="44.77744" lon="-1.13706">
        <ele>57.536506</ele>
        <time>2022-12-25T10:06:54.356Z</time>
      </trkpt>
      <trkpt lat="44.77733" lon="-1.13708">
        <ele>57.518588</ele>
        <time>2022-12-25T10:06:57.351Z</time>
      </trkpt>
      <trkpt lat="44.77722" lon="-1.1371">
        <ele>57.514996</ele>
        <time>2022-12-25T10:07:00.365Z</time>
      </trkpt>
      <trkpt lat="44.77712" lon="-1.13712">
        <ele>57.511468</ele>
        <time>2022-12-25T10:07:03.368Z</time>
      </trkpt>
      <trkpt lat="44.77703" lon="-1.13715">
        <ele>57.508276</ele>
        <time>2022-12-25T10:07:06.371Z</time>
      </trkpt>
      <trkpt lat="44.77693" lon="-1.13718">
        <ele>57.504633</ele>
        <time>2022-12-25T10:07:10.366Z</time>
      </trkpt>
      <trkpt lat="44.77683" lon="-1.13721">
        <ele>57.501156</ele>
        <time>2022-12-25T10:07:14.368Z</time>
      </trkpt>
      <trkpt lat="44.77673" lon="-1.13721">
        <ele>57.497892</ele>
        <time>2022-12-25T10:07:17.351Z</time>
      </trkpt>
      <trkpt lat="44.77662" lon="-1.13722">
        <ele>57.49404</ele>
        <time>2022-12-25T10:07:20.406Z</time>
      </trkpt>
      <trkpt lat="44.77649" lon="-1.13725">
        <ele>57.489704</ele>
        <time>2022-12-25T10:07:23.366Z</time>
      </trkpt>
      <trkpt lat="44.77636" lon="-1.13728">
        <ele>57.485278</ele>
        <time>2022-12-25T10:07:26.378Z</time>
      </trkpt>
      <trkpt lat="44.77623" lon="-1.13729">
        <ele>57.480808</ele>
        <time>2022-12-25T10:07:29.373Z</time>
      </trkpt>
      <trkpt lat="44.7761" lon="-1.13731">
        <ele>57.476243</ele>
        <time>2022-12-25T10:07:32.347Z</time>
      </trkpt>
      <trkpt lat="44.776" lon="-1.13732">
        <ele>57.473107</ele>
        <time>2022-12-25T10:07:34.364Z</time>
      </trkpt>
      <trkpt lat="44.77591" lon="-1.13733">
        <ele>57.470005</ele>
        <time>2022-12-25T10:07:36.365Z</time>
      </trkpt>
      <trkpt lat="44.77578" lon="-1.13734">
        <ele>57.465385</ele>
        <time>2022-12-25T10:07:39.373Z</time>
      </trkpt>
      <trkpt lat="44.77569" lon="-1.13734">
        <ele>57.462292</ele>
        <time>2022-12-25T10:07:41.375Z</time>
      </trkpt>
      <trkpt lat="44.7756" lon="-1.13735">
        <ele>57.439963</ele>
        <time>2022-12-25T10:07:43.362Z</time>
      </trkpt>
      <trkpt lat="44.77546" lon="-1.13735">
        <ele>57.265145</ele>
        <time>2022-12-25T10:07:46.375Z</time>
      </trkpt>
      <trkpt lat="44.77533" lon="-1.13735">
        <ele>57.091699</ele>
        <time>2022-12-25T10:07:49.354Z</time>
      </trkpt>
      <trkpt lat="44.77524" lon="-1.13735">
        <ele>56.973886</ele>
        <time>2022-12-25T10:07:51.362Z</time>
      </trkpt>
      <trkpt lat="44.77514" lon="-1.13734">
        <ele>56.85339</ele>
        <time>2022-12-25T10:07:53.368Z</time>
      </trkpt>
      <trkpt lat="44.77504" lon="-1.13734">
        <ele>56.721167</ele>
        <time>2022-12-25T10:07:55.353Z</time>
      </trkpt>
      <trkpt lat="44.77494" lon="-1.13733">
        <ele>56.594162</ele>
        <time>2022-12-25T10:07:57.364Z</time>
      </trkpt>
      <trkpt lat="44.77484" lon="-1.13732">
        <ele>56.467201</ele>
        <time>2022-12-25T10:07:59.365Z</time>
      </trkpt>
      <trkpt lat="44.77475" lon="-1.13731">
        <ele>56.342284</ele>
        <time>2022-12-25T10:08:01.362Z</time>
      </trkpt>
      <trkpt lat="44.77465" lon="-1.13729">
        <ele>56.211802</ele>
        <time>2022-12-25T10:08:03.376Z</time>
      </trkpt>
      <trkpt lat="44.77456" lon="-1.13728">
        <ele>56.09084</ele>
        <time>2022-12-25T10:08:05.349Z</time>
      </trkpt>
      <trkpt lat="44.77446" lon="-1.13726">
        <ele>55.966649</ele>
        <time>2022-12-25T10:08:07.364Z</time>
      </trkpt>
      <trkpt lat="44.77437" lon="-1.13725">
        <ele>55.848353</ele>
        <time>2022-12-25T10:08:09.371Z</time>
      </trkpt>
      <trkpt lat="44.77428" lon="-1.13722">
        <ele>55.725635</ele>
        <time>2022-12-25T10:08:11.372Z</time>
      </trkpt>
      <trkpt lat="44.77418" lon="-1.1372">
        <ele>55.59923</ele>
        <time>2022-12-25T10:08:13.373Z</time>
      </trkpt>
      <trkpt lat="44.77406" lon="-1.13717">
        <ele>55.438777</ele>
        <time>2022-12-25T10:08:16.364Z</time>
      </trkpt>
      <trkpt lat="44.77394" lon="-1.13714">
        <ele>55.287956</ele>
        <time>2022-12-25T10:08:19.368Z</time>
      </trkpt>
      <trkpt lat="44.77382" lon="-1.13711">
        <ele>55.124239</ele>
        <time>2022-12-25T10:08:22.372Z</time>
      </trkpt>
      <trkpt lat="44.77373" lon="-1.13708">
        <ele>55.030328</ele>
        <time>2022-12-25T10:08:24.359Z</time>
      </trkpt>
      <trkpt lat="44.7736" lon="-1.13704">
        <ele>54.896309</ele>
        <time>2022-12-25T10:08:27.373Z</time>
      </trkpt>
      <trkpt lat="44.77348" lon="-1.13698">
        <ele>54.762982</ele>
        <time>2022-12-25T10:08:30.367Z</time>
      </trkpt>
      <trkpt lat="44.77335" lon="-1.13694">
        <ele>54.629561</ele>
        <time>2022-12-25T10:08:33.374Z</time>
      </trkpt>
      <trkpt lat="44.77326" lon="-1.13689">
        <ele>54.536485</ele>
        <time>2022-12-25T10:08:35.368Z</time>
      </trkpt>
      <trkpt lat="44.77314" lon="-1.13685">
        <ele>54.401149</ele>
        <time>2022-12-25T10:08:38.367Z</time>
      </trkpt>
      <trkpt lat="44.77301" lon="-1.1368">
        <ele>54.270648</ele>
        <time>2022-12-25T10:08:41.351Z</time>
      </trkpt>
      <trkpt lat="44.77289" lon="-1.13674">
        <ele>54.138063</ele>
        <time>2022-12-25T10:08:44.369Z</time>
      </trkpt>
      <trkpt lat="44.77276" lon="-1.13668">
        <ele>54.002567</ele>
        <time>2022-12-25T10:08:47.366Z</time>
      </trkpt>
      <trkpt lat="44.77264" lon="-1.13661">
        <ele>53.868454</ele>
        <time>2022-12-25T10:08:50.364Z</time>
      </trkpt>
      <trkpt lat="44.77252" lon="-1.13654">
        <ele>53.731745</ele>
        <time>2022-12-25T10:08:53.377Z</time>
      </trkpt>
      <trkpt lat="44.77243" lon="-1.1365">
        <ele>53.634366</ele>
        <time>2022-12-25T10:08:55.365Z</time>
      </trkpt>
      <trkpt lat="44.77234" lon="-1.13646">
        <ele>53.541561</ele>
        <time>2022-12-25T10:08:57.370Z</time>
      </trkpt>
      <trkpt lat="44.77226" lon="-1.1364">
        <ele>53.445948</ele>
        <time>2022-12-25T10:08:59.358Z</time>
      </trkpt>
      <trkpt lat="44.77215" lon="-1.13632">
        <ele>53.318394</ele>
        <time>2022-12-25T10:09:02.382Z</time>
      </trkpt>
      <trkpt lat="44.77206" lon="-1.13627">
        <ele>53.323632</ele>
        <time>2022-12-25T10:09:04.344Z</time>
      </trkpt>
      <trkpt lat="44.77198" lon="-1.13622">
        <ele>53.364936</ele>
        <time>2022-12-25T10:09:06.369Z</time>
      </trkpt>
      <trkpt lat="44.77186" lon="-1.13614">
        <ele>53.424879</ele>
        <time>2022-12-25T10:09:09.365Z</time>
      </trkpt>
      <trkpt lat="44.77174" lon="-1.13606">
        <ele>53.48469</ele>
        <time>2022-12-25T10:09:12.350Z</time>
      </trkpt>
      <trkpt lat="44.77163" lon="-1.13598">
        <ele>53.543312</ele>
        <time>2022-12-25T10:09:15.365Z</time>
      </trkpt>
      <trkpt lat="44.77151" lon="-1.13588">
        <ele>53.603734</ele>
        <time>2022-12-25T10:09:18.364Z</time>
      </trkpt>
      <trkpt lat="44.77143" lon="-1.13583">
        <ele>53.645117</ele>
        <time>2022-12-25T10:09:20.366Z</time>
      </trkpt>
      <trkpt lat="44.77132" lon="-1.13573">
        <ele>53.706095</ele>
        <time>2022-12-25T10:09:23.355Z</time>
      </trkpt>
      <trkpt lat="44.7712" lon="-1.13563">
        <ele>53.76669</ele>
        <time>2022-12-25T10:09:26.373Z</time>
      </trkpt>
      <trkpt lat="44.77113" lon="-1.13556">
        <ele>53.808273</ele>
        <time>2022-12-25T10:09:28.365Z</time>
      </trkpt>
      <trkpt lat="44.77101" lon="-1.13545">
        <ele>53.870486</ele>
        <time>2022-12-25T10:09:31.358Z</time>
      </trkpt>
      <trkpt lat="44.77091" lon="-1.13535">
        <ele>53.931023</ele>
        <time>2022-12-25T10:09:34.347Z</time>
      </trkpt>
      <trkpt lat="44.7708" lon="-1.13525">
        <ele>53.990853</ele>
        <time>2022-12-25T10:09:37.344Z</time>
      </trkpt>
      <trkpt lat="44.7707" lon="-1.13515">
        <ele>54.045625</ele>
        <time>2022-12-25T10:09:40.353Z</time>
      </trkpt>
      <trkpt lat="44.77061" lon="-1.13506">
        <ele>54.095171</ele>
        <time>2022-12-25T10:09:43.360Z</time>
      </trkpt>
      <trkpt lat="44.77053" lon="-1.13498">
        <ele>54.080812</ele>
        <time>2022-12-25T10:09:46.343Z</time>
      </trkpt>
      <trkpt lat="44.77044" lon="-1.13489">
        <ele>54.019836</ele>
        <time>2022-12-25T10:09:50.347Z</time>
      </trkpt>
      <trkpt lat="44.77035" lon="-1.13483">
        <ele>53.966514</ele>
        <time>2022-12-25T10:09:54.349Z</time>
      </trkpt>
      <trkpt lat="44.77027" lon="-1.1347">
        <ele>53.90156</ele>
        <time>2022-12-25T10:09:59.361Z</time>
      </trkpt>
      <trkpt lat="44.7702" lon="-1.1346">
        <ele>53.846916</ele>
        <time>2022-12-25T10:10:02.353Z</time>
      </trkpt>
      <trkpt lat="44.77012" lon="-1.13449">
        <ele>53.785986</ele>
        <time>2022-12-25T10:10:05.367Z</time>
      </trkpt>
      <trkpt lat="44.77003" lon="-1.13437">
        <ele>53.722167</ele>
        <time>2022-12-25T10:10:08.364Z</time>
      </trkpt>
      <trkpt lat="44.76995" lon="-1.13426">
        <ele>53.658871</ele>
        <time>2022-12-25T10:10:11.390Z</time>
      </trkpt>
      <trkpt lat="44.76986" lon="-1.13414">
        <ele>53.592947</ele>
        <time>2022-12-25T10:10:14.364Z</time>
      </trkpt>
      <trkpt lat="44.76977" lon="-1.13403">
        <ele>53.5283</ele>
        <time>2022-12-25T10:10:17.374Z</time>
      </trkpt>
      <trkpt lat="44.76968" lon="-1.13391">
        <ele>53.463472</ele>
        <time>2022-12-25T10:10:20.364Z</time>
      </trkpt>
      <trkpt lat="44.76961" lon="-1.13378">
        <ele>53.398977</ele>
        <time>2022-12-25T10:10:23.368Z</time>
      </trkpt>
      <trkpt lat="44.76953" lon="-1.13368">
        <ele>53.340138</ele>
        <time>2022-12-25T10:10:26.364Z</time>
      </trkpt>
      <trkpt lat="44.76946" lon="-1.13357">
        <ele>53.286084</ele>
        <time>2022-12-25T10:10:29.374Z</time>
      </trkpt>
      <trkpt lat="44.7694" lon="-1.13348">
        <ele>53.236766</ele>
        <time>2022-12-25T10:10:32.351Z</time>
      </trkpt>
      <trkpt lat="44.76931" lon="-1.1334">
        <ele>53.183078</ele>
        <time>2022-12-25T10:10:36.346Z</time>
      </trkpt>
      <trkpt lat="44.76922" lon="-1.13334">
        <ele>53.080968</ele>
        <time>2022-12-25T10:10:41.353Z</time>
      </trkpt>
      <trkpt lat="44.76914" lon="-1.13324">
        <ele>52.834375</ele>
        <time>2022-12-25T10:10:45.351Z</time>
      </trkpt>
      <trkpt lat="44.76905" lon="-1.1332">
        <ele>52.623107</ele>
        <time>2022-12-25T10:10:48.355Z</time>
      </trkpt>
      <trkpt lat="44.76911" lon="-1.13308">
        <ele>52.384062</ele>
        <time>2022-12-25T10:10:57.357Z</time>
      </trkpt>
      <trkpt lat="44.7691" lon="-1.13295">
        <ele>52.163831</ele>
        <time>2022-12-25T10:11:02.350Z</time>
      </trkpt>
      <trkpt lat="44.76903" lon="-1.13284">
        <ele>51.920328</ele>
        <time>2022-12-25T10:11:06.355Z</time>
      </trkpt>
      <trkpt lat="44.76897" lon="-1.13269">
        <ele>51.645619</ele>
        <time>2022-12-25T10:11:10.362Z</time>
      </trkpt>
      <trkpt lat="44.76891" lon="-1.13258">
        <ele>51.407589</ele>
        <time>2022-12-25T10:11:13.362Z</time>
      </trkpt>
      <trkpt lat="44.76885" lon="-1.13246">
        <ele>51.161846</ele>
        <time>2022-12-25T10:11:16.346Z</time>
      </trkpt>
      <trkpt lat="44.76878" lon="-1.13233">
        <ele>50.898595</ele>
        <time>2022-12-25T10:11:19.357Z</time>
      </trkpt>
      <trkpt lat="44.76871" lon="-1.1322">
        <ele>50.631117</ele>
        <time>2022-12-25T10:11:22.371Z</time>
      </trkpt>
      <trkpt lat="44.76864" lon="-1.13207">
        <ele>50.363919</ele>
        <time>2022-12-25T10:11:25.351Z</time>
      </trkpt>
      <trkpt lat="44.76856" lon="-1.13194">
        <ele>50.080884</ele>
        <time>2022-12-25T10:11:28.369Z</time>
      </trkpt>
      <trkpt lat="44.76849" lon="-1.13183">
        <ele>49.836097</ele>
        <time>2022-12-25T10:11:31.379Z</time>
      </trkpt>
      <trkpt lat="44.76844" lon="-1.13172">
        <ele>49.615818</ele>
        <time>2022-12-25T10:11:34.348Z</time>
      </trkpt>
      <trkpt lat="44.76836" lon="-1.13162">
        <ele>49.376285</ele>
        <time>2022-12-25T10:11:37.348Z</time>
      </trkpt>
      <trkpt lat="44.76828" lon="-1.13151">
        <ele>49.115136</ele>
        <time>2022-12-25T10:11:40.364Z</time>
      </trkpt>
      <trkpt lat="44.7682" lon="-1.13139">
        <ele>49.198897</ele>
        <time>2022-12-25T10:11:43.350Z</time>
      </trkpt>
      <trkpt lat="44.76811" lon="-1.13127">
        <ele>49.678507</ele>
        <time>2022-12-25T10:11:46.357Z</time>
      </trkpt>
      <trkpt lat="44.76803" lon="-1.13116">
        <ele>50.135769</ele>
        <time>2022-12-25T10:11:49.373Z</time>
      </trkpt>
      <trkpt lat="44.76795" lon="-1.13103">
        <ele>50.641769</ele>
        <time>2022-12-25T10:11:52.367Z</time>
      </trkpt>
      <trkpt lat="44.76786" lon="-1.13089">
        <ele>51.168685</ele>
        <time>2022-12-25T10:11:55.370Z</time>
      </trkpt>
      <trkpt lat="44.76779" lon="-1.1308">
        <ele>51.562354</ele>
        <time>2022-12-25T10:11:57.378Z</time>
      </trkpt>
      <trkpt lat="44.76772" lon="-1.13071">
        <ele>51.941678</ele>
        <time>2022-12-25T10:11:59.375Z</time>
      </trkpt>
      <trkpt lat="44.76769" lon="-1.13066">
        <ele>52.136619</ele>
        <time>2022-12-25T10:12:10.838Z</time>
      </trkpt>
      <trkpt lat="44.76758" lon="-1.13053">
        <ele>52.707169</ele>
        <time>2022-12-25T10:20:06.354Z</time>
      </trkpt>
      <trkpt lat="44.76749" lon="-1.13043">
        <ele>53.193003</ele>
        <time>2022-12-25T10:20:10.360Z</time>
      </trkpt>
      <trkpt lat="44.76741" lon="-1.13034">
        <ele>53.594136</ele>
        <time>2022-12-25T10:20:13.367Z</time>
      </trkpt>
      <trkpt lat="44.76732" lon="-1.13026">
        <ele>54.014622</ele>
        <time>2022-12-25T10:20:16.346Z</time>
      </trkpt>
      <trkpt lat="44.76724" lon="-1.13016">
        <ele>54.462176</ele>
        <time>2022-12-25T10:20:19.365Z</time>
      </trkpt>
      <trkpt lat="44.76714" lon="-1.13006">
        <ele>54.942449</ele>
        <time>2022-12-25T10:20:22.361Z</time>
      </trkpt>
      <trkpt lat="44.76705" lon="-1.12996">
        <ele>55.41481</ele>
        <time>2022-12-25T10:20:25.365Z</time>
      </trkpt>
      <trkpt lat="44.76697" lon="-1.12984">
        <ele>55.895738</ele>
        <time>2022-12-25T10:20:28.365Z</time>
      </trkpt>
      <trkpt lat="44.76689" lon="-1.12972">
        <ele>56.210374</ele>
        <time>2022-12-25T10:20:31.366Z</time>
      </trkpt>
      <trkpt lat="44.76681" lon="-1.1296">
        <ele>56.020787</ele>
        <time>2022-12-25T10:20:34.362Z</time>
      </trkpt>
      <trkpt lat="44.76673" lon="-1.12947">
        <ele>55.828102</ele>
        <time>2022-12-25T10:20:37.366Z</time>
      </trkpt>
      <trkpt lat="44.76665" lon="-1.12935">
        <ele>55.634344</ele>
        <time>2022-12-25T10:20:40.375Z</time>
      </trkpt>
      <trkpt lat="44.76656" lon="-1.12922">
        <ele>55.428981</ele>
        <time>2022-12-25T10:20:43.376Z</time>
      </trkpt>
      <trkpt lat="44.76648" lon="-1.12908">
        <ele>55.216359</ele>
        <time>2022-12-25T10:20:46.365Z</time>
      </trkpt>
      <trkpt lat="44.76639" lon="-1.12895">
        <ele>55.010174</ele>
        <time>2022-12-25T10:20:49.368Z</time>
      </trkpt>
      <trkpt lat="44.7663" lon="-1.12883">
        <ele>54.819262</ele>
        <time>2022-12-25T10:20:52.356Z</time>
      </trkpt>
      <trkpt lat="44.76623" lon="-1.12872">
        <ele>54.641963</ele>
        <time>2022-12-25T10:20:55.367Z</time>
      </trkpt>
      <trkpt lat="44.76616" lon="-1.1286">
        <ele>54.4652</ele>
        <time>2022-12-25T10:20:58.373Z</time>
      </trkpt>
      <trkpt lat="44.76608" lon="-1.12849">
        <ele>54.2787</ele>
        <time>2022-12-25T10:21:01.368Z</time>
      </trkpt>
      <trkpt lat="44.766" lon="-1.12837">
        <ele>54.094449</ele>
        <time>2022-12-25T10:21:04.346Z</time>
      </trkpt>
      <trkpt lat="44.76592" lon="-1.12826">
        <ele>53.909077</ele>
        <time>2022-12-25T10:21:07.364Z</time>
      </trkpt>
      <trkpt lat="44.76583" lon="-1.12813">
        <ele>53.713731</ele>
        <time>2022-12-25T10:21:10.345Z</time>
      </trkpt>
      <trkpt lat="44.76575" lon="-1.128">
        <ele>53.505336</ele>
        <time>2022-12-25T10:21:13.355Z</time>
      </trkpt>
      <trkpt lat="44.76566" lon="-1.12787">
        <ele>53.36367</ele>
        <time>2022-12-25T10:21:16.367Z</time>
      </trkpt>
      <trkpt lat="44.76557" lon="-1.12774">
        <ele>53.431057</ele>
        <time>2022-12-25T10:21:19.357Z</time>
      </trkpt>
      <trkpt lat="44.76547" lon="-1.12761">
        <ele>53.498699</ele>
        <time>2022-12-25T10:21:22.368Z</time>
      </trkpt>
      <trkpt lat="44.76538" lon="-1.12748">
        <ele>53.564134</ele>
        <time>2022-12-25T10:21:25.354Z</time>
      </trkpt>
      <trkpt lat="44.76532" lon="-1.12738">
        <ele>53.610623</ele>
        <time>2022-12-25T10:21:27.375Z</time>
      </trkpt>
      <trkpt lat="44.76523" lon="-1.12726">
        <ele>53.675263</ele>
        <time>2022-12-25T10:21:30.365Z</time>
      </trkpt>
      <trkpt lat="44.76516" lon="-1.12714">
        <ele>53.732296</ele>
        <time>2022-12-25T10:21:33.369Z</time>
      </trkpt>
      <trkpt lat="44.76508" lon="-1.12702">
        <ele>53.791232</ele>
        <time>2022-12-25T10:21:36.367Z</time>
      </trkpt>
      <trkpt lat="44.765" lon="-1.12688">
        <ele>53.853925</ele>
        <time>2022-12-25T10:21:39.352Z</time>
      </trkpt>
      <trkpt lat="44.76492" lon="-1.12675">
        <ele>53.91839</ele>
        <time>2022-12-25T10:21:42.368Z</time>
      </trkpt>
      <trkpt lat="44.76483" lon="-1.12663">
        <ele>53.979089</ele>
        <time>2022-12-25T10:21:45.361Z</time>
      </trkpt>
      <trkpt lat="44.76476" lon="-1.12652">
        <ele>54.035496</ele>
        <time>2022-12-25T10:21:48.363Z</time>
      </trkpt>
      <trkpt lat="44.76468" lon="-1.1264">
        <ele>54.094621</ele>
        <time>2022-12-25T10:21:51.375Z</time>
      </trkpt>
      <trkpt lat="44.76459" lon="-1.12627">
        <ele>54.15742</ele>
        <time>2022-12-25T10:21:54.372Z</time>
      </trkpt>
      <trkpt lat="44.76451" lon="-1.12614">
        <ele>54.222585</ele>
        <time>2022-12-25T10:21:57.373Z</time>
      </trkpt>
      <trkpt lat="44.76442" lon="-1.12602">
        <ele>54.252943</ele>
        <time>2022-12-25T10:22:00.367Z</time>
      </trkpt>
      <trkpt lat="44.76434" lon="-1.12589">
        <ele>54.216093</ele>
        <time>2022-12-25T10:22:03.376Z</time>
      </trkpt>
      <trkpt lat="44.76426" lon="-1.12577">
        <ele>54.182534</ele>
        <time>2022-12-25T10:22:06.376Z</time>
      </trkpt>
      <trkpt lat="44.7642" lon="-1.12567">
        <ele>54.152757</ele>
        <time>2022-12-25T10:22:09.373Z</time>
      </trkpt>
      <trkpt lat="44.76411" lon="-1.12555">
        <ele>54.117148</ele>
        <time>2022-12-25T10:22:13.373Z</time>
      </trkpt>
      <trkpt lat="44.76403" lon="-1.12545">
        <ele>54.084997</ele>
        <time>2022-12-25T10:22:17.357Z</time>
      </trkpt>
      <trkpt lat="44.76396" lon="-1.12535">
        <ele>54.05409</ele>
        <time>2022-12-25T10:22:21.367Z</time>
      </trkpt>
      <trkpt lat="44.76389" lon="-1.12523">
        <ele>54.020684</ele>
        <time>2022-12-25T10:22:25.346Z</time>
      </trkpt>
      <trkpt lat="44.76384" lon="-1.12513">
        <ele>53.992934</ele>
        <time>2022-12-25T10:22:28.353Z</time>
      </trkpt>
      <trkpt lat="44.76377" lon="-1.12504">
        <ele>53.96432</ele>
        <time>2022-12-25T10:22:31.346Z</time>
      </trkpt>
      <trkpt lat="44.76371" lon="-1.12493">
        <ele>53.935899</ele>
        <time>2022-12-25T10:22:44.353Z</time>
      </trkpt>
      <trkpt lat="44.76364" lon="-1.12482">
        <ele>53.902686</ele>
        <time>2022-12-25T10:22:49.348Z</time>
      </trkpt>
      <trkpt lat="44.76357" lon="-1.12473">
        <ele>53.874661</ele>
        <time>2022-12-25T10:22:52.350Z</time>
      </trkpt>
      <trkpt lat="44.7635" lon="-1.12462">
        <ele>53.843392</ele>
        <time>2022-12-25T10:22:55.358Z</time>
      </trkpt>
      <trkpt lat="44.76342" lon="-1.1245">
        <ele>53.807906</ele>
        <time>2022-12-25T10:22:58.384Z</time>
      </trkpt>
      <trkpt lat="44.76334" lon="-1.12438">
        <ele>53.771957</ele>
        <time>2022-12-25T10:23:01.353Z</time>
      </trkpt>
      <trkpt lat="44.76325" lon="-1.12426">
        <ele>53.734795</ele>
        <time>2022-12-25T10:23:04.371Z</time>
      </trkpt>
      <trkpt lat="44.76316" lon="-1.12413">
        <ele>53.780246</ele>
        <time>2022-12-25T10:23:07.367Z</time>
      </trkpt>
      <trkpt lat="44.76308" lon="-1.12399">
        <ele>53.876833</ele>
        <time>2022-12-25T10:23:10.369Z</time>
      </trkpt>
      <trkpt lat="44.76299" lon="-1.12386">
        <ele>53.975184</ele>
        <time>2022-12-25T10:23:13.351Z</time>
      </trkpt>
      <trkpt lat="44.7629" lon="-1.12372">
        <ele>54.072462</ele>
        <time>2022-12-25T10:23:16.351Z</time>
      </trkpt>
      <trkpt lat="44.76283" lon="-1.12362">
        <ele>54.143349</ele>
        <time>2022-12-25T10:23:18.367Z</time>
      </trkpt>
      <trkpt lat="44.76277" lon="-1.12353">
        <ele>54.212204</ele>
        <time>2022-12-25T10:23:20.364Z</time>
      </trkpt>
      <trkpt lat="44.76267" lon="-1.1234">
        <ele>54.312805</ele>
        <time>2022-12-25T10:23:23.364Z</time>
      </trkpt>
      <trkpt lat="44.76258" lon="-1.12327">
        <ele>54.40668</ele>
        <time>2022-12-25T10:23:26.375Z</time>
      </trkpt>
      <trkpt lat="44.7625" lon="-1.12313">
        <ele>54.503111</ele>
        <time>2022-12-25T10:23:29.355Z</time>
      </trkpt>
      <trkpt lat="44.76241" lon="-1.123">
        <ele>54.597881</ele>
        <time>2022-12-25T10:23:32.354Z</time>
      </trkpt>
      <trkpt lat="44.76232" lon="-1.12286">
        <ele>54.695335</ele>
        <time>2022-12-25T10:23:35.357Z</time>
      </trkpt>
      <trkpt lat="44.76226" lon="-1.12276">
        <ele>54.76559</ele>
        <time>2022-12-25T10:23:37.367Z</time>
      </trkpt>
      <trkpt lat="44.7622" lon="-1.12267">
        <ele>54.833959</ele>
        <time>2022-12-25T10:23:39.374Z</time>
      </trkpt>
      <trkpt lat="44.76213" lon="-1.12257">
        <ele>54.904985</ele>
        <time>2022-12-25T10:23:41.356Z</time>
      </trkpt>
      <trkpt lat="44.76207" lon="-1.12248">
        <ele>54.973092</ele>
        <time>2022-12-25T10:23:43.370Z</time>
      </trkpt>
      <trkpt lat="44.76201" lon="-1.12238">
        <ele>55.040887</ele>
        <time>2022-12-25T10:23:45.372Z</time>
      </trkpt>
      <trkpt lat="44.76194" lon="-1.12229">
        <ele>55.073031</ele>
        <time>2022-12-25T10:23:47.370Z</time>
      </trkpt>
      <trkpt lat="44.76185" lon="-1.12216">
        <ele>55.10172</ele>
        <time>2022-12-25T10:23:50.361Z</time>
      </trkpt>
      <trkpt lat="44.76179" lon="-1.12207">
        <ele>55.121927</ele>
        <time>2022-12-25T10:23:52.370Z</time>
      </trkpt>
      <trkpt lat="44.76173" lon="-1.12197">
        <ele>55.142321</ele>
        <time>2022-12-25T10:23:54.369Z</time>
      </trkpt>
      <trkpt lat="44.76166" lon="-1.12188">
        <ele>55.162754</ele>
        <time>2022-12-25T10:23:56.346Z</time>
      </trkpt>
      <trkpt lat="44.7616" lon="-1.12178">
        <ele>55.184104</ele>
        <time>2022-12-25T10:23:58.350Z</time>
      </trkpt>
      <trkpt lat="44.76153" lon="-1.12168">
        <ele>55.205528</ele>
        <time>2022-12-25T10:24:00.373Z</time>
      </trkpt>
      <trkpt lat="44.76147" lon="-1.12159">
        <ele>55.225848</ele>
        <time>2022-12-25T10:24:02.358Z</time>
      </trkpt>
      <trkpt lat="44.7614" lon="-1.12149">
        <ele>55.246891</ele>
        <time>2022-12-25T10:24:04.354Z</time>
      </trkpt>
      <trkpt lat="44.76134" lon="-1.1214">
        <ele>55.268241</ele>
        <time>2022-12-25T10:24:06.365Z</time>
      </trkpt>
      <trkpt lat="44.76127" lon="-1.1213">
        <ele>55.289599</ele>
        <time>2022-12-25T10:24:08.383Z</time>
      </trkpt>
      <trkpt lat="44.76121" lon="-1.12119">
        <ele>55.311388</ele>
        <time>2022-12-25T10:24:10.363Z</time>
      </trkpt>
      <trkpt lat="44.76115" lon="-1.1211">
        <ele>55.33144</ele>
        <time>2022-12-25T10:24:12.373Z</time>
      </trkpt>
      <trkpt lat="44.76108" lon="-1.121">
        <ele>55.352833</ele>
        <time>2022-12-25T10:24:14.367Z</time>
      </trkpt>
      <trkpt lat="44.76098" lon="-1.12088">
        <ele>55.381668</ele>
        <time>2022-12-25T10:24:17.352Z</time>
      </trkpt>
      <trkpt lat="44.76089" lon="-1.12073">
        <ele>55.412053</ele>
        <time>2022-12-25T10:24:20.349Z</time>
      </trkpt>
      <trkpt lat="44.76083" lon="-1.12064">
        <ele>55.433004</ele>
        <time>2022-12-25T10:24:22.362Z</time>
      </trkpt>
      <trkpt lat="44.76076" lon="-1.12054">
        <ele>55.454333</ele>
        <time>2022-12-25T10:24:24.360Z</time>
      </trkpt>
      <trkpt lat="44.7607" lon="-1.12044">
        <ele>55.476656</ele>
        <time>2022-12-25T10:24:26.360Z</time>
      </trkpt>
      <trkpt lat="44.76063" lon="-1.12034">
        <ele>55.500234</ele>
        <time>2022-12-25T10:24:28.368Z</time>
      </trkpt>
      <trkpt lat="44.76057" lon="-1.12024">
        <ele>55.522716</ele>
        <time>2022-12-25T10:24:30.353Z</time>
      </trkpt>
      <trkpt lat="44.76051" lon="-1.12015">
        <ele>55.545128</ele>
        <time>2022-12-25T10:24:32.363Z</time>
      </trkpt>
      <trkpt lat="44.76043" lon="-1.12">
        <ele>55.576844</ele>
        <time>2022-12-25T10:24:35.357Z</time>
      </trkpt>
      <trkpt lat="44.76033" lon="-1.11986">
        <ele>55.610189</ele>
        <time>2022-12-25T10:24:38.368Z</time>
      </trkpt>
      <trkpt lat="44.76026" lon="-1.11976">
        <ele>55.634258</ele>
        <time>2022-12-25T10:24:40.357Z</time>
      </trkpt>
      <trkpt lat="44.76018" lon="-1.11964">
        <ele>55.663065</ele>
        <time>2022-12-25T10:24:43.362Z</time>
      </trkpt>
      <trkpt lat="44.76009" lon="-1.11951">
        <ele>55.693202</ele>
        <time>2022-12-25T10:24:46.375Z</time>
      </trkpt>
      <trkpt lat="44.76002" lon="-1.11939">
        <ele>55.721128</ele>
        <time>2022-12-25T10:24:49.377Z</time>
      </trkpt>
      <trkpt lat="44.75994" lon="-1.11926">
        <ele>55.749936</ele>
        <time>2022-12-25T10:24:52.358Z</time>
      </trkpt>
      <trkpt lat="44.75986" lon="-1.11914">
        <ele>55.778327</ele>
        <time>2022-12-25T10:24:55.367Z</time>
      </trkpt>
      <trkpt lat="44.75978" lon="-1.11902">
        <ele>55.807261</ele>
        <time>2022-12-25T10:24:58.348Z</time>
      </trkpt>
      <trkpt lat="44.75969" lon="-1.11888">
        <ele>55.838952</ele>
        <time>2022-12-25T10:25:01.366Z</time>
      </trkpt>
      <trkpt lat="44.75963" lon="-1.11879">
        <ele>55.860877</ele>
        <time>2022-12-25T10:25:03.372Z</time>
      </trkpt>
      <trkpt lat="44.75956" lon="-1.1187">
        <ele>55.882825</ele>
        <time>2022-12-25T10:25:05.375Z</time>
      </trkpt>
      <trkpt lat="44.75948" lon="-1.11858">
        <ele>55.812995</ele>
        <time>2022-12-25T10:25:08.359Z</time>
      </trkpt>
      <trkpt lat="44.7594" lon="-1.11847">
        <ele>55.707132</ele>
        <time>2022-12-25T10:25:11.355Z</time>
      </trkpt>
      <trkpt lat="44.75932" lon="-1.11834">
        <ele>55.586735</ele>
        <time>2022-12-25T10:25:14.377Z</time>
      </trkpt>
      <trkpt lat="44.75924" lon="-1.11821">
        <ele>55.467866</ele>
        <time>2022-12-25T10:25:17.373Z</time>
      </trkpt>
      <trkpt lat="44.75915" lon="-1.11809">
        <ele>55.348673</ele>
        <time>2022-12-25T10:25:20.374Z</time>
      </trkpt>
      <trkpt lat="44.75906" lon="-1.11796">
        <ele>55.219927</ele>
        <time>2022-12-25T10:25:23.362Z</time>
      </trkpt>
      <trkpt lat="44.75897" lon="-1.11783">
        <ele>55.097402</ele>
        <time>2022-12-25T10:25:26.364Z</time>
      </trkpt>
      <trkpt lat="44.75889" lon="-1.1177">
        <ele>54.975699</ele>
        <time>2022-12-25T10:25:29.374Z</time>
      </trkpt>
      <trkpt lat="44.7588" lon="-1.11758">
        <ele>54.857308</ele>
        <time>2022-12-25T10:25:32.352Z</time>
      </trkpt>
      <trkpt lat="44.75873" lon="-1.11747">
        <ele>54.759178</ele>
        <time>2022-12-25T10:25:41.349Z</time>
      </trkpt>
      <trkpt lat="44.75868" lon="-1.11737">
        <ele>54.670974</ele>
        <time>2022-12-25T10:25:46.347Z</time>
      </trkpt>
      <trkpt lat="44.7586" lon="-1.11725">
        <ele>54.561768</ele>
        <time>2022-12-25T10:25:50.366Z</time>
      </trkpt>
      <trkpt lat="44.75853" lon="-1.11715">
        <ele>54.464653</ele>
        <time>2022-12-25T10:25:53.347Z</time>
      </trkpt>
      <trkpt lat="44.75845" lon="-1.11704">
        <ele>54.360425</ele>
        <time>2022-12-25T10:25:56.358Z</time>
      </trkpt>
      <trkpt lat="44.75838" lon="-1.11693">
        <ele>54.249235</ele>
        <time>2022-12-25T10:25:59.363Z</time>
      </trkpt>
      <trkpt lat="44.75829" lon="-1.11681">
        <ele>54.140494</ele>
        <time>2022-12-25T10:26:02.347Z</time>
      </trkpt>
      <trkpt lat="44.75821" lon="-1.11668">
        <ele>54.083503</ele>
        <time>2022-12-25T10:26:05.376Z</time>
      </trkpt>
      <trkpt lat="44.75813" lon="-1.11658">
        <ele>54.031466</ele>
        <time>2022-12-25T10:26:08.368Z</time>
      </trkpt>
      <trkpt lat="44.75807" lon="-1.11648">
        <ele>53.986055</ele>
        <time>2022-12-25T10:26:11.358Z</time>
      </trkpt>
      <trkpt lat="44.75799" lon="-1.11637">
        <ele>53.935114</ele>
        <time>2022-12-25T10:26:14.367Z</time>
      </trkpt>
      <trkpt lat="44.75791" lon="-1.11626">
        <ele>53.882265</ele>
        <time>2022-12-25T10:26:17.364Z</time>
      </trkpt>
      <trkpt lat="44.75783" lon="-1.11613">
        <ele>53.824208</ele>
        <time>2022-12-25T10:26:20.375Z</time>
      </trkpt>
      <trkpt lat="44.75774" lon="-1.116">
        <ele>53.763618</ele>
        <time>2022-12-25T10:26:23.374Z</time>
      </trkpt>
      <trkpt lat="44.75768" lon="-1.11591">
        <ele>53.720773</ele>
        <time>2022-12-25T10:26:25.377Z</time>
      </trkpt>
      <trkpt lat="44.75759" lon="-1.11577">
        <ele>53.657894</ele>
        <time>2022-12-25T10:26:28.370Z</time>
      </trkpt>
      <trkpt lat="44.7575" lon="-1.11564">
        <ele>53.595419</ele>
        <time>2022-12-25T10:26:31.376Z</time>
      </trkpt>
      <trkpt lat="44.75741" lon="-1.11551">
        <ele>53.534992</ele>
        <time>2022-12-25T10:26:34.360Z</time>
      </trkpt>
      <trkpt lat="44.75733" lon="-1.11538">
        <ele>53.474726</ele>
        <time>2022-12-25T10:26:37.374Z</time>
      </trkpt>
      <trkpt lat="44.75725" lon="-1.11526">
        <ele>53.418954</ele>
        <time>2022-12-25T10:26:40.358Z</time>
      </trkpt>
      <trkpt lat="44.75717" lon="-1.11514">
        <ele>53.365233</ele>
        <time>2022-12-25T10:26:43.369Z</time>
      </trkpt>
      <trkpt lat="44.7571" lon="-1.11504">
        <ele>53.318217</ele>
        <time>2022-12-25T10:26:46.356Z</time>
      </trkpt>
      <trkpt lat="44.75703" lon="-1.11494">
        <ele>53.345343</ele>
        <time>2022-12-25T10:26:49.372Z</time>
      </trkpt>
      <trkpt lat="44.75694" lon="-1.11482">
        <ele>53.472059</ele>
        <time>2022-12-25T10:26:52.373Z</time>
      </trkpt>
      <trkpt lat="44.75685" lon="-1.11469">
        <ele>53.605965</ele>
        <time>2022-12-25T10:26:55.375Z</time>
      </trkpt>
      <trkpt lat="44.75676" lon="-1.11456">
        <ele>53.739997</ele>
        <time>2022-12-25T10:26:58.369Z</time>
      </trkpt>
      <trkpt lat="44.75667" lon="-1.11443">
        <ele>53.87245</ele>
        <time>2022-12-25T10:27:01.377Z</time>
      </trkpt>
      <trkpt lat="44.75658" lon="-1.11432">
        <ele>54.001375</ele>
        <time>2022-12-25T10:27:04.365Z</time>
      </trkpt>
      <trkpt lat="44.7565" lon="-1.11419">
        <ele>54.132027</ele>
        <time>2022-12-25T10:27:07.368Z</time>
      </trkpt>
      <trkpt lat="44.75641" lon="-1.11409">
        <ele>54.245587</ele>
        <time>2022-12-25T10:27:10.364Z</time>
      </trkpt>
      <trkpt lat="44.75633" lon="-1.114">
        <ele>54.353678</ele>
        <time>2022-12-25T10:27:13.380Z</time>
      </trkpt>
      <trkpt lat="44.75624" lon="-1.1139">
        <ele>54.473174</ele>
        <time>2022-12-25T10:27:16.345Z</time>
      </trkpt>
      <trkpt lat="44.75616" lon="-1.11379">
        <ele>54.595729</ele>
        <time>2022-12-25T10:27:19.369Z</time>
      </trkpt>
      <trkpt lat="44.75607" lon="-1.11367">
        <ele>54.725981</ele>
        <time>2022-12-25T10:27:22.364Z</time>
      </trkpt>
      <trkpt lat="44.75597" lon="-1.11356">
        <ele>54.854672</ele>
        <time>2022-12-25T10:27:25.368Z</time>
      </trkpt>
      <trkpt lat="44.75589" lon="-1.11345">
        <ele>54.978039</ele>
        <time>2022-12-25T10:27:28.373Z</time>
      </trkpt>
      <trkpt lat="44.7558" lon="-1.11332">
        <ele>55.109616</ele>
        <time>2022-12-25T10:27:31.382Z</time>
      </trkpt>
      <trkpt lat="44.7557" lon="-1.11323">
        <ele>55.176661</ele>
        <time>2022-12-25T10:27:34.359Z</time>
      </trkpt>
      <trkpt lat="44.75561" lon="-1.11311">
        <ele>55.173767</ele>
        <time>2022-12-25T10:27:37.342Z</time>
      </trkpt>
      <trkpt lat="44.75552" lon="-1.113">
        <ele>55.171004</ele>
        <time>2022-12-25T10:27:40.341Z</time>
      </trkpt>
      <trkpt lat="44.75542" lon="-1.11289">
        <ele>55.168251</ele>
        <time>2022-12-25T10:27:43.349Z</time>
      </trkpt>
      <trkpt lat="44.75533" lon="-1.11279">
        <ele>55.165565</ele>
        <time>2022-12-25T10:27:46.345Z</time>
      </trkpt>
      <trkpt lat="44.75525" lon="-1.11272">
        <ele>55.16326</ele>
        <time>2022-12-25T10:27:49.349Z</time>
      </trkpt>
      <trkpt lat="44.75518" lon="-1.11263">
        <ele>55.161184</ele>
        <time>2022-12-25T10:27:55.346Z</time>
      </trkpt>
      <trkpt lat="44.75519" lon="-1.11262">
        <ele>55.160858</ele>
        <time>2022-12-25T10:28:09.558Z</time>
      </trkpt>
      <trkpt lat="44.71057" lon="-1.04592">
        <ele>53.093682</ele>
        <time>2022-12-25T11:11:12.275Z</time>
      </trkpt>
      <trkpt lat="44.71053" lon="-1.04579">
        <ele>53.037773</ele>
        <time>2022-12-25T11:11:34.355Z</time>
      </trkpt>
      <trkpt lat="44.71048" lon="-1.04567">
        <ele>52.982976</ele>
        <time>2022-12-25T11:11:39.366Z</time>
      </trkpt>
      <trkpt lat="44.71038" lon="-1.04544">
        <ele>52.875388</ele>
        <time>2022-12-25T11:13:27.353Z</time>
      </trkpt>
      <trkpt lat="44.71033" lon="-1.0453">
        <ele>52.813197</ele>
        <time>2022-12-25T11:13:32.352Z</time>
      </trkpt>
      <trkpt lat="44.71026" lon="-1.04517">
        <ele>52.748841</ele>
        <time>2022-12-25T11:13:36.349Z</time>
      </trkpt>
      <trkpt lat="44.71021" lon="-1.04506">
        <ele>52.698568</ele>
        <time>2022-12-25T11:13:39.364Z</time>
      </trkpt>
      <trkpt lat="44.71017" lon="-1.04494">
        <ele>52.669723</ele>
        <time>2022-12-25T11:13:42.351Z</time>
      </trkpt>
      <trkpt lat="44.71012" lon="-1.04481">
        <ele>52.647973</ele>
        <time>2022-12-25T11:13:45.367Z</time>
      </trkpt>
      <trkpt lat="44.71006" lon="-1.04468">
        <ele>52.625239</ele>
        <time>2022-12-25T11:13:48.365Z</time>
      </trkpt>
      <trkpt lat="44.71" lon="-1.04456">
        <ele>52.60277</ele>
        <time>2022-12-25T11:13:51.353Z</time>
      </trkpt>
      <trkpt lat="44.70994" lon="-1.04443">
        <ele>52.579455</ele>
        <time>2022-12-25T11:13:54.366Z</time>
      </trkpt>
      <trkpt lat="44.70988" lon="-1.04429">
        <ele>52.555147</ele>
        <time>2022-12-25T11:13:57.369Z</time>
      </trkpt>
      <trkpt lat="44.70982" lon="-1.04415">
        <ele>52.530458</ele>
        <time>2022-12-25T11:14:00.369Z</time>
      </trkpt>
      <trkpt lat="44.70976" lon="-1.044">
        <ele>52.505</ele>
        <time>2022-12-25T11:14:03.374Z</time>
      </trkpt>
      <trkpt lat="44.7097" lon="-1.04385">
        <ele>52.479108</ele>
        <time>2022-12-25T11:14:06.360Z</time>
      </trkpt>
      <trkpt lat="44.70963" lon="-1.04371">
        <ele>52.453337</ele>
        <time>2022-12-25T11:14:09.357Z</time>
      </trkpt>
      <trkpt lat="44.70957" lon="-1.04355">
        <ele>52.427023</ele>
        <time>2022-12-25T11:14:12.365Z</time>
      </trkpt>
      <trkpt lat="44.70951" lon="-1.04341">
        <ele>52.401675</ele>
        <time>2022-12-25T11:14:15.367Z</time>
      </trkpt>
      <trkpt lat="44.70945" lon="-1.04326">
        <ele>52.375963</ele>
        <time>2022-12-25T11:14:18.372Z</time>
      </trkpt>
      <trkpt lat="44.70939" lon="-1.04313">
        <ele>52.353608</ele>
        <time>2022-12-25T11:14:21.370Z</time>
      </trkpt>
      <trkpt lat="44.70932" lon="-1.04303">
        <ele>52.332094</ele>
        <time>2022-12-25T11:14:26.370Z</time>
      </trkpt>
      <trkpt lat="44.70928" lon="-1.04291">
        <ele>52.312609</ele>
        <time>2022-12-25T11:14:30.371Z</time>
      </trkpt>
      <trkpt lat="44.70924" lon="-1.04277">
        <ele>52.268617</ele>
        <time>2022-12-25T11:14:34.354Z</time>
      </trkpt>
      <trkpt lat="44.70918" lon="-1.04264">
        <ele>52.219211</ele>
        <time>2022-12-25T11:14:37.350Z</time>
      </trkpt>
      <trkpt lat="44.70912" lon="-1.0425">
        <ele>52.165105</ele>
        <time>2022-12-25T11:14:40.371Z</time>
      </trkpt>
      <trkpt lat="44.70906" lon="-1.04236">
        <ele>52.110192</ele>
        <time>2022-12-25T11:14:43.352Z</time>
      </trkpt>
      <trkpt lat="44.709" lon="-1.04221">
        <ele>52.053049</ele>
        <time>2022-12-25T11:14:46.366Z</time>
      </trkpt>
      <trkpt lat="44.70893" lon="-1.04206">
        <ele>51.993771</ele>
        <time>2022-12-25T11:14:49.350Z</time>
      </trkpt>
      <trkpt lat="44.70887" lon="-1.04189">
        <ele>51.931685</ele>
        <time>2022-12-25T11:14:52.351Z</time>
      </trkpt>
      <trkpt lat="44.7088" lon="-1.04174">
        <ele>51.870065</ele>
        <time>2022-12-25T11:14:55.358Z</time>
      </trkpt>
      <trkpt lat="44.70874" lon="-1.04158">
        <ele>51.811942</ele>
        <time>2022-12-25T11:14:58.366Z</time>
      </trkpt>
      <trkpt lat="44.70867" lon="-1.04142">
        <ele>51.749478</ele>
        <time>2022-12-25T11:15:01.356Z</time>
      </trkpt>
      <trkpt lat="44.70862" lon="-1.04131">
        <ele>51.706512</ele>
        <time>2022-12-25T11:15:03.373Z</time>
      </trkpt>
      <trkpt lat="44.70856" lon="-1.04114">
        <ele>51.645199</ele>
        <time>2022-12-25T11:15:06.368Z</time>
      </trkpt>
      <trkpt lat="44.70851" lon="-1.04102">
        <ele>51.59807</ele>
        <time>2022-12-25T11:15:08.374Z</time>
      </trkpt>
      <trkpt lat="44.70845" lon="-1.04086">
        <ele>51.537363</ele>
        <time>2022-12-25T11:15:11.380Z</time>
      </trkpt>
      <trkpt lat="44.70837" lon="-1.0407">
        <ele>51.473907</ele>
        <time>2022-12-25T11:15:14.371Z</time>
      </trkpt>
      <trkpt lat="44.70832" lon="-1.0406">
        <ele>51.474284</ele>
        <time>2022-12-25T11:15:16.353Z</time>
      </trkpt>
      <trkpt lat="44.70827" lon="-1.04049">
        <ele>51.480596</ele>
        <time>2022-12-25T11:15:18.371Z</time>
      </trkpt>
      <trkpt lat="44.70821" lon="-1.04036">
        <ele>51.488089</ele>
        <time>2022-12-25T11:15:21.359Z</time>
      </trkpt>
      <trkpt lat="44.70816" lon="-1.04024">
        <ele>51.494761</ele>
        <time>2022-12-25T11:15:24.358Z</time>
      </trkpt>
      <trkpt lat="44.70811" lon="-1.0401">
        <ele>51.502645</ele>
        <time>2022-12-25T11:15:28.347Z</time>
      </trkpt>
      <trkpt lat="44.70804" lon="-1.03995">
        <ele>51.511045</ele>
        <time>2022-12-25T11:15:32.350Z</time>
      </trkpt>
      <trkpt lat="44.70799" lon="-1.03983">
        <ele>51.518114</ele>
        <time>2022-12-25T11:15:35.346Z</time>
      </trkpt>
      <trkpt lat="44.70793" lon="-1.0397">
        <ele>51.525464</ele>
        <time>2022-12-25T11:15:38.369Z</time>
      </trkpt>
      <trkpt lat="44.70788" lon="-1.03957">
        <ele>51.532873</ele>
        <time>2022-12-25T11:15:41.358Z</time>
      </trkpt>
      <trkpt lat="44.70782" lon="-1.03943">
        <ele>51.540596</ele>
        <time>2022-12-25T11:15:44.363Z</time>
      </trkpt>
      <trkpt lat="44.70776" lon="-1.03929">
        <ele>51.548985</ele>
        <time>2022-12-25T11:15:47.369Z</time>
      </trkpt>
      <trkpt lat="44.70769" lon="-1.03913">
        <ele>51.557986</ele>
        <time>2022-12-25T11:15:50.363Z</time>
      </trkpt>
      <trkpt lat="44.70764" lon="-1.03901">
        <ele>51.564218</ele>
        <time>2022-12-25T11:15:52.356Z</time>
      </trkpt>
      <trkpt lat="44.7076" lon="-1.0389">
        <ele>51.570441</ele>
        <time>2022-12-25T11:15:54.366Z</time>
      </trkpt>
      <trkpt lat="44.70753" lon="-1.03874">
        <ele>51.579484</ele>
        <time>2022-12-25T11:15:57.348Z</time>
      </trkpt>
      <trkpt lat="44.70746" lon="-1.03861">
        <ele>51.587542</ele>
        <time>2022-12-25T11:16:00.369Z</time>
      </trkpt>
      <trkpt lat="44.70741" lon="-1.03847">
        <ele>51.608067</ele>
        <time>2022-12-25T11:16:04.351Z</time>
      </trkpt>
      <trkpt lat="44.70734" lon="-1.03832">
        <ele>51.647164</ele>
        <time>2022-12-25T11:16:08.373Z</time>
      </trkpt>
      <trkpt lat="44.70728" lon="-1.03818">
        <ele>51.683778</ele>
        <time>2022-12-25T11:16:11.368Z</time>
      </trkpt>
      <trkpt lat="44.70722" lon="-1.03804">
        <ele>51.722194</ele>
        <time>2022-12-25T11:16:14.371Z</time>
      </trkpt>
      <trkpt lat="44.70715" lon="-1.03789">
        <ele>51.76155</ele>
        <time>2022-12-25T11:16:17.375Z</time>
      </trkpt>
      <trkpt lat="44.70708" lon="-1.03773">
        <ele>51.803868</ele>
        <time>2022-12-25T11:16:20.363Z</time>
      </trkpt>
      <trkpt lat="44.70701" lon="-1.03757">
        <ele>51.846402</ele>
        <time>2022-12-25T11:16:23.379Z</time>
      </trkpt>
      <trkpt lat="44.70696" lon="-1.03746">
        <ele>51.87568</ele>
        <time>2022-12-25T11:16:25.364Z</time>
      </trkpt>
      <trkpt lat="44.70692" lon="-1.03735">
        <ele>51.904289</ele>
        <time>2022-12-25T11:16:27.369Z</time>
      </trkpt>
      <trkpt lat="44.70685" lon="-1.0372">
        <ele>51.944655</ele>
        <time>2022-12-25T11:16:30.368Z</time>
      </trkpt>
      <trkpt lat="44.70679" lon="-1.03705">
        <ele>51.983193</ele>
        <time>2022-12-25T11:16:33.348Z</time>
      </trkpt>
      <trkpt lat="44.70673" lon="-1.03689">
        <ele>52.022981</ele>
        <time>2022-12-25T11:16:36.362Z</time>
      </trkpt>
      <trkpt lat="44.70667" lon="-1.03673">
        <ele>52.065163</ele>
        <time>2022-12-25T11:16:39.371Z</time>
      </trkpt>
      <trkpt lat="44.7066" lon="-1.03657">
        <ele>52.106656</ele>
        <time>2022-12-25T11:16:42.367Z</time>
      </trkpt>
      <trkpt lat="44.70653" lon="-1.03642">
        <ele>52.146722</ele>
        <time>2022-12-25T11:16:45.370Z</time>
      </trkpt>
      <trkpt lat="44.70647" lon="-1.03628">
        <ele>52.172006</ele>
        <time>2022-12-25T11:16:48.372Z</time>
      </trkpt>
      <trkpt lat="44.70642" lon="-1.03616">
        <ele>52.185461</ele>
        <time>2022-12-25T11:16:51.369Z</time>
      </trkpt>
      <trkpt lat="44.70636" lon="-1.03605">
        <ele>52.198088</ele>
        <time>2022-12-25T11:16:54.372Z</time>
      </trkpt>
      <trkpt lat="44.70632" lon="-1.03593">
        <ele>52.210688</ele>
        <time>2022-12-25T11:16:57.349Z</time>
      </trkpt>
      <trkpt lat="44.70626" lon="-1.03579">
        <ele>52.225544</ele>
        <time>2022-12-25T11:17:00.376Z</time>
      </trkpt>
      <trkpt lat="44.7062" lon="-1.03564">
        <ele>52.241523</ele>
        <time>2022-12-25T11:17:03.385Z</time>
      </trkpt>
      <trkpt lat="44.70614" lon="-1.0355">
        <ele>52.257635</ele>
        <time>2022-12-25T11:17:06.354Z</time>
      </trkpt>
      <trkpt lat="44.70607" lon="-1.03535">
        <ele>52.27447</ele>
        <time>2022-12-25T11:17:09.362Z</time>
      </trkpt>
      <trkpt lat="44.706" lon="-1.03519">
        <ele>52.291752</ele>
        <time>2022-12-25T11:17:12.370Z</time>
      </trkpt>
      <trkpt lat="44.70593" lon="-1.03503">
        <ele>52.30894</ele>
        <time>2022-12-25T11:17:15.365Z</time>
      </trkpt>
      <trkpt lat="44.70588" lon="-1.03487">
        <ele>52.326229</ele>
        <time>2022-12-25T11:17:18.372Z</time>
      </trkpt>
      <trkpt lat="44.70582" lon="-1.03469">
        <ele>52.344141</ele>
        <time>2022-12-25T11:17:21.347Z</time>
      </trkpt>
      <trkpt lat="44.70579" lon="-1.03457">
        <ele>52.35684</ele>
        <time>2022-12-25T11:17:23.351Z</time>
      </trkpt>
      <trkpt lat="44.70575" lon="-1.03445">
        <ele>52.369142</ele>
        <time>2022-12-25T11:17:25.347Z</time>
      </trkpt>
      <trkpt lat="44.70572" lon="-1.03432">
        <ele>52.381917</ele>
        <time>2022-12-25T11:17:27.367Z</time>
      </trkpt>
      <trkpt lat="44.70567" lon="-1.0342">
        <ele>52.394491</ele>
        <time>2022-12-25T11:17:29.352Z</time>
      </trkpt>
      <trkpt lat="44.70559" lon="-1.03404">
        <ele>52.380251</ele>
        <time>2022-12-25T11:17:32.359Z</time>
      </trkpt>
      <trkpt lat="44.70552" lon="-1.03389">
        <ele>52.350933</ele>
        <time>2022-12-25T11:17:35.368Z</time>
      </trkpt>
      <trkpt lat="44.70546" lon="-1.03374">
        <ele>52.323169</ele>
        <time>2022-12-25T11:17:38.346Z</time>
      </trkpt>
      <trkpt lat="44.70539" lon="-1.0336">
        <ele>52.296274</ele>
        <time>2022-12-25T11:17:41.350Z</time>
      </trkpt>
      <trkpt lat="44.70533" lon="-1.03345">
        <ele>52.268089</ele>
        <time>2022-12-25T11:17:44.365Z</time>
      </trkpt>
      <trkpt lat="44.70526" lon="-1.0333">
        <ele>52.238852</ele>
        <time>2022-12-25T11:17:47.354Z</time>
      </trkpt>
      <trkpt lat="44.7052" lon="-1.03315">
        <ele>52.211696</ele>
        <time>2022-12-25T11:17:50.361Z</time>
      </trkpt>
      <trkpt lat="44.70513" lon="-1.03299">
        <ele>52.182595</ele>
        <time>2022-12-25T11:17:53.386Z</time>
      </trkpt>
      <trkpt lat="44.70506" lon="-1.03283">
        <ele>52.152519</ele>
        <time>2022-12-25T11:17:56.373Z</time>
      </trkpt>
      <trkpt lat="44.705" lon="-1.03267">
        <ele>52.122833</ele>
        <time>2022-12-25T11:17:59.368Z</time>
      </trkpt>
      <trkpt lat="44.70495" lon="-1.03256">
        <ele>52.102316</ele>
        <time>2022-12-25T11:18:01.373Z</time>
      </trkpt>
      <trkpt lat="44.7049" lon="-1.03245">
        <ele>52.081134</ele>
        <time>2022-12-25T11:18:03.369Z</time>
      </trkpt>
      <trkpt lat="44.70485" lon="-1.03234">
        <ele>52.060016</ele>
        <time>2022-12-25T11:18:05.366Z</time>
      </trkpt>
      <trkpt lat="44.70478" lon="-1.03218">
        <ele>52.029982</ele>
        <time>2022-12-25T11:18:08.348Z</time>
      </trkpt>
      <trkpt lat="44.7047" lon="-1.03204">
        <ele>52.002091</ele>
        <time>2022-12-25T11:18:11.368Z</time>
      </trkpt>
      <trkpt lat="44.70464" lon="-1.03191">
        <ele>51.942868</ele>
        <time>2022-12-25T11:18:14.368Z</time>
      </trkpt>
      <trkpt lat="44.70458" lon="-1.03178">
        <ele>51.877041</ele>
        <time>2022-12-25T11:18:17.354Z</time>
      </trkpt>
      <trkpt lat="44.70451" lon="-1.03167">
        <ele>51.813661</ele>
        <time>2022-12-25T11:18:20.363Z</time>
      </trkpt>
      <trkpt lat="44.70446" lon="-1.03156">
        <ele>51.754921</ele>
        <time>2022-12-25T11:18:23.370Z</time>
      </trkpt>
      <trkpt lat="44.70439" lon="-1.03146">
        <ele>51.693735</ele>
        <time>2022-12-25T11:18:27.355Z</time>
      </trkpt>
      <trkpt lat="44.70434" lon="-1.03134">
        <ele>51.633934</ele>
        <time>2022-12-25T11:18:32.344Z</time>
      </trkpt>
      <trkpt lat="44.70429" lon="-1.03119">
        <ele>51.560375</ele>
        <time>2022-12-25T11:18:36.359Z</time>
      </trkpt>
      <trkpt lat="44.70423" lon="-1.03106">
        <ele>51.494019</ele>
        <time>2022-12-25T11:18:39.351Z</time>
      </trkpt>
      <trkpt lat="44.70417" lon="-1.03092">
        <ele>51.423184</ele>
        <time>2022-12-25T11:18:42.366Z</time>
      </trkpt>
      <trkpt lat="44.70411" lon="-1.03078">
        <ele>51.349049</ele>
        <time>2022-12-25T11:18:45.356Z</time>
      </trkpt>
      <trkpt lat="44.70404" lon="-1.03062">
        <ele>51.27171</ele>
        <time>2022-12-25T11:18:48.364Z</time>
      </trkpt>
      <trkpt lat="44.70398" lon="-1.03047">
        <ele>51.191505</ele>
        <time>2022-12-25T11:18:51.375Z</time>
      </trkpt>
      <trkpt lat="44.7039" lon="-1.03031">
        <ele>51.109307</ele>
        <time>2022-12-25T11:18:54.369Z</time>
      </trkpt>
      <trkpt lat="44.70384" lon="-1.03015">
        <ele>51.029346</ele>
        <time>2022-12-25T11:18:57.370Z</time>
      </trkpt>
      <trkpt lat="44.7038" lon="-1.03003">
        <ele>50.972123</ele>
        <time>2022-12-25T11:18:59.375Z</time>
      </trkpt>
      <trkpt lat="44.70376" lon="-1.02992">
        <ele>50.916764</ele>
        <time>2022-12-25T11:19:01.366Z</time>
      </trkpt>
      <trkpt lat="44.7037" lon="-1.02981">
        <ele>50.862442</ele>
        <time>2022-12-25T11:19:03.376Z</time>
      </trkpt>
      <trkpt lat="44.70365" lon="-1.02969">
        <ele>50.811066</ele>
        <time>2022-12-25T11:19:05.353Z</time>
      </trkpt>
      <trkpt lat="44.70359" lon="-1.02957">
        <ele>50.754221</ele>
        <time>2022-12-25T11:19:07.356Z</time>
      </trkpt>
      <trkpt lat="44.70354" lon="-1.02946">
        <ele>50.702523</ele>
        <time>2022-12-25T11:19:09.371Z</time>
      </trkpt>
      <trkpt lat="44.70346" lon="-1.02929">
        <ele>50.6295</ele>
        <time>2022-12-25T11:19:12.370Z</time>
      </trkpt>
      <trkpt lat="44.70342" lon="-1.02919">
        <ele>50.581542</ele>
        <time>2022-12-25T11:19:14.371Z</time>
      </trkpt>
      <trkpt lat="44.70336" lon="-1.02906">
        <ele>50.526646</ele>
        <time>2022-12-25T11:19:16.367Z</time>
      </trkpt>
      <trkpt lat="44.70331" lon="-1.02891">
        <ele>50.461172</ele>
        <time>2022-12-25T11:19:19.365Z</time>
      </trkpt>
      <trkpt lat="44.70327" lon="-1.02879">
        <ele>50.409904</ele>
        <time>2022-12-25T11:19:22.374Z</time>
      </trkpt>
      <trkpt lat="44.70321" lon="-1.02865">
        <ele>50.350481</ele>
        <time>2022-12-25T11:19:25.366Z</time>
      </trkpt>
      <trkpt lat="44.70314" lon="-1.02849">
        <ele>50.279309</ele>
        <time>2022-12-25T11:19:28.365Z</time>
      </trkpt>
      <trkpt lat="44.70308" lon="-1.02837">
        <ele>50.222941</ele>
        <time>2022-12-25T11:19:30.372Z</time>
      </trkpt>
      <trkpt lat="44.70303" lon="-1.02825">
        <ele>50.171918</ele>
        <time>2022-12-25T11:19:32.360Z</time>
      </trkpt>
      <trkpt lat="44.70298" lon="-1.02814">
        <ele>50.119573</ele>
        <time>2022-12-25T11:19:34.370Z</time>
      </trkpt>
      <trkpt lat="44.70292" lon="-1.02802">
        <ele>50.06798</ele>
        <time>2022-12-25T11:19:36.369Z</time>
      </trkpt>
      <trkpt lat="44.70287" lon="-1.02791">
        <ele>50.015854</ele>
        <time>2022-12-25T11:19:38.363Z</time>
      </trkpt>
      <trkpt lat="44.70281" lon="-1.02774">
        <ele>49.943429</ele>
        <time>2022-12-25T11:19:41.372Z</time>
      </trkpt>
      <trkpt lat="44.70276" lon="-1.02762">
        <ele>49.868305</ele>
        <time>2022-12-25T11:19:43.381Z</time>
      </trkpt>
      <trkpt lat="44.70272" lon="-1.02751">
        <ele>49.790415</ele>
        <time>2022-12-25T11:19:45.374Z</time>
      </trkpt>
      <trkpt lat="44.70266" lon="-1.02739">
        <ele>49.703912</ele>
        <time>2022-12-25T11:19:47.364Z</time>
      </trkpt>
      <trkpt lat="44.70261" lon="-1.02727">
        <ele>49.623667</ele>
        <time>2022-12-25T11:19:49.367Z</time>
      </trkpt>
      <trkpt lat="44.70254" lon="-1.02715">
        <ele>49.533776</ele>
        <time>2022-12-25T11:19:51.374Z</time>
      </trkpt>
      <trkpt lat="44.70249" lon="-1.02704">
        <ele>49.450203</ele>
        <time>2022-12-25T11:19:53.385Z</time>
      </trkpt>
      <trkpt lat="44.70243" lon="-1.02692">
        <ele>49.370956</ele>
        <time>2022-12-25T11:19:55.355Z</time>
      </trkpt>
      <trkpt lat="44.70238" lon="-1.02681">
        <ele>49.291667</ele>
        <time>2022-12-25T11:19:57.365Z</time>
      </trkpt>
      <trkpt lat="44.70233" lon="-1.0267">
        <ele>49.212469</ele>
        <time>2022-12-25T11:19:59.370Z</time>
      </trkpt>
      <trkpt lat="44.70225" lon="-1.02656">
        <ele>49.105091</ele>
        <time>2022-12-25T11:20:02.368Z</time>
      </trkpt>
      <trkpt lat="44.70218" lon="-1.02641">
        <ele>49.000141</ele>
        <time>2022-12-25T11:20:05.364Z</time>
      </trkpt>
      <trkpt lat="44.70211" lon="-1.02628">
        <ele>48.898043</ele>
        <time>2022-12-25T11:20:08.366Z</time>
      </trkpt>
      <trkpt lat="44.70203" lon="-1.02614">
        <ele>48.792558</ele>
        <time>2022-12-25T11:20:11.371Z</time>
      </trkpt>
      <trkpt lat="44.70195" lon="-1.02599">
        <ele>48.682728</ele>
        <time>2022-12-25T11:20:14.367Z</time>
      </trkpt>
      <trkpt lat="44.70189" lon="-1.02588">
        <ele>48.600435</ele>
        <time>2022-12-25T11:20:16.372Z</time>
      </trkpt>
      <trkpt lat="44.70181" lon="-1.02573">
        <ele>48.490621</ele>
        <time>2022-12-25T11:20:19.354Z</time>
      </trkpt>
      <trkpt lat="44.70173" lon="-1.02558">
        <ele>48.473451</ele>
        <time>2022-12-25T11:20:22.364Z</time>
      </trkpt>
      <trkpt lat="44.70165" lon="-1.02545">
        <ele>48.580413</ele>
        <time>2022-12-25T11:20:25.368Z</time>
      </trkpt>
      <trkpt lat="44.70159" lon="-1.02536">
        <ele>48.662428</ele>
        <time>2022-12-25T11:20:28.359Z</time>
      </trkpt>
      <trkpt lat="44.70152" lon="-1.02527">
        <ele>48.745214</ele>
        <time>2022-12-25T11:20:32.366Z</time>
      </trkpt>
      <trkpt lat="44.70146" lon="-1.02514">
        <ele>48.840621</ele>
        <time>2022-12-25T11:20:36.361Z</time>
      </trkpt>
      <trkpt lat="44.70138" lon="-1.02502">
        <ele>48.93897</ele>
        <time>2022-12-25T11:20:40.367Z</time>
      </trkpt>
      <trkpt lat="44.7013" lon="-1.02489">
        <ele>49.049897</ele>
        <time>2022-12-25T11:20:44.374Z</time>
      </trkpt>
      <trkpt lat="44.70122" lon="-1.02478">
        <ele>49.143556</ele>
        <time>2022-12-25T11:20:47.362Z</time>
      </trkpt>
      <trkpt lat="44.70115" lon="-1.02467">
        <ele>49.242086</ele>
        <time>2022-12-25T11:20:50.351Z</time>
      </trkpt>
      <trkpt lat="44.70107" lon="-1.02455">
        <ele>49.344976</ele>
        <time>2022-12-25T11:20:53.372Z</time>
      </trkpt>
      <trkpt lat="44.70099" lon="-1.02443">
        <ele>49.4512</ele>
        <time>2022-12-25T11:20:56.368Z</time>
      </trkpt>
      <trkpt lat="44.7009" lon="-1.0243">
        <ele>49.561958</ele>
        <time>2022-12-25T11:20:59.370Z</time>
      </trkpt>
      <trkpt lat="44.70083" lon="-1.02421">
        <ele>49.643249</ele>
        <time>2022-12-25T11:21:01.369Z</time>
      </trkpt>
      <trkpt lat="44.70076" lon="-1.02412">
        <ele>49.726262</ele>
        <time>2022-12-25T11:21:03.351Z</time>
      </trkpt>
      <trkpt lat="44.70066" lon="-1.024">
        <ele>49.838424</ele>
        <time>2022-12-25T11:21:06.371Z</time>
      </trkpt>
      <trkpt lat="44.70058" lon="-1.02389">
        <ele>49.944317</ele>
        <time>2022-12-25T11:21:09.353Z</time>
      </trkpt>
      <trkpt lat="44.7005" lon="-1.02378">
        <ele>50.019717</ele>
        <time>2022-12-25T11:21:12.371Z</time>
      </trkpt>
      <trkpt lat="44.70042" lon="-1.02366">
        <ele>50.065349</ele>
        <time>2022-12-25T11:21:15.366Z</time>
      </trkpt>
      <trkpt lat="44.70035" lon="-1.02358">
        <ele>50.100082</ele>
        <time>2022-12-25T11:21:17.352Z</time>
      </trkpt>
      <trkpt lat="44.70025" lon="-1.02345">
        <ele>50.150343</ele>
        <time>2022-12-25T11:21:20.365Z</time>
      </trkpt>
      <trkpt lat="44.70018" lon="-1.02336">
        <ele>50.185468</ele>
        <time>2022-12-25T11:21:22.369Z</time>
      </trkpt>
      <trkpt lat="44.70012" lon="-1.02327">
        <ele>50.220286</ele>
        <time>2022-12-25T11:21:24.359Z</time>
      </trkpt>
      <trkpt lat="44.70002" lon="-1.02314">
        <ele>50.272285</ele>
        <time>2022-12-25T11:21:27.367Z</time>
      </trkpt>
      <trkpt lat="44.69992" lon="-1.02303">
        <ele>50.320589</ele>
        <time>2022-12-25T11:21:30.366Z</time>
      </trkpt>
      <trkpt lat="44.69983" lon="-1.02293">
        <ele>50.363559</ele>
        <time>2022-12-25T11:21:33.377Z</time>
      </trkpt>
      <trkpt lat="44.69974" lon="-1.02282">
        <ele>50.409153</ele>
        <time>2022-12-25T11:21:36.366Z</time>
      </trkpt>
      <trkpt lat="44.69964" lon="-1.02272">
        <ele>50.455344</ele>
        <time>2022-12-25T11:21:39.372Z</time>
      </trkpt>
      <trkpt lat="44.69955" lon="-1.02261">
        <ele>50.501868</ele>
        <time>2022-12-25T11:21:42.368Z</time>
      </trkpt>
      <trkpt lat="44.69945" lon="-1.0225">
        <ele>50.547211</ele>
        <time>2022-12-25T11:21:45.363Z</time>
      </trkpt>
      <trkpt lat="44.69935" lon="-1.02239">
        <ele>50.596154</ele>
        <time>2022-12-25T11:21:48.346Z</time>
      </trkpt>
      <trkpt lat="44.69925" lon="-1.02229">
        <ele>50.643908</ele>
        <time>2022-12-25T11:21:51.365Z</time>
      </trkpt>
      <trkpt lat="44.69915" lon="-1.02218">
        <ele>50.705777</ele>
        <time>2022-12-25T11:21:54.366Z</time>
      </trkpt>
      <trkpt lat="44.69904" lon="-1.02208">
        <ele>50.90008</ele>
        <time>2022-12-25T11:21:57.370Z</time>
      </trkpt>
      <trkpt lat="44.69895" lon="-1.02198">
        <ele>51.081894</ele>
        <time>2022-12-25T11:22:00.371Z</time>
      </trkpt>
      <trkpt lat="44.69887" lon="-1.02189">
        <ele>51.247011</ele>
        <time>2022-12-25T11:22:03.381Z</time>
      </trkpt>
      <trkpt lat="44.69879" lon="-1.0218">
        <ele>51.396123</ele>
        <time>2022-12-25T11:22:06.359Z</time>
      </trkpt>
      <trkpt lat="44.6987" lon="-1.02171">
        <ele>51.575776</ele>
        <time>2022-12-25T11:22:10.372Z</time>
      </trkpt>
      <trkpt lat="44.69859" lon="-1.02163">
        <ele>51.772056</ele>
        <time>2022-12-25T11:22:13.354Z</time>
      </trkpt>
      <trkpt lat="44.69848" lon="-1.02153">
        <ele>51.976246</ele>
        <time>2022-12-25T11:22:16.350Z</time>
      </trkpt>
      <trkpt lat="44.69837" lon="-1.02144">
        <ele>52.177562</ele>
        <time>2022-12-25T11:22:19.369Z</time>
      </trkpt>
      <trkpt lat="44.69829" lon="-1.02137">
        <ele>52.318904</ele>
        <time>2022-12-25T11:22:22.370Z</time>
      </trkpt>
      <trkpt lat="44.69819" lon="-1.02129">
        <ele>52.496314</ele>
        <time>2022-12-25T11:22:25.350Z</time>
      </trkpt>
      <trkpt lat="44.69809" lon="-1.02119">
        <ele>52.687696</ele>
        <time>2022-12-25T11:22:28.350Z</time>
      </trkpt>
      <trkpt lat="44.69797" lon="-1.02111">
        <ele>52.896914</ele>
        <time>2022-12-25T11:22:31.361Z</time>
      </trkpt>
      <trkpt lat="44.69785" lon="-1.02102">
        <ele>53.104961</ele>
        <time>2022-12-25T11:22:34.358Z</time>
      </trkpt>
      <trkpt lat="44.69774" lon="-1.02093">
        <ele>53.31033</ele>
        <time>2022-12-25T11:22:37.370Z</time>
      </trkpt>
      <trkpt lat="44.69762" lon="-1.02084">
        <ele>53.509398</ele>
        <time>2022-12-25T11:22:40.370Z</time>
      </trkpt>
      <trkpt lat="44.69754" lon="-1.02077">
        <ele>53.572744</ele>
        <time>2022-12-25T11:22:42.346Z</time>
      </trkpt>
      <trkpt lat="44.69746" lon="-1.02071">
        <ele>53.631784</ele>
        <time>2022-12-25T11:22:44.371Z</time>
      </trkpt>
      <trkpt lat="44.69734" lon="-1.02062">
        <ele>53.718149</ele>
        <time>2022-12-25T11:22:47.370Z</time>
      </trkpt>
      <trkpt lat="44.69726" lon="-1.02056">
        <ele>53.778422</ele>
        <time>2022-12-25T11:22:49.370Z</time>
      </trkpt>
      <trkpt lat="44.69717" lon="-1.02051">
        <ele>53.84081</ele>
        <time>2022-12-25T11:22:51.371Z</time>
      </trkpt>
      <trkpt lat="44.69709" lon="-1.02045">
        <ele>53.900397</ele>
        <time>2022-12-25T11:22:53.358Z</time>
      </trkpt>
      <trkpt lat="44.69701" lon="-1.02039">
        <ele>53.959775</ele>
        <time>2022-12-25T11:22:55.369Z</time>
      </trkpt>
      <trkpt lat="44.69689" lon="-1.02031">
        <ele>54.044797</ele>
        <time>2022-12-25T11:22:58.366Z</time>
      </trkpt>
      <trkpt lat="44.69678" lon="-1.02022">
        <ele>54.132203</ele>
        <time>2022-12-25T11:23:01.348Z</time>
      </trkpt>
      <trkpt lat="44.69667" lon="-1.02015">
        <ele>54.210552</ele>
        <time>2022-12-25T11:23:04.368Z</time>
      </trkpt>
      <trkpt lat="44.69657" lon="-1.0201">
        <ele>54.2804</ele>
        <time>2022-12-25T11:23:07.365Z</time>
      </trkpt>
      <trkpt lat="44.69646" lon="-1.02003">
        <ele>54.357603</ele>
        <time>2022-12-25T11:23:10.372Z</time>
      </trkpt>
      <trkpt lat="44.69637" lon="-1.01998">
        <ele>54.418971</ele>
        <time>2022-12-25T11:23:12.359Z</time>
      </trkpt>
      <trkpt lat="44.69629" lon="-1.01992">
        <ele>54.48032</ele>
        <time>2022-12-25T11:23:14.370Z</time>
      </trkpt>
      <trkpt lat="44.69619" lon="-1.01987">
        <ele>54.55139</ele>
        <time>2022-12-25T11:23:16.374Z</time>
      </trkpt>
      <trkpt lat="44.69607" lon="-1.0198">
        <ele>54.63552</ele>
        <time>2022-12-25T11:23:19.352Z</time>
      </trkpt>
      <trkpt lat="44.69594" lon="-1.01972">
        <ele>54.47874</ele>
        <time>2022-12-25T11:23:22.352Z</time>
      </trkpt>
      <trkpt lat="44.69585" lon="-1.01968">
        <ele>54.246422</ele>
        <time>2022-12-25T11:23:24.354Z</time>
      </trkpt>
      <trkpt lat="44.69577" lon="-1.01963">
        <ele>54.004387</ele>
        <time>2022-12-25T11:23:26.373Z</time>
      </trkpt>
      <trkpt lat="44.69568" lon="-1.01958">
        <ele>53.774252</ele>
        <time>2022-12-25T11:23:28.367Z</time>
      </trkpt>
      <trkpt lat="44.69555" lon="-1.0195">
        <ele>53.411478</ele>
        <time>2022-12-25T11:23:31.368Z</time>
      </trkpt>
      <trkpt lat="44.69543" lon="-1.01945">
        <ele>53.07747</ele>
        <time>2022-12-25T11:23:34.366Z</time>
      </trkpt>
      <trkpt lat="44.69531" lon="-1.01936">
        <ele>52.739973</ele>
        <time>2022-12-25T11:23:37.364Z</time>
      </trkpt>
      <trkpt lat="44.69519" lon="-1.01928">
        <ele>52.395033</ele>
        <time>2022-12-25T11:23:40.348Z</time>
      </trkpt>
      <trkpt lat="44.69508" lon="-1.01922">
        <ele>52.090057</ele>
        <time>2022-12-25T11:23:43.381Z</time>
      </trkpt>
      <trkpt lat="44.69496" lon="-1.01915">
        <ele>51.774663</ele>
        <time>2022-12-25T11:23:46.355Z</time>
      </trkpt>
      <trkpt lat="44.69486" lon="-1.0191">
        <ele>51.503398</ele>
        <time>2022-12-25T11:23:49.357Z</time>
      </trkpt>
      <trkpt lat="44.69474" lon="-1.01904">
        <ele>51.181622</ele>
        <time>2022-12-25T11:23:52.368Z</time>
      </trkpt>
      <trkpt lat="44.69466" lon="-1.019">
        <ele>50.949303</ele>
        <time>2022-12-25T11:23:54.374Z</time>
      </trkpt>
      <trkpt lat="44.69453" lon="-1.01895">
        <ele>50.611472</ele>
        <time>2022-12-25T11:23:57.369Z</time>
      </trkpt>
      <trkpt lat="44.69441" lon="-1.01887">
        <ele>50.282056</ele>
        <time>2022-12-25T11:24:00.371Z</time>
      </trkpt>
      <trkpt lat="44.6943" lon="-1.01881">
        <ele>50.090153</ele>
        <time>2022-12-25T11:24:03.370Z</time>
      </trkpt>
      <trkpt lat="44.69419" lon="-1.01874">
        <ele>50.094009</ele>
        <time>2022-12-25T11:24:06.370Z</time>
      </trkpt>
      <trkpt lat="44.6941" lon="-1.01869">
        <ele>50.096862</ele>
        <time>2022-12-25T11:24:08.369Z</time>
      </trkpt>
      <trkpt lat="44.69401" lon="-1.01864">
        <ele>50.099889</ele>
        <time>2022-12-25T11:24:10.368Z</time>
      </trkpt>
      <trkpt lat="44.69391" lon="-1.01857">
        <ele>50.103217</ele>
        <time>2022-12-25T11:24:12.367Z</time>
      </trkpt>
      <trkpt lat="44.69383" lon="-1.0185">
        <ele>50.10614</ele>
        <time>2022-12-25T11:24:14.369Z</time>
      </trkpt>
      <trkpt lat="44.69374" lon="-1.01846">
        <ele>50.109081</ele>
        <time>2022-12-25T11:24:16.371Z</time>
      </trkpt>
      <trkpt lat="44.69365" lon="-1.01841">
        <ele>50.11213</ele>
        <time>2022-12-25T11:24:18.372Z</time>
      </trkpt>
      <trkpt lat="44.69356" lon="-1.01836">
        <ele>50.115029</ele>
        <time>2022-12-25T11:24:20.371Z</time>
      </trkpt>
      <trkpt lat="44.69347" lon="-1.01829">
        <ele>50.118162</ele>
        <time>2022-12-25T11:24:22.359Z</time>
      </trkpt>
      <trkpt lat="44.69339" lon="-1.01823">
        <ele>50.121032</ele>
        <time>2022-12-25T11:24:24.366Z</time>
      </trkpt>
      <trkpt lat="44.69327" lon="-1.01817">
        <ele>50.125024</ele>
        <time>2022-12-25T11:24:27.372Z</time>
      </trkpt>
      <trkpt lat="44.69315" lon="-1.01811">
        <ele>50.128923</ele>
        <time>2022-12-25T11:24:30.370Z</time>
      </trkpt>
      <trkpt lat="44.69304" lon="-1.01805">
        <ele>50.132566</ele>
        <time>2022-12-25T11:24:33.374Z</time>
      </trkpt>
      <trkpt lat="44.69293" lon="-1.01799">
        <ele>50.136195</ele>
        <time>2022-12-25T11:24:36.368Z</time>
      </trkpt>
      <trkpt lat="44.69282" lon="-1.01793">
        <ele>50.139652</ele>
        <time>2022-12-25T11:24:39.374Z</time>
      </trkpt>
      <trkpt lat="44.69273" lon="-1.01787">
        <ele>50.14282</ele>
        <time>2022-12-25T11:24:42.367Z</time>
      </trkpt>
      <trkpt lat="44.69262" lon="-1.01781">
        <ele>50.276942</ele>
        <time>2022-12-25T11:24:45.361Z</time>
      </trkpt>
      <trkpt lat="44.69251" lon="-1.01775">
        <ele>50.498336</ele>
        <time>2022-12-25T11:24:48.372Z</time>
      </trkpt>
      <trkpt lat="44.6924" lon="-1.01769">
        <ele>50.726236</ele>
        <time>2022-12-25T11:24:51.377Z</time>
      </trkpt>
      <trkpt lat="44.69228" lon="-1.01762">
        <ele>50.961601</ele>
        <time>2022-12-25T11:24:54.369Z</time>
      </trkpt>
      <trkpt lat="44.69219" lon="-1.01757">
        <ele>51.134255</ele>
        <time>2022-12-25T11:24:56.370Z</time>
      </trkpt>
      <trkpt lat="44.69211" lon="-1.01752">
        <ele>51.301922</ele>
        <time>2022-12-25T11:24:58.349Z</time>
      </trkpt>
      <trkpt lat="44.69202" lon="-1.01748">
        <ele>51.474444</ele>
        <time>2022-12-25T11:25:00.358Z</time>
      </trkpt>
      <trkpt lat="44.69194" lon="-1.01742">
        <ele>51.647098</ele>
        <time>2022-12-25T11:25:02.372Z</time>
      </trkpt>
      <trkpt lat="44.69182" lon="-1.01735">
        <ele>51.890824</ele>
        <time>2022-12-25T11:25:05.363Z</time>
      </trkpt>
      <trkpt lat="44.69173" lon="-1.0173">
        <ele>52.056797</ele>
        <time>2022-12-25T11:25:07.359Z</time>
      </trkpt>
      <trkpt lat="44.69165" lon="-1.01726">
        <ele>52.228404</ele>
        <time>2022-12-25T11:25:09.352Z</time>
      </trkpt>
      <trkpt lat="44.69155" lon="-1.01721">
        <ele>52.413667</ele>
        <time>2022-12-25T11:25:11.374Z</time>
      </trkpt>
      <trkpt lat="44.69146" lon="-1.01715">
        <ele>52.593096</ele>
        <time>2022-12-25T11:25:13.380Z</time>
      </trkpt>
      <trkpt lat="44.69138" lon="-1.0171">
        <ele>52.770826</ele>
        <time>2022-12-25T11:25:15.368Z</time>
      </trkpt>
      <trkpt lat="44.69129" lon="-1.01705">
        <ele>52.949229</ele>
        <time>2022-12-25T11:25:17.374Z</time>
      </trkpt>
      <trkpt lat="44.6912" lon="-1.01699">
        <ele>53.125264</ele>
        <time>2022-12-25T11:25:19.354Z</time>
      </trkpt>
      <trkpt lat="44.69112" lon="-1.01694">
        <ele>53.295673</ele>
        <time>2022-12-25T11:25:21.372Z</time>
      </trkpt>
      <trkpt lat="44.69103" lon="-1.01688">
        <ele>53.47056</ele>
        <time>2022-12-25T11:25:23.384Z</time>
      </trkpt>
      <trkpt lat="44.69091" lon="-1.0168">
        <ele>53.343088</ele>
        <time>2022-12-25T11:25:26.371Z</time>
      </trkpt>
      <trkpt lat="44.69078" lon="-1.01673">
        <ele>53.212653</ele>
        <time>2022-12-25T11:25:29.371Z</time>
      </trkpt>
      <trkpt lat="44.69066" lon="-1.01666">
        <ele>53.082717</ele>
        <time>2022-12-25T11:25:32.365Z</time>
      </trkpt>
      <trkpt lat="44.69054" lon="-1.01657">
        <ele>52.950135</ele>
        <time>2022-12-25T11:25:35.366Z</time>
      </trkpt>
      <trkpt lat="44.69045" lon="-1.01653">
        <ele>52.860458</ele>
        <time>2022-12-25T11:25:37.370Z</time>
      </trkpt>
      <trkpt lat="44.69034" lon="-1.01646">
        <ele>52.739577</ele>
        <time>2022-12-25T11:25:40.369Z</time>
      </trkpt>
      <trkpt lat="44.69023" lon="-1.01639">
        <ele>52.625543</ele>
        <time>2022-12-25T11:25:43.368Z</time>
      </trkpt>
      <trkpt lat="44.69014" lon="-1.01633">
        <ele>52.523293</ele>
        <time>2022-12-25T11:25:46.351Z</time>
      </trkpt>
      <trkpt lat="44.69004" lon="-1.01629">
        <ele>52.427502</ele>
        <time>2022-12-25T11:25:49.366Z</time>
      </trkpt>
      <trkpt lat="44.68994" lon="-1.01623">
        <ele>52.316291</ele>
        <time>2022-12-25T11:25:53.369Z</time>
      </trkpt>
      <trkpt lat="44.68984" lon="-1.01617">
        <ele>52.211328</ele>
        <time>2022-12-25T11:25:57.370Z</time>
      </trkpt>
      <trkpt lat="44.68975" lon="-1.01612">
        <ele>52.118415</ele>
        <time>2022-12-25T11:26:00.374Z</time>
      </trkpt>
      <trkpt lat="44.68965" lon="-1.01606">
        <ele>52.011385</ele>
        <time>2022-12-25T11:26:03.382Z</time>
      </trkpt>
      <trkpt lat="44.68954" lon="-1.016">
        <ele>51.8985</ele>
        <time>2022-12-25T11:26:06.367Z</time>
      </trkpt>
      <trkpt lat="44.68943" lon="-1.01592">
        <ele>51.778861</ele>
        <time>2022-12-25T11:26:09.350Z</time>
      </trkpt>
      <trkpt lat="44.68931" lon="-1.01585">
        <ele>51.70033</ele>
        <time>2022-12-25T11:26:12.370Z</time>
      </trkpt>
      <trkpt lat="44.68923" lon="-1.0158">
        <ele>51.677603</ele>
        <time>2022-12-25T11:26:14.371Z</time>
      </trkpt>
      <trkpt lat="44.68914" lon="-1.01576">
        <ele>51.654783</ele>
        <time>2022-12-25T11:26:16.369Z</time>
      </trkpt>
      <trkpt lat="44.68902" lon="-1.01569">
        <ele>51.620759</ele>
        <time>2022-12-25T11:26:19.351Z</time>
      </trkpt>
      <trkpt lat="44.68893" lon="-1.01563">
        <ele>51.595793</ele>
        <time>2022-12-25T11:26:21.372Z</time>
      </trkpt>
      <trkpt lat="44.68881" lon="-1.01556">
        <ele>51.56428</ele>
        <time>2022-12-25T11:26:24.349Z</time>
      </trkpt>
      <trkpt lat="44.68873" lon="-1.0155">
        <ele>51.541111</ele>
        <time>2022-12-25T11:26:26.373Z</time>
      </trkpt>
      <trkpt lat="44.68864" lon="-1.01547">
        <ele>51.518328</ele>
        <time>2022-12-25T11:26:28.348Z</time>
      </trkpt>
      <trkpt lat="44.68855" lon="-1.01542">
        <ele>51.49477</ele>
        <time>2022-12-25T11:26:30.369Z</time>
      </trkpt>
      <trkpt lat="44.68843" lon="-1.01535">
        <ele>51.4626</ele>
        <time>2022-12-25T11:26:33.372Z</time>
      </trkpt>
      <trkpt lat="44.68832" lon="-1.01529">
        <ele>51.43336</ele>
        <time>2022-12-25T11:26:36.349Z</time>
      </trkpt>
      <trkpt lat="44.68821" lon="-1.01523">
        <ele>51.403057</ele>
        <time>2022-12-25T11:26:39.370Z</time>
      </trkpt>
      <trkpt lat="44.6881" lon="-1.01515">
        <ele>51.371207</ele>
        <time>2022-12-25T11:26:42.369Z</time>
      </trkpt>
      <trkpt lat="44.68798" lon="-1.01508">
        <ele>51.338805</ele>
        <time>2022-12-25T11:26:45.358Z</time>
      </trkpt>
      <trkpt lat="44.68789" lon="-1.01503">
        <ele>51.315846</ele>
        <time>2022-12-25T11:26:47.359Z</time>
      </trkpt>
      <trkpt lat="44.68777" lon="-1.01495">
        <ele>51.281649</ele>
        <time>2022-12-25T11:26:50.369Z</time>
      </trkpt>
      <trkpt lat="44.68769" lon="-1.0149">
        <ele>51.265355</ele>
        <time>2022-12-25T11:26:52.367Z</time>
      </trkpt>
      <trkpt lat="44.68756" lon="-1.01483">
        <ele>51.258648</ele>
        <time>2022-12-25T11:26:55.362Z</time>
      </trkpt>
      <trkpt lat="44.68744" lon="-1.01474">
        <ele>51.251888</ele>
        <time>2022-12-25T11:26:58.369Z</time>
      </trkpt>
      <trkpt lat="44.68732" lon="-1.01467">
        <ele>51.24546</ele>
        <time>2022-12-25T11:27:01.365Z</time>
      </trkpt>
      <trkpt lat="44.68721" lon="-1.0146">
        <ele>51.239397</ele>
        <time>2022-12-25T11:27:04.366Z</time>
      </trkpt>
      <trkpt lat="44.68711" lon="-1.01454">
        <ele>51.233971</ele>
        <time>2022-12-25T11:27:07.371Z</time>
      </trkpt>
      <trkpt lat="44.68702" lon="-1.0145">
        <ele>51.229062</ele>
        <time>2022-12-25T11:27:10.355Z</time>
      </trkpt>
      <trkpt lat="44.68693" lon="-1.01446">
        <ele>51.224243</ele>
        <time>2022-12-25T11:27:15.370Z</time>
      </trkpt>
      <trkpt lat="44.68685" lon="-1.0144">
        <ele>51.219546</ele>
        <time>2022-12-25T11:27:22.352Z</time>
      </trkpt>
      <trkpt lat="44.68675" lon="-1.01432">
        <ele>51.214017</ele>
        <time>2022-12-25T11:27:27.356Z</time>
      </trkpt>
      <trkpt lat="44.68665" lon="-1.01425">
        <ele>51.208396</ele>
        <time>2022-12-25T11:27:31.355Z</time>
      </trkpt>
      <trkpt lat="44.68656" lon="-1.01419">
        <ele>51.203457</ele>
        <time>2022-12-25T11:27:34.367Z</time>
      </trkpt>
      <trkpt lat="44.68647" lon="-1.01412">
        <ele>51.198085</ele>
        <time>2022-12-25T11:27:37.358Z</time>
      </trkpt>
      <trkpt lat="44.68637" lon="-1.01405">
        <ele>51.192657</ele>
        <time>2022-12-25T11:27:40.344Z</time>
      </trkpt>
      <trkpt lat="44.68627" lon="-1.01397">
        <ele>51.186768</ele>
        <time>2022-12-25T11:27:43.355Z</time>
      </trkpt>
      <trkpt lat="44.68616" lon="-1.01391">
        <ele>51.181024</ele>
        <time>2022-12-25T11:27:46.372Z</time>
      </trkpt>
      <trkpt lat="44.68607" lon="-1.01384">
        <ele>51.208692</ele>
        <time>2022-12-25T11:27:49.371Z</time>
      </trkpt>
      <trkpt lat="44.68597" lon="-1.01378">
        <ele>51.439043</ele>
        <time>2022-12-25T11:27:53.364Z</time>
      </trkpt>
      <trkpt lat="44.68588" lon="-1.01372">
        <ele>51.636986</ele>
        <time>2022-12-25T11:27:57.369Z</time>
      </trkpt>
      <trkpt lat="44.68579" lon="-1.01364">
        <ele>51.850647</ele>
        <time>2022-12-25T11:28:01.361Z</time>
      </trkpt>
      <trkpt lat="44.6857" lon="-1.01353">
        <ele>52.100004</ele>
        <time>2022-12-25T11:28:05.343Z</time>
      </trkpt>
      <trkpt lat="44.68561" lon="-1.01345">
        <ele>52.314423</ele>
        <time>2022-12-25T11:28:08.369Z</time>
      </trkpt>
      <trkpt lat="44.68552" lon="-1.01334">
        <ele>52.544596</ele>
        <time>2022-12-25T11:28:11.365Z</time>
      </trkpt>
      <trkpt lat="44.68543" lon="-1.01323">
        <ele>52.784408</ele>
        <time>2022-12-25T11:28:14.371Z</time>
      </trkpt>
      <trkpt lat="44.68535" lon="-1.0131">
        <ele>53.030513</ele>
        <time>2022-12-25T11:28:17.368Z</time>
      </trkpt>
      <trkpt lat="44.68526" lon="-1.01298">
        <ele>53.289891</ele>
        <time>2022-12-25T11:28:20.367Z</time>
      </trkpt>
      <trkpt lat="44.68515" lon="-1.01287">
        <ele>53.55728</ele>
        <time>2022-12-25T11:28:23.350Z</time>
      </trkpt>
      <trkpt lat="44.68504" lon="-1.01277">
        <ele>53.835717</ele>
        <time>2022-12-25T11:28:26.378Z</time>
      </trkpt>
      <trkpt lat="44.68496" lon="-1.0127">
        <ele>54.023187</ele>
        <time>2022-12-25T11:28:28.350Z</time>
      </trkpt>
      <trkpt lat="44.68485" lon="-1.0126">
        <ele>54.289997</ele>
        <time>2022-12-25T11:28:31.368Z</time>
      </trkpt>
      <trkpt lat="44.68474" lon="-1.01251">
        <ele>54.541925</ele>
        <time>2022-12-25T11:28:34.370Z</time>
      </trkpt>
      <trkpt lat="44.68464" lon="-1.01241">
        <ele>54.799472</ele>
        <time>2022-12-25T11:28:37.368Z</time>
      </trkpt>
      <trkpt lat="44.68453" lon="-1.01231">
        <ele>54.71471</ele>
        <time>2022-12-25T11:28:40.372Z</time>
      </trkpt>
      <trkpt lat="44.68442" lon="-1.01221">
        <ele>54.603233</ele>
        <time>2022-12-25T11:28:43.385Z</time>
      </trkpt>
      <trkpt lat="44.68431" lon="-1.01211">
        <ele>54.489087</ele>
        <time>2022-12-25T11:28:46.361Z</time>
      </trkpt>
      <trkpt lat="44.6842" lon="-1.01201">
        <ele>54.377046</ele>
        <time>2022-12-25T11:28:49.364Z</time>
      </trkpt>
      <trkpt lat="44.68408" lon="-1.01192">
        <ele>54.262542</ele>
        <time>2022-12-25T11:28:52.364Z</time>
      </trkpt>
      <trkpt lat="44.68396" lon="-1.01183">
        <ele>54.14674</ele>
        <time>2022-12-25T11:28:55.365Z</time>
      </trkpt>
      <trkpt lat="44.68384" lon="-1.01175">
        <ele>54.030854</ele>
        <time>2022-12-25T11:28:58.366Z</time>
      </trkpt>
      <trkpt lat="44.68373" lon="-1.01166">
        <ele>53.919225</ele>
        <time>2022-12-25T11:29:01.370Z</time>
      </trkpt>
      <trkpt lat="44.68362" lon="-1.01158">
        <ele>53.813226</ele>
        <time>2022-12-25T11:29:04.387Z</time>
      </trkpt>
      <trkpt lat="44.68354" lon="-1.01151">
        <ele>53.731985</ele>
        <time>2022-12-25T11:29:06.347Z</time>
      </trkpt>
      <trkpt lat="44.68343" lon="-1.01141">
        <ele>53.619415</ele>
        <time>2022-12-25T11:29:09.376Z</time>
      </trkpt>
      <trkpt lat="44.68332" lon="-1.01131">
        <ele>53.505999</ele>
        <time>2022-12-25T11:29:12.367Z</time>
      </trkpt>
      <trkpt lat="44.68321" lon="-1.01119">
        <ele>53.390817</ele>
        <time>2022-12-25T11:29:15.364Z</time>
      </trkpt>
      <trkpt lat="44.68311" lon="-1.01108">
        <ele>53.282336</ele>
        <time>2022-12-25T11:29:18.372Z</time>
      </trkpt>
      <trkpt lat="44.68303" lon="-1.01098">
        <ele>53.138208</ele>
        <time>2022-12-25T11:29:21.355Z</time>
      </trkpt>
      <trkpt lat="44.68296" lon="-1.01088">
        <ele>53.004831</ele>
        <time>2022-12-25T11:29:24.372Z</time>
      </trkpt>
      <trkpt lat="44.68287" lon="-1.01078">
        <ele>52.849796</ele>
        <time>2022-12-25T11:29:27.359Z</time>
      </trkpt>
      <trkpt lat="44.68278" lon="-1.01068">
        <ele>52.692925</ele>
        <time>2022-12-25T11:29:30.349Z</time>
      </trkpt>
      <trkpt lat="44.68269" lon="-1.01056">
        <ele>52.530006</ele>
        <time>2022-12-25T11:29:33.373Z</time>
      </trkpt>
      <trkpt lat="44.68261" lon="-1.01046">
        <ele>52.389125</ele>
        <time>2022-12-25T11:29:36.346Z</time>
      </trkpt>
      <trkpt lat="44.68253" lon="-1.01036">
        <ele>52.243952</ele>
        <time>2022-12-25T11:29:39.370Z</time>
      </trkpt>
      <trkpt lat="44.68246" lon="-1.01026">
        <ele>52.104033</ele>
        <time>2022-12-25T11:29:42.373Z</time>
      </trkpt>
      <trkpt lat="44.68238" lon="-1.01016">
        <ele>51.96644</ele>
        <time>2022-12-25T11:29:45.372Z</time>
      </trkpt>
      <trkpt lat="44.68232" lon="-1.01008">
        <ele>51.844222</ele>
        <time>2022-12-25T11:29:48.367Z</time>
      </trkpt>
      <trkpt lat="44.68224" lon="-1.00997">
        <ele>51.695447</ele>
        <time>2022-12-25T11:29:56.357Z</time>
      </trkpt>
      <trkpt lat="44.68215" lon="-1.00986">
        <ele>51.53811</ele>
        <time>2022-12-25T11:30:01.367Z</time>
      </trkpt>
      <trkpt lat="44.68207" lon="-1.00973">
        <ele>51.371421</ele>
        <time>2022-12-25T11:30:05.367Z</time>
      </trkpt>
      <trkpt lat="44.68199" lon="-1.00963">
        <ele>51.224857</ele>
        <time>2022-12-25T11:30:08.355Z</time>
      </trkpt>
      <trkpt lat="44.68191" lon="-1.00952">
        <ele>51.081356</ele>
        <time>2022-12-25T11:30:11.372Z</time>
      </trkpt>
      <trkpt lat="44.68184" lon="-1.00943">
        <ele>50.945738</ele>
        <time>2022-12-25T11:30:14.374Z</time>
      </trkpt>
      <trkpt lat="44.68176" lon="-1.00931">
        <ele>50.800302</ele>
        <time>2022-12-25T11:30:17.369Z</time>
      </trkpt>
      <trkpt lat="44.68168" lon="-1.0092">
        <ele>50.670364</ele>
        <time>2022-12-25T11:30:20.368Z</time>
      </trkpt>
      <trkpt lat="44.68159" lon="-1.00907">
        <ele>50.531961</ele>
        <time>2022-12-25T11:30:23.376Z</time>
      </trkpt>
      <trkpt lat="44.6815" lon="-1.00894">
        <ele>50.387787</ele>
        <time>2022-12-25T11:30:26.372Z</time>
      </trkpt>
      <trkpt lat="44.68143" lon="-1.00885">
        <ele>50.287736</ele>
        <time>2022-12-25T11:30:28.370Z</time>
      </trkpt>
      <trkpt lat="44.68134" lon="-1.00871">
        <ele>50.141898</ele>
        <time>2022-12-25T11:30:31.369Z</time>
      </trkpt>
      <trkpt lat="44.68125" lon="-1.00858">
        <ele>49.990587</ele>
        <time>2022-12-25T11:30:34.348Z</time>
      </trkpt>
      <trkpt lat="44.68116" lon="-1.00844">
        <ele>49.842301</ele>
        <time>2022-12-25T11:30:37.368Z</time>
      </trkpt>
      <trkpt lat="44.68108" lon="-1.00835">
        <ele>49.739046</ele>
        <time>2022-12-25T11:30:39.350Z</time>
      </trkpt>
      <trkpt lat="44.68102" lon="-1.00827">
        <ele>49.638394</ele>
        <time>2022-12-25T11:30:41.370Z</time>
      </trkpt>
      <trkpt lat="44.68095" lon="-1.00817">
        <ele>49.537163</ele>
        <time>2022-12-25T11:30:43.371Z</time>
      </trkpt>
      <trkpt lat="44.68089" lon="-1.00809">
        <ele>49.436239</ele>
        <time>2022-12-25T11:30:45.368Z</time>
      </trkpt>
      <trkpt lat="44.68079" lon="-1.00795">
        <ele>49.287019</ele>
        <time>2022-12-25T11:30:48.348Z</time>
      </trkpt>
      <trkpt lat="44.68073" lon="-1.00786">
        <ele>49.18734</ele>
        <time>2022-12-25T11:30:50.366Z</time>
      </trkpt>
      <trkpt lat="44.68063" lon="-1.00773">
        <ele>49.041869</ele>
        <time>2022-12-25T11:30:53.368Z</time>
      </trkpt>
      <trkpt lat="44.68055" lon="-1.0076">
        <ele>48.901521</ele>
        <time>2022-12-25T11:30:56.371Z</time>
      </trkpt>
      <trkpt lat="44.68048" lon="-1.0075">
        <ele>48.946653</ele>
        <time>2022-12-25T11:30:58.353Z</time>
      </trkpt>
      <trkpt lat="44.68041" lon="-1.00741">
        <ele>49.092861</ele>
        <time>2022-12-25T11:31:00.365Z</time>
      </trkpt>
      <trkpt lat="44.68034" lon="-1.0073">
        <ele>49.244019</ele>
        <time>2022-12-25T11:31:02.375Z</time>
      </trkpt>
      <trkpt lat="44.68027" lon="-1.0072">
        <ele>49.403112</ele>
        <time>2022-12-25T11:31:04.368Z</time>
      </trkpt>
      <trkpt lat="44.6802" lon="-1.00711">
        <ele>49.545959</ele>
        <time>2022-12-25T11:31:06.371Z</time>
      </trkpt>
      <trkpt lat="44.68014" lon="-1.00702">
        <ele>49.69311</ele>
        <time>2022-12-25T11:31:08.362Z</time>
      </trkpt>
      <trkpt lat="44.68007" lon="-1.00693">
        <ele>49.83262</ele>
        <time>2022-12-25T11:31:10.367Z</time>
      </trkpt>
      <trkpt lat="44.67998" lon="-1.0068">
        <ele>50.023866</ele>
        <time>2022-12-25T11:31:13.381Z</time>
      </trkpt>
      <trkpt lat="44.67991" lon="-1.0067">
        <ele>50.184039</ele>
        <time>2022-12-25T11:31:16.371Z</time>
      </trkpt>
      <trkpt lat="44.67983" lon="-1.00658">
        <ele>50.365962</ele>
        <time>2022-12-25T11:31:20.353Z</time>
      </trkpt>
      <trkpt lat="44.67975" lon="-1.00646">
        <ele>50.540698</ele>
        <time>2022-12-25T11:31:23.379Z</time>
      </trkpt>
      <trkpt lat="44.67966" lon="-1.00633">
        <ele>50.739022</ele>
        <time>2022-12-25T11:31:26.352Z</time>
      </trkpt>
      <trkpt lat="44.67959" lon="-1.00624">
        <ele>50.889734</ele>
        <time>2022-12-25T11:31:28.371Z</time>
      </trkpt>
      <trkpt lat="44.67953" lon="-1.00614">
        <ele>51.034075</ele>
        <time>2022-12-25T11:31:30.371Z</time>
      </trkpt>
      <trkpt lat="44.67946" lon="-1.00605">
        <ele>51.177261</ele>
        <time>2022-12-25T11:31:32.370Z</time>
      </trkpt>
      <trkpt lat="44.67936" lon="-1.00591">
        <ele>51.396017</ele>
        <time>2022-12-25T11:31:35.369Z</time>
      </trkpt>
      <trkpt lat="44.6793" lon="-1.00581">
        <ele>51.538168</ele>
        <time>2022-12-25T11:31:37.350Z</time>
      </trkpt>
      <trkpt lat="44.67921" lon="-1.00569">
        <ele>51.664795</ele>
        <time>2022-12-25T11:31:40.371Z</time>
      </trkpt>
      <trkpt lat="44.67913" lon="-1.00558">
        <ele>51.722999</ele>
        <time>2022-12-25T11:31:43.385Z</time>
      </trkpt>
      <trkpt lat="44.67905" lon="-1.00545">
        <ele>51.786509</ele>
        <time>2022-12-25T11:31:46.363Z</time>
      </trkpt>
      <trkpt lat="44.67897" lon="-1.00533">
        <ele>51.852714</ele>
        <time>2022-12-25T11:31:49.374Z</time>
      </trkpt>
      <trkpt lat="44.67888" lon="-1.00521">
        <ele>51.916576</ele>
        <time>2022-12-25T11:31:52.371Z</time>
      </trkpt>
      <trkpt lat="44.6788" lon="-1.0051">
        <ele>51.974252</ele>
        <time>2022-12-25T11:31:55.374Z</time>
      </trkpt>
      <trkpt lat="44.67873" lon="-1.00501">
        <ele>52.027086</ele>
        <time>2022-12-25T11:31:58.365Z</time>
      </trkpt>
      <trkpt lat="44.67866" lon="-1.00492">
        <ele>52.075369</ele>
        <time>2022-12-25T11:32:01.366Z</time>
      </trkpt>
      <trkpt lat="44.67859" lon="-1.00481">
        <ele>52.129031</ele>
        <time>2022-12-25T11:32:05.365Z</time>
      </trkpt>
      <trkpt lat="44.67852" lon="-1.0047">
        <ele>52.187398</ele>
        <time>2022-12-25T11:32:09.362Z</time>
      </trkpt>
      <trkpt lat="44.67844" lon="-1.0046">
        <ele>52.240962</ele>
        <time>2022-12-25T11:32:12.357Z</time>
      </trkpt>
      <trkpt lat="44.67836" lon="-1.00449">
        <ele>52.300303</ele>
        <time>2022-12-25T11:32:15.369Z</time>
      </trkpt>
      <trkpt lat="44.67828" lon="-1.00437">
        <ele>52.364764</ele>
        <time>2022-12-25T11:32:18.371Z</time>
      </trkpt>
      <trkpt lat="44.67819" lon="-1.00424">
        <ele>52.431046</ele>
        <time>2022-12-25T11:32:21.362Z</time>
      </trkpt>
      <trkpt lat="44.67811" lon="-1.00411">
        <ele>52.497877</ele>
        <time>2022-12-25T11:32:24.348Z</time>
      </trkpt>
      <trkpt lat="44.67802" lon="-1.00398">
        <ele>52.56563</ele>
        <time>2022-12-25T11:32:27.371Z</time>
      </trkpt>
      <trkpt lat="44.67793" lon="-1.00386">
        <ele>52.57389</ele>
        <time>2022-12-25T11:32:30.362Z</time>
      </trkpt>
      <trkpt lat="44.67784" lon="-1.00373">
        <ele>52.56404</ele>
        <time>2022-12-25T11:32:33.381Z</time>
      </trkpt>
      <trkpt lat="44.67774" lon="-1.00358">
        <ele>52.553075</ele>
        <time>2022-12-25T11:32:36.362Z</time>
      </trkpt>
      <trkpt lat="44.67767" lon="-1.00349">
        <ele>52.545516</ele>
        <time>2022-12-25T11:32:38.354Z</time>
      </trkpt>
      <trkpt lat="44.67761" lon="-1.0034">
        <ele>52.538631</ele>
        <time>2022-12-25T11:32:40.362Z</time>
      </trkpt>
      <trkpt lat="44.67752" lon="-1.00327">
        <ele>52.528757</ele>
        <time>2022-12-25T11:32:43.372Z</time>
      </trkpt>
      <trkpt lat="44.67743" lon="-1.00315">
        <ele>52.519933</ele>
        <time>2022-12-25T11:32:46.369Z</time>
      </trkpt>
      <trkpt lat="44.67736" lon="-1.00303">
        <ele>52.511217</ele>
        <time>2022-12-25T11:32:49.371Z</time>
      </trkpt>
      <trkpt lat="44.67728" lon="-1.00291">
        <ele>52.502213</ele>
        <time>2022-12-25T11:32:52.369Z</time>
      </trkpt>
      <trkpt lat="44.67718" lon="-1.00279">
        <ele>52.492666</ele>
        <time>2022-12-25T11:32:55.370Z</time>
      </trkpt>
      <trkpt lat="44.67708" lon="-1.00267">
        <ele>52.482512</ele>
        <time>2022-12-25T11:32:58.371Z</time>
      </trkpt>
      <trkpt lat="44.67698" lon="-1.00255">
        <ele>52.472438</ele>
        <time>2022-12-25T11:33:01.371Z</time>
      </trkpt>
      <trkpt lat="44.67692" lon="-1.00246">
        <ele>52.465449</ele>
        <time>2022-12-25T11:33:03.381Z</time>
      </trkpt>
      <trkpt lat="44.67685" lon="-1.00236">
        <ele>52.457919</ele>
        <time>2022-12-25T11:33:05.371Z</time>
      </trkpt>
      <trkpt lat="44.67676" lon="-1.00223">
        <ele>52.447981</ele>
        <time>2022-12-25T11:33:08.368Z</time>
      </trkpt>
      <trkpt lat="44.67669" lon="-1.00212">
        <ele>52.494587</ele>
        <time>2022-12-25T11:33:10.372Z</time>
      </trkpt>
      <trkpt lat="44.67661" lon="-1.00198">
        <ele>52.64717</ele>
        <time>2022-12-25T11:33:13.381Z</time>
      </trkpt>
      <trkpt lat="44.67655" lon="-1.00188">
        <ele>52.753037</ele>
        <time>2022-12-25T11:33:15.352Z</time>
      </trkpt>
      <trkpt lat="44.67649" lon="-1.00179">
        <ele>52.858194</ele>
        <time>2022-12-25T11:33:17.368Z</time>
      </trkpt>
      <trkpt lat="44.67639" lon="-1.00165">
        <ele>53.018156</ele>
        <time>2022-12-25T11:33:20.371Z</time>
      </trkpt>
      <trkpt lat="44.67633" lon="-1.00157">
        <ele>53.124727</ele>
        <time>2022-12-25T11:33:22.362Z</time>
      </trkpt>
      <trkpt lat="44.67626" lon="-1.00147">
        <ele>53.235701</ele>
        <time>2022-12-25T11:33:24.371Z</time>
      </trkpt>
      <trkpt lat="44.67617" lon="-1.00134">
        <ele>53.380666</ele>
        <time>2022-12-25T11:33:27.368Z</time>
      </trkpt>
      <trkpt lat="44.67611" lon="-1.00125">
        <ele>53.486961</ele>
        <time>2022-12-25T11:33:29.372Z</time>
      </trkpt>
      <trkpt lat="44.67603" lon="-1.00112">
        <ele>53.629217</ele>
        <time>2022-12-25T11:33:32.369Z</time>
      </trkpt>
      <trkpt lat="44.67592" lon="-1.00099">
        <ele>53.800025</ele>
        <time>2022-12-25T11:33:35.371Z</time>
      </trkpt>
      <trkpt lat="44.67585" lon="-1.00089">
        <ele>53.915672</ele>
        <time>2022-12-25T11:33:37.372Z</time>
      </trkpt>
      <trkpt lat="44.67575" lon="-1.00076">
        <ele>54.064955</ele>
        <time>2022-12-25T11:33:40.353Z</time>
      </trkpt>
      <trkpt lat="44.67566" lon="-1.00063">
        <ele>54.218468</ele>
        <time>2022-12-25T11:33:43.378Z</time>
      </trkpt>
      <trkpt lat="44.67557" lon="-1.00051">
        <ele>54.36668</ele>
        <time>2022-12-25T11:33:46.372Z</time>
      </trkpt>
      <trkpt lat="44.6755" lon="-1.0004">
        <ele>54.482071</ele>
        <time>2022-12-25T11:33:48.370Z</time>
      </trkpt>
      <trkpt lat="44.67544" lon="-1.00031">
        <ele>54.526084</ele>
        <time>2022-12-25T11:33:50.375Z</time>
      </trkpt>
      <trkpt lat="44.67534" lon="-1.00018">
        <ele>54.501866</ele>
        <time>2022-12-25T11:33:53.374Z</time>
      </trkpt>
      <trkpt lat="44.67527" lon="-1.00008">
        <ele>54.484488</ele>
        <time>2022-12-25T11:33:55.370Z</time>
      </trkpt>
      <trkpt lat="44.67519" lon="-0.99997">
        <ele>54.464301</ele>
        <time>2022-12-25T11:33:58.370Z</time>
      </trkpt>
      <trkpt lat="44.67512" lon="-0.99987">
        <ele>54.44698</ele>
        <time>2022-12-25T11:34:00.359Z</time>
      </trkpt>
      <trkpt lat="44.67503" lon="-0.99973">
        <ele>54.423865</ele>
        <time>2022-12-25T11:34:03.381Z</time>
      </trkpt>
      <trkpt lat="44.67493" lon="-0.99959">
        <ele>54.399154</ele>
        <time>2022-12-25T11:34:06.360Z</time>
      </trkpt>
      <trkpt lat="44.67486" lon="-0.9995">
        <ele>54.382522</ele>
        <time>2022-12-25T11:34:08.373Z</time>
      </trkpt>
      <trkpt lat="44.67479" lon="-0.9994">
        <ele>54.364946</ele>
        <time>2022-12-25T11:34:10.372Z</time>
      </trkpt>
      <trkpt lat="44.67472" lon="-0.9993">
        <ele>54.347635</ele>
        <time>2022-12-25T11:34:12.375Z</time>
      </trkpt>
      <trkpt lat="44.67466" lon="-0.9992">
        <ele>54.330912</ele>
        <time>2022-12-25T11:34:14.373Z</time>
      </trkpt>
      <trkpt lat="44.67459" lon="-0.9991">
        <ele>54.312774</ele>
        <time>2022-12-25T11:34:16.369Z</time>
      </trkpt>
      <trkpt lat="44.67453" lon="-0.999">
        <ele>54.29624</ele>
        <time>2022-12-25T11:34:18.371Z</time>
      </trkpt>
      <trkpt lat="44.67445" lon="-0.99892">
        <ele>54.279203</ele>
        <time>2022-12-25T11:34:20.372Z</time>
      </trkpt>
      <trkpt lat="44.67436" lon="-0.99879">
        <ele>54.255927</ele>
        <time>2022-12-25T11:34:23.353Z</time>
      </trkpt>
      <trkpt lat="44.67428" lon="-0.99868">
        <ele>54.236857</ele>
        <time>2022-12-25T11:34:26.368Z</time>
      </trkpt>
      <trkpt lat="44.67421" lon="-0.99858">
        <ele>54.219234</ele>
        <time>2022-12-25T11:34:29.369Z</time>
      </trkpt>
      <trkpt lat="44.67414" lon="-0.99848">
        <ele>54.293549</ele>
        <time>2022-12-25T11:34:32.371Z</time>
      </trkpt>
      <trkpt lat="44.67406" lon="-0.99837">
        <ele>54.381671</ele>
        <time>2022-12-25T11:34:35.369Z</time>
      </trkpt>
      <trkpt lat="44.67399" lon="-0.99827">
        <ele>54.466723</ele>
        <time>2022-12-25T11:34:38.372Z</time>
      </trkpt>
      <trkpt lat="44.67392" lon="-0.99817">
        <ele>54.548222</ele>
        <time>2022-12-25T11:34:40.367Z</time>
      </trkpt>
      <trkpt lat="44.67386" lon="-0.99806">
        <ele>54.631614</ele>
        <time>2022-12-25T11:34:42.372Z</time>
      </trkpt>
      <trkpt lat="44.67378" lon="-0.99795">
        <ele>54.726269</ele>
        <time>2022-12-25T11:34:45.372Z</time>
      </trkpt>
      <trkpt lat="44.67367" lon="-0.9978">
        <ele>54.851653</ele>
        <time>2022-12-25T11:34:48.373Z</time>
      </trkpt>
      <trkpt lat="44.6736" lon="-0.99771">
        <ele>54.927433</ele>
        <time>2022-12-25T11:34:50.372Z</time>
      </trkpt>
      <trkpt lat="44.67354" lon="-0.99761">
        <ele>55.007125</ele>
        <time>2022-12-25T11:34:52.362Z</time>
      </trkpt>
      <trkpt lat="44.67347" lon="-0.99751">
        <ele>55.091516</ele>
        <time>2022-12-25T11:34:54.365Z</time>
      </trkpt>
      <trkpt lat="44.67338" lon="-0.99737">
        <ele>55.199317</ele>
        <time>2022-12-25T11:34:57.375Z</time>
      </trkpt>
      <trkpt lat="44.67332" lon="-0.99727">
        <ele>55.276437</ele>
        <time>2022-12-25T11:34:59.369Z</time>
      </trkpt>
      <trkpt lat="44.67323" lon="-0.99715">
        <ele>55.382865</ele>
        <time>2022-12-25T11:35:02.358Z</time>
      </trkpt>
      <trkpt lat="44.67314" lon="-0.99703">
        <ele>55.480208</ele>
        <time>2022-12-25T11:35:05.348Z</time>
      </trkpt>
      <trkpt lat="44.67306" lon="-0.99692">
        <ele>55.575438</ele>
        <time>2022-12-25T11:35:08.372Z</time>
      </trkpt>
      <trkpt lat="44.673" lon="-0.99681">
        <ele>55.659272</ele>
        <time>2022-12-25T11:35:11.371Z</time>
      </trkpt>
      <trkpt lat="44.67292" lon="-0.9967">
        <ele>55.673261</ele>
        <time>2022-12-25T11:35:14.370Z</time>
      </trkpt>
      <trkpt lat="44.67284" lon="-0.99659">
        <ele>55.587434</ele>
        <time>2022-12-25T11:35:17.375Z</time>
      </trkpt>
      <trkpt lat="44.67276" lon="-0.99648">
        <ele>55.503161</ele>
        <time>2022-12-25T11:35:20.347Z</time>
      </trkpt>
      <trkpt lat="44.67269" lon="-0.99639">
        <ele>55.430104</ele>
        <time>2022-12-25T11:35:23.366Z</time>
      </trkpt>
      <trkpt lat="44.67261" lon="-0.9963">
        <ele>55.352801</ele>
        <time>2022-12-25T11:35:27.373Z</time>
      </trkpt>
      <trkpt lat="44.67253" lon="-0.99618">
        <ele>55.264953</ele>
        <time>2022-12-25T11:35:31.364Z</time>
      </trkpt>
      <trkpt lat="44.67247" lon="-0.99607">
        <ele>55.189933</ele>
        <time>2022-12-25T11:35:34.349Z</time>
      </trkpt>
      <trkpt lat="44.67239" lon="-0.99596">
        <ele>55.104072</ele>
        <time>2022-12-25T11:35:37.348Z</time>
      </trkpt>
      <trkpt lat="44.6723" lon="-0.99583">
        <ele>55.012813</ele>
        <time>2022-12-25T11:35:40.370Z</time>
      </trkpt>
      <trkpt lat="44.67221" lon="-0.99571">
        <ele>54.918532</ele>
        <time>2022-12-25T11:35:43.370Z</time>
      </trkpt>
      <trkpt lat="44.67212" lon="-0.99558">
        <ele>54.821891</ele>
        <time>2022-12-25T11:35:46.371Z</time>
      </trkpt>
      <trkpt lat="44.67203" lon="-0.99545">
        <ele>54.722215</ele>
        <time>2022-12-25T11:35:49.373Z</time>
      </trkpt>
      <trkpt lat="44.67196" lon="-0.99536">
        <ele>54.651393</ele>
        <time>2022-12-25T11:35:51.368Z</time>
      </trkpt>
      <trkpt lat="44.67187" lon="-0.99523">
        <ele>54.55309</ele>
        <time>2022-12-25T11:35:54.371Z</time>
      </trkpt>
      <trkpt lat="44.67178" lon="-0.99511">
        <ele>54.456986</ele>
        <time>2022-12-25T11:35:57.374Z</time>
      </trkpt>
      <trkpt lat="44.67171" lon="-0.99499">
        <ele>54.376262</ele>
        <time>2022-12-25T11:36:00.369Z</time>
      </trkpt>
      <trkpt lat="44.67163" lon="-0.99488">
        <ele>54.300045</ele>
        <time>2022-12-25T11:36:03.384Z</time>
      </trkpt>
      <trkpt lat="44.67155" lon="-0.99476">
        <ele>54.222879</ele>
        <time>2022-12-25T11:36:06.355Z</time>
      </trkpt>
      <trkpt lat="44.67146" lon="-0.99464">
        <ele>54.141042</ele>
        <time>2022-12-25T11:36:09.376Z</time>
      </trkpt>
      <trkpt lat="44.6714" lon="-0.99455">
        <ele>54.079927</ele>
        <time>2022-12-25T11:36:11.369Z</time>
      </trkpt>
      <trkpt lat="44.6713" lon="-0.99442">
        <ele>53.989505</ele>
        <time>2022-12-25T11:36:14.348Z</time>
      </trkpt>
      <trkpt lat="44.6712" lon="-0.99428">
        <ele>53.898425</ele>
        <time>2022-12-25T11:36:17.371Z</time>
      </trkpt>
      <trkpt lat="44.67113" lon="-0.99418">
        <ele>53.832402</ele>
        <time>2022-12-25T11:36:19.369Z</time>
      </trkpt>
      <trkpt lat="44.67107" lon="-0.9941">
        <ele>53.772426</ele>
        <time>2022-12-25T11:36:21.371Z</time>
      </trkpt>
      <trkpt lat="44.67101" lon="-0.994">
        <ele>53.711676</ele>
        <time>2022-12-25T11:36:23.375Z</time>
      </trkpt>
      <trkpt lat="44.67092" lon="-0.99388">
        <ele>53.630981</ele>
        <time>2022-12-25T11:36:26.373Z</time>
      </trkpt>
      <trkpt lat="44.67082" lon="-0.99375">
        <ele>53.54327</ele>
        <time>2022-12-25T11:36:29.359Z</time>
      </trkpt>
      <trkpt lat="44.67076" lon="-0.99365">
        <ele>53.479688</ele>
        <time>2022-12-25T11:36:31.371Z</time>
      </trkpt>
      <trkpt lat="44.67069" lon="-0.99356">
        <ele>53.414537</ele>
        <time>2022-12-25T11:36:33.362Z</time>
      </trkpt>
      <trkpt lat="44.67062" lon="-0.99346">
        <ele>53.348749</ele>
        <time>2022-12-25T11:36:35.353Z</time>
      </trkpt>
      <trkpt lat="44.67055" lon="-0.99335">
        <ele>53.279057</ele>
        <time>2022-12-25T11:36:37.367Z</time>
      </trkpt>
      <trkpt lat="44.67048" lon="-0.99325">
        <ele>53.211412</ele>
        <time>2022-12-25T11:36:39.373Z</time>
      </trkpt>
      <trkpt lat="44.67038" lon="-0.99312">
        <ele>53.39407</ele>
        <time>2022-12-25T11:36:42.359Z</time>
      </trkpt>
      <trkpt lat="44.67031" lon="-0.99302">
        <ele>53.868972</ele>
        <time>2022-12-25T11:36:44.367Z</time>
      </trkpt>
      <trkpt lat="44.67025" lon="-0.99292">
        <ele>54.303236</ele>
        <time>2022-12-25T11:36:46.372Z</time>
      </trkpt>
      <trkpt lat="44.67018" lon="-0.99283">
        <ele>54.747361</ele>
        <time>2022-12-25T11:36:48.371Z</time>
      </trkpt>
      <trkpt lat="44.67009" lon="-0.99271">
        <ele>55.333946</ele>
        <time>2022-12-25T11:36:51.359Z</time>
      </trkpt>
      <trkpt lat="44.67001" lon="-0.99259">
        <ele>55.915757</ele>
        <time>2022-12-25T11:36:54.369Z</time>
      </trkpt>
      <trkpt lat="44.66991" lon="-0.99246">
        <ele>56.527125</ele>
        <time>2022-12-25T11:36:57.371Z</time>
      </trkpt>
      <trkpt lat="44.66983" lon="-0.99234">
        <ele>57.104201</ele>
        <time>2022-12-25T11:37:00.358Z</time>
      </trkpt>
      <trkpt lat="44.66976" lon="-0.99222">
        <ele>57.62993</ele>
        <time>2022-12-25T11:37:02.365Z</time>
      </trkpt>
      <trkpt lat="44.66969" lon="-0.99213">
        <ele>58.061176</ele>
        <time>2022-12-25T11:37:04.349Z</time>
      </trkpt>
      <trkpt lat="44.6696" lon="-0.992">
        <ele>58.644475</ele>
        <time>2022-12-25T11:37:08.347Z</time>
      </trkpt>
      <trkpt lat="44.66954" lon="-0.99191">
        <ele>59.091825</ele>
        <time>2022-12-25T11:37:11.368Z</time>
      </trkpt>
      <trkpt lat="44.66945" lon="-0.9918">
        <ele>59.640085</ele>
        <time>2022-12-25T11:37:14.371Z</time>
      </trkpt>
      <trkpt lat="44.66937" lon="-0.99167">
        <ele>60.224983</ele>
        <time>2022-12-25T11:37:17.362Z</time>
      </trkpt>
      <trkpt lat="44.66928" lon="-0.99155">
        <ele>60.797799</ele>
        <time>2022-12-25T11:37:20.346Z</time>
      </trkpt>
      <trkpt lat="44.66919" lon="-0.99142">
        <ele>61.396731</ele>
        <time>2022-12-25T11:37:23.379Z</time>
      </trkpt>
      <trkpt lat="44.6691" lon="-0.9913">
        <ele>61.381534</ele>
        <time>2022-12-25T11:37:26.377Z</time>
      </trkpt>
      <trkpt lat="44.66901" lon="-0.99117">
        <ele>60.942438</ele>
        <time>2022-12-25T11:37:29.357Z</time>
      </trkpt>
      <trkpt lat="44.66891" lon="-0.99103">
        <ele>60.477805</ele>
        <time>2022-12-25T11:37:32.364Z</time>
      </trkpt>
      <trkpt lat="44.66885" lon="-0.99094">
        <ele>60.160014</ele>
        <time>2022-12-25T11:37:34.373Z</time>
      </trkpt>
      <trkpt lat="44.66876" lon="-0.99081">
        <ele>59.711931</ele>
        <time>2022-12-25T11:37:37.374Z</time>
      </trkpt>
      <trkpt lat="44.66867" lon="-0.99066">
        <ele>59.249816</ele>
        <time>2022-12-25T11:37:40.350Z</time>
      </trkpt>
      <trkpt lat="44.66859" lon="-0.99053">
        <ele>58.840867</ele>
        <time>2022-12-25T11:37:43.372Z</time>
      </trkpt>
      <trkpt lat="44.66851" lon="-0.99039">
        <ele>58.390892</ele>
        <time>2022-12-25T11:37:46.374Z</time>
      </trkpt>
      <trkpt lat="44.66844" lon="-0.9903">
        <ele>58.059873</ele>
        <time>2022-12-25T11:37:48.371Z</time>
      </trkpt>
      <trkpt lat="44.66837" lon="-0.99021">
        <ele>57.745447</ele>
        <time>2022-12-25T11:37:50.366Z</time>
      </trkpt>
      <trkpt lat="44.66831" lon="-0.99011">
        <ele>57.42085</ele>
        <time>2022-12-25T11:37:52.372Z</time>
      </trkpt>
      <trkpt lat="44.66824" lon="-0.99002">
        <ele>57.107484</ele>
        <time>2022-12-25T11:37:54.344Z</time>
      </trkpt>
      <trkpt lat="44.66817" lon="-0.98992">
        <ele>56.769806</ele>
        <time>2022-12-25T11:37:56.359Z</time>
      </trkpt>
      <trkpt lat="44.6681" lon="-0.98982">
        <ele>56.432381</ele>
        <time>2022-12-25T11:37:58.368Z</time>
      </trkpt>
      <trkpt lat="44.66803" lon="-0.98973">
        <ele>56.09711</ele>
        <time>2022-12-25T11:38:00.371Z</time>
      </trkpt>
      <trkpt lat="44.66797" lon="-0.98963">
        <ele>55.788382</ele>
        <time>2022-12-25T11:38:02.372Z</time>
      </trkpt>
      <trkpt lat="44.6679" lon="-0.98953">
        <ele>55.496999</ele>
        <time>2022-12-25T11:38:04.369Z</time>
      </trkpt>
      <trkpt lat="44.66782" lon="-0.98944">
        <ele>55.46789</ele>
        <time>2022-12-25T11:38:06.355Z</time>
      </trkpt>
      <trkpt lat="44.66775" lon="-0.98935">
        <ele>55.441714</ele>
        <time>2022-12-25T11:38:08.370Z</time>
      </trkpt>
      <trkpt lat="44.66769" lon="-0.98926">
        <ele>55.414253</ele>
        <time>2022-12-25T11:38:10.370Z</time>
      </trkpt>
      <trkpt lat="44.66762" lon="-0.98916">
        <ele>55.385076</ele>
        <time>2022-12-25T11:38:12.358Z</time>
      </trkpt>
      <trkpt lat="44.66752" lon="-0.98903">
        <ele>55.34752</ele>
        <time>2022-12-25T11:38:15.367Z</time>
      </trkpt>
      <trkpt lat="44.66745" lon="-0.98891">
        <ele>55.313909</ele>
        <time>2022-12-25T11:38:18.370Z</time>
      </trkpt>
      <trkpt lat="44.66736" lon="-0.9888">
        <ele>55.278749</ele>
        <time>2022-12-25T11:38:21.372Z</time>
      </trkpt>
      <trkpt lat="44.66727" lon="-0.98867">
        <ele>55.241952</ele>
        <time>2022-12-25T11:38:24.371Z</time>
      </trkpt>
      <trkpt lat="44.66718" lon="-0.98854">
        <ele>55.204273</ele>
        <time>2022-12-25T11:38:27.373Z</time>
      </trkpt>
      <trkpt lat="44.66711" lon="-0.98845">
        <ele>55.177842</ele>
        <time>2022-12-25T11:38:29.370Z</time>
      </trkpt>
      <trkpt lat="44.66705" lon="-0.98836">
        <ele>55.151726</ele>
        <time>2022-12-25T11:38:31.377Z</time>
      </trkpt>
      <trkpt lat="44.66698" lon="-0.98826">
        <ele>55.124264</ele>
        <time>2022-12-25T11:38:33.380Z</time>
      </trkpt>
      <trkpt lat="44.66691" lon="-0.98816">
        <ele>55.096009</ele>
        <time>2022-12-25T11:38:35.368Z</time>
      </trkpt>
      <trkpt lat="44.66685" lon="-0.98806">
        <ele>55.067201</ele>
        <time>2022-12-25T11:38:37.355Z</time>
      </trkpt>
      <trkpt lat="44.66678" lon="-0.98797">
        <ele>55.039688</ele>
        <time>2022-12-25T11:38:39.366Z</time>
      </trkpt>
      <trkpt lat="44.66672" lon="-0.98787">
        <ele>55.012874</ele>
        <time>2022-12-25T11:38:41.372Z</time>
      </trkpt>
      <trkpt lat="44.66665" lon="-0.98778">
        <ele>54.985745</ele>
        <time>2022-12-25T11:38:43.383Z</time>
      </trkpt>
      <trkpt lat="44.66658" lon="-0.98769">
        <ele>55.059353</ele>
        <time>2022-12-25T11:38:45.370Z</time>
      </trkpt>
      <trkpt lat="44.66651" lon="-0.98758">
        <ele>55.154943</ele>
        <time>2022-12-25T11:38:47.370Z</time>
      </trkpt>
      <trkpt lat="44.66645" lon="-0.98749">
        <ele>55.240196</ele>
        <time>2022-12-25T11:38:49.351Z</time>
      </trkpt>
      <trkpt lat="44.66638" lon="-0.98739">
        <ele>55.331821</ele>
        <time>2022-12-25T11:38:51.369Z</time>
      </trkpt>
      <trkpt lat="44.66631" lon="-0.98729">
        <ele>55.42765</ele>
        <time>2022-12-25T11:38:53.385Z</time>
      </trkpt>
      <trkpt lat="44.66625" lon="-0.98719">
        <ele>55.514874</ele>
        <time>2022-12-25T11:38:55.347Z</time>
      </trkpt>
      <trkpt lat="44.66619" lon="-0.9871">
        <ele>55.599648</ele>
        <time>2022-12-25T11:38:57.372Z</time>
      </trkpt>
      <trkpt lat="44.66611" lon="-0.98698">
        <ele>55.704704</ele>
        <time>2022-12-25T11:39:00.358Z</time>
      </trkpt>
      <trkpt lat="44.66603" lon="-0.98686">
        <ele>55.819542</ele>
        <time>2022-12-25T11:39:03.345Z</time>
      </trkpt>
      <trkpt lat="44.66594" lon="-0.98673">
        <ele>55.937319</ele>
        <time>2022-12-25T11:39:06.370Z</time>
      </trkpt>
      <trkpt lat="44.66585" lon="-0.9866">
        <ele>56.057675</ele>
        <time>2022-12-25T11:39:09.372Z</time>
      </trkpt>
      <trkpt lat="44.66575" lon="-0.98648">
        <ele>56.185124</ele>
        <time>2022-12-25T11:39:12.359Z</time>
      </trkpt>
      <trkpt lat="44.66567" lon="-0.98636">
        <ele>56.295396</ele>
        <time>2022-12-25T11:39:15.364Z</time>
      </trkpt>
      <trkpt lat="44.66559" lon="-0.98625">
        <ele>56.400342</ele>
        <time>2022-12-25T11:39:18.373Z</time>
      </trkpt>
      <trkpt lat="44.66552" lon="-0.98616">
        <ele>56.492393</ele>
        <time>2022-12-25T11:39:21.372Z</time>
      </trkpt>
      <trkpt lat="44.66543" lon="-0.98603">
        <ele>56.608664</ele>
        <time>2022-12-25T11:39:25.372Z</time>
      </trkpt>
      <trkpt lat="44.66536" lon="-0.98595">
        <ele>56.667121</ele>
        <time>2022-12-25T11:39:28.356Z</time>
      </trkpt>
      <trkpt lat="44.66528" lon="-0.98586">
        <ele>56.603188</ele>
        <time>2022-12-25T11:39:32.348Z</time>
      </trkpt>
      <trkpt lat="44.66521" lon="-0.98577">
        <ele>56.544386</ele>
        <time>2022-12-25T11:39:36.361Z</time>
      </trkpt>
      <trkpt lat="44.66516" lon="-0.98566">
        <ele>56.48668</ele>
        <time>2022-12-25T11:39:39.369Z</time>
      </trkpt>
      <trkpt lat="44.66508" lon="-0.98553">
        <ele>56.412066</ele>
        <time>2022-12-25T11:39:43.377Z</time>
      </trkpt>
      <trkpt lat="44.66501" lon="-0.98544">
        <ele>56.34842</ele>
        <time>2022-12-25T11:39:46.370Z</time>
      </trkpt>
      <trkpt lat="44.66494" lon="-0.98532">
        <ele>56.280362</ele>
        <time>2022-12-25T11:39:49.366Z</time>
      </trkpt>
      <trkpt lat="44.66485" lon="-0.98522">
        <ele>56.210031</ele>
        <time>2022-12-25T11:39:52.352Z</time>
      </trkpt>
      <trkpt lat="44.66477" lon="-0.98511">
        <ele>56.14182</ele>
        <time>2022-12-25T11:39:55.371Z</time>
      </trkpt>
      <trkpt lat="44.66469" lon="-0.98499">
        <ele>56.067782</ele>
        <time>2022-12-25T11:39:58.371Z</time>
      </trkpt>
      <trkpt lat="44.66461" lon="-0.98488">
        <ele>55.994815</ele>
        <time>2022-12-25T11:40:01.372Z</time>
      </trkpt>
      <trkpt lat="44.66452" lon="-0.98475">
        <ele>55.919387</ele>
        <time>2022-12-25T11:40:04.368Z</time>
      </trkpt>
      <trkpt lat="44.66444" lon="-0.98463">
        <ele>55.845144</ele>
        <time>2022-12-25T11:40:07.370Z</time>
      </trkpt>
      <trkpt lat="44.66436" lon="-0.98451">
        <ele>55.770667</ele>
        <time>2022-12-25T11:40:10.374Z</time>
      </trkpt>
      <trkpt lat="44.66428" lon="-0.98439">
        <ele>55.697132</ele>
        <time>2022-12-25T11:40:13.386Z</time>
      </trkpt>
      <trkpt lat="44.66419" lon="-0.98427">
        <ele>55.619319</ele>
        <time>2022-12-25T11:40:16.352Z</time>
      </trkpt>
      <trkpt lat="44.6641" lon="-0.98413">
        <ele>55.52968</ele>
        <time>2022-12-25T11:40:19.373Z</time>
      </trkpt>
      <trkpt lat="44.66401" lon="-0.984">
        <ele>55.417978</ele>
        <time>2022-12-25T11:40:22.373Z</time>
      </trkpt>
      <trkpt lat="44.66392" lon="-0.98387">
        <ele>55.307752</ele>
        <time>2022-12-25T11:40:25.366Z</time>
      </trkpt>
      <trkpt lat="44.66385" lon="-0.98378">
        <ele>55.227739</ele>
        <time>2022-12-25T11:40:27.371Z</time>
      </trkpt>
      <trkpt lat="44.66379" lon="-0.98369">
        <ele>55.150317</ele>
        <time>2022-12-25T11:40:29.372Z</time>
      </trkpt>
      <trkpt lat="44.6637" lon="-0.98358">
        <ele>55.047543</ele>
        <time>2022-12-25T11:40:32.360Z</time>
      </trkpt>
      <trkpt lat="44.66363" lon="-0.98347">
        <ele>54.956027</ele>
        <time>2022-12-25T11:40:35.364Z</time>
      </trkpt>
      <trkpt lat="44.66355" lon="-0.98337">
        <ele>54.862002</ele>
        <time>2022-12-25T11:40:38.350Z</time>
      </trkpt>
      <trkpt lat="44.66347" lon="-0.98324">
        <ele>54.759035</ele>
        <time>2022-12-25T11:40:41.350Z</time>
      </trkpt>
      <trkpt lat="44.66338" lon="-0.98311">
        <ele>54.648044</ele>
        <time>2022-12-25T11:40:44.359Z</time>
      </trkpt>
      <trkpt lat="44.66328" lon="-0.98298">
        <ele>54.53565</ele>
        <time>2022-12-25T11:40:47.365Z</time>
      </trkpt>
      <trkpt lat="44.66322" lon="-0.9829">
        <ele>54.457501</ele>
        <time>2022-12-25T11:40:49.351Z</time>
      </trkpt>
      <trkpt lat="44.66312" lon="-0.98278">
        <ele>54.347173</ele>
        <time>2022-12-25T11:40:52.374Z</time>
      </trkpt>
      <trkpt lat="44.66303" lon="-0.98264">
        <ele>54.236788</ele>
        <time>2022-12-25T11:40:55.373Z</time>
      </trkpt>
      <trkpt lat="44.66295" lon="-0.98251">
        <ele>54.13007</ele>
        <time>2022-12-25T11:40:58.377Z</time>
      </trkpt>
      <trkpt lat="44.66286" lon="-0.98239">
        <ele>54.019149</ele>
        <time>2022-12-25T11:41:01.372Z</time>
      </trkpt>
      <trkpt lat="44.66279" lon="-0.9823">
        <ele>53.991317</ele>
        <time>2022-12-25T11:41:03.375Z</time>
      </trkpt>
      <trkpt lat="44.6627" lon="-0.98217">
        <ele>53.960106</ele>
        <time>2022-12-25T11:41:06.372Z</time>
      </trkpt>
      <trkpt lat="44.66261" lon="-0.98203">
        <ele>53.928311</ele>
        <time>2022-12-25T11:41:09.355Z</time>
      </trkpt>
      <trkpt lat="44.66254" lon="-0.98194">
        <ele>53.906519</ele>
        <time>2022-12-25T11:41:11.346Z</time>
      </trkpt>
      <trkpt lat="44.66247" lon="-0.98185">
        <ele>53.883516</ele>
        <time>2022-12-25T11:41:13.384Z</time>
      </trkpt>
      <trkpt lat="44.66238" lon="-0.98172">
        <ele>53.851999</ele>
        <time>2022-12-25T11:41:16.368Z</time>
      </trkpt>
      <trkpt lat="44.66229" lon="-0.98159">
        <ele>53.820022</ele>
        <time>2022-12-25T11:41:19.369Z</time>
      </trkpt>
      <trkpt lat="44.66222" lon="-0.98149">
        <ele>53.79794</ele>
        <time>2022-12-25T11:41:21.374Z</time>
      </trkpt>
      <trkpt lat="44.66216" lon="-0.9814">
        <ele>53.775979</ele>
        <time>2022-12-25T11:41:23.369Z</time>
      </trkpt>
      <trkpt lat="44.66209" lon="-0.98131">
        <ele>53.754149</ele>
        <time>2022-12-25T11:41:25.380Z</time>
      </trkpt>
      <trkpt lat="44.66202" lon="-0.98122">
        <ele>53.731531</ele>
        <time>2022-12-25T11:41:27.354Z</time>
      </trkpt>
      <trkpt lat="44.66195" lon="-0.98112">
        <ele>53.707224</ele>
        <time>2022-12-25T11:41:29.348Z</time>
      </trkpt>
      <trkpt lat="44.66189" lon="-0.98102">
        <ele>53.684818</ele>
        <time>2022-12-25T11:41:31.372Z</time>
      </trkpt>
      <trkpt lat="44.66183" lon="-0.98092">
        <ele>53.661115</ele>
        <time>2022-12-25T11:41:33.381Z</time>
      </trkpt>
      <trkpt lat="44.66176" lon="-0.98082">
        <ele>53.638709</ele>
        <time>2022-12-25T11:41:35.357Z</time>
      </trkpt>
      <trkpt lat="44.66169" lon="-0.98073">
        <ele>53.616633</ele>
        <time>2022-12-25T11:41:37.378Z</time>
      </trkpt>
      <trkpt lat="44.66163" lon="-0.98064">
        <ele>53.59373</ele>
        <time>2022-12-25T11:41:39.352Z</time>
      </trkpt>
      <trkpt lat="44.66156" lon="-0.98055">
        <ele>53.594932</ele>
        <time>2022-12-25T11:41:41.371Z</time>
      </trkpt>
      <trkpt lat="44.66146" lon="-0.98041">
        <ele>53.649306</ele>
        <time>2022-12-25T11:41:44.366Z</time>
      </trkpt>
      <trkpt lat="44.66139" lon="-0.98032">
        <ele>53.689022</ele>
        <time>2022-12-25T11:41:46.373Z</time>
      </trkpt>
      <trkpt lat="44.66133" lon="-0.98021">
        <ele>53.729287</ele>
        <time>2022-12-25T11:41:48.374Z</time>
      </trkpt>
      <trkpt lat="44.66126" lon="-0.98012">
        <ele>53.767881</ele>
        <time>2022-12-25T11:41:50.348Z</time>
      </trkpt>
      <trkpt lat="44.6612" lon="-0.98003">
        <ele>53.80474</ele>
        <time>2022-12-25T11:41:52.346Z</time>
      </trkpt>
      <trkpt lat="44.66113" lon="-0.97993">
        <ele>53.841315</ele>
        <time>2022-12-25T11:41:54.346Z</time>
      </trkpt>
      <trkpt lat="44.66104" lon="-0.9798">
        <ele>53.896557</ele>
        <time>2022-12-25T11:41:57.354Z</time>
      </trkpt>
      <trkpt lat="44.66098" lon="-0.9797">
        <ele>53.934243</ele>
        <time>2022-12-25T11:41:59.365Z</time>
      </trkpt>
      <trkpt lat="44.66088" lon="-0.97957">
        <ele>53.989109</ele>
        <time>2022-12-25T11:42:02.350Z</time>
      </trkpt>
      <trkpt lat="44.66082" lon="-0.97947">
        <ele>54.026617</ele>
        <time>2022-12-25T11:42:04.350Z</time>
      </trkpt>
      <trkpt lat="44.66073" lon="-0.97934">
        <ele>54.077195</ele>
        <time>2022-12-25T11:42:07.355Z</time>
      </trkpt>
      <trkpt lat="44.66065" lon="-0.97922">
        <ele>54.126796</ele>
        <time>2022-12-25T11:42:10.357Z</time>
      </trkpt>
      <trkpt lat="44.66055" lon="-0.9791">
        <ele>54.178697</ele>
        <time>2022-12-25T11:42:13.371Z</time>
      </trkpt>
      <trkpt lat="44.66046" lon="-0.97897">
        <ele>54.229435</ele>
        <time>2022-12-25T11:42:16.370Z</time>
      </trkpt>
      <trkpt lat="44.66039" lon="-0.97888">
        <ele>54.267879</ele>
        <time>2022-12-25T11:42:18.373Z</time>
      </trkpt>
      <trkpt lat="44.66033" lon="-0.9788">
        <ele>54.304331</ele>
        <time>2022-12-25T11:42:20.369Z</time>
      </trkpt>
      <trkpt lat="44.66023" lon="-0.97866">
        <ele>54.246732</ele>
        <time>2022-12-25T11:42:23.365Z</time>
      </trkpt>
      <trkpt lat="44.66016" lon="-0.97857">
        <ele>54.200051</ele>
        <time>2022-12-25T11:42:25.372Z</time>
      </trkpt>
      <trkpt lat="44.6601" lon="-0.97847">
        <ele>54.153215</ele>
        <time>2022-12-25T11:42:27.371Z</time>
      </trkpt>
      <trkpt lat="44.66003" lon="-0.97837">
        <ele>54.106211</ele>
        <time>2022-12-25T11:42:29.358Z</time>
      </trkpt>
      <trkpt lat="44.65997" lon="-0.97828">
        <ele>54.059541</ele>
        <time>2022-12-25T11:42:31.374Z</time>
      </trkpt>
      <trkpt lat="44.6599" lon="-0.97819">
        <ele>54.014197</ele>
        <time>2022-12-25T11:42:33.382Z</time>
      </trkpt>
      <trkpt lat="44.65984" lon="-0.9781">
        <ele>53.969802</ele>
        <time>2022-12-25T11:42:35.373Z</time>
      </trkpt>
      <trkpt lat="44.65977" lon="-0.978">
        <ele>53.920133</ele>
        <time>2022-12-25T11:42:37.372Z</time>
      </trkpt>
      <trkpt lat="44.6597" lon="-0.97791">
        <ele>53.873347</ele>
        <time>2022-12-25T11:42:39.349Z</time>
      </trkpt>
      <trkpt lat="44.6596" lon="-0.97777">
        <ele>53.807168</ele>
        <time>2022-12-25T11:42:42.372Z</time>
      </trkpt>
      <trkpt lat="44.65954" lon="-0.97767">
        <ele>53.758546</ele>
        <time>2022-12-25T11:42:44.373Z</time>
      </trkpt>
      <trkpt lat="44.65947" lon="-0.97758">
        <ele>53.711711</ele>
        <time>2022-12-25T11:42:46.375Z</time>
      </trkpt>
      <trkpt lat="44.6594" lon="-0.97747">
        <ele>53.66267</ele>
        <time>2022-12-25T11:42:48.372Z</time>
      </trkpt>
      <trkpt lat="44.65933" lon="-0.97738">
        <ele>53.61493</ele>
        <time>2022-12-25T11:42:50.355Z</time>
      </trkpt>
      <trkpt lat="44.65926" lon="-0.97728">
        <ele>53.566226</ele>
        <time>2022-12-25T11:42:52.373Z</time>
      </trkpt>
      <trkpt lat="44.65919" lon="-0.97718">
        <ele>53.516661</ele>
        <time>2022-12-25T11:42:54.373Z</time>
      </trkpt>
      <trkpt lat="44.65913" lon="-0.97708">
        <ele>53.469731</ele>
        <time>2022-12-25T11:42:56.353Z</time>
      </trkpt>
      <trkpt lat="44.65906" lon="-0.97699">
        <ele>53.424084</ele>
        <time>2022-12-25T11:42:58.372Z</time>
      </trkpt>
      <trkpt lat="44.65899" lon="-0.97689">
        <ele>53.479299</ele>
        <time>2022-12-25T11:43:00.368Z</time>
      </trkpt>
      <trkpt lat="44.6589" lon="-0.97676">
        <ele>53.56203</ele>
        <time>2022-12-25T11:43:03.373Z</time>
      </trkpt>
      <trkpt lat="44.65883" lon="-0.97667">
        <ele>53.624635</ele>
        <time>2022-12-25T11:43:06.375Z</time>
      </trkpt>
      <trkpt lat="44.65874" lon="-0.97656">
        <ele>53.695738</ele>
        <time>2022-12-25T11:43:09.370Z</time>
      </trkpt>
      <trkpt lat="44.65866" lon="-0.97643">
        <ele>53.773857</ele>
        <time>2022-12-25T11:43:12.359Z</time>
      </trkpt>
      <trkpt lat="44.65857" lon="-0.97629">
        <ele>53.85582</ele>
        <time>2022-12-25T11:43:15.371Z</time>
      </trkpt>
      <trkpt lat="44.65847" lon="-0.97616">
        <ele>53.941413</ele>
        <time>2022-12-25T11:43:18.373Z</time>
      </trkpt>
      <trkpt lat="44.6584" lon="-0.97607">
        <ele>54.001742</ele>
        <time>2022-12-25T11:43:20.375Z</time>
      </trkpt>
      <trkpt lat="44.65833" lon="-0.97597">
        <ele>54.064344</ele>
        <time>2022-12-25T11:43:22.380Z</time>
      </trkpt>
      <trkpt lat="44.65823" lon="-0.97583">
        <ele>54.149791</ele>
        <time>2022-12-25T11:43:25.370Z</time>
      </trkpt>
      <trkpt lat="44.65814" lon="-0.9757">
        <ele>54.231104</ele>
        <time>2022-12-25T11:43:28.353Z</time>
      </trkpt>
      <trkpt lat="44.65805" lon="-0.97556">
        <ele>54.315755</ele>
        <time>2022-12-25T11:43:31.372Z</time>
      </trkpt>
      <trkpt lat="44.65799" lon="-0.97546">
        <ele>54.374079</ele>
        <time>2022-12-25T11:43:33.375Z</time>
      </trkpt>
      <trkpt lat="44.65792" lon="-0.97537">
        <ele>54.433651</ele>
        <time>2022-12-25T11:43:35.369Z</time>
      </trkpt>
      <trkpt lat="44.65786" lon="-0.97528">
        <ele>54.491212</ele>
        <time>2022-12-25T11:43:37.372Z</time>
      </trkpt>
      <trkpt lat="44.65776" lon="-0.97515">
        <ele>54.575164</ele>
        <time>2022-12-25T11:43:40.369Z</time>
      </trkpt>
      <trkpt lat="44.6577" lon="-0.97505">
        <ele>54.633974</ele>
        <time>2022-12-25T11:43:42.371Z</time>
      </trkpt>
      <trkpt lat="44.65761" lon="-0.97493">
        <ele>54.710526</ele>
        <time>2022-12-25T11:43:45.370Z</time>
      </trkpt>
      <trkpt lat="44.65754" lon="-0.97481">
        <ele>54.779291</ele>
        <time>2022-12-25T11:43:48.358Z</time>
      </trkpt>
      <trkpt lat="44.65747" lon="-0.97472">
        <ele>54.837844</ele>
        <time>2022-12-25T11:43:51.364Z</time>
      </trkpt>
      <trkpt lat="44.6574" lon="-0.97463">
        <ele>54.89507</ele>
        <time>2022-12-25T11:43:54.370Z</time>
      </trkpt>
      <trkpt lat="44.65733" lon="-0.97452">
        <ele>54.961997</ele>
        <time>2022-12-25T11:43:57.370Z</time>
      </trkpt>
      <trkpt lat="44.65725" lon="-0.9744">
        <ele>55.033834</ele>
        <time>2022-12-25T11:44:00.372Z</time>
      </trkpt>
      <trkpt lat="44.65717" lon="-0.97429">
        <ele>55.10238</ele>
        <time>2022-12-25T11:44:03.383Z</time>
      </trkpt>
      <trkpt lat="44.65709" lon="-0.97417">
        <ele>55.176186</ele>
        <time>2022-12-25T11:44:06.359Z</time>
      </trkpt>
      <trkpt lat="44.657" lon="-0.97405">
        <ele>55.251053</ele>
        <time>2022-12-25T11:44:09.370Z</time>
      </trkpt>
      <trkpt lat="44.65691" lon="-0.97393">
        <ele>55.326652</ele>
        <time>2022-12-25T11:44:12.374Z</time>
      </trkpt>
      <trkpt lat="44.65683" lon="-0.97381">
        <ele>55.40183</ele>
        <time>2022-12-25T11:44:15.373Z</time>
      </trkpt>
      <trkpt lat="44.65674" lon="-0.9737">
        <ele>55.475945</ele>
        <time>2022-12-25T11:44:18.373Z</time>
      </trkpt>
      <trkpt lat="44.65666" lon="-0.97357">
        <ele>55.551516</ele>
        <time>2022-12-25T11:44:21.378Z</time>
      </trkpt>
      <trkpt lat="44.65657" lon="-0.97345">
        <ele>55.627632</ele>
        <time>2022-12-25T11:44:24.369Z</time>
      </trkpt>
      <trkpt lat="44.65648" lon="-0.97332">
        <ele>55.692364</ele>
        <time>2022-12-25T11:44:27.371Z</time>
      </trkpt>
      <trkpt lat="44.65639" lon="-0.97319">
        <ele>55.746015</ele>
        <time>2022-12-25T11:44:30.344Z</time>
      </trkpt>
      <trkpt lat="44.6563" lon="-0.97307">
        <ele>55.799488</ele>
        <time>2022-12-25T11:44:33.376Z</time>
      </trkpt>
      <trkpt lat="44.65621" lon="-0.97294">
        <ele>55.85296</ele>
        <time>2022-12-25T11:44:36.360Z</time>
      </trkpt>
      <trkpt lat="44.65612" lon="-0.97282">
        <ele>55.906105</ele>
        <time>2022-12-25T11:44:39.350Z</time>
      </trkpt>
      <trkpt lat="44.65604" lon="-0.97269">
        <ele>55.95911</ele>
        <time>2022-12-25T11:44:42.372Z</time>
      </trkpt>
      <trkpt lat="44.65595" lon="-0.97256">
        <ele>56.012073</ele>
        <time>2022-12-25T11:44:45.365Z</time>
      </trkpt>
      <trkpt lat="44.65586" lon="-0.97244">
        <ele>56.065001</ele>
        <time>2022-12-25T11:44:48.371Z</time>
      </trkpt>
      <trkpt lat="44.65577" lon="-0.97231">
        <ele>56.118653</ele>
        <time>2022-12-25T11:44:51.353Z</time>
      </trkpt>
      <trkpt lat="44.65568" lon="-0.97217">
        <ele>56.173902</ele>
        <time>2022-12-25T11:44:54.360Z</time>
      </trkpt>
      <trkpt lat="44.65559" lon="-0.97204">
        <ele>56.228711</ele>
        <time>2022-12-25T11:44:57.371Z</time>
      </trkpt>
      <trkpt lat="44.6555" lon="-0.97192">
        <ele>56.279413</ele>
        <time>2022-12-25T11:45:00.371Z</time>
      </trkpt>
      <trkpt lat="44.65542" lon="-0.97181">
        <ele>56.326847</ele>
        <time>2022-12-25T11:45:03.370Z</time>
      </trkpt>
      <trkpt lat="44.65535" lon="-0.97171">
        <ele>56.368792</ele>
        <time>2022-12-25T11:45:06.373Z</time>
      </trkpt>
      <trkpt lat="44.65528" lon="-0.9716">
        <ele>56.41355</ele>
        <time>2022-12-25T11:45:09.374Z</time>
      </trkpt>
      <trkpt lat="44.65521" lon="-0.97149">
        <ele>56.447235</ele>
        <time>2022-12-25T11:45:12.372Z</time>
      </trkpt>
      <trkpt lat="44.65512" lon="-0.97138">
        <ele>56.481677</ele>
        <time>2022-12-25T11:45:15.374Z</time>
      </trkpt>
      <trkpt lat="44.65504" lon="-0.97126">
        <ele>56.517963</ele>
        <time>2022-12-25T11:45:18.375Z</time>
      </trkpt>
      <trkpt lat="44.65494" lon="-0.97113">
        <ele>56.556813</ele>
        <time>2022-12-25T11:45:21.367Z</time>
      </trkpt>
      <trkpt lat="44.65485" lon="-0.971">
        <ele>56.595647</ele>
        <time>2022-12-25T11:45:24.371Z</time>
      </trkpt>
      <trkpt lat="44.65476" lon="-0.97088">
        <ele>56.632607</ele>
        <time>2022-12-25T11:45:27.373Z</time>
      </trkpt>
      <trkpt lat="44.65468" lon="-0.97077">
        <ele>56.664</ele>
        <time>2022-12-25T11:45:30.350Z</time>
      </trkpt>
      <trkpt lat="44.65462" lon="-0.97067">
        <ele>56.692502</ele>
        <time>2022-12-25T11:45:33.376Z</time>
      </trkpt>
      <trkpt lat="44.65455" lon="-0.97057">
        <ele>56.722224</ele>
        <time>2022-12-25T11:45:36.370Z</time>
      </trkpt>
      <trkpt lat="44.65448" lon="-0.97047">
        <ele>56.75263</ele>
        <time>2022-12-25T11:45:39.369Z</time>
      </trkpt>
      <trkpt lat="44.6544" lon="-0.97034">
        <ele>56.788203</ele>
        <time>2022-12-25T11:45:43.377Z</time>
      </trkpt>
      <trkpt lat="44.65431" lon="-0.97024">
        <ele>56.821059</ele>
        <time>2022-12-25T11:45:47.349Z</time>
      </trkpt>
      <trkpt lat="44.65424" lon="-0.97013">
        <ele>56.85305</ele>
        <time>2022-12-25T11:45:51.373Z</time>
      </trkpt>
      <trkpt lat="44.65417" lon="-0.97004">
        <ele>56.880727</ele>
        <time>2022-12-25T11:45:54.360Z</time>
      </trkpt>
      <trkpt lat="44.65408" lon="-0.96995">
        <ele>56.912839</ele>
        <time>2022-12-25T11:45:58.369Z</time>
      </trkpt>
      <trkpt lat="44.65402" lon="-0.96985">
        <ele>56.941786</ele>
        <time>2022-12-25T11:46:02.367Z</time>
      </trkpt>
      <trkpt lat="44.65397" lon="-0.96974">
        <ele>57.078916</ele>
        <time>2022-12-25T11:46:05.353Z</time>
      </trkpt>
      <trkpt lat="44.65389" lon="-0.96963">
        <ele>57.30927</ele>
        <time>2022-12-25T11:46:08.356Z</time>
      </trkpt>
      <trkpt lat="44.65381" lon="-0.96951">
        <ele>57.564487</ele>
        <time>2022-12-25T11:46:11.357Z</time>
      </trkpt>
      <trkpt lat="44.65372" lon="-0.96939">
        <ele>57.8358</ele>
        <time>2022-12-25T11:46:14.354Z</time>
      </trkpt>
      <trkpt lat="44.65363" lon="-0.96926">
        <ele>58.106849</ele>
        <time>2022-12-25T11:46:17.368Z</time>
      </trkpt>
      <trkpt lat="44.65354" lon="-0.96914">
        <ele>58.373552</ele>
        <time>2022-12-25T11:46:20.363Z</time>
      </trkpt>
      <trkpt lat="44.65345" lon="-0.969">
        <ele>58.654949</ele>
        <time>2022-12-25T11:46:23.373Z</time>
      </trkpt>
      <trkpt lat="44.65336" lon="-0.96887">
        <ele>58.935299</ele>
        <time>2022-12-25T11:46:26.366Z</time>
      </trkpt>
      <trkpt lat="44.65328" lon="-0.96876">
        <ele>59.187296</ele>
        <time>2022-12-25T11:46:29.368Z</time>
      </trkpt>
      <trkpt lat="44.6532" lon="-0.96865">
        <ele>59.421347</ele>
        <time>2022-12-25T11:46:32.368Z</time>
      </trkpt>
      <trkpt lat="44.65314" lon="-0.96855">
        <ele>59.625869</ele>
        <time>2022-12-25T11:46:35.362Z</time>
      </trkpt>
      <trkpt lat="44.65305" lon="-0.96845">
        <ele>59.864082</ele>
        <time>2022-12-25T11:46:39.372Z</time>
      </trkpt>
      <trkpt lat="44.65298" lon="-0.96832">
        <ele>60.113286</ele>
        <time>2022-12-25T11:51:23.356Z</time>
      </trkpt>
      <trkpt lat="44.65291" lon="-0.96822">
        <ele>60.328211</ele>
        <time>2022-12-25T11:51:28.356Z</time>
      </trkpt>
      <trkpt lat="44.65284" lon="-0.96812">
        <ele>60.544215</ele>
        <time>2022-12-25T11:51:32.366Z</time>
      </trkpt>
      <trkpt lat="44.65276" lon="-0.968">
        <ele>60.795321</ele>
        <time>2022-12-25T11:51:36.352Z</time>
      </trkpt>
      <trkpt lat="44.65269" lon="-0.96791">
        <ele>60.886396</ele>
        <time>2022-12-25T11:51:39.372Z</time>
      </trkpt>
      <trkpt lat="44.65262" lon="-0.96782">
        <ele>60.963067</ele>
        <time>2022-12-25T11:51:42.370Z</time>
      </trkpt>
      <trkpt lat="44.65255" lon="-0.96771">
        <ele>61.047513</ele>
        <time>2022-12-25T11:51:45.368Z</time>
      </trkpt>
      <trkpt lat="44.65248" lon="-0.96761">
        <ele>61.132564</ele>
        <time>2022-12-25T11:51:48.365Z</time>
      </trkpt>
      <trkpt lat="44.65239" lon="-0.9675">
        <ele>61.225203</ele>
        <time>2022-12-25T11:51:51.365Z</time>
      </trkpt>
      <trkpt lat="44.65231" lon="-0.96738">
        <ele>61.317928</ele>
        <time>2022-12-25T11:51:54.371Z</time>
      </trkpt>
      <trkpt lat="44.65223" lon="-0.96727">
        <ele>61.408036</ele>
        <time>2022-12-25T11:51:57.371Z</time>
      </trkpt>
      <trkpt lat="44.65215" lon="-0.96716">
        <ele>61.500612</ele>
        <time>2022-12-25T11:52:00.363Z</time>
      </trkpt>
      <trkpt lat="44.65207" lon="-0.96705">
        <ele>61.591703</ele>
        <time>2022-12-25T11:52:03.361Z</time>
      </trkpt>
      <trkpt lat="44.652" lon="-0.96693">
        <ele>61.68372</ele>
        <time>2022-12-25T11:52:06.370Z</time>
      </trkpt>
      <trkpt lat="44.65192" lon="-0.96681">
        <ele>61.776713</ele>
        <time>2022-12-25T11:52:09.371Z</time>
      </trkpt>
      <trkpt lat="44.65184" lon="-0.96669">
        <ele>61.871808</ele>
        <time>2022-12-25T11:52:12.369Z</time>
      </trkpt>
      <trkpt lat="44.65175" lon="-0.96658">
        <ele>61.968394</ele>
        <time>2022-12-25T11:52:15.351Z</time>
      </trkpt>
      <trkpt lat="44.65167" lon="-0.96647">
        <ele>62.060872</ele>
        <time>2022-12-25T11:52:18.370Z</time>
      </trkpt>
      <trkpt lat="44.65159" lon="-0.96635">
        <ele>62.153709</ele>
        <time>2022-12-25T11:52:21.354Z</time>
      </trkpt>
      <trkpt lat="44.6515" lon="-0.96624">
        <ele>62.250686</ele>
        <time>2022-12-25T11:52:24.372Z</time>
      </trkpt>
      <trkpt lat="44.65141" lon="-0.96613">
        <ele>62.317061</ele>
        <time>2022-12-25T11:52:27.372Z</time>
      </trkpt>
      <trkpt lat="44.65134" lon="-0.96603">
        <ele>62.368154</ele>
        <time>2022-12-25T11:52:30.371Z</time>
      </trkpt>
      <trkpt lat="44.65126" lon="-0.96593">
        <ele>62.421086</ele>
        <time>2022-12-25T11:52:33.389Z</time>
      </trkpt>
      <trkpt lat="44.65118" lon="-0.96583">
        <ele>62.477214</ele>
        <time>2022-12-25T11:52:36.369Z</time>
      </trkpt>
      <trkpt lat="44.65109" lon="-0.96572">
        <ele>62.534034</ele>
        <time>2022-12-25T11:52:39.358Z</time>
      </trkpt>
      <trkpt lat="44.651" lon="-0.96562">
        <ele>62.593596</ele>
        <time>2022-12-25T11:52:42.373Z</time>
      </trkpt>
      <trkpt lat="44.6509" lon="-0.96551">
        <ele>62.653267</ele>
        <time>2022-12-25T11:52:45.371Z</time>
      </trkpt>
      <trkpt lat="44.65081" lon="-0.9654">
        <ele>62.714208</ele>
        <time>2022-12-25T11:52:48.369Z</time>
      </trkpt>
      <trkpt lat="44.65072" lon="-0.96529">
        <ele>62.772578</ele>
        <time>2022-12-25T11:52:51.371Z</time>
      </trkpt>
      <trkpt lat="44.65063" lon="-0.96518">
        <ele>62.833301</ele>
        <time>2022-12-25T11:52:54.354Z</time>
      </trkpt>
      <trkpt lat="44.65055" lon="-0.96508">
        <ele>62.888504</ele>
        <time>2022-12-25T11:52:57.354Z</time>
      </trkpt>
      <trkpt lat="44.65046" lon="-0.96497">
        <ele>62.945852</ele>
        <time>2022-12-25T11:53:00.371Z</time>
      </trkpt>
      <trkpt lat="44.65038" lon="-0.96488">
        <ele>62.998931</ele>
        <time>2022-12-25T11:53:03.362Z</time>
      </trkpt>
      <trkpt lat="44.65029" lon="-0.96478">
        <ele>63.057097</ele>
        <time>2022-12-25T11:53:07.375Z</time>
      </trkpt>
      <trkpt lat="44.65021" lon="-0.96469">
        <ele>63.107506</ele>
        <time>2022-12-25T11:53:11.360Z</time>
      </trkpt>
      <trkpt lat="44.65011" lon="-0.96461">
        <ele>63.16212</ele>
        <time>2022-12-25T11:53:15.361Z</time>
      </trkpt>
      <trkpt lat="44.65003" lon="-0.96453">
        <ele>63.167528</ele>
        <time>2022-12-25T11:53:19.355Z</time>
      </trkpt>
      <trkpt lat="44.64997" lon="-0.96443">
        <ele>63.161793</ele>
        <time>2022-12-25T11:53:22.362Z</time>
      </trkpt>
      <trkpt lat="44.6499" lon="-0.96435">
        <ele>63.156153</ele>
        <time>2022-12-25T11:53:25.348Z</time>
      </trkpt>
      <trkpt lat="44.64981" lon="-0.96428">
        <ele>63.149713</ele>
        <time>2022-12-25T11:53:29.372Z</time>
      </trkpt>
      <trkpt lat="44.64973" lon="-0.9642">
        <ele>63.143744</ele>
        <time>2022-12-25T11:53:32.372Z</time>
      </trkpt>
      <trkpt lat="44.64966" lon="-0.96411">
        <ele>63.137993</ele>
        <time>2022-12-25T11:53:35.371Z</time>
      </trkpt>
      <trkpt lat="44.64958" lon="-0.96403">
        <ele>63.132149</ele>
        <time>2022-12-25T11:53:38.358Z</time>
      </trkpt>
      <trkpt lat="44.64949" lon="-0.96393">
        <ele>63.124677</ele>
        <time>2022-12-25T11:53:42.360Z</time>
      </trkpt>
      <trkpt lat="44.6494" lon="-0.96385">
        <ele>63.118529</ele>
        <time>2022-12-25T11:53:45.362Z</time>
      </trkpt>
      <trkpt lat="44.64932" lon="-0.96377">
        <ele>63.112309</ele>
        <time>2022-12-25T11:53:48.367Z</time>
      </trkpt>
      <trkpt lat="44.64922" lon="-0.96368">
        <ele>63.105099</ele>
        <time>2022-12-25T11:53:51.372Z</time>
      </trkpt>
      <trkpt lat="44.64913" lon="-0.9636">
        <ele>63.098577</ele>
        <time>2022-12-25T11:53:54.357Z</time>
      </trkpt>
      <trkpt lat="44.64903" lon="-0.96353">
        <ele>63.091791</ele>
        <time>2022-12-25T11:53:57.350Z</time>
      </trkpt>
      <trkpt lat="44.64893" lon="-0.96343">
        <ele>63.084134</ele>
        <time>2022-12-25T11:54:00.375Z</time>
      </trkpt>
      <trkpt lat="44.64882" lon="-0.96334">
        <ele>63.07606</ele>
        <time>2022-12-25T11:54:03.384Z</time>
      </trkpt>
      <trkpt lat="44.6487" lon="-0.96324">
        <ele>63.067888</ele>
        <time>2022-12-25T11:54:06.371Z</time>
      </trkpt>
      <trkpt lat="44.64859" lon="-0.96314">
        <ele>63.053973</ele>
        <time>2022-12-25T11:54:09.370Z</time>
      </trkpt>
      <trkpt lat="44.64848" lon="-0.96305">
        <ele>63.026089</ele>
        <time>2022-12-25T11:54:12.372Z</time>
      </trkpt>
      <trkpt lat="44.64838" lon="-0.96295">
        <ele>62.998078</ele>
        <time>2022-12-25T11:54:15.374Z</time>
      </trkpt>
      <trkpt lat="44.64827" lon="-0.96284">
        <ele>62.968794</ele>
        <time>2022-12-25T11:54:18.362Z</time>
      </trkpt>
      <trkpt lat="44.64817" lon="-0.96275">
        <ele>62.941537</ele>
        <time>2022-12-25T11:54:21.366Z</time>
      </trkpt>
      <trkpt lat="44.64807" lon="-0.96266">
        <ele>62.915225</ele>
        <time>2022-12-25T11:54:24.346Z</time>
      </trkpt>
      <trkpt lat="44.64796" lon="-0.96258">
        <ele>62.888252</ele>
        <time>2022-12-25T11:54:27.371Z</time>
      </trkpt>
      <trkpt lat="44.64786" lon="-0.96249">
        <ele>62.862163</ele>
        <time>2022-12-25T11:54:30.372Z</time>
      </trkpt>
      <trkpt lat="44.64777" lon="-0.96241">
        <ele>62.837416</ele>
        <time>2022-12-25T11:54:33.357Z</time>
      </trkpt>
      <trkpt lat="44.64765" lon="-0.96231">
        <ele>62.807083</ele>
        <time>2022-12-25T11:54:36.372Z</time>
      </trkpt>
      <trkpt lat="44.64756" lon="-0.96222">
        <ele>62.782508</ele>
        <time>2022-12-25T11:54:39.353Z</time>
      </trkpt>
      <trkpt lat="44.64747" lon="-0.96214">
        <ele>62.759222</ele>
        <time>2022-12-25T11:54:42.348Z</time>
      </trkpt>
      <trkpt lat="44.6474" lon="-0.96207">
        <ele>62.738936</ele>
        <time>2022-12-25T11:54:45.365Z</time>
      </trkpt>
      <trkpt lat="44.64733" lon="-0.96199">
        <ele>62.718578</ele>
        <time>2022-12-25T11:54:48.362Z</time>
      </trkpt>
      <trkpt lat="44.64722" lon="-0.96188">
        <ele>62.689839</ele>
        <time>2022-12-25T11:54:51.372Z</time>
      </trkpt>
      <trkpt lat="44.64714" lon="-0.96181">
        <ele>62.669465</ele>
        <time>2022-12-25T11:54:53.368Z</time>
      </trkpt>
      <trkpt lat="44.64705" lon="-0.96171">
        <ele>62.599863</ele>
        <time>2022-12-25T11:54:56.364Z</time>
      </trkpt>
      <trkpt lat="44.64694" lon="-0.96162">
        <ele>62.504282</ele>
        <time>2022-12-25T11:54:59.355Z</time>
      </trkpt>
      <trkpt lat="44.64686" lon="-0.96155">
        <ele>62.434395</ele>
        <time>2022-12-25T11:55:02.354Z</time>
      </trkpt>
      <trkpt lat="44.64676" lon="-0.96149">
        <ele>62.358805</ele>
        <time>2022-12-25T11:55:05.374Z</time>
      </trkpt>
      <trkpt lat="44.64667" lon="-0.96141">
        <ele>62.27601</ele>
        <time>2022-12-25T11:55:08.361Z</time>
      </trkpt>
      <trkpt lat="44.64656" lon="-0.96133">
        <ele>62.184802</ele>
        <time>2022-12-25T11:55:11.370Z</time>
      </trkpt>
      <trkpt lat="44.64645" lon="-0.96124">
        <ele>62.088188</ele>
        <time>2022-12-25T11:55:14.364Z</time>
      </trkpt>
      <trkpt lat="44.64635" lon="-0.96116">
        <ele>62.002678</ele>
        <time>2022-12-25T11:55:17.375Z</time>
      </trkpt>
      <trkpt lat="44.64626" lon="-0.96109">
        <ele>61.931889</ele>
        <time>2022-12-25T11:55:20.352Z</time>
      </trkpt>
      <trkpt lat="44.64617" lon="-0.96102">
        <ele>61.849469</ele>
        <time>2022-12-25T11:55:24.351Z</time>
      </trkpt>
      <trkpt lat="44.64599" lon="-0.96086">
        <ele>61.693269</ele>
        <time>2022-12-25T11:55:46.362Z</time>
      </trkpt>
      <trkpt lat="44.64591" lon="-0.96079">
        <ele>61.626275</ele>
        <time>2022-12-25T11:55:49.372Z</time>
      </trkpt>
      <trkpt lat="44.64581" lon="-0.96072">
        <ele>61.543972</ele>
        <time>2022-12-25T11:55:52.359Z</time>
      </trkpt>
      <trkpt lat="44.64572" lon="-0.96063">
        <ele>61.462354</ele>
        <time>2022-12-25T11:55:55.374Z</time>
      </trkpt>
      <trkpt lat="44.64562" lon="-0.96055">
        <ele>61.373684</ele>
        <time>2022-12-25T11:55:58.357Z</time>
      </trkpt>
      <trkpt lat="44.64552" lon="-0.96046">
        <ele>61.279538</ele>
        <time>2022-12-25T11:56:01.354Z</time>
      </trkpt>
      <trkpt lat="44.64541" lon="-0.96037">
        <ele>61.181131</ele>
        <time>2022-12-25T11:56:04.350Z</time>
      </trkpt>
      <trkpt lat="44.64531" lon="-0.96027">
        <ele>61.081262</ele>
        <time>2022-12-25T11:56:07.370Z</time>
      </trkpt>
      <trkpt lat="44.64521" lon="-0.96018">
        <ele>60.984008</ele>
        <time>2022-12-25T11:56:10.368Z</time>
      </trkpt>
      <trkpt lat="44.6451" lon="-0.96009">
        <ele>60.883016</ele>
        <time>2022-12-25T11:56:13.386Z</time>
      </trkpt>
      <trkpt lat="44.64499" lon="-0.96001">
        <ele>60.77874</ele>
        <time>2022-12-25T11:56:16.369Z</time>
      </trkpt>
      <trkpt lat="44.64487" lon="-0.95993">
        <ele>60.674247</ele>
        <time>2022-12-25T11:56:19.373Z</time>
      </trkpt>
      <trkpt lat="44.64476" lon="-0.95985">
        <ele>60.570228</ele>
        <time>2022-12-25T11:56:22.370Z</time>
      </trkpt>
      <trkpt lat="44.64465" lon="-0.9598">
        <ele>60.481669</ele>
        <time>2022-12-25T11:56:25.373Z</time>
      </trkpt>
      <trkpt lat="44.64455" lon="-0.95975">
        <ele>60.390629</ele>
        <time>2022-12-25T11:56:28.373Z</time>
      </trkpt>
      <trkpt lat="44.64444" lon="-0.95968">
        <ele>60.293481</ele>
        <time>2022-12-25T11:56:31.354Z</time>
      </trkpt>
      <trkpt lat="44.64433" lon="-0.95962">
        <ele>60.197114</ele>
        <time>2022-12-25T11:56:34.364Z</time>
      </trkpt>
      <trkpt lat="44.64422" lon="-0.95957">
        <ele>60.104343</ele>
        <time>2022-12-25T11:56:37.370Z</time>
      </trkpt>
      <trkpt lat="44.64412" lon="-0.95953">
        <ele>60.020512</ele>
        <time>2022-12-25T11:56:40.366Z</time>
      </trkpt>
      <trkpt lat="44.64401" lon="-0.95948">
        <ele>59.932128</ele>
        <time>2022-12-25T11:56:43.385Z</time>
      </trkpt>
      <trkpt lat="44.64389" lon="-0.95945">
        <ele>59.85785</ele>
        <time>2022-12-25T11:56:46.379Z</time>
      </trkpt>
      <trkpt lat="44.64376" lon="-0.95942">
        <ele>59.818654</ele>
        <time>2022-12-25T11:56:49.350Z</time>
      </trkpt>
      <trkpt lat="44.64367" lon="-0.95939">
        <ele>59.792639</ele>
        <time>2022-12-25T11:56:51.369Z</time>
      </trkpt>
      <trkpt lat="44.64355" lon="-0.95937">
        <ele>59.757114</ele>
        <time>2022-12-25T11:56:54.368Z</time>
      </trkpt>
      <trkpt lat="44.64344" lon="-0.95935">
        <ele>59.723432</ele>
        <time>2022-12-25T11:56:57.372Z</time>
      </trkpt>
      <trkpt lat="44.64331" lon="-0.95933">
        <ele>59.687055</ele>
        <time>2022-12-25T11:57:00.371Z</time>
      </trkpt>
      <trkpt lat="44.64318" lon="-0.95931">
        <ele>59.649124</ele>
        <time>2022-12-25T11:57:03.359Z</time>
      </trkpt>
      <trkpt lat="44.64309" lon="-0.95931">
        <ele>59.622674</ele>
        <time>2022-12-25T11:57:05.371Z</time>
      </trkpt>
      <trkpt lat="44.643" lon="-0.9593">
        <ele>59.596252</ele>
        <time>2022-12-25T11:57:07.373Z</time>
      </trkpt>
      <trkpt lat="44.64291" lon="-0.9593">
        <ele>59.569842</ele>
        <time>2022-12-25T11:57:09.351Z</time>
      </trkpt>
      <trkpt lat="44.64282" lon="-0.9593">
        <ele>59.543141</ele>
        <time>2022-12-25T11:57:11.371Z</time>
      </trkpt>
      <trkpt lat="44.64272" lon="-0.9593">
        <ele>59.515567</ele>
        <time>2022-12-25T11:57:13.382Z</time>
      </trkpt>
      <trkpt lat="44.64263" lon="-0.95931">
        <ele>59.488564</ele>
        <time>2022-12-25T11:57:15.369Z</time>
      </trkpt>
      <trkpt lat="44.64251" lon="-0.95933">
        <ele>59.453128</ele>
        <time>2022-12-25T11:57:18.351Z</time>
      </trkpt>
      <trkpt lat="44.64239" lon="-0.95935">
        <ele>59.418583</ele>
        <time>2022-12-25T11:57:21.371Z</time>
      </trkpt>
      <trkpt lat="44.64228" lon="-0.95936">
        <ele>59.386315</ele>
        <time>2022-12-25T11:57:24.351Z</time>
      </trkpt>
      <trkpt lat="44.64217" lon="-0.95938">
        <ele>59.354901</ele>
        <time>2022-12-25T11:57:27.364Z</time>
      </trkpt>
      <trkpt lat="44.64206" lon="-0.95941">
        <ele>59.30341</ele>
        <time>2022-12-25T11:57:30.371Z</time>
      </trkpt>
      <trkpt lat="44.64197" lon="-0.95943">
        <ele>59.253168</ele>
        <time>2022-12-25T11:57:33.384Z</time>
      </trkpt>
      <trkpt lat="44.64188" lon="-0.95945">
        <ele>59.206592</ele>
        <time>2022-12-25T11:57:36.360Z</time>
      </trkpt>
      <trkpt lat="44.64178" lon="-0.95949">
        <ele>59.154024</ele>
        <time>2022-12-25T11:57:40.346Z</time>
      </trkpt>
      <trkpt lat="44.64171" lon="-0.95962">
        <ele>59.097096</ele>
        <time>2022-12-25T11:57:44.357Z</time>
      </trkpt>
      <trkpt lat="44.64165" lon="-0.95975">
        <ele>59.040419</ele>
        <time>2022-12-25T11:57:47.351Z</time>
      </trkpt>
      <trkpt lat="44.64159" lon="-0.9599">
        <ele>58.978915</ele>
        <time>2022-12-25T11:57:50.371Z</time>
      </trkpt>
      <trkpt lat="44.64153" lon="-0.96003">
        <ele>58.922484</ele>
        <time>2022-12-25T11:57:53.380Z</time>
      </trkpt>
      <trkpt lat="44.64147" lon="-0.96015">
        <ele>58.869621</ele>
        <time>2022-12-25T11:57:56.361Z</time>
      </trkpt>
      <trkpt lat="44.64141" lon="-0.96029">
        <ele>58.812033</ele>
        <time>2022-12-25T11:57:59.367Z</time>
      </trkpt>
      <trkpt lat="44.64135" lon="-0.96043">
        <ele>58.749685</ele>
        <time>2022-12-25T11:58:02.373Z</time>
      </trkpt>
      <trkpt lat="44.64128" lon="-0.96057">
        <ele>58.690075</ele>
        <time>2022-12-25T11:58:05.360Z</time>
      </trkpt>
      <trkpt lat="44.64123" lon="-0.9607">
        <ele>58.635717</ele>
        <time>2022-12-25T11:58:08.356Z</time>
      </trkpt>
      <trkpt lat="44.64118" lon="-0.96082">
        <ele>58.584749</ele>
        <time>2022-12-25T11:58:11.364Z</time>
      </trkpt>
      <trkpt lat="44.64112" lon="-0.96094">
        <ele>58.533619</ele>
        <time>2022-12-25T11:58:14.362Z</time>
      </trkpt>
      <trkpt lat="44.64107" lon="-0.96106">
        <ele>58.481605</ele>
        <time>2022-12-25T11:58:17.362Z</time>
      </trkpt>
      <trkpt lat="44.64101" lon="-0.96119">
        <ele>58.424649</ele>
        <time>2022-12-25T11:58:20.364Z</time>
      </trkpt>
      <trkpt lat="44.64095" lon="-0.96132">
        <ele>58.360296</ele>
        <time>2022-12-25T11:58:23.375Z</time>
      </trkpt>
      <trkpt lat="44.64088" lon="-0.96147">
        <ele>58.288984</ele>
        <time>2022-12-25T11:58:26.352Z</time>
      </trkpt>
      <trkpt lat="44.64081" lon="-0.96161">
        <ele>58.218982</ele>
        <time>2022-12-25T11:58:29.358Z</time>
      </trkpt>
      <trkpt lat="44.64075" lon="-0.96175">
        <ele>58.149776</ele>
        <time>2022-12-25T11:58:32.378Z</time>
      </trkpt>
      <trkpt lat="44.64068" lon="-0.96189">
        <ele>58.079129</ele>
        <time>2022-12-25T11:58:35.376Z</time>
      </trkpt>
      <trkpt lat="44.64062" lon="-0.96204">
        <ele>58.00706</ele>
        <time>2022-12-25T11:58:38.361Z</time>
      </trkpt>
      <trkpt lat="44.64055" lon="-0.96219">
        <ele>57.936341</ele>
        <time>2022-12-25T11:58:41.348Z</time>
      </trkpt>
      <trkpt lat="44.64048" lon="-0.96233">
        <ele>57.865677</ele>
        <time>2022-12-25T11:58:44.371Z</time>
      </trkpt>
      <trkpt lat="44.64042" lon="-0.96248">
        <ele>57.793169</ele>
        <time>2022-12-25T11:58:47.367Z</time>
      </trkpt>
      <trkpt lat="44.64035" lon="-0.96263">
        <ele>57.719784</ele>
        <time>2022-12-25T11:58:50.374Z</time>
      </trkpt>
      <trkpt lat="44.64029" lon="-0.96277">
        <ele>57.655514</ele>
        <time>2022-12-25T11:58:53.372Z</time>
      </trkpt>
      <trkpt lat="44.64023" lon="-0.9629">
        <ele>57.590467</ele>
        <time>2022-12-25T11:58:56.373Z</time>
      </trkpt>
      <trkpt lat="44.64017" lon="-0.96305">
        <ele>57.519663</ele>
        <time>2022-12-25T11:58:59.361Z</time>
      </trkpt>
      <trkpt lat="44.64011" lon="-0.96319">
        <ele>57.450561</ele>
        <time>2022-12-25T11:59:02.373Z</time>
      </trkpt>
      <trkpt lat="44.64005" lon="-0.96332">
        <ele>57.400085</ele>
        <time>2022-12-25T11:59:05.353Z</time>
      </trkpt>
      <trkpt lat="44.63999" lon="-0.96344">
        <ele>57.44247</ele>
        <time>2022-12-25T11:59:09.360Z</time>
      </trkpt>
      <trkpt lat="44.63993" lon="-0.96358">
        <ele>57.487788</ele>
        <time>2022-12-25T11:59:14.358Z</time>
      </trkpt>
      <trkpt lat="44.63989" lon="-0.96369">
        <ele>57.525081</ele>
        <time>2022-12-25T11:59:17.353Z</time>
      </trkpt>
      <trkpt lat="44.63982" lon="-0.9638">
        <ele>57.566965</ele>
        <time>2022-12-25T11:59:20.364Z</time>
      </trkpt>
      <trkpt lat="44.63976" lon="-0.96393">
        <ele>57.610512</ele>
        <time>2022-12-25T11:59:23.387Z</time>
      </trkpt>
      <trkpt lat="44.63971" lon="-0.96406">
        <ele>57.652941</ele>
        <time>2022-12-25T11:59:26.382Z</time>
      </trkpt>
      <trkpt lat="44.63966" lon="-0.96418">
        <ele>57.692981</ele>
        <time>2022-12-25T11:59:29.365Z</time>
      </trkpt>
      <trkpt lat="44.6396" lon="-0.9643">
        <ele>57.735827</ele>
        <time>2022-12-25T11:59:32.367Z</time>
      </trkpt>
      <trkpt lat="44.63955" lon="-0.96443">
        <ele>57.778003</ele>
        <time>2022-12-25T11:59:35.350Z</time>
      </trkpt>
      <trkpt lat="44.6395" lon="-0.96457">
        <ele>57.824314</ele>
        <time>2022-12-25T11:59:38.358Z</time>
      </trkpt>
      <trkpt lat="44.63944" lon="-0.9647">
        <ele>57.866092</ele>
        <time>2022-12-25T11:59:41.359Z</time>
      </trkpt>
      <trkpt lat="44.63938" lon="-0.96481">
        <ele>57.906096</ele>
        <time>2022-12-25T11:59:44.367Z</time>
      </trkpt>
      <trkpt lat="44.63932" lon="-0.96494">
        <ele>57.950553</ele>
        <time>2022-12-25T11:59:47.370Z</time>
      </trkpt>
      <trkpt lat="44.63929" lon="-0.96507">
        <ele>57.991136</ele>
        <time>2022-12-25T11:59:50.352Z</time>
      </trkpt>
      <trkpt lat="44.63931" lon="-0.96521">
        <ele>58.03155</ele>
        <time>2022-12-25T11:59:54.351Z</time>
      </trkpt>
      <trkpt lat="44.63927" lon="-0.96534">
        <ele>58.073591</ele>
        <time>2022-12-25T12:00:00.361Z</time>
      </trkpt>
      <trkpt lat="44.6392" lon="-0.96545">
        <ele>58.116227</ele>
        <time>2022-12-25T12:00:06.352Z</time>
      </trkpt>
      <trkpt lat="44.63911" lon="-0.96553">
        <ele>58.234665</ele>
        <time>2022-12-25T12:00:11.359Z</time>
      </trkpt>
      <trkpt lat="44.63901" lon="-0.9656">
        <ele>58.36441</ele>
        <time>2022-12-25T12:00:16.353Z</time>
      </trkpt>
      <trkpt lat="44.63896" lon="-0.96571">
        <ele>58.477988</ele>
        <time>2022-12-25T12:00:20.355Z</time>
      </trkpt>
      <trkpt lat="44.63889" lon="-0.96583">
        <ele>58.607788</ele>
        <time>2022-12-25T12:00:24.362Z</time>
      </trkpt>
      <trkpt lat="44.63884" lon="-0.96597">
        <ele>58.743484</ele>
        <time>2022-12-25T12:00:28.369Z</time>
      </trkpt>
      <trkpt lat="44.63879" lon="-0.96609">
        <ele>58.859583</ele>
        <time>2022-12-25T12:00:31.369Z</time>
      </trkpt>
      <trkpt lat="44.63873" lon="-0.96622">
        <ele>58.992655</ele>
        <time>2022-12-25T12:00:34.368Z</time>
      </trkpt>
      <trkpt lat="44.63867" lon="-0.96635">
        <ele>59.125595</ele>
        <time>2022-12-25T12:00:37.372Z</time>
      </trkpt>
      <trkpt lat="44.63861" lon="-0.96648">
        <ele>59.259386</ele>
        <time>2022-12-25T12:00:40.354Z</time>
      </trkpt>
      <trkpt lat="44.63854" lon="-0.96662">
        <ele>59.405634</ele>
        <time>2022-12-25T12:00:43.381Z</time>
      </trkpt>
      <trkpt lat="44.63847" lon="-0.96677">
        <ele>59.55266</ele>
        <time>2022-12-25T12:00:46.369Z</time>
      </trkpt>
      <trkpt lat="44.63841" lon="-0.96691">
        <ele>59.695074</ele>
        <time>2022-12-25T12:00:49.373Z</time>
      </trkpt>
      <trkpt lat="44.63835" lon="-0.96705">
        <ele>59.840922</ele>
        <time>2022-12-25T12:00:52.367Z</time>
      </trkpt>
      <trkpt lat="44.63828" lon="-0.9672">
        <ele>59.987797</ele>
        <time>2022-12-25T12:00:55.367Z</time>
      </trkpt>
      <trkpt lat="44.63822" lon="-0.96734">
        <ele>60.131372</ele>
        <time>2022-12-25T12:00:58.370Z</time>
      </trkpt>
      <trkpt lat="44.63817" lon="-0.9675">
        <ele>60.279568</ele>
        <time>2022-12-25T12:01:01.353Z</time>
      </trkpt>
      <trkpt lat="44.63811" lon="-0.96764">
        <ele>60.026716</ele>
        <time>2022-12-25T12:01:04.370Z</time>
      </trkpt>
      <trkpt lat="44.63805" lon="-0.96778">
        <ele>59.783229</ele>
        <time>2022-12-25T12:01:07.370Z</time>
      </trkpt>
      <trkpt lat="44.638" lon="-0.9679">
        <ele>59.574142</ele>
        <time>2022-12-25T12:01:10.372Z</time>
      </trkpt>
      <trkpt lat="44.63796" lon="-0.96801">
        <ele>59.368504</ele>
        <time>2022-12-25T12:01:15.357Z</time>
      </trkpt>
      <trkpt lat="44.63789" lon="-0.96814">
        <ele>59.119997</ele>
        <time>2022-12-25T12:01:20.347Z</time>
      </trkpt>
      <trkpt lat="44.63784" lon="-0.9683">
        <ele>58.856218</ele>
        <time>2022-12-25T12:01:24.356Z</time>
      </trkpt>
      <trkpt lat="44.63782" lon="-0.96843">
        <ele>58.642957</ele>
        <time>2022-12-25T12:01:27.366Z</time>
      </trkpt>
      <trkpt lat="44.63774" lon="-0.96852">
        <ele>58.429292</ele>
        <time>2022-12-25T12:01:30.355Z</time>
      </trkpt>
      <trkpt lat="44.63766" lon="-0.96861">
        <ele>58.197104</ele>
        <time>2022-12-25T12:01:34.375Z</time>
      </trkpt>
      <trkpt lat="44.63761" lon="-0.96874">
        <ele>57.973638</ele>
        <time>2022-12-25T12:01:38.363Z</time>
      </trkpt>
      <trkpt lat="44.63755" lon="-0.96888">
        <ele>57.725315</ele>
        <time>2022-12-25T12:01:49.366Z</time>
      </trkpt>
      <trkpt lat="44.63748" lon="-0.96901">
        <ele>57.473354</ele>
        <time>2022-12-25T12:01:53.357Z</time>
      </trkpt>
      <trkpt lat="44.63743" lon="-0.96913">
        <ele>57.257433</ele>
        <time>2022-12-25T12:01:56.353Z</time>
      </trkpt>
      <trkpt lat="44.63738" lon="-0.96925">
        <ele>57.035982</ele>
        <time>2022-12-25T12:01:59.374Z</time>
      </trkpt>
      <trkpt lat="44.63731" lon="-0.9694">
        <ele>56.768536</ele>
        <time>2022-12-25T12:02:03.380Z</time>
      </trkpt>
      <trkpt lat="44.63726" lon="-0.96953">
        <ele>56.526665</ele>
        <time>2022-12-25T12:02:06.371Z</time>
      </trkpt>
      <trkpt lat="44.63719" lon="-0.96968">
        <ele>56.345905</ele>
        <time>2022-12-25T12:02:09.372Z</time>
      </trkpt>
      <trkpt lat="44.63713" lon="-0.96981">
        <ele>56.286807</ele>
        <time>2022-12-25T12:02:12.373Z</time>
      </trkpt>
      <trkpt lat="44.63707" lon="-0.96992">
        <ele>56.23267</ele>
        <time>2022-12-25T12:02:15.365Z</time>
      </trkpt>
      <trkpt lat="44.63702" lon="-0.97004">
        <ele>56.180053</ele>
        <time>2022-12-25T12:02:18.347Z</time>
      </trkpt>
      <trkpt lat="44.63696" lon="-0.97015">
        <ele>56.129637</ele>
        <time>2022-12-25T12:02:21.373Z</time>
      </trkpt>
      <trkpt lat="44.63691" lon="-0.97026">
        <ele>56.07911</ele>
        <time>2022-12-25T12:02:24.364Z</time>
      </trkpt>
      <trkpt lat="44.63686" lon="-0.97038">
        <ele>56.024618</ele>
        <time>2022-12-25T12:02:27.371Z</time>
      </trkpt>
      <trkpt lat="44.6368" lon="-0.9705">
        <ele>55.971366</ele>
        <time>2022-12-25T12:02:30.372Z</time>
      </trkpt>
      <trkpt lat="44.63675" lon="-0.97061">
        <ele>55.920022</ele>
        <time>2022-12-25T12:02:34.374Z</time>
      </trkpt>
      <trkpt lat="44.63668" lon="-0.97073">
        <ele>55.864185</ele>
        <time>2022-12-25T12:02:38.354Z</time>
      </trkpt>
      <trkpt lat="44.63662" lon="-0.97084">
        <ele>55.809459</ele>
        <time>2022-12-25T12:02:41.364Z</time>
      </trkpt>
      <trkpt lat="44.63656" lon="-0.97099">
        <ele>55.747463</ele>
        <time>2022-12-25T12:02:44.352Z</time>
      </trkpt>
      <trkpt lat="44.6365" lon="-0.97114">
        <ele>55.683312</ele>
        <time>2022-12-25T12:02:47.368Z</time>
      </trkpt>
      <trkpt lat="44.63644" lon="-0.97129">
        <ele>55.616616</ele>
        <time>2022-12-25T12:02:50.372Z</time>
      </trkpt>
      <trkpt lat="44.63637" lon="-0.97144">
        <ele>55.546169</ele>
        <time>2022-12-25T12:02:53.375Z</time>
      </trkpt>
      <trkpt lat="44.6363" lon="-0.9716">
        <ele>55.477505</ele>
        <time>2022-12-25T12:02:56.372Z</time>
      </trkpt>
      <trkpt lat="44.63624" lon="-0.9717">
        <ele>55.428318</ele>
        <time>2022-12-25T12:02:58.365Z</time>
      </trkpt>
      <trkpt lat="44.63617" lon="-0.97187">
        <ele>55.373454</ele>
        <time>2022-12-25T12:03:01.368Z</time>
      </trkpt>
      <trkpt lat="44.63613" lon="-0.97198">
        <ele>55.33795</ele>
        <time>2022-12-25T12:03:03.350Z</time>
      </trkpt>
      <trkpt lat="44.63607" lon="-0.97209">
        <ele>55.30111</ele>
        <time>2022-12-25T12:03:05.371Z</time>
      </trkpt>
      <trkpt lat="44.63602" lon="-0.9722">
        <ele>55.265219</ele>
        <time>2022-12-25T12:03:07.378Z</time>
      </trkpt>
      <trkpt lat="44.63597" lon="-0.97232">
        <ele>55.228937</ele>
        <time>2022-12-25T12:03:09.372Z</time>
      </trkpt>
      <trkpt lat="44.63592" lon="-0.97244">
        <ele>55.189088</ele>
        <time>2022-12-25T12:03:11.349Z</time>
      </trkpt>
      <trkpt lat="44.63587" lon="-0.97256">
        <ele>55.152272</ele>
        <time>2022-12-25T12:03:13.365Z</time>
      </trkpt>
      <trkpt lat="44.63582" lon="-0.97267">
        <ele>55.116331</ele>
        <time>2022-12-25T12:03:15.357Z</time>
      </trkpt>
      <trkpt lat="44.63575" lon="-0.97283">
        <ele>55.064103</ele>
        <time>2022-12-25T12:03:18.364Z</time>
      </trkpt>
      <trkpt lat="44.63568" lon="-0.97299">
        <ele>55.012311</ele>
        <time>2022-12-25T12:03:21.375Z</time>
      </trkpt>
      <trkpt lat="44.6356" lon="-0.97315">
        <ele>54.958891</ele>
        <time>2022-12-25T12:03:24.371Z</time>
      </trkpt>
      <trkpt lat="44.63555" lon="-0.97326">
        <ele>54.923202</ele>
        <time>2022-12-25T12:03:26.372Z</time>
      </trkpt>
      <trkpt lat="44.6355" lon="-0.97337">
        <ele>54.888409</ele>
        <time>2022-12-25T12:03:28.369Z</time>
      </trkpt>
      <trkpt lat="44.63545" lon="-0.97348">
        <ele>54.85117</ele>
        <time>2022-12-25T12:03:30.373Z</time>
      </trkpt>
      <trkpt lat="44.6354" lon="-0.9736">
        <ele>54.813225</ele>
        <time>2022-12-25T12:03:32.370Z</time>
      </trkpt>
      <trkpt lat="44.63532" lon="-0.97375">
        <ele>54.764184</ele>
        <time>2022-12-25T12:03:35.373Z</time>
      </trkpt>
      <trkpt lat="44.63526" lon="-0.9739">
        <ele>54.701261</ele>
        <time>2022-12-25T12:03:38.375Z</time>
      </trkpt>
      <trkpt lat="44.63518" lon="-0.97406">
        <ele>54.589638</ele>
        <time>2022-12-25T12:03:41.370Z</time>
      </trkpt>
      <trkpt lat="44.63513" lon="-0.97418">
        <ele>54.507243</ele>
        <time>2022-12-25T12:03:43.370Z</time>
      </trkpt>
      <trkpt lat="44.63508" lon="-0.9743">
        <ele>54.42523</ele>
        <time>2022-12-25T12:03:45.370Z</time>
      </trkpt>
      <trkpt lat="44.635" lon="-0.97446">
        <ele>54.311724</ele>
        <time>2022-12-25T12:03:48.369Z</time>
      </trkpt>
      <trkpt lat="44.63495" lon="-0.97457">
        <ele>54.233576</ele>
        <time>2022-12-25T12:03:50.371Z</time>
      </trkpt>
      <trkpt lat="44.6349" lon="-0.97467">
        <ele>54.158911</ele>
        <time>2022-12-25T12:03:52.370Z</time>
      </trkpt>
      <trkpt lat="44.63484" lon="-0.97482">
        <ele>54.06241</ele>
        <time>2022-12-25T12:03:55.372Z</time>
      </trkpt>
      <trkpt lat="44.63481" lon="-0.97498">
        <ele>53.963857</ele>
        <time>2022-12-25T12:03:58.369Z</time>
      </trkpt>
      <trkpt lat="44.63475" lon="-0.97513">
        <ele>53.864738</ele>
        <time>2022-12-25T12:04:01.358Z</time>
      </trkpt>
      <trkpt lat="44.63465" lon="-0.97521">
        <ele>53.771403</ele>
        <time>2022-12-25T12:04:04.360Z</time>
      </trkpt>
      <trkpt lat="44.63461" lon="-0.97534">
        <ele>53.688864</ele>
        <time>2022-12-25T12:04:08.356Z</time>
      </trkpt>
      <trkpt lat="44.63457" lon="-0.97546">
        <ele>53.608295</ele>
        <time>2022-12-25T12:04:12.361Z</time>
      </trkpt>
      <trkpt lat="44.63451" lon="-0.97557">
        <ele>53.530297</ele>
        <time>2022-12-25T12:04:15.352Z</time>
      </trkpt>
      <trkpt lat="44.63446" lon="-0.9757">
        <ele>53.443224</ele>
        <time>2022-12-25T12:04:18.360Z</time>
      </trkpt>
      <trkpt lat="44.6344" lon="-0.97584">
        <ele>53.34603</ele>
        <time>2022-12-25T12:04:21.368Z</time>
      </trkpt>
      <trkpt lat="44.63433" lon="-0.97599">
        <ele>53.242885</ele>
        <time>2022-12-25T12:04:24.358Z</time>
      </trkpt>
      <trkpt lat="44.63427" lon="-0.97614">
        <ele>53.111961</ele>
        <time>2022-12-25T12:04:27.369Z</time>
      </trkpt>
      <trkpt lat="44.6342" lon="-0.9763">
        <ele>52.978222</ele>
        <time>2022-12-25T12:04:30.371Z</time>
      </trkpt>
      <trkpt lat="44.63413" lon="-0.97646">
        <ele>52.837917</ele>
        <time>2022-12-25T12:04:33.355Z</time>
      </trkpt>
      <trkpt lat="44.63405" lon="-0.97662">
        <ele>52.701172</ele>
        <time>2022-12-25T12:04:36.370Z</time>
      </trkpt>
      <trkpt lat="44.634" lon="-0.97673">
        <ele>52.60782</ele>
        <time>2022-12-25T12:04:38.374Z</time>
      </trkpt>
      <trkpt lat="44.63395" lon="-0.97684">
        <ele>52.512132</ele>
        <time>2022-12-25T12:04:40.363Z</time>
      </trkpt>
      <trkpt lat="44.6339" lon="-0.97694">
        <ele>52.418296</ele>
        <time>2022-12-25T12:04:42.358Z</time>
      </trkpt>
      <trkpt lat="44.63383" lon="-0.9771">
        <ele>52.281938</ele>
        <time>2022-12-25T12:04:45.368Z</time>
      </trkpt>
      <trkpt lat="44.63377" lon="-0.97724">
        <ele>52.163448</ele>
        <time>2022-12-25T12:04:48.375Z</time>
      </trkpt>
      <trkpt lat="44.63371" lon="-0.97737">
        <ele>52.049954</ele>
        <time>2022-12-25T12:04:51.356Z</time>
      </trkpt>
      <trkpt lat="44.63365" lon="-0.9775">
        <ele>51.936959</ele>
        <time>2022-12-25T12:04:54.366Z</time>
      </trkpt>
      <trkpt lat="44.63359" lon="-0.97766">
        <ele>51.808633</ele>
        <time>2022-12-25T12:04:57.372Z</time>
      </trkpt>
      <trkpt lat="44.63352" lon="-0.97781">
        <ele>51.674374</ele>
        <time>2022-12-25T12:05:00.360Z</time>
      </trkpt>
      <trkpt lat="44.63345" lon="-0.97797">
        <ele>51.53934</ele>
        <time>2022-12-25T12:05:03.377Z</time>
      </trkpt>
      <trkpt lat="44.63338" lon="-0.97811">
        <ele>51.413818</ele>
        <time>2022-12-25T12:05:06.362Z</time>
      </trkpt>
      <trkpt lat="44.63332" lon="-0.97825">
        <ele>51.358841</ele>
        <time>2022-12-25T12:05:09.375Z</time>
      </trkpt>
      <trkpt lat="44.63325" lon="-0.97839">
        <ele>51.306758</ele>
        <time>2022-12-25T12:05:12.373Z</time>
      </trkpt>
      <trkpt lat="44.63318" lon="-0.97855">
        <ele>51.253434</ele>
        <time>2022-12-25T12:05:15.374Z</time>
      </trkpt>
      <trkpt lat="44.63311" lon="-0.9787">
        <ele>51.199887</ele>
        <time>2022-12-25T12:05:18.359Z</time>
      </trkpt>
      <trkpt lat="44.63304" lon="-0.97885">
        <ele>51.146809</ele>
        <time>2022-12-25T12:05:21.373Z</time>
      </trkpt>
      <trkpt lat="44.63297" lon="-0.97901">
        <ele>51.093486</ele>
        <time>2022-12-25T12:05:24.368Z</time>
      </trkpt>
      <trkpt lat="44.63291" lon="-0.97915">
        <ele>51.04448</ele>
        <time>2022-12-25T12:05:27.372Z</time>
      </trkpt>
      <trkpt lat="44.63285" lon="-0.97928">
        <ele>50.99821</ele>
        <time>2022-12-25T12:05:30.371Z</time>
      </trkpt>
      <trkpt lat="44.63279" lon="-0.9794">
        <ele>50.956157</ele>
        <time>2022-12-25T12:05:33.379Z</time>
      </trkpt>
      <trkpt lat="44.63276" lon="-0.97952">
        <ele>50.918981</ele>
        <time>2022-12-25T12:05:36.356Z</time>
      </trkpt>
      <trkpt lat="44.63276" lon="-0.97966">
        <ele>50.879689</ele>
        <time>2022-12-25T12:05:40.360Z</time>
      </trkpt>
      <trkpt lat="44.6327" lon="-0.97978">
        <ele>50.834955</ele>
        <time>2022-12-25T12:05:45.356Z</time>
      </trkpt>
      <trkpt lat="44.6326" lon="-0.97988">
        <ele>50.785371</ele>
        <time>2022-12-25T12:05:49.352Z</time>
      </trkpt>
      <trkpt lat="44.63254" lon="-0.97998">
        <ele>50.743367</ele>
        <time>2022-12-25T12:05:52.357Z</time>
      </trkpt>
      <trkpt lat="44.63246" lon="-0.98011">
        <ele>50.696149</ele>
        <time>2022-12-25T12:05:55.369Z</time>
      </trkpt>
      <trkpt lat="44.63241" lon="-0.98025">
        <ele>50.652405</ele>
        <time>2022-12-25T12:05:58.353Z</time>
      </trkpt>
      <trkpt lat="44.63235" lon="-0.9804">
        <ele>50.61878</ele>
        <time>2022-12-25T12:06:01.374Z</time>
      </trkpt>
      <trkpt lat="44.63229" lon="-0.98055">
        <ele>50.584247</ele>
        <time>2022-12-25T12:06:04.369Z</time>
      </trkpt>
      <trkpt lat="44.63222" lon="-0.9807">
        <ele>50.550852</ele>
        <time>2022-12-25T12:06:07.374Z</time>
      </trkpt>
      <trkpt lat="44.63217" lon="-0.98081">
        <ele>50.525132</ele>
        <time>2022-12-25T12:06:09.374Z</time>
      </trkpt>
      <trkpt lat="44.63212" lon="-0.98092">
        <ele>50.498863</ele>
        <time>2022-12-25T12:06:11.371Z</time>
      </trkpt>
      <trkpt lat="44.63206" lon="-0.98104">
        <ele>50.473045</ele>
        <time>2022-12-25T12:06:13.379Z</time>
      </trkpt>
      <trkpt lat="44.63201" lon="-0.98115">
        <ele>50.447208</ele>
        <time>2022-12-25T12:06:15.372Z</time>
      </trkpt>
      <trkpt lat="44.63194" lon="-0.98132">
        <ele>50.408655</ele>
        <time>2022-12-25T12:06:18.376Z</time>
      </trkpt>
      <trkpt lat="44.63189" lon="-0.98144">
        <ele>50.380261</ele>
        <time>2022-12-25T12:06:20.369Z</time>
      </trkpt>
      <trkpt lat="44.63183" lon="-0.98155">
        <ele>50.354632</ele>
        <time>2022-12-25T12:06:22.370Z</time>
      </trkpt>
      <trkpt lat="44.63178" lon="-0.98168">
        <ele>50.326261</ele>
        <time>2022-12-25T12:06:24.366Z</time>
      </trkpt>
      <trkpt lat="44.63172" lon="-0.9818">
        <ele>50.297559</ele>
        <time>2022-12-25T12:06:26.364Z</time>
      </trkpt>
      <trkpt lat="44.63167" lon="-0.98193">
        <ele>50.269581</ele>
        <time>2022-12-25T12:06:28.373Z</time>
      </trkpt>
      <trkpt lat="44.63162" lon="-0.98204">
        <ele>50.243763</ele>
        <time>2022-12-25T12:06:30.369Z</time>
      </trkpt>
      <trkpt lat="44.63157" lon="-0.98215">
        <ele>50.217287</ele>
        <time>2022-12-25T12:06:32.365Z</time>
      </trkpt>
      <trkpt lat="44.63152" lon="-0.98227">
        <ele>50.191567</ele>
        <time>2022-12-25T12:06:34.352Z</time>
      </trkpt>
      <trkpt lat="44.63147" lon="-0.98238">
        <ele>50.162676</ele>
        <time>2022-12-25T12:06:36.372Z</time>
      </trkpt>
      <trkpt lat="44.63142" lon="-0.98249">
        <ele>50.10465</ele>
        <time>2022-12-25T12:06:38.371Z</time>
      </trkpt>
      <trkpt lat="44.63135" lon="-0.98264">
        <ele>50.027325</ele>
        <time>2022-12-25T12:06:41.374Z</time>
      </trkpt>
      <trkpt lat="44.6313" lon="-0.98275">
        <ele>49.972101</ele>
        <time>2022-12-25T12:06:43.372Z</time>
      </trkpt>
      <trkpt lat="44.63124" lon="-0.98289">
        <ele>49.902807</ele>
        <time>2022-12-25T12:06:46.375Z</time>
      </trkpt>
      <trkpt lat="44.63118" lon="-0.98302">
        <ele>49.832879</ele>
        <time>2022-12-25T12:06:49.372Z</time>
      </trkpt>
      <trkpt lat="44.63116" lon="-0.98315">
        <ele>49.773899</ele>
        <time>2022-12-25T12:06:52.352Z</time>
      </trkpt>
      <trkpt lat="44.6311" lon="-0.9833">
        <ele>49.70077</ele>
        <time>2022-12-25T12:06:56.359Z</time>
      </trkpt>
      <trkpt lat="44.63102" lon="-0.9834">
        <ele>49.633963</ele>
        <time>2022-12-25T12:06:59.357Z</time>
      </trkpt>
      <trkpt lat="44.63095" lon="-0.98354">
        <ele>49.563647</ele>
        <time>2022-12-25T12:07:02.351Z</time>
      </trkpt>
      <trkpt lat="44.63089" lon="-0.98369">
        <ele>49.486861</ele>
        <time>2022-12-25T12:07:05.362Z</time>
      </trkpt>
      <trkpt lat="44.63081" lon="-0.98384">
        <ele>49.404951</ele>
        <time>2022-12-25T12:07:08.373Z</time>
      </trkpt>
      <trkpt lat="44.63073" lon="-0.98399">
        <ele>49.324457</ele>
        <time>2022-12-25T12:07:11.369Z</time>
      </trkpt>
      <trkpt lat="44.63068" lon="-0.9841">
        <ele>49.268225</ele>
        <time>2022-12-25T12:07:13.369Z</time>
      </trkpt>
      <trkpt lat="44.63063" lon="-0.98421">
        <ele>49.210286</ele>
        <time>2022-12-25T12:07:15.370Z</time>
      </trkpt>
      <trkpt lat="44.63058" lon="-0.98432">
        <ele>49.151202</ele>
        <time>2022-12-25T12:07:17.373Z</time>
      </trkpt>
      <trkpt lat="44.63053" lon="-0.98444">
        <ele>49.094335</ele>
        <time>2022-12-25T12:07:19.377Z</time>
      </trkpt>
      <trkpt lat="44.63049" lon="-0.98455">
        <ele>49.153854</ele>
        <time>2022-12-25T12:07:21.369Z</time>
      </trkpt>
      <trkpt lat="44.63044" lon="-0.98466">
        <ele>49.290162</ele>
        <time>2022-12-25T12:07:23.377Z</time>
      </trkpt>
      <trkpt lat="44.63039" lon="-0.98478">
        <ele>49.424985</ele>
        <time>2022-12-25T12:07:25.371Z</time>
      </trkpt>
      <trkpt lat="44.63031" lon="-0.98493">
        <ele>49.621397</ele>
        <time>2022-12-25T12:07:28.371Z</time>
      </trkpt>
      <trkpt lat="44.63027" lon="-0.98504">
        <ele>49.751688</ele>
        <time>2022-12-25T12:07:30.362Z</time>
      </trkpt>
      <trkpt lat="44.63019" lon="-0.9852">
        <ele>49.942357</ele>
        <time>2022-12-25T12:07:33.379Z</time>
      </trkpt>
      <trkpt lat="44.63015" lon="-0.98531">
        <ele>50.073446</ele>
        <time>2022-12-25T12:07:35.373Z</time>
      </trkpt>
      <trkpt lat="44.63009" lon="-0.98546">
        <ele>50.258041</ele>
        <time>2022-12-25T12:07:38.372Z</time>
      </trkpt>
      <trkpt lat="44.63004" lon="-0.9856">
        <ele>50.413495</ele>
        <time>2022-12-25T12:07:41.366Z</time>
      </trkpt>
      <trkpt lat="44.62998" lon="-0.98573">
        <ele>50.576819</ele>
        <time>2022-12-25T12:07:44.353Z</time>
      </trkpt>
      <trkpt lat="44.62992" lon="-0.98587">
        <ele>50.741546</ele>
        <time>2022-12-25T12:07:47.372Z</time>
      </trkpt>
      <trkpt lat="44.62985" lon="-0.986">
        <ele>50.911923</ele>
        <time>2022-12-25T12:07:50.363Z</time>
      </trkpt>
      <trkpt lat="44.62978" lon="-0.98614">
        <ele>51.087346</ele>
        <time>2022-12-25T12:07:53.386Z</time>
      </trkpt>
      <trkpt lat="44.62972" lon="-0.98629">
        <ele>51.262634</ele>
        <time>2022-12-25T12:07:56.351Z</time>
      </trkpt>
      <trkpt lat="44.62966" lon="-0.98644">
        <ele>51.439272</ele>
        <time>2022-12-25T12:07:59.371Z</time>
      </trkpt>
      <trkpt lat="44.62959" lon="-0.98657">
        <ele>51.606432</ele>
        <time>2022-12-25T12:08:03.351Z</time>
      </trkpt>
      <trkpt lat="44.62953" lon="-0.98671">
        <ele>51.614313</ele>
        <time>2022-12-25T12:08:07.377Z</time>
      </trkpt>
      <trkpt lat="44.62947" lon="-0.98684">
        <ele>51.511703</ele>
        <time>2022-12-25T12:08:10.369Z</time>
      </trkpt>
      <trkpt lat="44.6294" lon="-0.98698">
        <ele>51.403901</ele>
        <time>2022-12-25T12:08:13.376Z</time>
      </trkpt>
      <trkpt lat="44.62933" lon="-0.98715">
        <ele>51.276366</ele>
        <time>2022-12-25T12:08:16.368Z</time>
      </trkpt>
      <trkpt lat="44.62928" lon="-0.98727">
        <ele>51.188045</ele>
        <time>2022-12-25T12:08:18.368Z</time>
      </trkpt>
      <trkpt lat="44.62923" lon="-0.98739">
        <ele>51.099509</ele>
        <time>2022-12-25T12:08:20.371Z</time>
      </trkpt>
      <trkpt lat="44.62918" lon="-0.98751">
        <ele>51.014041</ele>
        <time>2022-12-25T12:08:22.371Z</time>
      </trkpt>
      <trkpt lat="44.62912" lon="-0.98763">
        <ele>50.917538</ele>
        <time>2022-12-25T12:08:24.372Z</time>
      </trkpt>
      <trkpt lat="44.62906" lon="-0.98776">
        <ele>50.823794</ele>
        <time>2022-12-25T12:08:26.373Z</time>
      </trkpt>
      <trkpt lat="44.62899" lon="-0.98788">
        <ele>50.718891</ele>
        <time>2022-12-25T12:08:28.371Z</time>
      </trkpt>
      <trkpt lat="44.62893" lon="-0.98803">
        <ele>50.611029</ele>
        <time>2022-12-25T12:08:30.368Z</time>
      </trkpt>
      <trkpt lat="44.62887" lon="-0.98816">
        <ele>50.513908</ele>
        <time>2022-12-25T12:08:32.376Z</time>
      </trkpt>
      <trkpt lat="44.62881" lon="-0.98828">
        <ele>50.422728</ele>
        <time>2022-12-25T12:08:34.372Z</time>
      </trkpt>
      <trkpt lat="44.62875" lon="-0.98841">
        <ele>50.321112</ele>
        <time>2022-12-25T12:08:36.373Z</time>
      </trkpt>
      <trkpt lat="44.6287" lon="-0.98854">
        <ele>50.22569</ele>
        <time>2022-12-25T12:08:38.361Z</time>
      </trkpt>
      <trkpt lat="44.62863" lon="-0.98867">
        <ele>50.126203</ele>
        <time>2022-12-25T12:08:40.374Z</time>
      </trkpt>
      <trkpt lat="44.62857" lon="-0.98879">
        <ele>50.109987</ele>
        <time>2022-12-25T12:08:42.371Z</time>
      </trkpt>
      <trkpt lat="44.62852" lon="-0.98889">
        <ele>50.238073</ele>
        <time>2022-12-25T12:08:44.368Z</time>
      </trkpt>
      <trkpt lat="44.62848" lon="-0.98901">
        <ele>50.37363</ele>
        <time>2022-12-25T12:08:46.374Z</time>
      </trkpt>
      <trkpt lat="44.62843" lon="-0.98912">
        <ele>50.500779</ele>
        <time>2022-12-25T12:08:48.372Z</time>
      </trkpt>
      <trkpt lat="44.62836" lon="-0.98928">
        <ele>50.691207</ele>
        <time>2022-12-25T12:08:51.375Z</time>
      </trkpt>
      <trkpt lat="44.62829" lon="-0.98943">
        <ele>50.871645</ele>
        <time>2022-12-25T12:08:54.359Z</time>
      </trkpt>
      <trkpt lat="44.62824" lon="-0.98954">
        <ele>51.005048</ele>
        <time>2022-12-25T12:08:56.373Z</time>
      </trkpt>
      <trkpt lat="44.62819" lon="-0.98966">
        <ele>51.145648</ele>
        <time>2022-12-25T12:08:58.374Z</time>
      </trkpt>
      <trkpt lat="44.62813" lon="-0.98978">
        <ele>51.28932</ele>
        <time>2022-12-25T12:09:00.372Z</time>
      </trkpt>
      <trkpt lat="44.62809" lon="-0.98991">
        <ele>51.429551</ele>
        <time>2022-12-25T12:09:02.375Z</time>
      </trkpt>
      <trkpt lat="44.62804" lon="-0.99002">
        <ele>51.565115</ele>
        <time>2022-12-25T12:09:04.359Z</time>
      </trkpt>
      <trkpt lat="44.62798" lon="-0.99014">
        <ele>51.707936</ele>
        <time>2022-12-25T12:09:06.362Z</time>
      </trkpt>
      <trkpt lat="44.62792" lon="-0.99029">
        <ele>51.880323</ele>
        <time>2022-12-25T12:09:09.372Z</time>
      </trkpt>
      <trkpt lat="44.62785" lon="-0.99041">
        <ele>52.036878</ele>
        <time>2022-12-25T12:09:11.371Z</time>
      </trkpt>
      <trkpt lat="44.62778" lon="-0.99053">
        <ele>52.188513</ele>
        <time>2022-12-25T12:09:13.389Z</time>
      </trkpt>
      <trkpt lat="44.62773" lon="-0.99064">
        <ele>52.323116</ele>
        <time>2022-12-25T12:09:15.374Z</time>
      </trkpt>
      <trkpt lat="44.62769" lon="-0.99076">
        <ele>52.462892</ele>
        <time>2022-12-25T12:09:17.372Z</time>
      </trkpt>
      <trkpt lat="44.62763" lon="-0.9909">
        <ele>52.614035</ele>
        <time>2022-12-25T12:09:19.377Z</time>
      </trkpt>
      <trkpt lat="44.62757" lon="-0.99102">
        <ele>52.717441</ele>
        <time>2022-12-25T12:09:21.371Z</time>
      </trkpt>
      <trkpt lat="44.62753" lon="-0.99114">
        <ele>52.817707</ele>
        <time>2022-12-25T12:09:23.361Z</time>
      </trkpt>
      <trkpt lat="44.62748" lon="-0.99125">
        <ele>52.90995</ele>
        <time>2022-12-25T12:09:25.374Z</time>
      </trkpt>
      <trkpt lat="44.62742" lon="-0.99138">
        <ele>53.017887</ele>
        <time>2022-12-25T12:09:27.373Z</time>
      </trkpt>
      <trkpt lat="44.62737" lon="-0.9915">
        <ele>53.116914</ele>
        <time>2022-12-25T12:09:29.374Z</time>
      </trkpt>
      <trkpt lat="44.62732" lon="-0.99162">
        <ele>53.216945</ele>
        <time>2022-12-25T12:09:31.372Z</time>
      </trkpt>
      <trkpt lat="44.62725" lon="-0.99179">
        <ele>53.353804</ele>
        <time>2022-12-25T12:09:34.371Z</time>
      </trkpt>
      <trkpt lat="44.62718" lon="-0.99193">
        <ele>53.478469</ele>
        <time>2022-12-25T12:09:37.373Z</time>
      </trkpt>
      <trkpt lat="44.62713" lon="-0.99204">
        <ele>53.570617</ele>
        <time>2022-12-25T12:09:40.352Z</time>
      </trkpt>
      <trkpt lat="44.62707" lon="-0.99217">
        <ele>53.677903</ele>
        <time>2022-12-25T12:09:44.374Z</time>
      </trkpt>
      <trkpt lat="44.62701" lon="-0.99232">
        <ele>53.801906</ele>
        <time>2022-12-25T12:09:47.355Z</time>
      </trkpt>
      <trkpt lat="44.62695" lon="-0.99246">
        <ele>53.917385</ele>
        <time>2022-12-25T12:09:50.372Z</time>
      </trkpt>
      <trkpt lat="44.6269" lon="-0.99261">
        <ele>54.034563</ele>
        <time>2022-12-25T12:09:53.384Z</time>
      </trkpt>
      <trkpt lat="44.62685" lon="-0.99274">
        <ele>54.138471</ele>
        <time>2022-12-25T12:09:55.372Z</time>
      </trkpt>
      <trkpt lat="44.62681" lon="-0.99293">
        <ele>54.277082</ele>
        <time>2022-12-25T12:09:58.366Z</time>
      </trkpt>
      <trkpt lat="44.62679" lon="-0.99309">
        <ele>54.400741</ele>
        <time>2022-12-25T12:10:01.375Z</time>
      </trkpt>
      <trkpt lat="44.62677" lon="-0.99325">
        <ele>54.271104</ele>
        <time>2022-12-25T12:10:04.376Z</time>
      </trkpt>
      <trkpt lat="44.62676" lon="-0.99342">
        <ele>54.126555</ele>
        <time>2022-12-25T12:10:07.351Z</time>
      </trkpt>
      <trkpt lat="44.62675" lon="-0.99361">
        <ele>53.972299</ele>
        <time>2022-12-25T12:10:10.364Z</time>
      </trkpt>
      <trkpt lat="44.62673" lon="-0.99373">
        <ele>53.867585</ele>
        <time>2022-12-25T12:10:12.369Z</time>
      </trkpt>
      <trkpt lat="44.62671" lon="-0.99392">
        <ele>53.711733</ele>
        <time>2022-12-25T12:10:15.365Z</time>
      </trkpt>
      <trkpt lat="44.62669" lon="-0.99405">
        <ele>53.59902</ele>
        <time>2022-12-25T12:10:17.371Z</time>
      </trkpt>
      <trkpt lat="44.62668" lon="-0.99418">
        <ele>53.489545</ele>
        <time>2022-12-25T12:10:19.357Z</time>
      </trkpt>
      <trkpt lat="44.62666" lon="-0.99436">
        <ele>53.338802</ele>
        <time>2022-12-25T12:10:22.372Z</time>
      </trkpt>
      <trkpt lat="44.62665" lon="-0.99454">
        <ele>53.191649</ele>
        <time>2022-12-25T12:10:25.372Z</time>
      </trkpt>
      <trkpt lat="44.62663" lon="-0.99472">
        <ele>53.039449</ele>
        <time>2022-12-25T12:10:28.370Z</time>
      </trkpt>
      <trkpt lat="44.62661" lon="-0.9949">
        <ele>52.890712</ele>
        <time>2022-12-25T12:10:31.377Z</time>
      </trkpt>
      <trkpt lat="44.6266" lon="-0.99507">
        <ele>52.743559</ele>
        <time>2022-12-25T12:10:34.374Z</time>
      </trkpt>
      <trkpt lat="44.62658" lon="-0.99522">
        <ele>52.615325</ele>
        <time>2022-12-25T12:10:37.357Z</time>
      </trkpt>
      <trkpt lat="44.62656" lon="-0.9954">
        <ele>52.465103</ele>
        <time>2022-12-25T12:10:40.358Z</time>
      </trkpt>
      <trkpt lat="44.62655" lon="-0.99557">
        <ele>52.32868</ele>
        <time>2022-12-25T12:10:43.385Z</time>
      </trkpt>
      <trkpt lat="44.62654" lon="-0.99573">
        <ele>52.241313</ele>
        <time>2022-12-25T12:10:46.360Z</time>
      </trkpt>
      <trkpt lat="44.62653" lon="-0.99587">
        <ele>52.17312</ele>
        <time>2022-12-25T12:10:49.367Z</time>
      </trkpt>
      <trkpt lat="44.62651" lon="-0.99601">
        <ele>52.110675</ele>
        <time>2022-12-25T12:10:52.372Z</time>
      </trkpt>
      <trkpt lat="44.6265" lon="-0.99617">
        <ele>52.03233</ele>
        <time>2022-12-25T12:10:56.372Z</time>
      </trkpt>
      <trkpt lat="44.62648" lon="-0.9963">
        <ele>51.97254</ele>
        <time>2022-12-25T12:10:59.371Z</time>
      </trkpt>
      <trkpt lat="44.62646" lon="-0.99646">
        <ele>51.894351</ele>
        <time>2022-12-25T12:11:03.377Z</time>
      </trkpt>
      <trkpt lat="44.62645" lon="-0.99659">
        <ele>51.834426</ele>
        <time>2022-12-25T12:11:06.370Z</time>
      </trkpt>
      <trkpt lat="44.62642" lon="-0.99674">
        <ele>51.76029</ele>
        <time>2022-12-25T12:11:10.372Z</time>
      </trkpt>
      <trkpt lat="44.62641" lon="-0.99687">
        <ele>51.701072</ele>
        <time>2022-12-25T12:11:13.375Z</time>
      </trkpt>
      <trkpt lat="44.6264" lon="-0.99701">
        <ele>51.636951</ele>
        <time>2022-12-25T12:11:16.366Z</time>
      </trkpt>
      <trkpt lat="44.62639" lon="-0.99714">
        <ele>51.573775</ele>
        <time>2022-12-25T12:11:19.371Z</time>
      </trkpt>
      <trkpt lat="44.62637" lon="-0.99731">
        <ele>51.493579</ele>
        <time>2022-12-25T12:11:23.386Z</time>
      </trkpt>
      <trkpt lat="44.62636" lon="-0.99746">
        <ele>51.421981</ele>
        <time>2022-12-25T12:11:26.378Z</time>
      </trkpt>
      <trkpt lat="44.62635" lon="-0.99763">
        <ele>51.344675</ele>
        <time>2022-12-25T12:11:29.372Z</time>
      </trkpt>
      <trkpt lat="44.62635" lon="-0.99781">
        <ele>51.260578</ele>
        <time>2022-12-25T12:11:32.352Z</time>
      </trkpt>
      <trkpt lat="44.62634" lon="-0.99798">
        <ele>51.17908</ele>
        <time>2022-12-25T12:11:35.368Z</time>
      </trkpt>
      <trkpt lat="44.62632" lon="-0.99815">
        <ele>51.04864</ele>
        <time>2022-12-25T12:11:38.351Z</time>
      </trkpt>
      <trkpt lat="44.6263" lon="-0.99832">
        <ele>50.79772</ele>
        <time>2022-12-25T12:11:41.352Z</time>
      </trkpt>
      <trkpt lat="44.62629" lon="-0.99849">
        <ele>50.553044</ele>
        <time>2022-12-25T12:11:44.372Z</time>
      </trkpt>
      <trkpt lat="44.6263" lon="-0.99864">
        <ele>50.328359</ele>
        <time>2022-12-25T12:11:47.354Z</time>
      </trkpt>
      <trkpt lat="44.62634" lon="-0.9988">
        <ele>50.080615</ele>
        <time>2022-12-25T12:11:50.364Z</time>
      </trkpt>
      <trkpt lat="44.62642" lon="-0.99893">
        <ele>49.830139</ele>
        <time>2022-12-25T12:11:53.369Z</time>
      </trkpt>
      <trkpt lat="44.62648" lon="-0.99906">
        <ele>49.600173</ele>
        <time>2022-12-25T12:11:56.370Z</time>
      </trkpt>
      <trkpt lat="44.62651" lon="-0.99923">
        <ele>49.343439</ele>
        <time>2022-12-25T12:11:59.351Z</time>
      </trkpt>
      <trkpt lat="44.62652" lon="-0.99938">
        <ele>49.118373</ele>
        <time>2022-12-25T12:12:02.354Z</time>
      </trkpt>
      <trkpt lat="44.6265" lon="-0.99953">
        <ele>48.890282</ele>
        <time>2022-12-25T12:12:05.352Z</time>
      </trkpt>
      <trkpt lat="44.62645" lon="-0.9997">
        <ele>48.61823</ele>
        <time>2022-12-25T12:12:08.355Z</time>
      </trkpt>
      <trkpt lat="44.62639" lon="-0.99983">
        <ele>48.392908</ele>
        <time>2022-12-25T12:12:11.372Z</time>
      </trkpt>
      <trkpt lat="44.62635" lon="-0.99998">
        <ele>48.158785</ele>
        <time>2022-12-25T12:12:14.361Z</time>
      </trkpt>
      <trkpt lat="44.62628" lon="-1.00011">
        <ele>47.922342</ele>
        <time>2022-12-25T12:12:17.357Z</time>
      </trkpt>
      <trkpt lat="44.6262" lon="-1.00022">
        <ele>47.682654</ele>
        <time>2022-12-25T12:12:20.354Z</time>
      </trkpt>
      <trkpt lat="44.62614" lon="-1.00036">
        <ele>47.444501</ele>
        <time>2022-12-25T12:12:23.364Z</time>
      </trkpt>
      <trkpt lat="44.62612" lon="-1.00051">
        <ele>47.621676</ele>
        <time>2022-12-25T12:12:26.351Z</time>
      </trkpt>
      <trkpt lat="44.62609" lon="-1.00065">
        <ele>47.902332</ele>
        <time>2022-12-25T12:12:29.373Z</time>
      </trkpt>
      <trkpt lat="44.62605" lon="-1.00079">
        <ele>48.184804</ele>
        <time>2022-12-25T12:12:32.377Z</time>
      </trkpt>
      <trkpt lat="44.62603" lon="-1.00095">
        <ele>48.490712</ele>
        <time>2022-12-25T12:12:35.374Z</time>
      </trkpt>
      <trkpt lat="44.62601" lon="-1.00113">
        <ele>48.824876</ele>
        <time>2022-12-25T12:12:38.352Z</time>
      </trkpt>
      <trkpt lat="44.62599" lon="-1.00125">
        <ele>49.069901</ele>
        <time>2022-12-25T12:12:40.366Z</time>
      </trkpt>
      <trkpt lat="44.62596" lon="-1.00144">
        <ele>49.42042</ele>
        <time>2022-12-25T12:12:43.366Z</time>
      </trkpt>
      <trkpt lat="44.62594" lon="-1.0016">
        <ele>49.737205</ele>
        <time>2022-12-25T12:12:46.373Z</time>
      </trkpt>
      <trkpt lat="44.62593" lon="-1.00177">
        <ele>50.064679</ele>
        <time>2022-12-25T12:12:49.366Z</time>
      </trkpt>
      <trkpt lat="44.6259" lon="-1.00195">
        <ele>50.409478</ele>
        <time>2022-12-25T12:12:52.373Z</time>
      </trkpt>
      <trkpt lat="44.62588" lon="-1.00213">
        <ele>50.749198</ele>
        <time>2022-12-25T12:12:55.357Z</time>
      </trkpt>
      <trkpt lat="44.62586" lon="-1.00231">
        <ele>51.092283</ele>
        <time>2022-12-25T12:12:58.368Z</time>
      </trkpt>
      <trkpt lat="44.62584" lon="-1.00249">
        <ele>51.431517</ele>
        <time>2022-12-25T12:13:01.354Z</time>
      </trkpt>
      <trkpt lat="44.62582" lon="-1.00265">
        <ele>51.735142</ele>
        <time>2022-12-25T12:13:04.373Z</time>
      </trkpt>
      <trkpt lat="44.62582" lon="-1.0028">
        <ele>52.016866</ele>
        <time>2022-12-25T12:13:07.373Z</time>
      </trkpt>
      <trkpt lat="44.62581" lon="-1.00296">
        <ele>52.163058</ele>
        <time>2022-12-25T12:13:10.378Z</time>
      </trkpt>
      <trkpt lat="44.6258" lon="-1.00313">
        <ele>52.163059</ele>
        <time>2022-12-25T12:13:13.373Z</time>
      </trkpt>
      <trkpt lat="44.6258" lon="-1.00329">
        <ele>52.163061</ele>
        <time>2022-12-25T12:13:16.364Z</time>
      </trkpt>
      <trkpt lat="44.6258" lon="-1.00346">
        <ele>52.163062</ele>
        <time>2022-12-25T12:13:19.372Z</time>
      </trkpt>
      <trkpt lat="44.62581" lon="-1.0036">
        <ele>52.163064</ele>
        <time>2022-12-25T12:13:22.359Z</time>
      </trkpt>
      <trkpt lat="44.62581" lon="-1.00374">
        <ele>52.163065</ele>
        <time>2022-12-25T12:13:25.350Z</time>
      </trkpt>
      <trkpt lat="44.62583" lon="-1.00389">
        <ele>52.163066</ele>
        <time>2022-12-25T12:13:28.373Z</time>
      </trkpt>
      <trkpt lat="44.62587" lon="-1.00404">
        <ele>52.163068</ele>
        <time>2022-12-25T12:13:31.376Z</time>
      </trkpt>
      <trkpt lat="44.6259" lon="-1.00419">
        <ele>52.163069</ele>
        <time>2022-12-25T12:13:34.375Z</time>
      </trkpt>
      <trkpt lat="44.62594" lon="-1.00434">
        <ele>52.163071</ele>
        <time>2022-12-25T12:13:37.371Z</time>
      </trkpt>
      <trkpt lat="44.62597" lon="-1.00451">
        <ele>52.163073</ele>
        <time>2022-12-25T12:13:40.352Z</time>
      </trkpt>
      <trkpt lat="44.62602" lon="-1.00468">
        <ele>52.163074</ele>
        <time>2022-12-25T12:13:43.376Z</time>
      </trkpt>
      <trkpt lat="44.62608" lon="-1.00484">
        <ele>52.163076</ele>
        <time>2022-12-25T12:13:46.367Z</time>
      </trkpt>
      <trkpt lat="44.62612" lon="-1.00501">
        <ele>52.163078</ele>
        <time>2022-12-25T12:13:49.353Z</time>
      </trkpt>
      <trkpt lat="44.62614" lon="-1.00513">
        <ele>52.163079</ele>
        <time>2022-12-25T12:13:51.375Z</time>
      </trkpt>
      <trkpt lat="44.62618" lon="-1.00532">
        <ele>52.163045</ele>
        <time>2022-12-25T12:13:54.367Z</time>
      </trkpt>
      <trkpt lat="44.62621" lon="-1.00545">
        <ele>52.162378</ele>
        <time>2022-12-25T12:13:56.373Z</time>
      </trkpt>
      <trkpt lat="44.62624" lon="-1.00557">
        <ele>52.161709</ele>
        <time>2022-12-25T12:13:58.376Z</time>
      </trkpt>
      <trkpt lat="44.62628" lon="-1.0057">
        <ele>52.161025</ele>
        <time>2022-12-25T12:14:00.360Z</time>
      </trkpt>
      <trkpt lat="44.62632" lon="-1.00582">
        <ele>52.160354</ele>
        <time>2022-12-25T12:14:02.372Z</time>
      </trkpt>
      <trkpt lat="44.62636" lon="-1.00598">
        <ele>52.159487</ele>
        <time>2022-12-25T12:14:05.375Z</time>
      </trkpt>
      <trkpt lat="44.62641" lon="-1.0061">
        <ele>52.158816</ele>
        <time>2022-12-25T12:14:07.360Z</time>
      </trkpt>
      <trkpt lat="44.62646" lon="-1.00626">
        <ele>52.157912</ele>
        <time>2022-12-25T12:14:10.376Z</time>
      </trkpt>
      <trkpt lat="44.62649" lon="-1.00638">
        <ele>52.157272</ele>
        <time>2022-12-25T12:14:12.373Z</time>
      </trkpt>
      <trkpt lat="44.62653" lon="-1.00656">
        <ele>52.156363</ele>
        <time>2022-12-25T12:14:15.371Z</time>
      </trkpt>
      <trkpt lat="44.62656" lon="-1.00668">
        <ele>52.155709</ele>
        <time>2022-12-25T12:14:17.372Z</time>
      </trkpt>
      <trkpt lat="44.62658" lon="-1.00681">
        <ele>52.155027</ele>
        <time>2022-12-25T12:14:19.360Z</time>
      </trkpt>
      <trkpt lat="44.62661" lon="-1.00694">
        <ele>52.154369</ele>
        <time>2022-12-25T12:14:21.370Z</time>
      </trkpt>
      <trkpt lat="44.62664" lon="-1.00711">
        <ele>52.153491</ele>
        <time>2022-12-25T12:14:24.373Z</time>
      </trkpt>
      <trkpt lat="44.62669" lon="-1.00722">
        <ele>52.152833</ele>
        <time>2022-12-25T12:14:26.356Z</time>
      </trkpt>
      <trkpt lat="44.62672" lon="-1.00734">
        <ele>52.152165</ele>
        <time>2022-12-25T12:14:28.370Z</time>
      </trkpt>
      <trkpt lat="44.62676" lon="-1.00746">
        <ele>52.15152</ele>
        <time>2022-12-25T12:14:30.355Z</time>
      </trkpt>
      <trkpt lat="44.62682" lon="-1.00761">
        <ele>52.150663</ele>
        <time>2022-12-25T12:14:32.371Z</time>
      </trkpt>
      <trkpt lat="44.62687" lon="-1.00774">
        <ele>52.027871</ele>
        <time>2022-12-25T12:14:34.370Z</time>
      </trkpt>
      <trkpt lat="44.62691" lon="-1.00786">
        <ele>51.858139</ele>
        <time>2022-12-25T12:14:36.371Z</time>
      </trkpt>
      <trkpt lat="44.62694" lon="-1.00798">
        <ele>51.689197</ele>
        <time>2022-12-25T12:14:38.352Z</time>
      </trkpt>
      <trkpt lat="44.627" lon="-1.00815">
        <ele>51.453921</ele>
        <time>2022-12-25T12:14:41.371Z</time>
      </trkpt>
      <trkpt lat="44.62705" lon="-1.00831">
        <ele>51.231121</ele>
        <time>2022-12-25T12:14:44.368Z</time>
      </trkpt>
      <trkpt lat="44.62709" lon="-1.00846">
        <ele>51.026944</ele>
        <time>2022-12-25T12:14:47.368Z</time>
      </trkpt>
      <trkpt lat="44.62715" lon="-1.00861">
        <ele>50.811208</ele>
        <time>2022-12-25T12:14:50.352Z</time>
      </trkpt>
      <trkpt lat="44.6272" lon="-1.00874">
        <ele>50.616042</ele>
        <time>2022-12-25T12:14:53.371Z</time>
      </trkpt>
      <trkpt lat="44.62726" lon="-1.00889">
        <ele>50.404198</ele>
        <time>2022-12-25T12:14:56.373Z</time>
      </trkpt>
      <trkpt lat="44.62731" lon="-1.00904">
        <ele>50.189388</ele>
        <time>2022-12-25T12:14:59.373Z</time>
      </trkpt>
      <trkpt lat="44.62736" lon="-1.0092">
        <ele>49.964928</ele>
        <time>2022-12-25T12:15:02.367Z</time>
      </trkpt>
      <trkpt lat="44.62741" lon="-1.00936">
        <ele>49.7347</ele>
        <time>2022-12-25T12:15:05.357Z</time>
      </trkpt>
      <trkpt lat="44.62748" lon="-1.00955">
        <ele>49.469809</ele>
        <time>2022-12-25T12:15:08.372Z</time>
      </trkpt>
      <trkpt lat="44.62752" lon="-1.00966">
        <ele>49.305751</ele>
        <time>2022-12-25T12:15:10.372Z</time>
      </trkpt>
      <trkpt lat="44.62755" lon="-1.00978">
        <ele>49.142235</ele>
        <time>2022-12-25T12:15:12.373Z</time>
      </trkpt>
      <trkpt lat="44.62758" lon="-1.00991">
        <ele>48.967809</ele>
        <time>2022-12-25T12:15:14.374Z</time>
      </trkpt>
      <trkpt lat="44.62762" lon="-1.01008">
        <ele>48.931948</ele>
        <time>2022-12-25T12:15:17.356Z</time>
      </trkpt>
      <trkpt lat="44.62766" lon="-1.01024">
        <ele>48.952989</ele>
        <time>2022-12-25T12:15:20.366Z</time>
      </trkpt>
      <trkpt lat="44.6277" lon="-1.01039">
        <ele>48.972382</ele>
        <time>2022-12-25T12:15:23.376Z</time>
      </trkpt>
      <trkpt lat="44.62775" lon="-1.01053">
        <ele>48.992384</ele>
        <time>2022-12-25T12:15:27.358Z</time>
      </trkpt>
      <trkpt lat="44.62782" lon="-1.01063">
        <ele>49.010907</ele>
        <time>2022-12-25T12:15:31.370Z</time>
      </trkpt>
      <trkpt lat="44.62794" lon="-1.01061">
        <ele>49.031559</ele>
        <time>2022-12-25T12:15:35.373Z</time>
      </trkpt>
      <trkpt lat="44.62804" lon="-1.01056">
        <ele>49.050429</ele>
        <time>2022-12-25T12:15:38.355Z</time>
      </trkpt>
      <trkpt lat="44.62815" lon="-1.0105">
        <ele>49.071023</ele>
        <time>2022-12-25T12:15:41.375Z</time>
      </trkpt>
      <trkpt lat="44.62826" lon="-1.01044">
        <ele>49.091288</ele>
        <time>2022-12-25T12:15:44.372Z</time>
      </trkpt>
      <trkpt lat="44.62837" lon="-1.01033">
        <ele>49.114888</ele>
        <time>2022-12-25T12:15:47.360Z</time>
      </trkpt>
      <trkpt lat="44.62846" lon="-1.01023">
        <ele>49.134846</ele>
        <time>2022-12-25T12:15:49.365Z</time>
      </trkpt>
      <trkpt lat="44.62854" lon="-1.01014">
        <ele>49.153239</ele>
        <time>2022-12-25T12:15:51.349Z</time>
      </trkpt>
      <trkpt lat="44.62862" lon="-1.01007">
        <ele>49.169543</ele>
        <time>2022-12-25T12:15:53.384Z</time>
      </trkpt>
      <trkpt lat="44.62874" lon="-1.00998">
        <ele>49.192891</ele>
        <time>2022-12-25T12:15:56.362Z</time>
      </trkpt>
      <trkpt lat="44.62882" lon="-1.00992">
        <ele>49.209509</ele>
        <time>2022-12-25T12:15:58.353Z</time>
      </trkpt>
      <trkpt lat="44.62894" lon="-1.00986">
        <ele>49.235315</ele>
        <time>2022-12-25T12:16:01.360Z</time>
      </trkpt>
      <trkpt lat="44.62907" lon="-1.00983">
        <ele>49.312226</ele>
        <time>2022-12-25T12:16:04.354Z</time>
      </trkpt>
      <trkpt lat="44.62917" lon="-1.00982">
        <ele>49.377081</ele>
        <time>2022-12-25T12:16:07.372Z</time>
      </trkpt>
      <trkpt lat="44.62927" lon="-1.00982">
        <ele>49.433693</ele>
        <time>2022-12-25T12:16:10.364Z</time>
      </trkpt>
      <trkpt lat="44.62937" lon="-1.00983">
        <ele>49.494732</ele>
        <time>2022-12-25T12:16:13.386Z</time>
      </trkpt>
      <trkpt lat="44.62949" lon="-1.00983">
        <ele>49.569962</ele>
        <time>2022-12-25T12:16:16.371Z</time>
      </trkpt>
      <trkpt lat="44.62959" lon="-1.00984">
        <ele>49.62715</ele>
        <time>2022-12-25T12:16:18.354Z</time>
      </trkpt>
      <trkpt lat="44.62973" lon="-1.00984">
        <ele>49.71206</ele>
        <time>2022-12-25T12:16:21.352Z</time>
      </trkpt>
      <trkpt lat="44.62983" lon="-1.00982">
        <ele>49.77245</ele>
        <time>2022-12-25T12:16:23.358Z</time>
      </trkpt>
      <trkpt lat="44.62995" lon="-1.00978">
        <ele>49.850384</ele>
        <time>2022-12-25T12:16:26.362Z</time>
      </trkpt>
      <trkpt lat="44.63005" lon="-1.0097">
        <ele>49.917198</ele>
        <time>2022-12-25T12:16:29.360Z</time>
      </trkpt>
      <trkpt lat="44.63014" lon="-1.00959">
        <ele>49.985579</ele>
        <time>2022-12-25T12:16:32.354Z</time>
      </trkpt>
      <trkpt lat="44.63021" lon="-1.00947">
        <ele>50.057753</ele>
        <time>2022-12-25T12:16:35.349Z</time>
      </trkpt>
      <trkpt lat="44.6303" lon="-1.00934">
        <ele>50.135321</ele>
        <time>2022-12-25T12:16:38.369Z</time>
      </trkpt>
      <trkpt lat="44.63039" lon="-1.0092">
        <ele>50.216308</ele>
        <time>2022-12-25T12:16:41.375Z</time>
      </trkpt>
      <trkpt lat="44.63047" lon="-1.00911">
        <ele>50.276585</ele>
        <time>2022-12-25T12:16:43.352Z</time>
      </trkpt>
      <trkpt lat="44.63056" lon="-1.00904">
        <ele>50.300188</ele>
        <time>2022-12-25T12:16:45.357Z</time>
      </trkpt>
      <trkpt lat="44.63064" lon="-1.00897">
        <ele>50.272473</ele>
        <time>2022-12-25T12:16:47.357Z</time>
      </trkpt>
      <trkpt lat="44.63071" lon="-1.0089">
        <ele>50.244616</ele>
        <time>2022-12-25T12:16:49.372Z</time>
      </trkpt>
      <trkpt lat="44.6308" lon="-1.00882">
        <ele>50.213653</ele>
        <time>2022-12-25T12:16:51.368Z</time>
      </trkpt>
      <trkpt lat="44.63088" lon="-1.00873">
        <ele>50.182555</ele>
        <time>2022-12-25T12:16:53.359Z</time>
      </trkpt>
      <trkpt lat="44.63096" lon="-1.00865">
        <ele>50.151328</ele>
        <time>2022-12-25T12:16:55.367Z</time>
      </trkpt>
      <trkpt lat="44.63104" lon="-1.00857">
        <ele>50.121026</ele>
        <time>2022-12-25T12:16:57.374Z</time>
      </trkpt>
      <trkpt lat="44.63111" lon="-1.00848">
        <ele>50.092395</ele>
        <time>2022-12-25T12:16:59.356Z</time>
      </trkpt>
      <trkpt lat="44.63122" lon="-1.00838">
        <ele>50.053267</ele>
        <time>2022-12-25T12:17:02.370Z</time>
      </trkpt>
      <trkpt lat="44.63133" lon="-1.00831">
        <ele>50.017099</ele>
        <time>2022-12-25T12:17:05.361Z</time>
      </trkpt>
      <trkpt lat="44.63144" lon="-1.00827">
        <ele>49.98144</ele>
        <time>2022-12-25T12:17:08.353Z</time>
      </trkpt>
      <trkpt lat="44.63155" lon="-1.00826">
        <ele>49.949725</ele>
        <time>2022-12-25T12:17:12.366Z</time>
      </trkpt>
      <trkpt lat="44.63167" lon="-1.00826">
        <ele>49.91295</ele>
        <time>2022-12-25T12:17:16.357Z</time>
      </trkpt>
      <trkpt lat="44.63176" lon="-1.00826">
        <ele>49.884048</ele>
        <time>2022-12-25T12:17:18.360Z</time>
      </trkpt>
      <trkpt lat="44.63189" lon="-1.00828">
        <ele>49.845485</ele>
        <time>2022-12-25T12:17:21.372Z</time>
      </trkpt>
      <trkpt lat="44.632" lon="-1.00829">
        <ele>49.81077</ele>
        <time>2022-12-25T12:17:24.352Z</time>
      </trkpt>
      <trkpt lat="44.63212" lon="-1.00828">
        <ele>49.774458</ele>
        <time>2022-12-25T12:17:27.355Z</time>
      </trkpt>
      <trkpt lat="44.63225" lon="-1.00828">
        <ele>49.482872</ele>
        <time>2022-12-25T12:17:30.353Z</time>
      </trkpt>
      <trkpt lat="44.63235" lon="-1.0083">
        <ele>49.192354</ele>
        <time>2022-12-25T12:17:32.354Z</time>
      </trkpt>
      <trkpt lat="44.63244" lon="-1.00834">
        <ele>48.928648</ele>
        <time>2022-12-25T12:17:34.354Z</time>
      </trkpt>
      <trkpt lat="44.63254" lon="-1.00837">
        <ele>48.632271</ele>
        <time>2022-12-25T12:17:36.373Z</time>
      </trkpt>
      <trkpt lat="44.63266" lon="-1.00842">
        <ele>48.30779</ele>
        <time>2022-12-25T12:17:38.349Z</time>
      </trkpt>
      <trkpt lat="44.63276" lon="-1.0085">
        <ele>47.968711</ele>
        <time>2022-12-25T12:17:41.366Z</time>
      </trkpt>
      <trkpt lat="44.63285" lon="-1.00854">
        <ele>47.710788</ele>
        <time>2022-12-25T12:17:43.386Z</time>
      </trkpt>
      <trkpt lat="44.63296" lon="-1.0086">
        <ele>47.383727</ele>
        <time>2022-12-25T12:17:46.373Z</time>
      </trkpt>
      <trkpt lat="44.63307" lon="-1.00866">
        <ele>47.055266</ele>
        <time>2022-12-25T12:17:49.362Z</time>
      </trkpt>
      <trkpt lat="44.63317" lon="-1.0087">
        <ele>46.746146</ele>
        <time>2022-12-25T12:17:52.371Z</time>
      </trkpt>
      <trkpt lat="44.63327" lon="-1.00879">
        <ele>46.410183</ele>
        <time>2022-12-25T12:17:55.358Z</time>
      </trkpt>
      <trkpt lat="44.63329" lon="-1.00894">
        <ele>46.111956</ele>
        <time>2022-12-25T12:17:58.360Z</time>
      </trkpt>
      <trkpt lat="44.63328" lon="-1.00908">
        <ele>45.83097</ele>
        <time>2022-12-25T12:18:00.358Z</time>
      </trkpt>
      <trkpt lat="44.6333" lon="-1.00926">
        <ele>45.4735</ele>
        <time>2022-12-25T12:18:03.374Z</time>
      </trkpt>
      <trkpt lat="44.63331" lon="-1.00944">
        <ele>45.108064</ele>
        <time>2022-12-25T12:18:06.373Z</time>
      </trkpt>
      <trkpt lat="44.63334" lon="-1.00957">
        <ele>44.827184</ele>
        <time>2022-12-25T12:18:09.362Z</time>
      </trkpt>
      <trkpt lat="44.63339" lon="-1.0097">
        <ele>44.530627</ele>
        <time>2022-12-25T12:18:13.374Z</time>
      </trkpt>
      <trkpt lat="44.63349" lon="-1.00977">
        <ele>44.214846</ele>
        <time>2022-12-25T12:18:17.368Z</time>
      </trkpt>
      <trkpt lat="44.63358" lon="-1.00985">
        <ele>43.896511</ele>
        <time>2022-12-25T12:18:20.359Z</time>
      </trkpt>
      <trkpt lat="44.63366" lon="-1.0099">
        <ele>43.624979</ele>
        <time>2022-12-25T12:18:23.364Z</time>
      </trkpt>
      <trkpt lat="44.63375" lon="-1.00997">
        <ele>43.339637</ele>
        <time>2022-12-25T12:18:28.365Z</time>
      </trkpt>
      <trkpt lat="44.63385" lon="-1.01004">
        <ele>43.009993</ele>
        <time>2022-12-25T12:18:31.362Z</time>
      </trkpt>
      <trkpt lat="44.63394" lon="-1.01011">
        <ele>42.701421</ele>
        <time>2022-12-25T12:18:34.372Z</time>
      </trkpt>
      <trkpt lat="44.63398" lon="-1.01024">
        <ele>42.394288</ele>
        <time>2022-12-25T12:18:37.352Z</time>
      </trkpt>
      <trkpt lat="44.63399" lon="-1.01039">
        <ele>42.069472</ele>
        <time>2022-12-25T12:18:40.353Z</time>
      </trkpt>
      <trkpt lat="44.63401" lon="-1.01054">
        <ele>41.754692</ele>
        <time>2022-12-25T12:18:43.374Z</time>
      </trkpt>
      <trkpt lat="44.63402" lon="-1.01069">
        <ele>41.435626</ele>
        <time>2022-12-25T12:18:46.373Z</time>
      </trkpt>
      <trkpt lat="44.63404" lon="-1.01087">
        <ele>41.05038</ele>
        <time>2022-12-25T12:18:49.354Z</time>
      </trkpt>
      <trkpt lat="44.63404" lon="-1.01105">
        <ele>40.675004</ele>
        <time>2022-12-25T12:18:52.374Z</time>
      </trkpt>
      <trkpt lat="44.63405" lon="-1.01123">
        <ele>40.288299</ele>
        <time>2022-12-25T12:18:55.380Z</time>
      </trkpt>
      <trkpt lat="44.63407" lon="-1.01137">
        <ele>39.99936</ele>
        <time>2022-12-25T12:18:57.364Z</time>
      </trkpt>
      <trkpt lat="44.63408" lon="-1.0115">
        <ele>39.730362</ele>
        <time>2022-12-25T12:18:59.358Z</time>
      </trkpt>
      <trkpt lat="44.6341" lon="-1.01165">
        <ele>39.410056</ele>
        <time>2022-12-25T12:19:01.355Z</time>
      </trkpt>
      <trkpt lat="44.63412" lon="-1.01178">
        <ele>39.624366</ele>
        <time>2022-12-25T12:19:03.385Z</time>
      </trkpt>
      <trkpt lat="44.63414" lon="-1.01193">
        <ele>39.939457</ele>
        <time>2022-12-25T12:19:05.362Z</time>
      </trkpt>
      <trkpt lat="44.63414" lon="-1.01208">
        <ele>40.262772</ele>
        <time>2022-12-25T12:19:07.363Z</time>
      </trkpt>
      <trkpt lat="44.63415" lon="-1.01221">
        <ele>40.531535</ele>
        <time>2022-12-25T12:19:09.368Z</time>
      </trkpt>
      <trkpt lat="44.63415" lon="-1.01239">
        <ele>40.906617</ele>
        <time>2022-12-25T12:19:12.374Z</time>
      </trkpt>
      <trkpt lat="44.63418" lon="-1.01252">
        <ele>41.190961</ele>
        <time>2022-12-25T12:19:15.354Z</time>
      </trkpt>
      <trkpt lat="44.63419" lon="-1.01266">
        <ele>41.494723</ele>
        <time>2022-12-25T12:19:18.353Z</time>
      </trkpt>
      <trkpt lat="44.63422" lon="-1.01284">
        <ele>41.870531</ele>
        <time>2022-12-25T12:19:21.371Z</time>
      </trkpt>
      <trkpt lat="44.63426" lon="-1.01301">
        <ele>42.248175</ele>
        <time>2022-12-25T12:19:24.376Z</time>
      </trkpt>
      <trkpt lat="44.63428" lon="-1.01317">
        <ele>42.602252</ele>
        <time>2022-12-25T12:19:27.367Z</time>
      </trkpt>
      <trkpt lat="44.63431" lon="-1.01335">
        <ele>42.979769</ele>
        <time>2022-12-25T12:19:30.369Z</time>
      </trkpt>
      <trkpt lat="44.63434" lon="-1.01353">
        <ele>43.369145</ele>
        <time>2022-12-25T12:19:33.373Z</time>
      </trkpt>
      <trkpt lat="44.63438" lon="-1.01368">
        <ele>43.7138</ele>
        <time>2022-12-25T12:19:36.355Z</time>
      </trkpt>
      <trkpt lat="44.63442" lon="-1.01384">
        <ele>44.056508</ele>
        <time>2022-12-25T12:19:39.373Z</time>
      </trkpt>
      <trkpt lat="44.63446" lon="-1.01398">
        <ele>44.368487</ele>
        <time>2022-12-25T12:19:42.373Z</time>
      </trkpt>
      <trkpt lat="44.6345" lon="-1.01412">
        <ele>44.682892</ele>
        <time>2022-12-25T12:19:45.372Z</time>
      </trkpt>
      <trkpt lat="44.63455" lon="-1.01426">
        <ele>44.900842</ele>
        <time>2022-12-25T12:19:48.373Z</time>
      </trkpt>
      <trkpt lat="44.63456" lon="-1.01441">
        <ele>45.107665</ele>
        <time>2022-12-25T12:19:51.354Z</time>
      </trkpt>
      <trkpt lat="44.63457" lon="-1.01457">
        <ele>45.330432</ele>
        <time>2022-12-25T12:19:54.351Z</time>
      </trkpt>
      <trkpt lat="44.6346" lon="-1.01474">
        <ele>45.565538</ele>
        <time>2022-12-25T12:19:57.373Z</time>
      </trkpt>
      <trkpt lat="44.63463" lon="-1.01492">
        <ele>45.810463</ele>
        <time>2022-12-25T12:20:00.361Z</time>
      </trkpt>
      <trkpt lat="44.63465" lon="-1.0151">
        <ele>46.064884</ele>
        <time>2022-12-25T12:20:03.373Z</time>
      </trkpt>
      <trkpt lat="44.63467" lon="-1.01528">
        <ele>46.313697</ele>
        <time>2022-12-25T12:20:06.370Z</time>
      </trkpt>
      <trkpt lat="44.63471" lon="-1.01543">
        <ele>46.52968</ele>
        <time>2022-12-25T12:20:09.373Z</time>
      </trkpt>
      <trkpt lat="44.63472" lon="-1.01561">
        <ele>46.777047</ele>
        <time>2022-12-25T12:20:12.352Z</time>
      </trkpt>
      <trkpt lat="44.63472" lon="-1.01579">
        <ele>47.022317</ele>
        <time>2022-12-25T12:20:15.364Z</time>
      </trkpt>
      <trkpt lat="44.6347" lon="-1.01595">
        <ele>47.243665</ele>
        <time>2022-12-25T12:20:18.379Z</time>
      </trkpt>
      <trkpt lat="44.63466" lon="-1.01609">
        <ele>47.449429</ele>
        <time>2022-12-25T12:20:21.354Z</time>
      </trkpt>
      <trkpt lat="44.63462" lon="-1.01625">
        <ele>47.675482</ele>
        <time>2022-12-25T12:20:24.371Z</time>
      </trkpt>
      <trkpt lat="44.63459" lon="-1.01642">
        <ele>47.909327</ele>
        <time>2022-12-25T12:20:27.373Z</time>
      </trkpt>
      <trkpt lat="44.63455" lon="-1.01659">
        <ele>48.105973</ele>
        <time>2022-12-25T12:20:30.357Z</time>
      </trkpt>
      <trkpt lat="44.63452" lon="-1.01675">
        <ele>48.050634</ele>
        <time>2022-12-25T12:20:33.375Z</time>
      </trkpt>
      <trkpt lat="44.6345" lon="-1.0169">
        <ele>47.998088</ele>
        <time>2022-12-25T12:20:36.372Z</time>
      </trkpt>
      <trkpt lat="44.63448" lon="-1.01705">
        <ele>47.950151</ele>
        <time>2022-12-25T12:20:39.378Z</time>
      </trkpt>
      <trkpt lat="44.63446" lon="-1.0172">
        <ele>47.900978</ele>
        <time>2022-12-25T12:20:42.373Z</time>
      </trkpt>
      <trkpt lat="44.63445" lon="-1.01736">
        <ele>47.847952</ele>
        <time>2022-12-25T12:20:45.374Z</time>
      </trkpt>
      <trkpt lat="44.63445" lon="-1.01751">
        <ele>47.797288</ele>
        <time>2022-12-25T12:20:48.358Z</time>
      </trkpt>
      <trkpt lat="44.63445" lon="-1.01766">
        <ele>47.746885</ele>
        <time>2022-12-25T12:20:51.364Z</time>
      </trkpt>
      <trkpt lat="44.63442" lon="-1.01781">
        <ele>47.696512</ele>
        <time>2022-12-25T12:20:54.355Z</time>
      </trkpt>
      <trkpt lat="44.63438" lon="-1.01794">
        <ele>47.649358</ele>
        <time>2022-12-25T12:20:57.369Z</time>
      </trkpt>
      <trkpt lat="44.63432" lon="-1.01808">
        <ele>47.597246</ele>
        <time>2022-12-25T12:21:00.373Z</time>
      </trkpt>
      <trkpt lat="44.63425" lon="-1.0182">
        <ele>47.544924</ele>
        <time>2022-12-25T12:21:03.379Z</time>
      </trkpt>
      <trkpt lat="44.63416" lon="-1.01828">
        <ele>47.495307</ele>
        <time>2022-12-25T12:21:06.363Z</time>
      </trkpt>
      <trkpt lat="44.63405" lon="-1.01833">
        <ele>47.441906</ele>
        <time>2022-12-25T12:21:09.365Z</time>
      </trkpt>
      <trkpt lat="44.63394" lon="-1.01838">
        <ele>47.385864</ele>
        <time>2022-12-25T12:21:12.361Z</time>
      </trkpt>
      <trkpt lat="44.63384" lon="-1.01843">
        <ele>47.339633</ele>
        <time>2022-12-25T12:21:15.353Z</time>
      </trkpt>
      <trkpt lat="44.63374" lon="-1.0185">
        <ele>47.28842</ele>
        <time>2022-12-25T12:21:19.372Z</time>
      </trkpt>
      <trkpt lat="44.63366" lon="-1.01855">
        <ele>47.419422</ele>
        <time>2022-12-25T12:21:22.371Z</time>
      </trkpt>
      <trkpt lat="44.63356" lon="-1.0186">
        <ele>47.58532</ele>
        <time>2022-12-25T12:21:25.354Z</time>
      </trkpt>
      <trkpt lat="44.63346" lon="-1.01866">
        <ele>47.769753</ele>
        <time>2022-12-25T12:21:28.375Z</time>
      </trkpt>
      <trkpt lat="44.63337" lon="-1.01869">
        <ele>47.928728</ele>
        <time>2022-12-25T12:21:31.359Z</time>
      </trkpt>
      <trkpt lat="44.63328" lon="-1.01876">
        <ele>48.10042</ele>
        <time>2022-12-25T12:21:34.365Z</time>
      </trkpt>
      <trkpt lat="44.63321" lon="-1.01884">
        <ele>48.251496</ele>
        <time>2022-12-25T12:21:36.372Z</time>
      </trkpt>
      <trkpt lat="44.6331" lon="-1.01895">
        <ele>48.466208</ele>
        <time>2022-12-25T12:21:39.371Z</time>
      </trkpt>
      <trkpt lat="44.63301" lon="-1.01905">
        <ele>48.662032</ele>
        <time>2022-12-25T12:21:42.377Z</time>
      </trkpt>
      <trkpt lat="44.63292" lon="-1.01916">
        <ele>48.856582</ele>
        <time>2022-12-25T12:21:45.376Z</time>
      </trkpt>
      <trkpt lat="44.63286" lon="-1.01926">
        <ele>49.015819</ele>
        <time>2022-12-25T12:21:48.373Z</time>
      </trkpt>
      <trkpt lat="44.6328" lon="-1.0194">
        <ele>49.209438</ele>
        <time>2022-12-25T12:21:52.376Z</time>
      </trkpt>
      <trkpt lat="44.63275" lon="-1.01954">
        <ele>49.391897</ele>
        <time>2022-12-25T12:21:57.374Z</time>
      </trkpt>
      <trkpt lat="44.6327" lon="-1.01968">
        <ele>49.584728</ele>
        <time>2022-12-25T12:22:01.371Z</time>
      </trkpt>
      <trkpt lat="44.63264" lon="-1.01978">
        <ele>49.739278</ele>
        <time>2022-12-25T12:22:04.356Z</time>
      </trkpt>
      <trkpt lat="44.63255" lon="-1.01986">
        <ele>49.911054</ele>
        <time>2022-12-25T12:22:08.365Z</time>
      </trkpt>
      <trkpt lat="44.63246" lon="-1.01994">
        <ele>50.088959</ele>
        <time>2022-12-25T12:22:12.373Z</time>
      </trkpt>
      <trkpt lat="44.63231" lon="-1.02">
        <ele>50.289982</ele>
        <time>2022-12-25T12:26:36.384Z</time>
      </trkpt>
      <trkpt lat="44.63221" lon="-1.02003">
        <ele>50.311673</ele>
        <time>2022-12-25T12:26:43.373Z</time>
      </trkpt>
      <trkpt lat="44.63217" lon="-1.02015">
        <ele>50.331837</ele>
        <time>2022-12-25T12:26:48.360Z</time>
      </trkpt>
      <trkpt lat="44.63207" lon="-1.02021">
        <ele>50.357583</ele>
        <time>2022-12-25T12:26:53.370Z</time>
      </trkpt>
      <trkpt lat="44.63196" lon="-1.02026">
        <ele>50.382229</ele>
        <time>2022-12-25T12:26:58.361Z</time>
      </trkpt>
      <trkpt lat="44.63187" lon="-1.02033">
        <ele>50.405218</ele>
        <time>2022-12-25T12:27:02.359Z</time>
      </trkpt>
      <trkpt lat="44.63177" lon="-1.02039">
        <ele>50.427941</ele>
        <time>2022-12-25T12:27:06.359Z</time>
      </trkpt>
      <trkpt lat="44.63169" lon="-1.02048">
        <ele>50.451019</ele>
        <time>2022-12-25T12:27:11.360Z</time>
      </trkpt>
      <trkpt lat="44.63159" lon="-1.02054">
        <ele>50.47636</ele>
        <time>2022-12-25T12:27:15.359Z</time>
      </trkpt>
      <trkpt lat="44.63148" lon="-1.02061">
        <ele>50.502028</ele>
        <time>2022-12-25T12:27:19.367Z</time>
      </trkpt>
      <trkpt lat="44.63138" lon="-1.02068">
        <ele>50.527031</ele>
        <time>2022-12-25T12:27:23.385Z</time>
      </trkpt>
      <trkpt lat="44.6313" lon="-1.02074">
        <ele>50.547702</ele>
        <time>2022-12-25T12:27:26.362Z</time>
      </trkpt>
      <trkpt lat="44.63121" lon="-1.0208">
        <ele>50.568121</ele>
        <time>2022-12-25T12:27:29.361Z</time>
      </trkpt>
      <trkpt lat="44.6311" lon="-1.02079">
        <ele>50.59222</ele>
        <time>2022-12-25T12:27:33.371Z</time>
      </trkpt>
      <trkpt lat="44.63099" lon="-1.02084">
        <ele>50.618007</ele>
        <time>2022-12-25T12:27:37.368Z</time>
      </trkpt>
      <trkpt lat="44.6309" lon="-1.02094">
        <ele>50.643858</ele>
        <time>2022-12-25T12:27:41.366Z</time>
      </trkpt>
      <trkpt lat="44.6308" lon="-1.021">
        <ele>50.668292</ele>
        <time>2022-12-25T12:27:45.372Z</time>
      </trkpt>
      <trkpt lat="44.63072" lon="-1.02106">
        <ele>50.674746</ele>
        <time>2022-12-25T12:27:48.356Z</time>
      </trkpt>
      <trkpt lat="44.63062" lon="-1.02113">
        <ele>50.66982</ele>
        <time>2022-12-25T12:27:52.358Z</time>
      </trkpt>
      <trkpt lat="44.63052" lon="-1.0212">
        <ele>50.665006</ele>
        <time>2022-12-25T12:27:56.354Z</time>
      </trkpt>
      <trkpt lat="44.63042" lon="-1.02129">
        <ele>50.659726</ele>
        <time>2022-12-25T12:28:00.356Z</time>
      </trkpt>
      <trkpt lat="44.63031" lon="-1.02136">
        <ele>50.654606</ele>
        <time>2022-12-25T12:28:04.362Z</time>
      </trkpt>
      <trkpt lat="44.6302" lon="-1.02143">
        <ele>50.649406</ele>
        <time>2022-12-25T12:28:08.365Z</time>
      </trkpt>
      <trkpt lat="44.63012" lon="-1.02149">
        <ele>50.645387</ele>
        <time>2022-12-25T12:28:14.369Z</time>
      </trkpt>
      <trkpt lat="44.63" lon="-1.02156">
        <ele>50.639678</ele>
        <time>2022-12-25T12:35:49.388Z</time>
      </trkpt>
      <trkpt lat="44.62993" lon="-1.02164">
        <ele>50.635719</ele>
        <time>2022-12-25T12:35:54.360Z</time>
      </trkpt>
      <trkpt lat="44.62984" lon="-1.02171">
        <ele>50.631213</ele>
        <time>2022-12-25T12:36:00.367Z</time>
      </trkpt>
      <trkpt lat="44.62974" lon="-1.02177">
        <ele>50.626302</ele>
        <time>2022-12-25T12:36:06.364Z</time>
      </trkpt>
      <trkpt lat="44.62963" lon="-1.02182">
        <ele>50.621213</ele>
        <time>2022-12-25T12:36:10.365Z</time>
      </trkpt>
      <trkpt lat="44.62954" lon="-1.02186">
        <ele>50.617254</ele>
        <time>2022-12-25T12:36:13.372Z</time>
      </trkpt>
      <trkpt lat="44.62945" lon="-1.02189">
        <ele>50.61321</ele>
        <time>2022-12-25T12:36:16.352Z</time>
      </trkpt>
      <trkpt lat="44.62936" lon="-1.02192">
        <ele>50.608988</ele>
        <time>2022-12-25T12:36:19.374Z</time>
      </trkpt>
      <trkpt lat="44.62926" lon="-1.02195">
        <ele>50.604611</ele>
        <time>2022-12-25T12:36:22.359Z</time>
      </trkpt>
      <trkpt lat="44.62917" lon="-1.02198">
        <ele>50.600217</ele>
        <time>2022-12-25T12:36:25.374Z</time>
      </trkpt>
      <trkpt lat="44.62906" lon="-1.02201">
        <ele>50.574716</ele>
        <time>2022-12-25T12:36:28.367Z</time>
      </trkpt>
      <trkpt lat="44.62897" lon="-1.02203">
        <ele>50.534963</ele>
        <time>2022-12-25T12:36:31.362Z</time>
      </trkpt>
      <trkpt lat="44.62888" lon="-1.02205">
        <ele>50.49437</ele>
        <time>2022-12-25T12:36:34.363Z</time>
      </trkpt>
      <trkpt lat="44.62878" lon="-1.02207">
        <ele>50.452345</ele>
        <time>2022-12-25T12:36:37.361Z</time>
      </trkpt>
      <trkpt lat="44.62867" lon="-1.02209">
        <ele>50.407895</ele>
        <time>2022-12-25T12:36:40.369Z</time>
      </trkpt>
      <trkpt lat="44.62858" lon="-1.02213">
        <ele>50.365001</ele>
        <time>2022-12-25T12:36:43.373Z</time>
      </trkpt>
      <trkpt lat="44.62848" lon="-1.02217">
        <ele>50.321787</ele>
        <time>2022-12-25T12:36:46.373Z</time>
      </trkpt>
      <trkpt lat="44.62838" lon="-1.02221">
        <ele>50.278407</ele>
        <time>2022-12-25T12:36:49.362Z</time>
      </trkpt>
      <trkpt lat="44.62829" lon="-1.02225">
        <ele>50.239453</ele>
        <time>2022-12-25T12:36:52.365Z</time>
      </trkpt>
      <trkpt lat="44.62816" lon="-1.02233">
        <ele>50.176299</ele>
        <time>2022-12-25T12:37:29.358Z</time>
      </trkpt>
      <trkpt lat="44.62806" lon="-1.02241">
        <ele>50.128203</ele>
        <time>2022-12-25T12:37:33.372Z</time>
      </trkpt>
      <trkpt lat="44.62795" lon="-1.02247">
        <ele>50.079467</ele>
        <time>2022-12-25T12:37:37.362Z</time>
      </trkpt>
      <trkpt lat="44.62784" lon="-1.02254">
        <ele>50.028335</ele>
        <time>2022-12-25T12:37:41.360Z</time>
      </trkpt>
      <trkpt lat="44.62774" lon="-1.0226">
        <ele>49.984041</ele>
        <time>2022-12-25T12:37:44.359Z</time>
      </trkpt>
      <trkpt lat="44.62764" lon="-1.02266">
        <ele>49.937099</ele>
        <time>2022-12-25T12:37:47.366Z</time>
      </trkpt>
      <trkpt lat="44.62754" lon="-1.02273">
        <ele>49.890503</ele>
        <time>2022-12-25T12:37:50.358Z</time>
      </trkpt>
      <trkpt lat="44.62745" lon="-1.0228">
        <ele>49.84589</ele>
        <time>2022-12-25T12:37:53.380Z</time>
      </trkpt>
      <trkpt lat="44.62736" lon="-1.02285">
        <ele>49.811</ele>
        <time>2022-12-25T12:37:56.371Z</time>
      </trkpt>
      <trkpt lat="44.62727" lon="-1.0229">
        <ele>49.779741</ele>
        <time>2022-12-25T12:38:00.359Z</time>
      </trkpt>
      <trkpt lat="44.62717" lon="-1.02293">
        <ele>49.746941</ele>
        <time>2022-12-25T12:38:07.361Z</time>
      </trkpt>
      <trkpt lat="44.6271" lon="-1.02301">
        <ele>49.714788</ele>
        <time>2022-12-25T12:38:12.370Z</time>
      </trkpt>
      <trkpt lat="44.62698" lon="-1.02308">
        <ele>49.673848</ele>
        <time>2022-12-25T12:38:16.358Z</time>
      </trkpt>
      <trkpt lat="44.62688" lon="-1.02313">
        <ele>49.639073</ele>
        <time>2022-12-25T12:38:19.364Z</time>
      </trkpt>
      <trkpt lat="44.62678" lon="-1.02319">
        <ele>49.602267</ele>
        <time>2022-12-25T12:38:22.372Z</time>
      </trkpt>
      <trkpt lat="44.62669" lon="-1.02325">
        <ele>49.569161</ele>
        <time>2022-12-25T12:38:25.378Z</time>
      </trkpt>
      <trkpt lat="44.62661" lon="-1.0233">
        <ele>49.538674</ele>
        <time>2022-12-25T12:38:28.364Z</time>
      </trkpt>
      <trkpt lat="44.62652" lon="-1.02336">
        <ele>49.506669</ele>
        <time>2022-12-25T12:38:31.377Z</time>
      </trkpt>
      <trkpt lat="44.62642" lon="-1.02341">
        <ele>49.472627</ele>
        <time>2022-12-25T12:38:34.365Z</time>
      </trkpt>
      <trkpt lat="44.62632" lon="-1.02342">
        <ele>49.437045</ele>
        <time>2022-12-25T12:38:37.362Z</time>
      </trkpt>
      <trkpt lat="44.62621" lon="-1.02343">
        <ele>49.401531</ele>
        <time>2022-12-25T12:38:40.373Z</time>
      </trkpt>
      <trkpt lat="44.6261" lon="-1.02343">
        <ele>49.366412</ele>
        <time>2022-12-25T12:38:43.397Z</time>
      </trkpt>
      <trkpt lat="44.626" lon="-1.02344">
        <ele>49.330958</ele>
        <time>2022-12-25T12:38:46.360Z</time>
      </trkpt>
      <trkpt lat="44.62588" lon="-1.02345">
        <ele>49.293375</ele>
        <time>2022-12-25T12:38:49.356Z</time>
      </trkpt>
      <trkpt lat="44.62578" lon="-1.02349">
        <ele>49.258266</ele>
        <time>2022-12-25T12:38:52.362Z</time>
      </trkpt>
      <trkpt lat="44.62569" lon="-1.02352">
        <ele>49.259661</ele>
        <time>2022-12-25T12:38:55.367Z</time>
      </trkpt>
      <trkpt lat="44.62559" lon="-1.02356">
        <ele>49.310114</ele>
        <time>2022-12-25T12:38:58.360Z</time>
      </trkpt>
      <trkpt lat="44.62548" lon="-1.02361">
        <ele>49.363367</ele>
        <time>2022-12-25T12:39:01.360Z</time>
      </trkpt>
      <trkpt lat="44.62537" lon="-1.02364">
        <ele>49.416455</ele>
        <time>2022-12-25T12:39:04.360Z</time>
      </trkpt>
      <trkpt lat="44.62526" lon="-1.02367">
        <ele>49.464759</ele>
        <time>2022-12-25T12:39:07.366Z</time>
      </trkpt>
      <trkpt lat="44.62515" lon="-1.02371">
        <ele>49.520728</ele>
        <time>2022-12-25T12:39:11.360Z</time>
      </trkpt>
      <trkpt lat="44.62505" lon="-1.02374">
        <ele>49.566894</ele>
        <time>2022-12-25T12:39:14.370Z</time>
      </trkpt>
      <trkpt lat="44.62495" lon="-1.02379">
        <ele>49.617267</ele>
        <time>2022-12-25T12:39:17.367Z</time>
      </trkpt>
      <trkpt lat="44.62484" lon="-1.02382">
        <ele>49.67194</ele>
        <time>2022-12-25T12:39:20.357Z</time>
      </trkpt>
      <trkpt lat="44.62472" lon="-1.02386">
        <ele>49.727295</ele>
        <time>2022-12-25T12:39:23.363Z</time>
      </trkpt>
      <trkpt lat="44.62461" lon="-1.0239">
        <ele>49.782729</ele>
        <time>2022-12-25T12:39:26.373Z</time>
      </trkpt>
      <trkpt lat="44.6245" lon="-1.02393">
        <ele>49.83516</ele>
        <time>2022-12-25T12:39:29.378Z</time>
      </trkpt>
      <trkpt lat="44.62439" lon="-1.02397">
        <ele>49.884135</ele>
        <time>2022-12-25T12:39:32.386Z</time>
      </trkpt>
      <trkpt lat="44.62429" lon="-1.024">
        <ele>49.934937</ele>
        <time>2022-12-25T12:39:35.368Z</time>
      </trkpt>
      <trkpt lat="44.62419" lon="-1.02404">
        <ele>49.98035</ele>
        <time>2022-12-25T12:39:38.362Z</time>
      </trkpt>
      <trkpt lat="44.62411" lon="-1.02408">
        <ele>50.023394</ele>
        <time>2022-12-25T12:39:43.374Z</time>
      </trkpt>
      <trkpt lat="44.624" lon="-1.02411">
        <ele>50.072821</ele>
        <time>2022-12-25T12:39:48.363Z</time>
      </trkpt>
      <trkpt lat="44.6239" lon="-1.02414">
        <ele>50.114814</ele>
        <time>2022-12-25T12:39:52.366Z</time>
      </trkpt>
      <trkpt lat="44.62381" lon="-1.02417">
        <ele>50.15076</ele>
        <time>2022-12-25T12:39:55.363Z</time>
      </trkpt>
      <trkpt lat="44.62371" lon="-1.02421">
        <ele>50.187767</ele>
        <time>2022-12-25T12:39:58.360Z</time>
      </trkpt>
      <trkpt lat="44.62362" lon="-1.02424">
        <ele>50.225139</ele>
        <time>2022-12-25T12:40:01.380Z</time>
      </trkpt>
      <trkpt lat="44.62353" lon="-1.02427">
        <ele>50.259228</ele>
        <time>2022-12-25T12:40:04.359Z</time>
      </trkpt>
      <trkpt lat="44.62344" lon="-1.0243">
        <ele>50.295591</ele>
        <time>2022-12-25T12:40:08.361Z</time>
      </trkpt>
      <trkpt lat="44.62336" lon="-1.02439">
        <ele>50.334662</ele>
        <time>2022-12-25T12:40:14.363Z</time>
      </trkpt>
      <trkpt lat="44.62336" lon="-1.02453">
        <ele>50.370295</ele>
        <time>2022-12-25T12:40:18.360Z</time>
      </trkpt>
      <trkpt lat="44.62333" lon="-1.02466">
        <ele>50.406177</ele>
        <time>2022-12-25T12:40:22.354Z</time>
      </trkpt>
      <trkpt lat="44.62331" lon="-1.0248">
        <ele>50.4474</ele>
        <time>2022-12-25T12:40:27.378Z</time>
      </trkpt>
      <trkpt lat="44.6233" lon="-1.02493">
        <ele>50.482144</ele>
        <time>2022-12-25T12:40:31.359Z</time>
      </trkpt>
      <trkpt lat="44.62328" lon="-1.02507">
        <ele>50.521061</ele>
        <time>2022-12-25T12:40:37.372Z</time>
      </trkpt>
      <trkpt lat="44.62335" lon="-1.0252">
        <ele>50.564658</ele>
        <time>2022-12-25T12:40:42.361Z</time>
      </trkpt>
      <trkpt lat="44.62339" lon="-1.02531">
        <ele>50.599294</ele>
        <time>2022-12-25T12:40:45.379Z</time>
      </trkpt>
      <trkpt lat="44.62344" lon="-1.02546">
        <ele>50.641974</ele>
        <time>2022-12-25T12:40:49.364Z</time>
      </trkpt>
      <trkpt lat="44.62349" lon="-1.0256">
        <ele>50.685302</ele>
        <time>2022-12-25T12:40:54.373Z</time>
      </trkpt>
      <trkpt lat="44.62353" lon="-1.02572">
        <ele>50.719756</ele>
        <time>2022-12-25T12:40:57.370Z</time>
      </trkpt>
      <trkpt lat="44.62357" lon="-1.02585">
        <ele>50.758768</ele>
        <time>2022-12-25T12:41:00.372Z</time>
      </trkpt>
      <trkpt lat="44.62361" lon="-1.02598">
        <ele>50.669697</ele>
        <time>2022-12-25T12:41:03.383Z</time>
      </trkpt>
      <trkpt lat="44.62364" lon="-1.02612">
        <ele>50.5537</ele>
        <time>2022-12-25T12:41:07.374Z</time>
      </trkpt>
      <trkpt lat="44.62369" lon="-1.02624">
        <ele>50.442088</ele>
        <time>2022-12-25T12:41:11.361Z</time>
      </trkpt>
      <trkpt lat="44.62373" lon="-1.02636">
        <ele>50.341098</ele>
        <time>2022-12-25T12:41:14.363Z</time>
      </trkpt>
      <trkpt lat="44.62376" lon="-1.02648">
        <ele>50.236214</ele>
        <time>2022-12-25T12:41:17.367Z</time>
      </trkpt>
      <trkpt lat="44.6238" lon="-1.02662">
        <ele>50.116385</ele>
        <time>2022-12-25T12:41:20.369Z</time>
      </trkpt>
      <trkpt lat="44.62385" lon="-1.02678">
        <ele>49.985101</ele>
        <time>2022-12-25T12:41:23.384Z</time>
      </trkpt>
      <trkpt lat="44.62389" lon="-1.02693">
        <ele>49.853489</ele>
        <time>2022-12-25T12:41:26.361Z</time>
      </trkpt>
      <trkpt lat="44.62393" lon="-1.02707">
        <ele>49.734783</ele>
        <time>2022-12-25T12:41:29.369Z</time>
      </trkpt>
      <trkpt lat="44.62397" lon="-1.02721">
        <ele>49.618044</ele>
        <time>2022-12-25T12:41:32.379Z</time>
      </trkpt>
      <trkpt lat="44.62398" lon="-1.02735">
        <ele>49.506326</ele>
        <time>2022-12-25T12:41:35.359Z</time>
      </trkpt>
      <trkpt lat="44.62398" lon="-1.02751">
        <ele>49.385937</ele>
        <time>2022-12-25T12:41:39.360Z</time>
      </trkpt>
      <trkpt lat="44.62399" lon="-1.02765">
        <ele>49.274563</ele>
        <time>2022-12-25T12:41:44.360Z</time>
      </trkpt>
      <trkpt lat="44.62408" lon="-1.02774">
        <ele>49.149659</ele>
        <time>2022-12-25T12:41:50.363Z</time>
      </trkpt>
      <trkpt lat="44.62416" lon="-1.02782">
        <ele>49.043803</ele>
        <time>2022-12-25T12:41:53.366Z</time>
      </trkpt>
      <trkpt lat="44.62421" lon="-1.02795">
        <ele>48.929461</ele>
        <time>2022-12-25T12:41:56.375Z</time>
      </trkpt>
      <trkpt lat="44.62425" lon="-1.0281">
        <ele>48.806421</ele>
        <time>2022-12-25T12:41:59.379Z</time>
      </trkpt>
      <trkpt lat="44.6243" lon="-1.02825">
        <ele>48.801302</ele>
        <time>2022-12-25T12:42:02.365Z</time>
      </trkpt>
      <trkpt lat="44.62435" lon="-1.02841">
        <ele>48.83533</ele>
        <time>2022-12-25T12:42:05.362Z</time>
      </trkpt>
      <trkpt lat="44.62441" lon="-1.02856">
        <ele>48.868433</ele>
        <time>2022-12-25T12:42:08.360Z</time>
      </trkpt>
      <trkpt lat="44.62447" lon="-1.02872">
        <ele>48.902651</ele>
        <time>2022-12-25T12:42:11.379Z</time>
      </trkpt>
      <trkpt lat="44.62452" lon="-1.02888">
        <ele>48.937857</ele>
        <time>2022-12-25T12:42:14.372Z</time>
      </trkpt>
      <trkpt lat="44.62458" lon="-1.02905">
        <ele>48.974283</ele>
        <time>2022-12-25T12:42:17.370Z</time>
      </trkpt>
      <trkpt lat="44.62463" lon="-1.02922">
        <ele>49.009921</ele>
        <time>2022-12-25T12:42:20.360Z</time>
      </trkpt>
      <trkpt lat="44.62467" lon="-1.02933">
        <ele>49.034561</ele>
        <time>2022-12-25T12:42:22.365Z</time>
      </trkpt>
      <trkpt lat="44.62472" lon="-1.02951">
        <ele>49.070949</ele>
        <time>2022-12-25T12:42:25.360Z</time>
      </trkpt>
      <trkpt lat="44.62478" lon="-1.02967">
        <ele>49.106906</ele>
        <time>2022-12-25T12:42:28.362Z</time>
      </trkpt>
      <trkpt lat="44.62482" lon="-1.02979">
        <ele>49.133042</ele>
        <time>2022-12-25T12:42:30.372Z</time>
      </trkpt>
      <trkpt lat="44.62486" lon="-1.02992">
        <ele>49.159007</ele>
        <time>2022-12-25T12:42:32.369Z</time>
      </trkpt>
      <trkpt lat="44.62489" lon="-1.03004">
        <ele>49.184005</ele>
        <time>2022-12-25T12:42:34.368Z</time>
      </trkpt>
      <trkpt lat="44.62494" lon="-1.03016">
        <ele>49.21061</ele>
        <time>2022-12-25T12:42:36.372Z</time>
      </trkpt>
      <trkpt lat="44.62498" lon="-1.03033">
        <ele>49.246742</ele>
        <time>2022-12-25T12:42:39.368Z</time>
      </trkpt>
      <trkpt lat="44.62502" lon="-1.03045">
        <ele>49.268288</ele>
        <time>2022-12-25T12:42:41.357Z</time>
      </trkpt>
      <trkpt lat="44.62505" lon="-1.03057">
        <ele>49.277697</ele>
        <time>2022-12-25T12:42:43.368Z</time>
      </trkpt>
      <trkpt lat="44.6251" lon="-1.03069">
        <ele>49.287352</ele>
        <time>2022-12-25T12:42:45.365Z</time>
      </trkpt>
      <trkpt lat="44.62513" lon="-1.03081">
        <ele>49.296857</ele>
        <time>2022-12-25T12:42:47.358Z</time>
      </trkpt>
      <trkpt lat="44.62517" lon="-1.03093">
        <ele>49.306784</ele>
        <time>2022-12-25T12:42:49.363Z</time>
      </trkpt>
      <trkpt lat="44.62521" lon="-1.03106">
        <ele>49.316458</ele>
        <time>2022-12-25T12:42:51.371Z</time>
      </trkpt>
      <trkpt lat="44.62525" lon="-1.03117">
        <ele>49.326016</ele>
        <time>2022-12-25T12:42:53.364Z</time>
      </trkpt>
      <trkpt lat="44.6253" lon="-1.03134">
        <ele>49.339721</ele>
        <time>2022-12-25T12:42:56.375Z</time>
      </trkpt>
      <trkpt lat="44.62536" lon="-1.03149">
        <ele>49.352104</ele>
        <time>2022-12-25T12:42:59.384Z</time>
      </trkpt>
      <trkpt lat="44.62541" lon="-1.03165">
        <ele>49.364343</ele>
        <time>2022-12-25T12:43:02.361Z</time>
      </trkpt>
      <trkpt lat="44.62545" lon="-1.03179">
        <ele>49.375638</ele>
        <time>2022-12-25T12:43:05.375Z</time>
      </trkpt>
      <trkpt lat="44.62549" lon="-1.03194">
        <ele>49.387581</ele>
        <time>2022-12-25T12:43:08.366Z</time>
      </trkpt>
      <trkpt lat="44.62554" lon="-1.0321">
        <ele>49.400043</ele>
        <time>2022-12-25T12:43:11.371Z</time>
      </trkpt>
      <trkpt lat="44.6256" lon="-1.03227">
        <ele>49.413537</ele>
        <time>2022-12-25T12:43:14.367Z</time>
      </trkpt>
      <trkpt lat="44.62564" lon="-1.03243">
        <ele>49.426406</ele>
        <time>2022-12-25T12:43:17.393Z</time>
      </trkpt>
      <trkpt lat="44.62569" lon="-1.03258">
        <ele>49.438558</ele>
        <time>2022-12-25T12:43:20.368Z</time>
      </trkpt>
      <trkpt lat="44.62573" lon="-1.03274">
        <ele>49.449594</ele>
        <time>2022-12-25T12:43:23.376Z</time>
      </trkpt>
      <trkpt lat="44.62575" lon="-1.03289">
        <ele>49.369544</ele>
        <time>2022-12-25T12:43:26.379Z</time>
      </trkpt>
      <trkpt lat="44.62575" lon="-1.03303">
        <ele>49.291951</ele>
        <time>2022-12-25T12:43:29.369Z</time>
      </trkpt>
      <trkpt lat="44.62574" lon="-1.03318">
        <ele>49.216987</ele>
        <time>2022-12-25T12:43:32.376Z</time>
      </trkpt>
      <trkpt lat="44.62572" lon="-1.03331">
        <ele>49.141854</ele>
        <time>2022-12-25T12:43:35.374Z</time>
      </trkpt>
      <trkpt lat="44.62567" lon="-1.03342">
        <ele>49.072013</ele>
        <time>2022-12-25T12:43:38.369Z</time>
      </trkpt>
      <trkpt lat="44.62558" lon="-1.0335">
        <ele>48.993151</ele>
        <time>2022-12-25T12:43:42.356Z</time>
      </trkpt>
      <trkpt lat="44.62551" lon="-1.03359">
        <ele>48.923971</ele>
        <time>2022-12-25T12:43:46.374Z</time>
      </trkpt>
      <trkpt lat="44.62552" lon="-1.03374">
        <ele>48.843783</ele>
        <time>2022-12-25T12:43:51.379Z</time>
      </trkpt>
      <trkpt lat="44.6256" lon="-1.03382">
        <ele>48.767419</ele>
        <time>2022-12-25T12:43:56.373Z</time>
      </trkpt>
      <trkpt lat="44.62568" lon="-1.03372">
        <ele>48.689109</ele>
        <time>2022-12-25T12:43:59.378Z</time>
      </trkpt>
      <trkpt lat="44.62576" lon="-1.0336">
        <ele>48.599696</ele>
        <time>2022-12-25T12:44:02.372Z</time>
      </trkpt>
      <trkpt lat="44.62586" lon="-1.03351">
        <ele>48.514791</ele>
        <time>2022-12-25T12:44:05.366Z</time>
      </trkpt>
      <trkpt lat="44.62596" lon="-1.03349">
        <ele>48.436158</ele>
        <time>2022-12-25T12:44:08.371Z</time>
      </trkpt>
      <trkpt lat="44.62605" lon="-1.03358">
        <ele>48.357675</ele>
        <time>2022-12-25T12:44:11.360Z</time>
      </trkpt>
      <trkpt lat="44.6261" lon="-1.0337">
        <ele>48.285558</ele>
        <time>2022-12-25T12:44:14.360Z</time>
      </trkpt>
      <trkpt lat="44.62613" lon="-1.03383">
        <ele>48.207977</ele>
        <time>2022-12-25T12:44:18.359Z</time>
      </trkpt>
      <trkpt lat="44.62608" lon="-1.03396">
        <ele>48.129309</ele>
        <time>2022-12-25T12:44:22.362Z</time>
      </trkpt>
      <trkpt lat="44.62602" lon="-1.03406">
        <ele>48.165699</ele>
        <time>2022-12-25T12:44:25.364Z</time>
      </trkpt>
      <trkpt lat="44.62597" lon="-1.03419">
        <ele>48.263332</ele>
        <time>2022-12-25T12:44:28.365Z</time>
      </trkpt>
      <trkpt lat="44.62594" lon="-1.03432">
        <ele>48.356742</ele>
        <time>2022-12-25T12:44:31.377Z</time>
      </trkpt>
      <trkpt lat="44.6259" lon="-1.03446">
        <ele>48.459486</ele>
        <time>2022-12-25T12:44:35.367Z</time>
      </trkpt>
      <trkpt lat="44.62585" lon="-1.03457">
        <ele>48.544117</ele>
        <time>2022-12-25T12:44:39.377Z</time>
      </trkpt>
      <trkpt lat="44.62579" lon="-1.03469">
        <ele>48.637283</ele>
        <time>2022-12-25T12:44:43.376Z</time>
      </trkpt>
      <trkpt lat="44.62573" lon="-1.03479">
        <ele>48.725102</ele>
        <time>2022-12-25T12:44:46.364Z</time>
      </trkpt>
      <trkpt lat="44.62567" lon="-1.0349">
        <ele>48.818003</ele>
        <time>2022-12-25T12:44:49.373Z</time>
      </trkpt>
      <trkpt lat="44.62561" lon="-1.03502">
        <ele>48.918206</ele>
        <time>2022-12-25T12:44:52.368Z</time>
      </trkpt>
      <trkpt lat="44.62553" lon="-1.03515">
        <ele>49.0273</ele>
        <time>2022-12-25T12:44:55.371Z</time>
      </trkpt>
      <trkpt lat="44.62546" lon="-1.03527">
        <ele>49.13302</ele>
        <time>2022-12-25T12:44:58.365Z</time>
      </trkpt>
      <trkpt lat="44.62539" lon="-1.03542">
        <ele>49.252155</ele>
        <time>2022-12-25T12:45:01.378Z</time>
      </trkpt>
      <trkpt lat="44.62532" lon="-1.03557">
        <ele>49.37407</ele>
        <time>2022-12-25T12:45:04.362Z</time>
      </trkpt>
      <trkpt lat="44.62524" lon="-1.03571">
        <ele>49.49435</ele>
        <time>2022-12-25T12:45:07.356Z</time>
      </trkpt>
      <trkpt lat="44.62516" lon="-1.03585">
        <ele>49.611032</ele>
        <time>2022-12-25T12:45:10.364Z</time>
      </trkpt>
      <trkpt lat="44.62509" lon="-1.03599">
        <ele>49.722604</ele>
        <time>2022-12-25T12:45:13.371Z</time>
      </trkpt>
      <trkpt lat="44.62503" lon="-1.03611">
        <ele>49.762158</ele>
        <time>2022-12-25T12:45:16.368Z</time>
      </trkpt>
      <trkpt lat="44.62497" lon="-1.03622">
        <ele>49.697276</ele>
        <time>2022-12-25T12:45:19.371Z</time>
      </trkpt>
      <trkpt lat="44.62492" lon="-1.03632">
        <ele>49.635123</ele>
        <time>2022-12-25T12:45:22.363Z</time>
      </trkpt>
      <trkpt lat="44.62486" lon="-1.03643">
        <ele>49.570231</ele>
        <time>2022-12-25T12:45:25.362Z</time>
      </trkpt>
      <trkpt lat="44.62481" lon="-1.03656">
        <ele>49.499795</ele>
        <time>2022-12-25T12:45:29.367Z</time>
      </trkpt>
      <trkpt lat="44.62485" lon="-1.03668">
        <ele>49.435079</ele>
        <time>2022-12-25T12:45:33.379Z</time>
      </trkpt>
      <trkpt lat="44.62491" lon="-1.03678">
        <ele>49.367978</ele>
        <time>2022-12-25T12:45:36.374Z</time>
      </trkpt>
      <trkpt lat="44.62494" lon="-1.03692">
        <ele>49.29695</ele>
        <time>2022-12-25T12:45:39.367Z</time>
      </trkpt>
      <trkpt lat="44.62496" lon="-1.03709">
        <ele>49.214265</ele>
        <time>2022-12-25T12:45:42.367Z</time>
      </trkpt>
      <trkpt lat="44.62497" lon="-1.03726">
        <ele>49.133619</ele>
        <time>2022-12-25T12:45:45.359Z</time>
      </trkpt>
      <trkpt lat="44.62497" lon="-1.03741">
        <ele>49.059289</ele>
        <time>2022-12-25T12:45:48.365Z</time>
      </trkpt>
      <trkpt lat="44.62498" lon="-1.03756">
        <ele>48.988135</ele>
        <time>2022-12-25T12:45:51.362Z</time>
      </trkpt>
      <trkpt lat="44.625" lon="-1.03772">
        <ele>48.907353</ele>
        <time>2022-12-25T12:45:54.361Z</time>
      </trkpt>
      <trkpt lat="44.62502" lon="-1.03786">
        <ele>48.838436</ele>
        <time>2022-12-25T12:45:57.358Z</time>
      </trkpt>
      <trkpt lat="44.62503" lon="-1.03799">
        <ele>48.774398</ele>
        <time>2022-12-25T12:46:00.361Z</time>
      </trkpt>
      <trkpt lat="44.62506" lon="-1.03816">
        <ele>48.690476</ele>
        <time>2022-12-25T12:46:03.373Z</time>
      </trkpt>
      <trkpt lat="44.62506" lon="-1.0383">
        <ele>48.624834</ele>
        <time>2022-12-25T12:46:05.360Z</time>
      </trkpt>
      <trkpt lat="44.62506" lon="-1.03843">
        <ele>48.576596</ele>
        <time>2022-12-25T12:46:07.358Z</time>
      </trkpt>
      <trkpt lat="44.62508" lon="-1.03857">
        <ele>48.710023</ele>
        <time>2022-12-25T12:46:10.370Z</time>
      </trkpt>
      <trkpt lat="44.62509" lon="-1.0387">
        <ele>48.827656</ele>
        <time>2022-12-25T12:46:13.362Z</time>
      </trkpt>
      <trkpt lat="44.6251" lon="-1.03882">
        <ele>48.944204</ele>
        <time>2022-12-25T12:46:16.367Z</time>
      </trkpt>
      <trkpt lat="44.62511" lon="-1.03895">
        <ele>49.060302</ele>
        <time>2022-12-25T12:46:19.366Z</time>
      </trkpt>
      <trkpt lat="44.62506" lon="-1.03906">
        <ele>49.180573</ele>
        <time>2022-12-25T12:46:24.356Z</time>
      </trkpt>
      <trkpt lat="44.62501" lon="-1.03917">
        <ele>49.297996</ele>
        <time>2022-12-25T12:46:30.374Z</time>
      </trkpt>
      <trkpt lat="44.62503" lon="-1.03933">
        <ele>49.448737</ele>
        <time>2022-12-25T12:46:34.377Z</time>
      </trkpt>
      <trkpt lat="44.62506" lon="-1.03948">
        <ele>49.593271</ele>
        <time>2022-12-25T12:46:37.361Z</time>
      </trkpt>
      <trkpt lat="44.62508" lon="-1.03965">
        <ele>49.747846</ele>
        <time>2022-12-25T12:46:40.362Z</time>
      </trkpt>
      <trkpt lat="44.6251" lon="-1.0398">
        <ele>49.889803</ele>
        <time>2022-12-25T12:46:43.365Z</time>
      </trkpt>
      <trkpt lat="44.62512" lon="-1.03996">
        <ele>50.034904</ele>
        <time>2022-12-25T12:46:46.364Z</time>
      </trkpt>
      <trkpt lat="44.62512" lon="-1.04008">
        <ele>50.152283</ele>
        <time>2022-12-25T12:46:49.361Z</time>
      </trkpt>
      <trkpt lat="44.62504" lon="-1.04017">
        <ele>50.282039</ele>
        <time>2022-12-25T12:46:53.361Z</time>
      </trkpt>
      <trkpt lat="44.62495" lon="-1.04021">
        <ele>50.400364</ele>
        <time>2022-12-25T12:46:56.363Z</time>
      </trkpt>
      <trkpt lat="44.62484" lon="-1.04025">
        <ele>50.543979</ele>
        <time>2022-12-25T12:46:59.361Z</time>
      </trkpt>
      <trkpt lat="44.62474" lon="-1.04029">
        <ele>50.686962</ele>
        <time>2022-12-25T12:47:02.362Z</time>
      </trkpt>
      <trkpt lat="44.62462" lon="-1.04032">
        <ele>50.836366</ele>
        <time>2022-12-25T12:47:05.361Z</time>
      </trkpt>
      <trkpt lat="44.62451" lon="-1.04034">
        <ele>50.888619</ele>
        <time>2022-12-25T12:47:08.370Z</time>
      </trkpt>
      <trkpt lat="44.62439" lon="-1.04038">
        <ele>50.894355</ele>
        <time>2022-12-25T12:47:11.359Z</time>
      </trkpt>
      <trkpt lat="44.62427" lon="-1.04043">
        <ele>50.900192</ele>
        <time>2022-12-25T12:47:14.372Z</time>
      </trkpt>
      <trkpt lat="44.62415" lon="-1.04049">
        <ele>50.905963</ele>
        <time>2022-12-25T12:47:17.358Z</time>
      </trkpt>
      <trkpt lat="44.62403" lon="-1.04053">
        <ele>50.912037</ele>
        <time>2022-12-25T12:47:20.362Z</time>
      </trkpt>
      <trkpt lat="44.62391" lon="-1.04057">
        <ele>50.917858</ele>
        <time>2022-12-25T12:47:23.363Z</time>
      </trkpt>
      <trkpt lat="44.62378" lon="-1.0406">
        <ele>50.92373</ele>
        <time>2022-12-25T12:47:26.362Z</time>
      </trkpt>
      <trkpt lat="44.62367" lon="-1.04064">
        <ele>50.929322</ele>
        <time>2022-12-25T12:47:29.361Z</time>
      </trkpt>
      <trkpt lat="44.62355" lon="-1.04067">
        <ele>50.934793</ele>
        <time>2022-12-25T12:47:32.364Z</time>
      </trkpt>
      <trkpt lat="44.62345" lon="-1.04069">
        <ele>50.939572</ele>
        <time>2022-12-25T12:47:35.355Z</time>
      </trkpt>
      <trkpt lat="44.62336" lon="-1.04072">
        <ele>50.944083</ele>
        <time>2022-12-25T12:47:38.364Z</time>
      </trkpt>
      <trkpt lat="44.62326" lon="-1.04075">
        <ele>50.948852</ele>
        <time>2022-12-25T12:47:41.378Z</time>
      </trkpt>
      <trkpt lat="44.62317" lon="-1.04082">
        <ele>50.953471</ele>
        <time>2022-12-25T12:47:44.358Z</time>
      </trkpt>
      <trkpt lat="44.62314" lon="-1.04097">
        <ele>50.958697</ele>
        <time>2022-12-25T12:47:47.356Z</time>
      </trkpt>
      <trkpt lat="44.62312" lon="-1.04114">
        <ele>50.964495</ele>
        <time>2022-12-25T12:47:50.364Z</time>
      </trkpt>
      <trkpt lat="44.62311" lon="-1.04132">
        <ele>50.954487</ele>
        <time>2022-12-25T12:47:53.360Z</time>
      </trkpt>
      <trkpt lat="44.62312" lon="-1.04149">
        <ele>50.88227</ele>
        <time>2022-12-25T12:47:56.362Z</time>
      </trkpt>
      <trkpt lat="44.62314" lon="-1.04166">
        <ele>50.811504</ele>
        <time>2022-12-25T12:47:59.361Z</time>
      </trkpt>
      <trkpt lat="44.62316" lon="-1.04183">
        <ele>50.740587</ele>
        <time>2022-12-25T12:48:02.382Z</time>
      </trkpt>
      <trkpt lat="44.62319" lon="-1.042">
        <ele>50.670636</ele>
        <time>2022-12-25T12:48:05.373Z</time>
      </trkpt>
      <trkpt lat="44.62321" lon="-1.04216">
        <ele>50.604128</ele>
        <time>2022-12-25T12:48:08.366Z</time>
      </trkpt>
      <trkpt lat="44.62323" lon="-1.0423">
        <ele>50.544734</ele>
        <time>2022-12-25T12:48:11.360Z</time>
      </trkpt>
      <trkpt lat="44.62325" lon="-1.04243">
        <ele>50.489105</ele>
        <time>2022-12-25T12:48:14.366Z</time>
      </trkpt>
      <trkpt lat="44.62328" lon="-1.04258">
        <ele>50.423319</ele>
        <time>2022-12-25T12:48:18.363Z</time>
      </trkpt>
      <trkpt lat="44.62329" lon="-1.04271">
        <ele>50.370446</ele>
        <time>2022-12-25T12:48:21.367Z</time>
      </trkpt>
      <trkpt lat="44.62332" lon="-1.04284">
        <ele>50.315245</ele>
        <time>2022-12-25T12:48:24.381Z</time>
      </trkpt>
      <trkpt lat="44.62336" lon="-1.04298">
        <ele>50.251003</ele>
        <time>2022-12-25T12:48:28.367Z</time>
      </trkpt>
      <trkpt lat="44.62342" lon="-1.04307">
        <ele>50.197745</ele>
        <time>2022-12-25T12:48:32.376Z</time>
      </trkpt>
      <trkpt lat="44.62347" lon="-1.0432">
        <ele>50.139229</ele>
        <time>2022-12-25T12:48:35.373Z</time>
      </trkpt>
      <trkpt lat="44.62347" lon="-1.04333">
        <ele>50.085523</ele>
        <time>2022-12-25T12:48:38.368Z</time>
      </trkpt>
      <trkpt lat="44.62342" lon="-1.04343">
        <ele>50.032962</ele>
        <time>2022-12-25T12:48:42.384Z</time>
      </trkpt>
      <trkpt lat="44.6234" lon="-1.0436">
        <ele>49.962288</ele>
        <time>2022-12-25T12:48:46.362Z</time>
      </trkpt>
      <trkpt lat="44.62341" lon="-1.04376">
        <ele>49.943653</ele>
        <time>2022-12-25T12:48:49.371Z</time>
      </trkpt>
      <trkpt lat="44.62482" lon="-1.10687">
        <ele>62.711272</ele>
        <time>2022-12-25T13:14:26.938Z</time>
      </trkpt>
      <trkpt lat="44.62471" lon="-1.1068">
        <ele>61.978097</ele>
        <time>2022-12-25T13:15:03.378Z</time>
      </trkpt>
      <trkpt lat="44.62462" lon="-1.10677">
        <ele>61.410225</ele>
        <time>2022-12-25T13:15:07.364Z</time>
      </trkpt>
      <trkpt lat="44.62451" lon="-1.10674">
        <ele>60.695573</ele>
        <time>2022-12-25T13:15:11.370Z</time>
      </trkpt>
      <trkpt lat="44.62441" lon="-1.10673">
        <ele>60.100875</ele>
        <time>2022-12-25T13:15:14.357Z</time>
      </trkpt>
      <trkpt lat="44.6243" lon="-1.10673">
        <ele>59.390047</ele>
        <time>2022-12-25T13:15:17.367Z</time>
      </trkpt>
      <trkpt lat="44.62418" lon="-1.10677">
        <ele>58.623192</ele>
        <time>2022-12-25T13:15:20.364Z</time>
      </trkpt>
      <trkpt lat="44.62408" lon="-1.10682">
        <ele>57.937131</ele>
        <time>2022-12-25T13:15:23.365Z</time>
      </trkpt>
      <trkpt lat="44.62399" lon="-1.1069">
        <ele>57.290076</ele>
        <time>2022-12-25T13:15:26.372Z</time>
      </trkpt>
      <trkpt lat="44.62389" lon="-1.10701">
        <ele>56.494815</ele>
        <time>2022-12-25T13:15:29.364Z</time>
      </trkpt>
      <trkpt lat="44.6238" lon="-1.10714">
        <ele>55.710469</ele>
        <time>2022-12-25T13:15:32.377Z</time>
      </trkpt>
      <trkpt lat="44.62373" lon="-1.10727">
        <ele>54.965161</ele>
        <time>2022-12-25T13:15:35.378Z</time>
      </trkpt>
      <trkpt lat="44.62365" lon="-1.10742">
        <ele>54.173194</ele>
        <time>2022-12-25T13:15:38.366Z</time>
      </trkpt>
      <trkpt lat="44.62359" lon="-1.10758">
        <ele>53.371645</ele>
        <time>2022-12-25T13:15:41.367Z</time>
      </trkpt>
      <trkpt lat="44.62354" lon="-1.10771">
        <ele>52.672811</ele>
        <time>2022-12-25T13:15:44.366Z</time>
      </trkpt>
      <trkpt lat="44.62349" lon="-1.10785">
        <ele>51.989478</ele>
        <time>2022-12-25T13:15:47.368Z</time>
      </trkpt>
      <trkpt lat="44.62346" lon="-1.10798">
        <ele>51.68299</ele>
        <time>2022-12-25T13:15:50.376Z</time>
      </trkpt>
      <trkpt lat="44.62353" lon="-1.10811">
        <ele>51.851099</ele>
        <time>2022-12-25T13:15:54.366Z</time>
      </trkpt>
      <trkpt lat="44.62361" lon="-1.10818">
        <ele>52.001211</ele>
        <time>2022-12-25T13:15:57.374Z</time>
      </trkpt>
      <trkpt lat="44.6237" lon="-1.10824">
        <ele>52.143522</ele>
        <time>2022-12-25T13:16:00.372Z</time>
      </trkpt>
      <trkpt lat="44.6238" lon="-1.10832">
        <ele>52.314557</ele>
        <time>2022-12-25T13:16:03.381Z</time>
      </trkpt>
      <trkpt lat="44.6239" lon="-1.1084">
        <ele>52.486414</ele>
        <time>2022-12-25T13:16:06.367Z</time>
      </trkpt>
      <trkpt lat="44.624" lon="-1.10848">
        <ele>52.657268</ele>
        <time>2022-12-25T13:16:09.366Z</time>
      </trkpt>
      <trkpt lat="44.6241" lon="-1.10857">
        <ele>52.836334</ele>
        <time>2022-12-25T13:16:12.369Z</time>
      </trkpt>
      <trkpt lat="44.6242" lon="-1.10866">
        <ele>53.015965</ele>
        <time>2022-12-25T13:16:15.368Z</time>
      </trkpt>
      <trkpt lat="44.6243" lon="-1.10872">
        <ele>53.174858</ele>
        <time>2022-12-25T13:16:18.368Z</time>
      </trkpt>
      <trkpt lat="44.62441" lon="-1.1088">
        <ele>53.353923</ele>
        <time>2022-12-25T13:16:21.368Z</time>
      </trkpt>
      <trkpt lat="44.62451" lon="-1.10887">
        <ele>53.528692</ele>
        <time>2022-12-25T13:16:24.367Z</time>
      </trkpt>
      <trkpt lat="44.62462" lon="-1.10897">
        <ele>53.713038</ele>
        <time>2022-12-25T13:16:27.365Z</time>
      </trkpt>
      <trkpt lat="44.62471" lon="-1.10906">
        <ele>53.884568</ele>
        <time>2022-12-25T13:16:30.363Z</time>
      </trkpt>
      <trkpt lat="44.62481" lon="-1.10914">
        <ele>54.046853</ele>
        <time>2022-12-25T13:16:33.374Z</time>
      </trkpt>
      <trkpt lat="44.6249" lon="-1.10922">
        <ele>54.20625</ele>
        <time>2022-12-25T13:16:36.364Z</time>
      </trkpt>
      <trkpt lat="44.62499" lon="-1.1093">
        <ele>54.261631</ele>
        <time>2022-12-25T13:16:39.373Z</time>
      </trkpt>
      <trkpt lat="44.62509" lon="-1.10938">
        <ele>54.175364</ele>
        <time>2022-12-25T13:16:42.376Z</time>
      </trkpt>
      <trkpt lat="44.62519" lon="-1.10946">
        <ele>54.084025</ele>
        <time>2022-12-25T13:16:45.364Z</time>
      </trkpt>
      <trkpt lat="44.62531" lon="-1.10955">
        <ele>53.986649</ele>
        <time>2022-12-25T13:16:48.363Z</time>
      </trkpt>
      <trkpt lat="44.62539" lon="-1.10961">
        <ele>53.916879</ele>
        <time>2022-12-25T13:16:50.367Z</time>
      </trkpt>
      <trkpt lat="44.62547" lon="-1.10967">
        <ele>53.846322</ele>
        <time>2022-12-25T13:16:52.362Z</time>
      </trkpt>
      <trkpt lat="44.62558" lon="-1.10976">
        <ele>53.750144</ele>
        <time>2022-12-25T13:16:55.367Z</time>
      </trkpt>
      <trkpt lat="44.62566" lon="-1.10982">
        <ele>53.682099</ele>
        <time>2022-12-25T13:16:57.360Z</time>
      </trkpt>
      <trkpt lat="44.62577" lon="-1.10991">
        <ele>53.58741</ele>
        <time>2022-12-25T13:17:00.364Z</time>
      </trkpt>
      <trkpt lat="44.62588" lon="-1.11">
        <ele>53.489109</ele>
        <time>2022-12-25T13:17:03.362Z</time>
      </trkpt>
      <trkpt lat="44.62599" lon="-1.11009">
        <ele>53.394512</ele>
        <time>2022-12-25T13:17:06.366Z</time>
      </trkpt>
      <trkpt lat="44.62609" lon="-1.11017">
        <ele>53.306362</ele>
        <time>2022-12-25T13:17:09.362Z</time>
      </trkpt>
      <trkpt lat="44.6262" lon="-1.11025">
        <ele>53.213601</ele>
        <time>2022-12-25T13:17:12.370Z</time>
      </trkpt>
      <trkpt lat="44.6263" lon="-1.11034">
        <ele>53.118682</ele>
        <time>2022-12-25T13:17:15.370Z</time>
      </trkpt>
      <trkpt lat="44.62641" lon="-1.1104">
        <ele>53.032092</ele>
        <time>2022-12-25T13:17:18.368Z</time>
      </trkpt>
      <trkpt lat="44.62651" lon="-1.11045">
        <ele>52.948643</ele>
        <time>2022-12-25T13:17:21.386Z</time>
      </trkpt>
      <trkpt lat="44.62663" lon="-1.11049">
        <ele>52.956405</ele>
        <time>2022-12-25T13:17:24.378Z</time>
      </trkpt>
      <trkpt lat="44.62675" lon="-1.11052">
        <ele>52.98117</ele>
        <time>2022-12-25T13:17:27.377Z</time>
      </trkpt>
      <trkpt lat="44.62688" lon="-1.11054">
        <ele>53.00777</ele>
        <time>2022-12-25T13:17:30.386Z</time>
      </trkpt>
      <trkpt lat="44.62699" lon="-1.11057">
        <ele>53.031583</ele>
        <time>2022-12-25T13:17:33.370Z</time>
      </trkpt>
      <trkpt lat="44.6271" lon="-1.11058">
        <ele>53.054945</ele>
        <time>2022-12-25T13:17:36.367Z</time>
      </trkpt>
      <trkpt lat="44.62721" lon="-1.11056">
        <ele>53.077443</ele>
        <time>2022-12-25T13:17:39.368Z</time>
      </trkpt>
      <trkpt lat="44.62731" lon="-1.11053">
        <ele>53.097188</ele>
        <time>2022-12-25T13:17:42.378Z</time>
      </trkpt>
      <trkpt lat="44.62741" lon="-1.11052">
        <ele>53.117759</ele>
        <time>2022-12-25T13:17:45.375Z</time>
      </trkpt>
      <trkpt lat="44.62751" lon="-1.11048">
        <ele>53.139412</ele>
        <time>2022-12-25T13:17:48.371Z</time>
      </trkpt>
      <trkpt lat="44.6276" lon="-1.1104">
        <ele>53.161728</ele>
        <time>2022-12-25T13:17:51.362Z</time>
      </trkpt>
      <trkpt lat="44.62767" lon="-1.11029">
        <ele>53.183131</ele>
        <time>2022-12-25T13:17:54.365Z</time>
      </trkpt>
      <trkpt lat="44.62775" lon="-1.11021">
        <ele>53.202908</ele>
        <time>2022-12-25T13:17:57.363Z</time>
      </trkpt>
      <trkpt lat="44.62784" lon="-1.11024">
        <ele>53.222532</ele>
        <time>2022-12-25T13:18:01.364Z</time>
      </trkpt>
      <trkpt lat="44.62791" lon="-1.11036">
        <ele>53.244743</ele>
        <time>2022-12-25T13:18:06.363Z</time>
      </trkpt>
      <trkpt lat="44.62797" lon="-1.11046">
        <ele>53.263832</ele>
        <time>2022-12-25T13:18:10.363Z</time>
      </trkpt>
      <trkpt lat="44.62809" lon="-1.11044">
        <ele>53.28953</ele>
        <time>2022-12-25T13:18:14.367Z</time>
      </trkpt>
      <trkpt lat="44.62819" lon="-1.11043">
        <ele>53.289293</ele>
        <time>2022-12-25T13:18:17.362Z</time>
      </trkpt>
      <trkpt lat="44.62831" lon="-1.11042">
        <ele>53.235374</ele>
        <time>2022-12-25T13:18:20.374Z</time>
      </trkpt>
      <trkpt lat="44.62844" lon="-1.11041">
        <ele>53.175361</ele>
        <time>2022-12-25T13:18:23.375Z</time>
      </trkpt>
      <trkpt lat="44.62858" lon="-1.1104">
        <ele>53.111601</ele>
        <time>2022-12-25T13:18:26.366Z</time>
      </trkpt>
      <trkpt lat="44.62867" lon="-1.11038">
        <ele>53.067157</ele>
        <time>2022-12-25T13:18:28.358Z</time>
      </trkpt>
      <trkpt lat="44.62876" lon="-1.11036">
        <ele>53.024542</ele>
        <time>2022-12-25T13:18:30.366Z</time>
      </trkpt>
      <trkpt lat="44.62886" lon="-1.11034">
        <ele>52.979462</ele>
        <time>2022-12-25T13:18:32.365Z</time>
      </trkpt>
      <trkpt lat="44.62895" lon="-1.11032">
        <ele>52.934056</ele>
        <time>2022-12-25T13:18:34.368Z</time>
      </trkpt>
      <trkpt lat="44.62907" lon="-1.1103">
        <ele>52.878806</ele>
        <time>2022-12-25T13:18:37.362Z</time>
      </trkpt>
      <trkpt lat="44.62918" lon="-1.11027">
        <ele>52.826363</ele>
        <time>2022-12-25T13:18:40.364Z</time>
      </trkpt>
      <trkpt lat="44.6293" lon="-1.11019">
        <ele>52.767438</ele>
        <time>2022-12-25T13:18:43.364Z</time>
      </trkpt>
      <trkpt lat="44.62939" lon="-1.11013">
        <ele>52.72185</ele>
        <time>2022-12-25T13:18:47.374Z</time>
      </trkpt>
      <trkpt lat="44.62948" lon="-1.11012">
        <ele>52.678932</ele>
        <time>2022-12-25T13:18:50.363Z</time>
      </trkpt>
      <trkpt lat="44.62959" lon="-1.1101">
        <ele>52.626255</ele>
        <time>2022-12-25T13:18:53.360Z</time>
      </trkpt>
      <trkpt lat="44.62971" lon="-1.11007">
        <ele>52.56912</ele>
        <time>2022-12-25T13:18:56.363Z</time>
      </trkpt>
      <trkpt lat="44.6298" lon="-1.11006">
        <ele>52.52617</ele>
        <time>2022-12-25T13:18:58.363Z</time>
      </trkpt>
      <trkpt lat="44.62989" lon="-1.11004">
        <ele>52.483943</ele>
        <time>2022-12-25T13:19:00.367Z</time>
      </trkpt>
      <trkpt lat="44.62998" lon="-1.11002">
        <ele>52.490707</ele>
        <time>2022-12-25T13:19:02.363Z</time>
      </trkpt>
      <trkpt lat="44.63008" lon="-1.11001">
        <ele>52.52675</ele>
        <time>2022-12-25T13:19:04.361Z</time>
      </trkpt>
      <trkpt lat="44.63021" lon="-1.10998">
        <ele>52.578164</ele>
        <time>2022-12-25T13:19:07.363Z</time>
      </trkpt>
      <trkpt lat="44.63035" lon="-1.10994">
        <ele>52.630763</ele>
        <time>2022-12-25T13:19:10.364Z</time>
      </trkpt>
      <trkpt lat="44.63048" lon="-1.10992">
        <ele>52.679604</ele>
        <time>2022-12-25T13:19:13.362Z</time>
      </trkpt>
      <trkpt lat="44.6306" lon="-1.1099">
        <ele>52.727208</ele>
        <time>2022-12-25T13:19:16.364Z</time>
      </trkpt>
      <trkpt lat="44.63073" lon="-1.10987">
        <ele>52.776046</ele>
        <time>2022-12-25T13:19:19.365Z</time>
      </trkpt>
      <trkpt lat="44.63082" lon="-1.10988">
        <ele>52.810184</ele>
        <time>2022-12-25T13:19:21.365Z</time>
      </trkpt>
      <trkpt lat="44.63094" lon="-1.1099">
        <ele>52.853816</ele>
        <time>2022-12-25T13:19:25.363Z</time>
      </trkpt>
      <trkpt lat="44.63103" lon="-1.10988">
        <ele>52.889169</ele>
        <time>2022-12-25T13:19:28.363Z</time>
      </trkpt>
      <trkpt lat="44.63113" lon="-1.10987">
        <ele>52.927866</ele>
        <time>2022-12-25T13:19:31.360Z</time>
      </trkpt>
      <trkpt lat="44.63124" lon="-1.10985">
        <ele>52.970615</ele>
        <time>2022-12-25T13:19:34.363Z</time>
      </trkpt>
      <trkpt lat="44.63135" lon="-1.10983">
        <ele>53.011891</ele>
        <time>2022-12-25T13:19:37.365Z</time>
      </trkpt>
      <trkpt lat="44.63146" lon="-1.10981">
        <ele>53.054083</ele>
        <time>2022-12-25T13:19:40.370Z</time>
      </trkpt>
      <trkpt lat="44.63159" lon="-1.10978">
        <ele>53.101606</ele>
        <time>2022-12-25T13:19:43.361Z</time>
      </trkpt>
      <trkpt lat="44.6317" lon="-1.10976">
        <ele>53.144067</ele>
        <time>2022-12-25T13:19:46.367Z</time>
      </trkpt>
      <trkpt lat="44.63181" lon="-1.10975">
        <ele>53.103372</ele>
        <time>2022-12-25T13:19:49.367Z</time>
      </trkpt>
      <trkpt lat="44.63192" lon="-1.10976">
        <ele>53.055007</ele>
        <time>2022-12-25T13:19:52.369Z</time>
      </trkpt>
      <trkpt lat="44.63204" lon="-1.10977">
        <ele>53.005102</ele>
        <time>2022-12-25T13:19:55.368Z</time>
      </trkpt>
      <trkpt lat="44.63217" lon="-1.10982">
        <ele>52.947334</ele>
        <time>2022-12-25T13:19:58.361Z</time>
      </trkpt>
      <trkpt lat="44.63227" lon="-1.10987">
        <ele>52.902799</ele>
        <time>2022-12-25T13:20:00.362Z</time>
      </trkpt>
      <trkpt lat="44.63236" lon="-1.10989">
        <ele>52.862173</ele>
        <time>2022-12-25T13:20:02.372Z</time>
      </trkpt>
      <trkpt lat="44.63246" lon="-1.10993">
        <ele>52.817984</ele>
        <time>2022-12-25T13:20:04.369Z</time>
      </trkpt>
      <trkpt lat="44.63256" lon="-1.10997">
        <ele>52.775517</ele>
        <time>2022-12-25T13:20:06.372Z</time>
      </trkpt>
      <trkpt lat="44.63265" lon="-1.11">
        <ele>52.734325</ele>
        <time>2022-12-25T13:20:08.368Z</time>
      </trkpt>
      <trkpt lat="44.63274" lon="-1.11004">
        <ele>52.694167</ele>
        <time>2022-12-25T13:20:10.370Z</time>
      </trkpt>
      <trkpt lat="44.63286" lon="-1.11009">
        <ele>52.642228</ele>
        <time>2022-12-25T13:20:13.378Z</time>
      </trkpt>
      <trkpt lat="44.63295" lon="-1.11013">
        <ele>52.602567</ele>
        <time>2022-12-25T13:20:15.374Z</time>
      </trkpt>
      <trkpt lat="44.63306" lon="-1.11019">
        <ele>52.550147</ele>
        <time>2022-12-25T13:20:18.367Z</time>
      </trkpt>
      <trkpt lat="44.63318" lon="-1.11024">
        <ele>52.496894</ele>
        <time>2022-12-25T13:20:21.364Z</time>
      </trkpt>
      <trkpt lat="44.63328" lon="-1.11029">
        <ele>52.452237</ele>
        <time>2022-12-25T13:20:24.361Z</time>
      </trkpt>
      <trkpt lat="44.63338" lon="-1.11034">
        <ele>52.404158</ele>
        <time>2022-12-25T13:20:27.370Z</time>
      </trkpt>
      <trkpt lat="44.63351" lon="-1.1104">
        <ele>52.311802</ele>
        <time>2022-12-25T13:20:30.373Z</time>
      </trkpt>
      <trkpt lat="44.6336" lon="-1.11044">
        <ele>52.230975</ele>
        <time>2022-12-25T13:20:32.382Z</time>
      </trkpt>
      <trkpt lat="44.63371" lon="-1.11048">
        <ele>52.140867</ele>
        <time>2022-12-25T13:20:34.369Z</time>
      </trkpt>
      <trkpt lat="44.6338" lon="-1.11052">
        <ele>52.059287</ele>
        <time>2022-12-25T13:20:36.372Z</time>
      </trkpt>
      <trkpt lat="44.63389" lon="-1.11055">
        <ele>51.979905</ele>
        <time>2022-12-25T13:20:38.359Z</time>
      </trkpt>
      <trkpt lat="44.634" lon="-1.1106">
        <ele>51.878235</ele>
        <time>2022-12-25T13:20:41.374Z</time>
      </trkpt>
      <trkpt lat="44.63409" lon="-1.11063">
        <ele>51.801208</ele>
        <time>2022-12-25T13:20:43.362Z</time>
      </trkpt>
      <trkpt lat="44.6342" lon="-1.11069">
        <ele>51.693722</ele>
        <time>2022-12-25T13:20:46.382Z</time>
      </trkpt>
      <trkpt lat="44.63432" lon="-1.11074">
        <ele>51.586647</ele>
        <time>2022-12-25T13:20:49.369Z</time>
      </trkpt>
      <trkpt lat="44.63445" lon="-1.11078">
        <ele>51.479535</ele>
        <time>2022-12-25T13:20:52.362Z</time>
      </trkpt>
      <trkpt lat="44.63456" lon="-1.11083">
        <ele>51.380504</ele>
        <time>2022-12-25T13:20:55.363Z</time>
      </trkpt>
      <trkpt lat="44.63467" lon="-1.11087">
        <ele>51.27954</ele>
        <time>2022-12-25T13:20:58.363Z</time>
      </trkpt>
      <trkpt lat="44.63477" lon="-1.11091">
        <ele>51.186335</ele>
        <time>2022-12-25T13:21:01.371Z</time>
      </trkpt>
      <trkpt lat="44.63488" lon="-1.11096">
        <ele>51.090181</ele>
        <time>2022-12-25T13:21:04.387Z</time>
      </trkpt>
      <trkpt lat="44.635" lon="-1.11102">
        <ele>50.981592</ele>
        <time>2022-12-25T13:21:07.376Z</time>
      </trkpt>
      <trkpt lat="44.63511" lon="-1.11107">
        <ele>50.879548</ele>
        <time>2022-12-25T13:21:10.374Z</time>
      </trkpt>
      <trkpt lat="44.63522" lon="-1.11111">
        <ele>50.85127</ele>
        <time>2022-12-25T13:21:13.385Z</time>
      </trkpt>
      <trkpt lat="44.63533" lon="-1.11115">
        <ele>50.88393</ele>
        <time>2022-12-25T13:21:16.369Z</time>
      </trkpt>
      <trkpt lat="44.63545" lon="-1.11121">
        <ele>50.919039</ele>
        <time>2022-12-25T13:21:19.373Z</time>
      </trkpt>
      <trkpt lat="44.63558" lon="-1.11127">
        <ele>50.956319</ele>
        <time>2022-12-25T13:21:22.379Z</time>
      </trkpt>
      <trkpt lat="44.6357" lon="-1.11132">
        <ele>50.991856</ele>
        <time>2022-12-25T13:21:25.371Z</time>
      </trkpt>
      <trkpt lat="44.63582" lon="-1.11136">
        <ele>51.027458</ele>
        <time>2022-12-25T13:21:28.382Z</time>
      </trkpt>
      <trkpt lat="44.63594" lon="-1.11142">
        <ele>51.060992</ele>
        <time>2022-12-25T13:21:31.370Z</time>
      </trkpt>
      <trkpt lat="44.63605" lon="-1.11146">
        <ele>51.09255</ele>
        <time>2022-12-25T13:21:34.368Z</time>
      </trkpt>
      <trkpt lat="44.63615" lon="-1.11151">
        <ele>51.122472</ele>
        <time>2022-12-25T13:21:37.359Z</time>
      </trkpt>
      <trkpt lat="44.63625" lon="-1.11156">
        <ele>51.150875</ele>
        <time>2022-12-25T13:21:40.381Z</time>
      </trkpt>
      <trkpt lat="44.63636" lon="-1.11161">
        <ele>51.18592</ele>
        <time>2022-12-25T13:21:43.370Z</time>
      </trkpt>
      <trkpt lat="44.63649" lon="-1.11167">
        <ele>51.222316</ele>
        <time>2022-12-25T13:21:46.368Z</time>
      </trkpt>
      <trkpt lat="44.63658" lon="-1.11171">
        <ele>51.248628</ele>
        <time>2022-12-25T13:21:48.370Z</time>
      </trkpt>
      <trkpt lat="44.63671" lon="-1.11176">
        <ele>51.285997</ele>
        <time>2022-12-25T13:21:51.359Z</time>
      </trkpt>
      <trkpt lat="44.63683" lon="-1.11181">
        <ele>51.322285</ele>
        <time>2022-12-25T13:21:54.371Z</time>
      </trkpt>
      <trkpt lat="44.63692" lon="-1.11185">
        <ele>51.323193</ele>
        <time>2022-12-25T13:21:56.364Z</time>
      </trkpt>
      <trkpt lat="44.63704" lon="-1.1119">
        <ele>51.28377</ele>
        <time>2022-12-25T13:21:59.368Z</time>
      </trkpt>
      <trkpt lat="44.63715" lon="-1.11195">
        <ele>51.245803</ele>
        <time>2022-12-25T13:22:02.372Z</time>
      </trkpt>
      <trkpt lat="44.63726" lon="-1.112">
        <ele>51.207787</ele>
        <time>2022-12-25T13:22:05.373Z</time>
      </trkpt>
      <trkpt lat="44.63734" lon="-1.11204">
        <ele>51.177329</ele>
        <time>2022-12-25T13:22:08.375Z</time>
      </trkpt>
      <trkpt lat="44.63746" lon="-1.1121">
        <ele>51.137693</ele>
        <time>2022-12-25T13:22:11.373Z</time>
      </trkpt>
      <trkpt lat="44.63758" lon="-1.11215">
        <ele>51.095009</ele>
        <time>2022-12-25T13:22:14.375Z</time>
      </trkpt>
      <trkpt lat="44.63771" lon="-1.11222">
        <ele>51.051596</ele>
        <time>2022-12-25T13:22:17.370Z</time>
      </trkpt>
      <trkpt lat="44.6378" lon="-1.11225">
        <ele>51.020247</ele>
        <time>2022-12-25T13:22:19.374Z</time>
      </trkpt>
      <trkpt lat="44.63793" lon="-1.11231">
        <ele>50.976802</ele>
        <time>2022-12-25T13:22:22.367Z</time>
      </trkpt>
      <trkpt lat="44.63805" lon="-1.11235">
        <ele>50.934786</ele>
        <time>2022-12-25T13:22:25.365Z</time>
      </trkpt>
      <trkpt lat="44.63816" lon="-1.11232">
        <ele>50.897876</ele>
        <time>2022-12-25T13:22:28.364Z</time>
      </trkpt>
      <trkpt lat="44.63827" lon="-1.11229">
        <ele>50.863579</ele>
        <time>2022-12-25T13:22:31.386Z</time>
      </trkpt>
      <trkpt lat="44.63833" lon="-1.11241">
        <ele>50.828848</ele>
        <time>2022-12-25T13:22:34.364Z</time>
      </trkpt>
      <trkpt lat="44.63836" lon="-1.11255">
        <ele>50.795598</ele>
        <time>2022-12-25T13:22:37.360Z</time>
      </trkpt>
      <trkpt lat="44.6384" lon="-1.11268">
        <ele>50.762812</ele>
        <time>2022-12-25T13:22:40.363Z</time>
      </trkpt>
      <trkpt lat="44.63846" lon="-1.11277">
        <ele>50.72271</ele>
        <time>2022-12-25T13:22:43.369Z</time>
      </trkpt>
      <trkpt lat="44.6385" lon="-1.11294">
        <ele>50.652513</ele>
        <time>2022-12-25T13:29:01.368Z</time>
      </trkpt>
      <trkpt lat="44.63851" lon="-1.11307">
        <ele>50.602902</ele>
        <time>2022-12-25T13:29:05.370Z</time>
      </trkpt>
      <trkpt lat="44.63855" lon="-1.11323">
        <ele>50.53909</ele>
        <time>2022-12-25T13:29:09.367Z</time>
      </trkpt>
      <trkpt lat="44.63859" lon="-1.11335">
        <ele>50.486127</ele>
        <time>2022-12-25T13:29:12.366Z</time>
      </trkpt>
      <trkpt lat="44.63863" lon="-1.11349">
        <ele>50.430614</ele>
        <time>2022-12-25T13:29:15.359Z</time>
      </trkpt>
      <trkpt lat="44.63868" lon="-1.11362">
        <ele>50.371744</ele>
        <time>2022-12-25T13:29:18.364Z</time>
      </trkpt>
      <trkpt lat="44.63873" lon="-1.11377">
        <ele>50.312148</ele>
        <time>2022-12-25T13:29:21.363Z</time>
      </trkpt>
      <trkpt lat="44.63877" lon="-1.11391">
        <ele>50.249562</ele>
        <time>2022-12-25T13:29:24.362Z</time>
      </trkpt>
      <trkpt lat="44.63883" lon="-1.11407">
        <ele>50.183623</ele>
        <time>2022-12-25T13:29:27.364Z</time>
      </trkpt>
      <trkpt lat="44.63888" lon="-1.11423">
        <ele>50.114528</ele>
        <time>2022-12-25T13:29:30.365Z</time>
      </trkpt>
      <trkpt lat="44.63893" lon="-1.11434">
        <ele>50.065897</ele>
        <time>2022-12-25T13:29:32.366Z</time>
      </trkpt>
      <trkpt lat="44.63897" lon="-1.1145">
        <ele>50.000144</ele>
        <time>2022-12-25T13:29:35.367Z</time>
      </trkpt>
      <trkpt lat="44.63902" lon="-1.11463">
        <ele>49.941729</ele>
        <time>2022-12-25T13:29:38.362Z</time>
      </trkpt>
      <trkpt lat="44.63907" lon="-1.11477">
        <ele>49.882859</ele>
        <time>2022-12-25T13:29:41.363Z</time>
      </trkpt>
      <trkpt lat="44.63911" lon="-1.11491">
        <ele>49.825032</ele>
        <time>2022-12-25T13:29:44.372Z</time>
      </trkpt>
      <trkpt lat="44.63916" lon="-1.11506">
        <ele>49.750704</ele>
        <time>2022-12-25T13:29:47.368Z</time>
      </trkpt>
      <trkpt lat="44.63921" lon="-1.11521">
        <ele>49.615475</ele>
        <time>2022-12-25T13:29:50.368Z</time>
      </trkpt>
      <trkpt lat="44.63926" lon="-1.11537">
        <ele>49.476421</ele>
        <time>2022-12-25T13:29:53.363Z</time>
      </trkpt>
      <trkpt lat="44.63932" lon="-1.11554">
        <ele>49.328993</ele>
        <time>2022-12-25T13:29:56.361Z</time>
      </trkpt>
      <trkpt lat="44.63937" lon="-1.1157">
        <ele>49.188026</ele>
        <time>2022-12-25T13:29:59.369Z</time>
      </trkpt>
      <trkpt lat="44.63943" lon="-1.11583">
        <ele>49.065426</ele>
        <time>2022-12-25T13:30:02.369Z</time>
      </trkpt>
      <trkpt lat="44.63947" lon="-1.11596">
        <ele>48.950438</ele>
        <time>2022-12-25T13:30:05.364Z</time>
      </trkpt>
      <trkpt lat="44.63949" lon="-1.11611">
        <ele>48.833074</ele>
        <time>2022-12-25T13:30:08.366Z</time>
      </trkpt>
      <trkpt lat="44.63953" lon="-1.11625">
        <ele>48.71003</ele>
        <time>2022-12-25T13:30:11.380Z</time>
      </trkpt>
      <trkpt lat="44.63958" lon="-1.11637">
        <ele>48.603792</ele>
        <time>2022-12-25T13:30:16.376Z</time>
      </trkpt>
      <trkpt lat="44.63963" lon="-1.1165">
        <ele>48.481311</ele>
        <time>2022-12-25T13:30:28.363Z</time>
      </trkpt>
      <trkpt lat="44.63967" lon="-1.11665">
        <ele>48.359003</ele>
        <time>2022-12-25T13:30:32.372Z</time>
      </trkpt>
      <trkpt lat="44.63971" lon="-1.11679">
        <ele>48.238034</ele>
        <time>2022-12-25T13:30:35.377Z</time>
      </trkpt>
      <trkpt lat="44.63974" lon="-1.11695">
        <ele>48.105754</ele>
        <time>2022-12-25T13:30:38.362Z</time>
      </trkpt>
      <trkpt lat="44.63974" lon="-1.11714">
        <ele>47.951055</ele>
        <time>2022-12-25T13:30:41.362Z</time>
      </trkpt>
      <trkpt lat="44.63972" lon="-1.11728">
        <ele>47.837989</ele>
        <time>2022-12-25T13:30:43.364Z</time>
      </trkpt>
      <trkpt lat="44.63969" lon="-1.11743">
        <ele>47.815246</ele>
        <time>2022-12-25T13:30:45.367Z</time>
      </trkpt>
      <trkpt lat="44.63966" lon="-1.11758">
        <ele>47.919398</ele>
        <time>2022-12-25T13:30:47.363Z</time>
      </trkpt>
      <trkpt lat="44.63962" lon="-1.11773">
        <ele>48.023716</ele>
        <time>2022-12-25T13:30:49.363Z</time>
      </trkpt>
      <trkpt lat="44.63959" lon="-1.11786">
        <ele>48.120882</ele>
        <time>2022-12-25T13:30:51.361Z</time>
      </trkpt>
      <trkpt lat="44.63955" lon="-1.11804">
        <ele>48.246722</ele>
        <time>2022-12-25T13:30:54.363Z</time>
      </trkpt>
      <trkpt lat="44.63952" lon="-1.11821">
        <ele>48.366791</ele>
        <time>2022-12-25T13:30:57.361Z</time>
      </trkpt>
      <trkpt lat="44.63948" lon="-1.11837">
        <ele>48.478968</ele>
        <time>2022-12-25T13:31:00.366Z</time>
      </trkpt>
      <trkpt lat="44.63945" lon="-1.11852">
        <ele>48.584341</ele>
        <time>2022-12-25T13:31:03.360Z</time>
      </trkpt>
      <trkpt lat="44.63942" lon="-1.11869">
        <ele>48.699235</ele>
        <time>2022-12-25T13:31:06.362Z</time>
      </trkpt>
      <trkpt lat="44.63938" lon="-1.11886">
        <ele>48.820306</ele>
        <time>2022-12-25T13:31:09.368Z</time>
      </trkpt>
      <trkpt lat="44.63934" lon="-1.11904">
        <ele>48.946066</ele>
        <time>2022-12-25T13:31:12.366Z</time>
      </trkpt>
      <trkpt lat="44.63931" lon="-1.11922">
        <ele>49.070926</ele>
        <time>2022-12-25T13:31:15.365Z</time>
      </trkpt>
      <trkpt lat="44.63927" lon="-1.1194">
        <ele>49.195922</ele>
        <time>2022-12-25T13:31:18.366Z</time>
      </trkpt>
      <trkpt lat="44.63924" lon="-1.11956">
        <ele>49.307212</ele>
        <time>2022-12-25T13:31:21.361Z</time>
      </trkpt>
      <trkpt lat="44.63921" lon="-1.1197">
        <ele>49.40464</ele>
        <time>2022-12-25T13:31:24.368Z</time>
      </trkpt>
      <trkpt lat="44.63918" lon="-1.11983">
        <ele>49.482637</ele>
        <time>2022-12-25T13:31:27.363Z</time>
      </trkpt>
      <trkpt lat="44.63914" lon="-1.11998">
        <ele>49.524858</ele>
        <time>2022-12-25T13:31:30.360Z</time>
      </trkpt>
      <trkpt lat="44.6391" lon="-1.12014">
        <ele>49.567451</ele>
        <time>2022-12-25T13:31:33.360Z</time>
      </trkpt>
      <trkpt lat="44.63906" lon="-1.1203">
        <ele>49.612869</ele>
        <time>2022-12-25T13:31:36.360Z</time>
      </trkpt>
      <trkpt lat="44.63901" lon="-1.12047">
        <ele>49.659591</ele>
        <time>2022-12-25T13:31:39.363Z</time>
      </trkpt>
      <trkpt lat="44.63896" lon="-1.12063">
        <ele>49.705068</ele>
        <time>2022-12-25T13:31:42.362Z</time>
      </trkpt>
      <trkpt lat="44.63892" lon="-1.12078">
        <ele>49.74844</ele>
        <time>2022-12-25T13:31:45.360Z</time>
      </trkpt>
      <trkpt lat="44.63887" lon="-1.12093">
        <ele>49.79109</ele>
        <time>2022-12-25T13:31:48.363Z</time>
      </trkpt>
      <trkpt lat="44.63883" lon="-1.12106">
        <ele>49.827812</ele>
        <time>2022-12-25T13:31:51.364Z</time>
      </trkpt>
      <trkpt lat="44.63879" lon="-1.12121">
        <ele>49.869359</ele>
        <time>2022-12-25T13:31:55.364Z</time>
      </trkpt>
      <trkpt lat="44.63879" lon="-1.12108">
        <ele>49.903584</ele>
        <time>2022-12-25T13:32:01.372Z</time>
      </trkpt>
      <trkpt lat="44.63884" lon="-1.12095">
        <ele>49.940589</ele>
        <time>2022-12-25T13:32:05.364Z</time>
      </trkpt>
      <trkpt lat="44.63888" lon="-1.12083">
        <ele>49.977074</ele>
        <time>2022-12-25T13:32:08.383Z</time>
      </trkpt>
      <trkpt lat="44.63893" lon="-1.12068">
        <ele>50.018765</ele>
        <time>2022-12-25T13:32:11.385Z</time>
      </trkpt>
      <trkpt lat="44.63898" lon="-1.12052">
        <ele>50.063339</ele>
        <time>2022-12-25T13:32:14.366Z</time>
      </trkpt>
      <trkpt lat="44.63903" lon="-1.12036">
        <ele>50.109252</ele>
        <time>2022-12-25T13:32:17.373Z</time>
      </trkpt>
      <trkpt lat="44.63907" lon="-1.1202">
        <ele>50.094384</ele>
        <time>2022-12-25T13:32:20.360Z</time>
      </trkpt>
      <trkpt lat="44.63912" lon="-1.12005">
        <ele>50.030032</ele>
        <time>2022-12-25T13:32:23.366Z</time>
      </trkpt>
      <trkpt lat="44.63915" lon="-1.11989">
        <ele>49.969273</ele>
        <time>2022-12-25T13:32:26.366Z</time>
      </trkpt>
      <trkpt lat="44.63918" lon="-1.11975">
        <ele>49.913818</ele>
        <time>2022-12-25T13:32:29.367Z</time>
      </trkpt>
      <trkpt lat="44.63924" lon="-1.11964">
        <ele>49.862205</ele>
        <time>2022-12-25T13:32:34.369Z</time>
      </trkpt>
      <trkpt lat="44.63933" lon="-1.11971">
        <ele>49.807318</ele>
        <time>2022-12-25T13:32:45.364Z</time>
      </trkpt>
      <trkpt lat="44.63937" lon="-1.11985">
        <ele>49.749042</ele>
        <time>2022-12-25T13:32:50.361Z</time>
      </trkpt>
      <trkpt lat="44.63939" lon="-1.11999">
        <ele>49.694337</ele>
        <time>2022-12-25T13:32:54.363Z</time>
      </trkpt>
      <trkpt lat="44.6394" lon="-1.12012">
        <ele>49.644761</ele>
        <time>2022-12-25T13:32:57.363Z</time>
      </trkpt>
      <trkpt lat="44.63941" lon="-1.12026">
        <ele>49.591213</ele>
        <time>2022-12-25T13:33:00.362Z</time>
      </trkpt>
      <trkpt lat="44.63943" lon="-1.12041">
        <ele>49.535387</ele>
        <time>2022-12-25T13:33:03.363Z</time>
      </trkpt>
      <trkpt lat="44.63944" lon="-1.12055">
        <ele>49.482399</ele>
        <time>2022-12-25T13:33:06.365Z</time>
      </trkpt>
      <trkpt lat="44.63946" lon="-1.12071">
        <ele>49.420593</ele>
        <time>2022-12-25T13:33:10.362Z</time>
      </trkpt>
      <trkpt lat="44.63948" lon="-1.12086">
        <ele>49.36215</ele>
        <time>2022-12-25T13:33:14.363Z</time>
      </trkpt>
      <trkpt lat="44.63948" lon="-1.12101">
        <ele>49.302962</ele>
        <time>2022-12-25T13:33:18.362Z</time>
      </trkpt>
      <trkpt lat="44.63948" lon="-1.12118">
        <ele>49.239614</ele>
        <time>2022-12-25T13:33:22.364Z</time>
      </trkpt>
      <trkpt lat="44.63949" lon="-1.12131">
        <ele>49.190775</ele>
        <time>2022-12-25T13:33:25.372Z</time>
      </trkpt>
      <trkpt lat="44.6395" lon="-1.12144">
        <ele>49.168338</ele>
        <time>2022-12-25T13:33:29.362Z</time>
      </trkpt>
      <trkpt lat="44.63959" lon="-1.12138">
        <ele>49.164489</ele>
        <time>2022-12-25T13:33:53.380Z</time>
      </trkpt>
      <trkpt lat="44.63969" lon="-1.12136">
        <ele>49.160726</ele>
        <time>2022-12-25T13:33:58.366Z</time>
      </trkpt>
      <trkpt lat="44.63979" lon="-1.12139">
        <ele>49.156634</ele>
        <time>2022-12-25T13:34:03.367Z</time>
      </trkpt>
      <trkpt lat="44.63989" lon="-1.12142">
        <ele>49.152924</ele>
        <time>2022-12-25T13:34:08.362Z</time>
      </trkpt>
      <trkpt lat="44.6398" lon="-1.12142">
        <ele>49.14942</ele>
        <time>2022-12-25T13:34:23.360Z</time>
      </trkpt>
      <trkpt lat="44.6397" lon="-1.12139">
        <ele>49.145541</ele>
        <time>2022-12-25T13:34:27.365Z</time>
      </trkpt>
      <trkpt lat="44.6396" lon="-1.12137">
        <ele>49.141645</ele>
        <time>2022-12-25T13:34:31.366Z</time>
      </trkpt>
      <trkpt lat="44.63951" lon="-1.12131">
        <ele>49.137775</ele>
        <time>2022-12-25T13:34:36.364Z</time>
      </trkpt>
      <trkpt lat="44.63949" lon="-1.12117">
        <ele>49.133891</ele>
        <time>2022-12-25T13:34:40.363Z</time>
      </trkpt>
      <trkpt lat="44.63948" lon="-1.12102">
        <ele>49.129765</ele>
        <time>2022-12-25T13:34:44.361Z</time>
      </trkpt>
      <trkpt lat="44.63946" lon="-1.12086">
        <ele>49.125308</ele>
        <time>2022-12-25T13:34:48.373Z</time>
      </trkpt>
      <trkpt lat="44.63946" lon="-1.12071">
        <ele>49.121276</ele>
        <time>2022-12-25T13:34:52.365Z</time>
      </trkpt>
      <trkpt lat="44.63945" lon="-1.12055">
        <ele>49.116737</ele>
        <time>2022-12-25T13:34:56.364Z</time>
      </trkpt>
      <trkpt lat="44.63944" lon="-1.12039">
        <ele>49.112416</ele>
        <time>2022-12-25T13:35:00.365Z</time>
      </trkpt>
      <trkpt lat="44.63942" lon="-1.12022">
        <ele>49.107838</ele>
        <time>2022-12-25T13:35:04.372Z</time>
      </trkpt>
      <trkpt lat="44.6394" lon="-1.12008">
        <ele>49.103971</ele>
        <time>2022-12-25T13:35:07.365Z</time>
      </trkpt>
      <trkpt lat="44.63939" lon="-1.11995">
        <ele>49.120343</ele>
        <time>2022-12-25T13:35:10.362Z</time>
      </trkpt>
      <trkpt lat="44.63937" lon="-1.11981">
        <ele>49.186191</ele>
        <time>2022-12-25T13:35:14.372Z</time>
      </trkpt>
      <trkpt lat="44.63932" lon="-1.1197">
        <ele>49.248155</ele>
        <time>2022-12-25T13:35:47.370Z</time>
      </trkpt>
      <trkpt lat="44.63926" lon="-1.11961">
        <ele>49.311449</ele>
        <time>2022-12-25T13:35:57.382Z</time>
      </trkpt>
      <trkpt lat="44.63926" lon="-1.11948">
        <ele>49.374991</ele>
        <time>2022-12-25T13:36:02.364Z</time>
      </trkpt>
      <trkpt lat="44.63928" lon="-1.11935">
        <ele>49.438347</ele>
        <time>2022-12-25T13:36:05.372Z</time>
      </trkpt>
      <trkpt lat="44.63931" lon="-1.11921">
        <ele>49.509426</ele>
        <time>2022-12-25T13:36:08.387Z</time>
      </trkpt>
      <trkpt lat="44.63933" lon="-1.11905">
        <ele>49.586363</ele>
        <time>2022-12-25T13:36:11.376Z</time>
      </trkpt>
      <trkpt lat="44.63936" lon="-1.11889">
        <ele>49.667834</ele>
        <time>2022-12-25T13:36:14.379Z</time>
      </trkpt>
      <trkpt lat="44.6394" lon="-1.11871">
        <ele>49.754651</ele>
        <time>2022-12-25T13:36:17.387Z</time>
      </trkpt>
      <trkpt lat="44.63943" lon="-1.11853">
        <ele>49.84313</ele>
        <time>2022-12-25T13:36:20.372Z</time>
      </trkpt>
      <trkpt lat="44.63946" lon="-1.11835">
        <ele>49.930988</ele>
        <time>2022-12-25T13:36:23.367Z</time>
      </trkpt>
      <trkpt lat="44.63949" lon="-1.11818">
        <ele>50.019787</ele>
        <time>2022-12-25T13:36:26.377Z</time>
      </trkpt>
      <trkpt lat="44.63953" lon="-1.11799">
        <ele>50.110975</ele>
        <time>2022-12-25T13:36:29.382Z</time>
      </trkpt>
      <trkpt lat="44.63955" lon="-1.11786">
        <ele>50.176052</ele>
        <time>2022-12-25T13:36:31.364Z</time>
      </trkpt>
      <trkpt lat="44.63959" lon="-1.11768">
        <ele>50.266848</ele>
        <time>2022-12-25T13:36:34.368Z</time>
      </trkpt>
      <trkpt lat="44.63961" lon="-1.11756">
        <ele>50.314733</ele>
        <time>2022-12-25T13:36:36.382Z</time>
      </trkpt>
      <trkpt lat="44.63964" lon="-1.11743">
        <ele>50.300948</ele>
        <time>2022-12-25T13:36:38.377Z</time>
      </trkpt>
      <trkpt lat="44.63967" lon="-1.1173">
        <ele>50.286257</ele>
        <time>2022-12-25T13:36:40.386Z</time>
      </trkpt>
      <trkpt lat="44.63969" lon="-1.11713">
        <ele>50.266988</ele>
        <time>2022-12-25T13:36:43.365Z</time>
      </trkpt>
      <trkpt lat="44.6397" lon="-1.117">
        <ele>50.25326</ele>
        <time>2022-12-25T13:36:45.369Z</time>
      </trkpt>
      <trkpt lat="44.63968" lon="-1.11682">
        <ele>50.233583</ele>
        <time>2022-12-25T13:36:48.375Z</time>
      </trkpt>
      <trkpt lat="44.63964" lon="-1.11664">
        <ele>50.214161</ele>
        <time>2022-12-25T13:36:51.371Z</time>
      </trkpt>
      <trkpt lat="44.63959" lon="-1.1165">
        <ele>50.197673</ele>
        <time>2022-12-25T13:36:54.367Z</time>
      </trkpt>
      <trkpt lat="44.63955" lon="-1.11635">
        <ele>50.180622</ele>
        <time>2022-12-25T13:36:57.366Z</time>
      </trkpt>
      <trkpt lat="44.6395" lon="-1.11623">
        <ele>50.164884</ele>
        <time>2022-12-25T13:37:00.388Z</time>
      </trkpt>
      <trkpt lat="44.63942" lon="-1.11613">
        <ele>50.149032</ele>
        <time>2022-12-25T13:37:03.372Z</time>
      </trkpt>
      <trkpt lat="44.63934" lon="-1.11604">
        <ele>50.133676</ele>
        <time>2022-12-25T13:37:06.376Z</time>
      </trkpt>
      <trkpt lat="44.63932" lon="-1.11588">
        <ele>50.11654</ele>
        <time>2022-12-25T13:37:09.376Z</time>
      </trkpt>
      <trkpt lat="44.63932" lon="-1.1157">
        <ele>50.09694</ele>
        <time>2022-12-25T13:37:12.370Z</time>
      </trkpt>
      <trkpt lat="44.63929" lon="-1.11558">
        <ele>50.083156</ele>
        <time>2022-12-25T13:37:14.374Z</time>
      </trkpt>
      <trkpt lat="44.63925" lon="-1.11546">
        <ele>50.069477</ele>
        <time>2022-12-25T13:37:16.368Z</time>
      </trkpt>
      <trkpt lat="44.63919" lon="-1.11529">
        <ele>50.049026</ele>
        <time>2022-12-25T13:37:19.369Z</time>
      </trkpt>
      <trkpt lat="44.63915" lon="-1.11517">
        <ele>49.985261</ele>
        <time>2022-12-25T13:37:21.376Z</time>
      </trkpt>
      <trkpt lat="44.63909" lon="-1.115">
        <ele>49.881334</ele>
        <time>2022-12-25T13:37:24.376Z</time>
      </trkpt>
      <trkpt lat="44.63906" lon="-1.11489">
        <ele>49.809347</ele>
        <time>2022-12-25T13:37:26.374Z</time>
      </trkpt>
      <trkpt lat="44.63902" lon="-1.11477">
        <ele>49.735538</ele>
        <time>2022-12-25T13:37:28.380Z</time>
      </trkpt>
      <trkpt lat="44.63898" lon="-1.11465">
        <ele>49.663365</ele>
        <time>2022-12-25T13:37:30.374Z</time>
      </trkpt>
      <trkpt lat="44.63894" lon="-1.11453">
        <ele>49.592151</ele>
        <time>2022-12-25T13:37:32.377Z</time>
      </trkpt>
      <trkpt lat="44.63891" lon="-1.11442">
        <ele>49.521142</ele>
        <time>2022-12-25T13:37:34.385Z</time>
      </trkpt>
      <trkpt lat="44.63887" lon="-1.1143">
        <ele>49.446787</ele>
        <time>2022-12-25T13:37:36.371Z</time>
      </trkpt>
      <trkpt lat="44.63882" lon="-1.11417">
        <ele>49.367181</ele>
        <time>2022-12-25T13:37:38.374Z</time>
      </trkpt>
      <trkpt lat="44.63879" lon="-1.11405">
        <ele>49.294754</ele>
        <time>2022-12-25T13:37:40.375Z</time>
      </trkpt>
      <trkpt lat="44.63875" lon="-1.11393">
        <ele>49.220731</ele>
        <time>2022-12-25T13:37:42.385Z</time>
      </trkpt>
      <trkpt lat="44.63872" lon="-1.11381">
        <ele>49.149721</ele>
        <time>2022-12-25T13:37:44.366Z</time>
      </trkpt>
      <trkpt lat="44.63866" lon="-1.11367">
        <ele>49.055787</ele>
        <time>2022-12-25T13:37:47.373Z</time>
      </trkpt>
      <trkpt lat="44.63861" lon="-1.11353">
        <ele>48.968289</ele>
        <time>2022-12-25T13:37:50.390Z</time>
      </trkpt>
      <trkpt lat="44.63857" lon="-1.11338">
        <ele>48.880741</ele>
        <time>2022-12-25T13:37:53.370Z</time>
      </trkpt>
      <trkpt lat="44.63852" lon="-1.11323">
        <ele>48.788776</ele>
        <time>2022-12-25T13:37:56.377Z</time>
      </trkpt>
      <trkpt lat="44.63847" lon="-1.11308">
        <ele>48.694753</ele>
        <time>2022-12-25T13:37:59.374Z</time>
      </trkpt>
      <trkpt lat="44.63843" lon="-1.11295">
        <ele>48.639985</ele>
        <time>2022-12-25T13:38:02.367Z</time>
      </trkpt>
      <trkpt lat="44.63849" lon="-1.11284">
        <ele>48.715953</ele>
        <time>2022-12-25T13:38:06.379Z</time>
      </trkpt>
      <trkpt lat="44.63861" lon="-1.11288">
        <ele>48.808107</ele>
        <time>2022-12-25T13:38:10.361Z</time>
      </trkpt>
      <trkpt lat="44.63872" lon="-1.11293">
        <ele>48.895264</ele>
        <time>2022-12-25T13:38:13.364Z</time>
      </trkpt>
      <trkpt lat="44.63885" lon="-1.11297">
        <ele>48.98997</ele>
        <time>2022-12-25T13:38:16.376Z</time>
      </trkpt>
      <trkpt lat="44.63893" lon="-1.11301">
        <ele>49.057749</ele>
        <time>2022-12-25T13:38:18.388Z</time>
      </trkpt>
      <trkpt lat="44.63902" lon="-1.11305">
        <ele>49.125341</ele>
        <time>2022-12-25T13:38:20.361Z</time>
      </trkpt>
      <trkpt lat="44.63915" lon="-1.11311">
        <ele>49.228936</ele>
        <time>2022-12-25T13:38:23.368Z</time>
      </trkpt>
      <trkpt lat="44.63924" lon="-1.11316">
        <ele>49.299886</ele>
        <time>2022-12-25T13:38:25.376Z</time>
      </trkpt>
      <trkpt lat="44.63932" lon="-1.1132">
        <ele>49.3673</ele>
        <time>2022-12-25T13:38:27.364Z</time>
      </trkpt>
      <trkpt lat="44.63941" lon="-1.11325">
        <ele>49.441296</ele>
        <time>2022-12-25T13:38:29.375Z</time>
      </trkpt>
      <trkpt lat="44.6395" lon="-1.11329">
        <ele>49.508748</ele>
        <time>2022-12-25T13:38:31.388Z</time>
      </trkpt>
      <trkpt lat="44.63959" lon="-1.11333">
        <ele>49.577044</ele>
        <time>2022-12-25T13:38:33.387Z</time>
      </trkpt>
      <trkpt lat="44.63971" lon="-1.11339">
        <ele>49.675167</ele>
        <time>2022-12-25T13:38:36.371Z</time>
      </trkpt>
      <trkpt lat="44.63982" lon="-1.11346">
        <ele>49.762174</ele>
        <time>2022-12-25T13:38:39.367Z</time>
      </trkpt>
      <trkpt lat="44.63992" lon="-1.11349">
        <ele>49.839029</ele>
        <time>2022-12-25T13:38:42.370Z</time>
      </trkpt>
      <trkpt lat="44.64003" lon="-1.11352">
        <ele>49.926848</ele>
        <time>2022-12-25T13:38:45.386Z</time>
      </trkpt>
      <trkpt lat="44.64015" lon="-1.11355">
        <ele>49.977397</ele>
        <time>2022-12-25T13:38:48.387Z</time>
      </trkpt>
      <trkpt lat="44.64026" lon="-1.11357">
        <ele>49.983109</ele>
        <time>2022-12-25T13:38:51.373Z</time>
      </trkpt>
      <trkpt lat="44.64035" lon="-1.1136">
        <ele>49.987909</ele>
        <time>2022-12-25T13:38:54.387Z</time>
      </trkpt>
      <trkpt lat="44.64045" lon="-1.11363">
        <ele>49.993275</ele>
        <time>2022-12-25T13:38:58.377Z</time>
      </trkpt>
      <trkpt lat="44.64055" lon="-1.11367">
        <ele>49.999085</ele>
        <time>2022-12-25T13:39:03.373Z</time>
      </trkpt>
      <trkpt lat="44.64067" lon="-1.11369">
        <ele>50.005166</ele>
        <time>2022-12-25T13:39:08.379Z</time>
      </trkpt>
      <trkpt lat="44.6408" lon="-1.11371">
        <ele>50.012238</ele>
        <time>2022-12-25T13:39:11.388Z</time>
      </trkpt>
      <trkpt lat="44.64089" lon="-1.11373">
        <ele>50.017238</ele>
        <time>2022-12-25T13:39:13.375Z</time>
      </trkpt>
      <trkpt lat="44.641" lon="-1.11374">
        <ele>50.022781</ele>
        <time>2022-12-25T13:39:15.365Z</time>
      </trkpt>
      <trkpt lat="44.64109" lon="-1.11375">
        <ele>50.027803</ele>
        <time>2022-12-25T13:39:17.375Z</time>
      </trkpt>
      <trkpt lat="44.64119" lon="-1.11376">
        <ele>50.033028</ele>
        <time>2022-12-25T13:39:19.389Z</time>
      </trkpt>
      <trkpt lat="44.64128" lon="-1.11377">
        <ele>50.03793</ele>
        <time>2022-12-25T13:39:21.387Z</time>
      </trkpt>
      <trkpt lat="44.6414" lon="-1.11377">
        <ele>50.044103</ele>
        <time>2022-12-25T13:39:24.387Z</time>
      </trkpt>
      <trkpt lat="44.64149" lon="-1.11378">
        <ele>50.049218</ele>
        <time>2022-12-25T13:39:27.382Z</time>
      </trkpt>
      <trkpt lat="44.6416" lon="-1.11378">
        <ele>50.05502</ele>
        <time>2022-12-25T13:39:30.378Z</time>
      </trkpt>
      <trkpt lat="44.64172" lon="-1.11379">
        <ele>50.061142</ele>
        <time>2022-12-25T13:39:33.374Z</time>
      </trkpt>
      <trkpt lat="44.64183" lon="-1.11381">
        <ele>50.067145</ele>
        <time>2022-12-25T13:39:36.365Z</time>
      </trkpt>
      <trkpt lat="44.64193" lon="-1.11381">
        <ele>50.051594</ele>
        <time>2022-12-25T13:39:39.384Z</time>
      </trkpt>
      <trkpt lat="44.64203" lon="-1.11382">
        <ele>50.01783</ele>
        <time>2022-12-25T13:39:42.380Z</time>
      </trkpt>
      <trkpt lat="44.64214" lon="-1.11381">
        <ele>49.982057</ele>
        <time>2022-12-25T13:39:45.373Z</time>
      </trkpt>
      <trkpt lat="44.64224" lon="-1.11382">
        <ele>49.945241</ele>
        <time>2022-12-25T13:39:48.362Z</time>
      </trkpt>
      <trkpt lat="44.64236" lon="-1.11383">
        <ele>49.905655</ele>
        <time>2022-12-25T13:39:51.368Z</time>
      </trkpt>
      <trkpt lat="44.64249" lon="-1.11384">
        <ele>49.862031</ele>
        <time>2022-12-25T13:39:54.363Z</time>
      </trkpt>
      <trkpt lat="44.64262" lon="-1.11384">
        <ele>49.817356</ele>
        <time>2022-12-25T13:39:57.366Z</time>
      </trkpt>
      <trkpt lat="44.64274" lon="-1.11386">
        <ele>49.77704</ele>
        <time>2022-12-25T13:40:00.367Z</time>
      </trkpt>
      <trkpt lat="44.64285" lon="-1.11387">
        <ele>49.739168</ele>
        <time>2022-12-25T13:40:03.365Z</time>
      </trkpt>
      <trkpt lat="44.64294" lon="-1.11387">
        <ele>49.70646</ele>
        <time>2022-12-25T13:40:06.386Z</time>
      </trkpt>
      <trkpt lat="44.64304" lon="-1.1139">
        <ele>49.674396</ele>
        <time>2022-12-25T13:40:09.365Z</time>
      </trkpt>
      <trkpt lat="44.64312" lon="-1.11394">
        <ele>49.642967</ele>
        <time>2022-12-25T13:40:12.366Z</time>
      </trkpt>
      <trkpt lat="44.64322" lon="-1.11395">
        <ele>49.611516</ele>
        <time>2022-12-25T13:40:15.382Z</time>
      </trkpt>
      <trkpt lat="44.64332" lon="-1.11393">
        <ele>49.575148</ele>
        <time>2022-12-25T13:40:19.375Z</time>
      </trkpt>
      <trkpt lat="44.64343" lon="-1.11388">
        <ele>49.536663</ele>
        <time>2022-12-25T13:40:23.372Z</time>
      </trkpt>
      <trkpt lat="44.64351" lon="-1.11381">
        <ele>49.503402</ele>
        <time>2022-12-25T13:40:27.363Z</time>
      </trkpt>
      <trkpt lat="44.64354" lon="-1.11366">
        <ele>49.465335</ele>
        <time>2022-12-25T13:40:32.371Z</time>
      </trkpt>
      <trkpt lat="44.64356" lon="-1.11351">
        <ele>49.397757</ele>
        <time>2022-12-25T13:40:36.369Z</time>
      </trkpt>
      <trkpt lat="44.64357" lon="-1.11337">
        <ele>49.323486</ele>
        <time>2022-12-25T13:40:39.371Z</time>
      </trkpt>
      <trkpt lat="44.64361" lon="-1.11322">
        <ele>49.247547</ele>
        <time>2022-12-25T13:40:42.365Z</time>
      </trkpt>
      <trkpt lat="44.64365" lon="-1.11311">
        <ele>49.179017</ele>
        <time>2022-12-25T13:40:45.366Z</time>
      </trkpt>
      <trkpt lat="44.64372" lon="-1.11302">
        <ele>49.112846</ele>
        <time>2022-12-25T13:40:48.389Z</time>
      </trkpt>
      <trkpt lat="44.64381" lon="-1.1129">
        <ele>49.026876</ele>
        <time>2022-12-25T13:40:52.368Z</time>
      </trkpt>
      <trkpt lat="44.64387" lon="-1.11281">
        <ele>48.962086</ele>
        <time>2022-12-25T13:40:55.371Z</time>
      </trkpt>
      <trkpt lat="44.64392" lon="-1.11268">
        <ele>48.88924</ele>
        <time>2022-12-25T13:41:07.363Z</time>
      </trkpt>
      <trkpt lat="44.6439" lon="-1.11253">
        <ele>48.811581</ele>
        <time>2022-12-25T13:41:12.384Z</time>
      </trkpt>
      <trkpt lat="44.64387" lon="-1.11238">
        <ele>48.729013</ele>
        <time>2022-12-25T13:41:16.372Z</time>
      </trkpt>
      <trkpt lat="44.64386" lon="-1.11224">
        <ele>48.658488</ele>
        <time>2022-12-25T13:41:19.375Z</time>
      </trkpt>
      <trkpt lat="44.64384" lon="-1.11211">
        <ele>48.59384</ele>
        <time>2022-12-25T13:41:22.365Z</time>
      </trkpt>
      <trkpt lat="44.64383" lon="-1.11196">
        <ele>48.517428</ele>
        <time>2022-12-25T13:41:26.377Z</time>
      </trkpt>
      <trkpt lat="44.64382" lon="-1.11181">
        <ele>48.439441</ele>
        <time>2022-12-25T13:41:30.374Z</time>
      </trkpt>
      <trkpt lat="44.64381" lon="-1.11164">
        <ele>48.353232</ele>
        <time>2022-12-25T13:41:34.370Z</time>
      </trkpt>
      <trkpt lat="44.64381" lon="-1.11151">
        <ele>48.288194</ele>
        <time>2022-12-25T13:41:37.371Z</time>
      </trkpt>
      <trkpt lat="44.64381" lon="-1.11136">
        <ele>48.209912</ele>
        <time>2022-12-25T13:41:41.377Z</time>
      </trkpt>
      <trkpt lat="44.64381" lon="-1.11122">
        <ele>48.139291</ele>
        <time>2022-12-25T13:41:45.387Z</time>
      </trkpt>
      <trkpt lat="44.64383" lon="-1.11108">
        <ele>48.065906</ele>
        <time>2022-12-25T13:41:50.373Z</time>
      </trkpt>
      <trkpt lat="44.64381" lon="-1.11095">
        <ele>48.001099</ele>
        <time>2022-12-25T13:41:55.373Z</time>
      </trkpt>
      <trkpt lat="44.64389" lon="-1.11089">
        <ele>47.936339</ele>
        <time>2022-12-25T13:42:12.381Z</time>
      </trkpt>
      <trkpt lat="44.6439" lon="-1.11102">
        <ele>47.869893</ele>
        <time>2022-12-25T13:42:38.379Z</time>
      </trkpt>
      <trkpt lat="44.64386" lon="-1.11114">
        <ele>47.806362</ele>
        <time>2022-12-25T13:42:41.395Z</time>
      </trkpt>
      <trkpt lat="44.64383" lon="-1.11128">
        <ele>47.728313</ele>
        <time>2022-12-25T13:42:44.371Z</time>
      </trkpt>
      <trkpt lat="44.64381" lon="-1.11143">
        <ele>47.652415</ele>
        <time>2022-12-25T13:42:47.369Z</time>
      </trkpt>
      <trkpt lat="44.64381" lon="-1.11157">
        <ele>47.58434</ele>
        <time>2022-12-25T13:42:50.381Z</time>
      </trkpt>
      <trkpt lat="44.64381" lon="-1.11173">
        <ele>47.503202</ele>
        <time>2022-12-25T13:42:54.378Z</time>
      </trkpt>
      <trkpt lat="44.64383" lon="-1.11187">
        <ele>47.429659</ele>
        <time>2022-12-25T13:42:58.363Z</time>
      </trkpt>
      <trkpt lat="44.64385" lon="-1.112">
        <ele>47.366086</ele>
        <time>2022-12-25T13:43:01.363Z</time>
      </trkpt>
      <trkpt lat="44.64385" lon="-1.11214">
        <ele>47.296477</ele>
        <time>2022-12-25T13:43:04.371Z</time>
      </trkpt>
      <trkpt lat="44.64386" lon="-1.11228">
        <ele>47.226613</ele>
        <time>2022-12-25T13:43:07.362Z</time>
      </trkpt>
      <trkpt lat="44.64387" lon="-1.11241">
        <ele>47.161163</ele>
        <time>2022-12-25T13:43:10.370Z</time>
      </trkpt>
      <trkpt lat="44.64389" lon="-1.11257">
        <ele>47.080968</ele>
        <time>2022-12-25T13:43:14.368Z</time>
      </trkpt>
      <trkpt lat="44.64388" lon="-1.11273">
        <ele>46.997329</ele>
        <time>2022-12-25T13:43:18.375Z</time>
      </trkpt>
      <trkpt lat="44.64384" lon="-1.11289">
        <ele>46.913796</ele>
        <time>2022-12-25T13:43:22.374Z</time>
      </trkpt>
      <trkpt lat="44.64376" lon="-1.113">
        <ele>46.921846</ele>
        <time>2022-12-25T13:43:26.373Z</time>
      </trkpt>
      <trkpt lat="44.64368" lon="-1.11311">
        <ele>46.936841</ele>
        <time>2022-12-25T13:43:30.366Z</time>
      </trkpt>
      <trkpt lat="44.64362" lon="-1.11321">
        <ele>46.949726</ele>
        <time>2022-12-25T13:43:33.373Z</time>
      </trkpt>
      <trkpt lat="44.64357" lon="-1.11333">
        <ele>46.963727</ele>
        <time>2022-12-25T13:43:36.363Z</time>
      </trkpt>
      <trkpt lat="44.64355" lon="-1.11347">
        <ele>46.978017</ele>
        <time>2022-12-25T13:43:39.374Z</time>
      </trkpt>
      <trkpt lat="44.64354" lon="-1.1136">
        <ele>46.990818</ele>
        <time>2022-12-25T13:43:42.363Z</time>
      </trkpt>
      <trkpt lat="44.64353" lon="-1.11373">
        <ele>47.003388</ele>
        <time>2022-12-25T13:43:46.365Z</time>
      </trkpt>
      <trkpt lat="44.64356" lon="-1.11386">
        <ele>47.016901</ele>
        <time>2022-12-25T13:43:50.373Z</time>
      </trkpt>
      <trkpt lat="44.64365" lon="-1.1139">
        <ele>47.029812</ele>
        <time>2022-12-25T13:43:53.367Z</time>
      </trkpt>
      <trkpt lat="44.64374" lon="-1.11385">
        <ele>47.042691</ele>
        <time>2022-12-25T13:43:56.365Z</time>
      </trkpt>
      <trkpt lat="44.64384" lon="-1.11381">
        <ele>47.056677</ele>
        <time>2022-12-25T13:43:59.370Z</time>
      </trkpt>
      <trkpt lat="44.64395" lon="-1.11377">
        <ele>47.072072</ele>
        <time>2022-12-25T13:44:02.366Z</time>
      </trkpt>
      <trkpt lat="44.64405" lon="-1.11374">
        <ele>47.087377</ele>
        <time>2022-12-25T13:44:05.386Z</time>
      </trkpt>
      <trkpt lat="44.64417" lon="-1.1137">
        <ele>47.103153</ele>
        <time>2022-12-25T13:44:08.387Z</time>
      </trkpt>
      <trkpt lat="44.64429" lon="-1.11366">
        <ele>47.121115</ele>
        <time>2022-12-25T13:44:11.364Z</time>
      </trkpt>
      <trkpt lat="44.64442" lon="-1.11364">
        <ele>47.139195</ele>
        <time>2022-12-25T13:44:14.374Z</time>
      </trkpt>
      <trkpt lat="44.64455" lon="-1.11363">
        <ele>47.159415</ele>
        <time>2022-12-25T13:44:17.364Z</time>
      </trkpt>
      <trkpt lat="44.64465" lon="-1.11362">
        <ele>47.288229</ele>
        <time>2022-12-25T13:44:20.378Z</time>
      </trkpt>
      <trkpt lat="44.64476" lon="-1.11361">
        <ele>47.410238</ele>
        <time>2022-12-25T13:44:23.370Z</time>
      </trkpt>
      <trkpt lat="44.64485" lon="-1.11359">
        <ele>47.522292</ele>
        <time>2022-12-25T13:44:26.367Z</time>
      </trkpt>
      <trkpt lat="44.64497" lon="-1.11359">
        <ele>47.658166</ele>
        <time>2022-12-25T13:44:30.387Z</time>
      </trkpt>
      <trkpt lat="44.64504" lon="-1.11366">
        <ele>47.768387</ele>
        <time>2022-12-25T13:44:34.366Z</time>
      </trkpt>
      <trkpt lat="44.64507" lon="-1.11377">
        <ele>47.864254</ele>
        <time>2022-12-25T13:45:40.300Z</time>
      </trkpt>
      <trkpt lat="44.645" lon="-1.11368">
        <ele>47.979498</ele>
        <time>2022-12-25T13:57:29.372Z</time>
      </trkpt>
      <trkpt lat="44.64493" lon="-1.1136">
        <ele>48.085685</ele>
        <time>2022-12-25T13:57:34.367Z</time>
      </trkpt>
      <trkpt lat="44.64482" lon="-1.11362">
        <ele>48.213413</ele>
        <time>2022-12-25T13:57:39.380Z</time>
      </trkpt>
      <trkpt lat="44.64472" lon="-1.11363">
        <ele>48.332783</ele>
        <time>2022-12-25T13:57:43.388Z</time>
      </trkpt>
      <trkpt lat="44.64461" lon="-1.11365">
        <ele>48.465073</ele>
        <time>2022-12-25T13:57:48.376Z</time>
      </trkpt>
      <trkpt lat="44.64451" lon="-1.11365">
        <ele>48.583236</ele>
        <time>2022-12-25T14:01:24.376Z</time>
      </trkpt>
      <trkpt lat="44.6444" lon="-1.11368">
        <ele>48.712808</ele>
        <time>2022-12-25T14:01:29.376Z</time>
      </trkpt>
      <trkpt lat="44.6443" lon="-1.11371">
        <ele>48.838887</ele>
        <time>2022-12-25T14:01:33.364Z</time>
      </trkpt>
      <trkpt lat="44.64418" lon="-1.11372">
        <ele>48.975559</ele>
        <time>2022-12-25T14:01:37.362Z</time>
      </trkpt>
      <trkpt lat="44.64407" lon="-1.11375">
        <ele>49.111591</ele>
        <time>2022-12-25T14:01:41.368Z</time>
      </trkpt>
      <trkpt lat="44.64397" lon="-1.11377">
        <ele>49.230548</ele>
        <time>2022-12-25T14:01:44.370Z</time>
      </trkpt>
      <trkpt lat="44.64388" lon="-1.11381">
        <ele>49.250401</ele>
        <time>2022-12-25T14:01:47.361Z</time>
      </trkpt>
      <trkpt lat="44.64379" lon="-1.11385">
        <ele>49.193945</ele>
        <time>2022-12-25T14:01:50.371Z</time>
      </trkpt>
      <trkpt lat="44.6437" lon="-1.11389">
        <ele>49.138231</ele>
        <time>2022-12-25T14:01:53.371Z</time>
      </trkpt>
      <trkpt lat="44.64361" lon="-1.11392">
        <ele>49.08503</ele>
        <time>2022-12-25T14:01:56.366Z</time>
      </trkpt>
      <trkpt lat="44.64352" lon="-1.11394">
        <ele>49.030131</ele>
        <time>2022-12-25T14:01:59.359Z</time>
      </trkpt>
      <trkpt lat="44.64341" lon="-1.11397">
        <ele>48.962344</ele>
        <time>2022-12-25T14:02:03.364Z</time>
      </trkpt>
      <trkpt lat="44.64331" lon="-1.11399">
        <ele>48.905482</ele>
        <time>2022-12-25T14:02:06.361Z</time>
      </trkpt>
      <trkpt lat="44.64322" lon="-1.11401">
        <ele>48.851784</ele>
        <time>2022-12-25T14:02:09.366Z</time>
      </trkpt>
      <trkpt lat="44.64312" lon="-1.11399">
        <ele>48.790901</ele>
        <time>2022-12-25T14:02:12.366Z</time>
      </trkpt>
      <trkpt lat="44.64301" lon="-1.11396">
        <ele>48.7295</ele>
        <time>2022-12-25T14:02:15.372Z</time>
      </trkpt>
      <trkpt lat="44.64291" lon="-1.11393">
        <ele>48.669246</ele>
        <time>2022-12-25T14:02:18.365Z</time>
      </trkpt>
      <trkpt lat="44.64281" lon="-1.11391">
        <ele>48.605828</ele>
        <time>2022-12-25T14:02:21.373Z</time>
      </trkpt>
      <trkpt lat="44.64269" lon="-1.11388">
        <ele>48.53578</ele>
        <time>2022-12-25T14:02:24.368Z</time>
      </trkpt>
      <trkpt lat="44.64257" lon="-1.11389">
        <ele>48.465234</ele>
        <time>2022-12-25T14:02:27.365Z</time>
      </trkpt>
      <trkpt lat="44.64245" lon="-1.11389">
        <ele>48.39414</ele>
        <time>2022-12-25T14:02:30.377Z</time>
      </trkpt>
      <trkpt lat="44.64234" lon="-1.11387">
        <ele>48.328148</ele>
        <time>2022-12-25T14:02:33.372Z</time>
      </trkpt>
      <trkpt lat="44.64222" lon="-1.11387">
        <ele>48.258816</ele>
        <time>2022-12-25T14:02:36.370Z</time>
      </trkpt>
      <trkpt lat="44.64211" lon="-1.11387">
        <ele>48.237839</ele>
        <time>2022-12-25T14:02:39.372Z</time>
      </trkpt>
      <trkpt lat="44.642" lon="-1.11387">
        <ele>48.266765</ele>
        <time>2022-12-25T14:02:42.375Z</time>
      </trkpt>
      <trkpt lat="44.64191" lon="-1.11386">
        <ele>48.294079</ele>
        <time>2022-12-25T14:02:45.365Z</time>
      </trkpt>
      <trkpt lat="44.6418" lon="-1.11386">
        <ele>48.324409</ele>
        <time>2022-12-25T14:02:48.362Z</time>
      </trkpt>
      <trkpt lat="44.64169" lon="-1.11385">
        <ele>48.356184</ele>
        <time>2022-12-25T14:02:51.364Z</time>
      </trkpt>
      <trkpt lat="44.64158" lon="-1.11385">
        <ele>48.385135</ele>
        <time>2022-12-25T14:02:54.369Z</time>
      </trkpt>
      <trkpt lat="44.64148" lon="-1.11385">
        <ele>48.412658</ele>
        <time>2022-12-25T14:02:57.371Z</time>
      </trkpt>
      <trkpt lat="44.64138" lon="-1.11384">
        <ele>48.441889</ele>
        <time>2022-12-25T14:03:00.371Z</time>
      </trkpt>
      <trkpt lat="44.64128" lon="-1.11384">
        <ele>48.471394</ele>
        <time>2022-12-25T14:03:03.367Z</time>
      </trkpt>
      <trkpt lat="44.64116" lon="-1.11382">
        <ele>48.50273</ele>
        <time>2022-12-25T14:03:06.380Z</time>
      </trkpt>
      <trkpt lat="44.64106" lon="-1.11381">
        <ele>48.533126</ele>
        <time>2022-12-25T14:03:09.377Z</time>
      </trkpt>
      <trkpt lat="44.64094" lon="-1.11379">
        <ele>48.565321</ele>
        <time>2022-12-25T14:03:12.368Z</time>
      </trkpt>
      <trkpt lat="44.64083" lon="-1.11378">
        <ele>48.596378</ele>
        <time>2022-12-25T14:03:15.372Z</time>
      </trkpt>
      <trkpt lat="44.64072" lon="-1.11377">
        <ele>48.627908</ele>
        <time>2022-12-25T14:03:18.368Z</time>
      </trkpt>
      <trkpt lat="44.64062" lon="-1.11374">
        <ele>48.657885</ele>
        <time>2022-12-25T14:03:21.375Z</time>
      </trkpt>
      <trkpt lat="44.64052" lon="-1.11371">
        <ele>48.684682</ele>
        <time>2022-12-25T14:03:25.369Z</time>
      </trkpt>
      <trkpt lat="44.64044" lon="-1.11377">
        <ele>48.71029</ele>
        <time>2022-12-25T14:03:31.363Z</time>
      </trkpt>
      <trkpt lat="44.64041" lon="-1.11393">
        <ele>48.745117</ele>
        <time>2022-12-25T14:03:35.366Z</time>
      </trkpt>
      <trkpt lat="44.64037" lon="-1.11405">
        <ele>48.776916</ele>
        <time>2022-12-25T14:03:38.369Z</time>
      </trkpt>
      <trkpt lat="44.64034" lon="-1.11419">
        <ele>48.810264</ele>
        <time>2022-12-25T14:03:41.369Z</time>
      </trkpt>
      <trkpt lat="44.64031" lon="-1.11432">
        <ele>48.843264</ele>
        <time>2022-12-25T14:03:44.364Z</time>
      </trkpt>
      <trkpt lat="44.64028" lon="-1.11448">
        <ele>48.880207</ele>
        <time>2022-12-25T14:03:48.363Z</time>
      </trkpt>
      <trkpt lat="44.64025" lon="-1.1146">
        <ele>48.909852</ele>
        <time>2022-12-25T14:03:51.372Z</time>
      </trkpt>
      <trkpt lat="44.64023" lon="-1.11473">
        <ele>48.941604</ele>
        <time>2022-12-25T14:03:54.368Z</time>
      </trkpt>
      <trkpt lat="44.64021" lon="-1.11486">
        <ele>48.973546</ele>
        <time>2022-12-25T14:03:57.370Z</time>
      </trkpt>
      <trkpt lat="44.64017" lon="-1.115">
        <ele>49.007215</ele>
        <time>2022-12-25T14:04:00.367Z</time>
      </trkpt>
      <trkpt lat="44.64014" lon="-1.11515">
        <ele>49.044397</ele>
        <time>2022-12-25T14:04:04.365Z</time>
      </trkpt>
      <trkpt lat="44.64006" lon="-1.11525">
        <ele>49.079115</ele>
        <time>2022-12-25T14:04:09.364Z</time>
      </trkpt>
      <trkpt lat="44.64001" lon="-1.11539">
        <ele>49.114657</ele>
        <time>2022-12-25T14:04:14.371Z</time>
      </trkpt>
      <trkpt lat="44.63996" lon="-1.11551">
        <ele>49.146655</ele>
        <time>2022-12-25T14:04:19.389Z</time>
      </trkpt>
      <trkpt lat="44.63986" lon="-1.11557">
        <ele>49.182524</ele>
        <time>2022-12-25T14:04:24.384Z</time>
      </trkpt>
      <trkpt lat="44.63982" lon="-1.1157">
        <ele>49.215887</ele>
        <time>2022-12-25T14:04:27.377Z</time>
      </trkpt>
      <trkpt lat="44.63979" lon="-1.11583">
        <ele>49.249433</ele>
        <time>2022-12-25T14:04:30.369Z</time>
      </trkpt>
      <trkpt lat="44.63975" lon="-1.11595">
        <ele>49.280001</ele>
        <time>2022-12-25T14:04:33.371Z</time>
      </trkpt>
      <trkpt lat="44.63971" lon="-1.11608">
        <ele>49.312877</ele>
        <time>2022-12-25T14:04:37.368Z</time>
      </trkpt>
      <trkpt lat="44.63964" lon="-1.11619">
        <ele>49.305625</ele>
        <time>2022-12-25T14:04:42.377Z</time>
      </trkpt>
      <trkpt lat="44.63957" lon="-1.11609">
        <ele>49.288477</ele>
        <time>2022-12-25T14:04:46.373Z</time>
      </trkpt>
      <trkpt lat="44.63949" lon="-1.11606">
        <ele>49.272451</ele>
        <time>2022-12-25T14:04:51.363Z</time>
      </trkpt>
      <trkpt lat="44.63949" lon="-1.11619">
        <ele>49.255735</ele>
        <time>2022-12-25T14:04:55.374Z</time>
      </trkpt>
      <trkpt lat="44.63955" lon="-1.11633">
        <ele>49.234994</ele>
        <time>2022-12-25T14:04:59.368Z</time>
      </trkpt>
      <trkpt lat="44.63959" lon="-1.11645">
        <ele>49.218297</ele>
        <time>2022-12-25T14:05:02.365Z</time>
      </trkpt>
      <trkpt lat="44.63963" lon="-1.11657">
        <ele>49.201359</ele>
        <time>2022-12-25T14:05:05.364Z</time>
      </trkpt>
      <trkpt lat="44.63968" lon="-1.11671">
        <ele>49.182213</ele>
        <time>2022-12-25T14:05:08.365Z</time>
      </trkpt>
      <trkpt lat="44.63972" lon="-1.11686">
        <ele>49.162328</ele>
        <time>2022-12-25T14:05:11.364Z</time>
      </trkpt>
      <trkpt lat="44.63973" lon="-1.11701">
        <ele>49.142033</ele>
        <time>2022-12-25T14:05:15.363Z</time>
      </trkpt>
      <trkpt lat="44.63973" lon="-1.11717">
        <ele>49.122045</ele>
        <time>2022-12-25T14:05:18.363Z</time>
      </trkpt>
      <trkpt lat="44.6397" lon="-1.11735">
        <ele>49.099128</ele>
        <time>2022-12-25T14:05:21.367Z</time>
      </trkpt>
      <trkpt lat="44.63968" lon="-1.11748">
        <ele>49.081818</ele>
        <time>2022-12-25T14:05:23.368Z</time>
      </trkpt>
      <trkpt lat="44.63965" lon="-1.11761">
        <ele>49.064894</ele>
        <time>2022-12-25T14:05:25.365Z</time>
      </trkpt>
      <trkpt lat="44.63962" lon="-1.11774">
        <ele>49.048045</ele>
        <time>2022-12-25T14:05:27.369Z</time>
      </trkpt>
      <trkpt lat="44.63959" lon="-1.11787">
        <ele>49.030781</ele>
        <time>2022-12-25T14:05:29.367Z</time>
      </trkpt>
      <trkpt lat="44.63956" lon="-1.11799">
        <ele>49.014513</ele>
        <time>2022-12-25T14:05:31.361Z</time>
      </trkpt>
      <trkpt lat="44.63953" lon="-1.11812">
        <ele>49.019412</ele>
        <time>2022-12-25T14:05:33.366Z</time>
      </trkpt>
      <trkpt lat="44.63951" lon="-1.11825">
        <ele>49.090787</ele>
        <time>2022-12-25T14:05:35.368Z</time>
      </trkpt>
      <trkpt lat="44.63949" lon="-1.11837">
        <ele>49.162511</ele>
        <time>2022-12-25T14:05:37.363Z</time>
      </trkpt>
      <trkpt lat="44.63946" lon="-1.11855">
        <ele>49.26555</ele>
        <time>2022-12-25T14:05:40.365Z</time>
      </trkpt>
      <trkpt lat="44.63943" lon="-1.11868">
        <ele>49.342959</ele>
        <time>2022-12-25T14:05:42.371Z</time>
      </trkpt>
      <trkpt lat="44.6394" lon="-1.11881">
        <ele>49.417043</ele>
        <time>2022-12-25T14:05:44.371Z</time>
      </trkpt>
      <trkpt lat="44.63938" lon="-1.11893">
        <ele>49.489595</ele>
        <time>2022-12-25T14:05:46.372Z</time>
      </trkpt>
      <trkpt lat="44.63935" lon="-1.11906">
        <ele>49.564523</ele>
        <time>2022-12-25T14:05:48.385Z</time>
      </trkpt>
      <trkpt lat="44.63933" lon="-1.11918">
        <ele>49.635158</ele>
        <time>2022-12-25T14:05:50.364Z</time>
      </trkpt>
      <trkpt lat="44.63929" lon="-1.11934">
        <ele>49.72964</ele>
        <time>2022-12-25T14:05:53.364Z</time>
      </trkpt>
      <trkpt lat="44.63926" lon="-1.11949">
        <ele>49.817702</ele>
        <time>2022-12-25T14:05:56.370Z</time>
      </trkpt>
      <trkpt lat="44.63923" lon="-1.11962">
        <ele>49.894571</ele>
        <time>2022-12-25T14:05:59.361Z</time>
      </trkpt>
      <trkpt lat="44.6392" lon="-1.11978">
        <ele>49.985603</ele>
        <time>2022-12-25T14:06:02.367Z</time>
      </trkpt>
      <trkpt lat="44.63916" lon="-1.11996">
        <ele>50.092451</ele>
        <time>2022-12-25T14:06:05.363Z</time>
      </trkpt>
      <trkpt lat="44.63913" lon="-1.12008">
        <ele>50.163862</ele>
        <time>2022-12-25T14:06:07.363Z</time>
      </trkpt>
      <trkpt lat="44.6391" lon="-1.1202">
        <ele>50.235272</ele>
        <time>2022-12-25T14:06:09.367Z</time>
      </trkpt>
      <trkpt lat="44.63905" lon="-1.12038">
        <ele>50.340819</ele>
        <time>2022-12-25T14:06:12.367Z</time>
      </trkpt>
      <trkpt lat="44.63901" lon="-1.12053">
        <ele>50.416063</ele>
        <time>2022-12-25T14:06:15.372Z</time>
      </trkpt>
      <trkpt lat="44.63896" lon="-1.12067">
        <ele>50.38808</ele>
        <time>2022-12-25T14:06:18.368Z</time>
      </trkpt>
      <trkpt lat="44.63892" lon="-1.12083">
        <ele>50.359472</ele>
        <time>2022-12-25T14:06:21.369Z</time>
      </trkpt>
      <trkpt lat="44.63887" lon="-1.12098">
        <ele>50.330427</ele>
        <time>2022-12-25T14:06:24.365Z</time>
      </trkpt>
      <trkpt lat="44.63882" lon="-1.12114">
        <ele>50.299791</ele>
        <time>2022-12-25T14:06:27.380Z</time>
      </trkpt>
      <trkpt lat="44.63877" lon="-1.12131">
        <ele>50.268491</ele>
        <time>2022-12-25T14:06:30.378Z</time>
      </trkpt>
      <trkpt lat="44.63874" lon="-1.12148">
        <ele>50.238187</ele>
        <time>2022-12-25T14:06:33.374Z</time>
      </trkpt>
      <trkpt lat="44.63871" lon="-1.12165">
        <ele>50.208381</ele>
        <time>2022-12-25T14:06:36.366Z</time>
      </trkpt>
      <trkpt lat="44.63864" lon="-1.1218">
        <ele>50.177889</ele>
        <time>2022-12-25T14:06:39.363Z</time>
      </trkpt>
      <trkpt lat="44.63857" lon="-1.12194">
        <ele>50.148079</ele>
        <time>2022-12-25T14:06:42.363Z</time>
      </trkpt>
      <trkpt lat="44.63851" lon="-1.1221">
        <ele>50.11646</ele>
        <time>2022-12-25T14:06:45.382Z</time>
      </trkpt>
      <trkpt lat="44.63847" lon="-1.12222">
        <ele>50.094644</ele>
        <time>2022-12-25T14:06:47.371Z</time>
      </trkpt>
      <trkpt lat="44.63843" lon="-1.12233">
        <ele>50.072053</ele>
        <time>2022-12-25T14:06:49.369Z</time>
      </trkpt>
      <trkpt lat="44.63839" lon="-1.12245">
        <ele>50.050139</ele>
        <time>2022-12-25T14:06:51.363Z</time>
      </trkpt>
      <trkpt lat="44.63835" lon="-1.12262">
        <ele>50.01804</ele>
        <time>2022-12-25T14:06:54.367Z</time>
      </trkpt>
      <trkpt lat="44.63831" lon="-1.12274">
        <ele>49.995398</ele>
        <time>2022-12-25T14:06:56.363Z</time>
      </trkpt>
      <trkpt lat="44.63827" lon="-1.12286">
        <ele>49.964052</ele>
        <time>2022-12-25T14:06:58.365Z</time>
      </trkpt>
      <trkpt lat="44.63824" lon="-1.12298">
        <ele>49.923953</ele>
        <time>2022-12-25T14:07:00.367Z</time>
      </trkpt>
      <trkpt lat="44.6382" lon="-1.1231">
        <ele>49.881709</ele>
        <time>2022-12-25T14:07:02.361Z</time>
      </trkpt>
      <trkpt lat="44.63817" lon="-1.12324">
        <ele>49.837196</ele>
        <time>2022-12-25T14:07:04.368Z</time>
      </trkpt>
      <trkpt lat="44.63813" lon="-1.12336">
        <ele>49.795892</ele>
        <time>2022-12-25T14:07:06.366Z</time>
      </trkpt>
      <trkpt lat="44.63808" lon="-1.12347">
        <ele>49.755801</ele>
        <time>2022-12-25T14:07:08.380Z</time>
      </trkpt>
      <trkpt lat="44.63805" lon="-1.1236">
        <ele>49.714835</ele>
        <time>2022-12-25T14:07:10.374Z</time>
      </trkpt>
      <trkpt lat="44.63801" lon="-1.12371">
        <ele>49.674065</ele>
        <time>2022-12-25T14:07:12.368Z</time>
      </trkpt>
      <trkpt lat="44.63795" lon="-1.12389">
        <ele>49.614359</ele>
        <time>2022-12-25T14:07:15.366Z</time>
      </trkpt>
      <trkpt lat="44.63791" lon="-1.12401">
        <ele>49.571922</ele>
        <time>2022-12-25T14:07:17.364Z</time>
      </trkpt>
      <trkpt lat="44.63787" lon="-1.12414">
        <ele>49.528731</ele>
        <time>2022-12-25T14:07:19.364Z</time>
      </trkpt>
      <trkpt lat="44.63783" lon="-1.12426">
        <ele>49.486578</ele>
        <time>2022-12-25T14:07:21.378Z</time>
      </trkpt>
      <trkpt lat="44.6378" lon="-1.12438">
        <ele>49.44673</ele>
        <time>2022-12-25T14:07:23.371Z</time>
      </trkpt>
      <trkpt lat="44.63776" lon="-1.1245">
        <ele>49.407106</ele>
        <time>2022-12-25T14:07:25.366Z</time>
      </trkpt>
      <trkpt lat="44.6377" lon="-1.12466">
        <ele>49.349904</ele>
        <time>2022-12-25T14:07:28.364Z</time>
      </trkpt>
      <trkpt lat="44.63765" lon="-1.12481">
        <ele>49.296195</ele>
        <time>2022-12-25T14:07:31.364Z</time>
      </trkpt>
      <trkpt lat="44.63761" lon="-1.12497">
        <ele>49.246362</ele>
        <time>2022-12-25T14:07:34.361Z</time>
      </trkpt>
      <trkpt lat="44.63757" lon="-1.1251">
        <ele>49.199707</ele>
        <time>2022-12-25T14:07:37.363Z</time>
      </trkpt>
      <trkpt lat="44.6375" lon="-1.1252">
        <ele>49.087541</ele>
        <time>2022-12-25T14:07:40.367Z</time>
      </trkpt>
      <trkpt lat="44.63743" lon="-1.12529">
        <ele>48.972121</ele>
        <time>2022-12-25T14:07:43.368Z</time>
      </trkpt>
      <trkpt lat="44.63739" lon="-1.12541">
        <ele>48.859041</ele>
        <time>2022-12-25T14:07:46.364Z</time>
      </trkpt>
      <trkpt lat="44.63735" lon="-1.12555">
        <ele>48.726117</ele>
        <time>2022-12-25T14:07:49.364Z</time>
      </trkpt>
      <trkpt lat="44.63732" lon="-1.12571">
        <ele>48.584775</ele>
        <time>2022-12-25T14:07:52.362Z</time>
      </trkpt>
      <trkpt lat="44.63729" lon="-1.12586">
        <ele>48.450818</ele>
        <time>2022-12-25T14:07:55.367Z</time>
      </trkpt>
      <trkpt lat="44.63727" lon="-1.12602">
        <ele>48.313956</ele>
        <time>2022-12-25T14:07:58.368Z</time>
      </trkpt>
      <trkpt lat="44.63726" lon="-1.12617">
        <ele>48.177481</ele>
        <time>2022-12-25T14:08:01.364Z</time>
      </trkpt>
      <trkpt lat="44.63725" lon="-1.12634">
        <ele>48.033501</ele>
        <time>2022-12-25T14:08:04.375Z</time>
      </trkpt>
      <trkpt lat="44.63724" lon="-1.12651">
        <ele>47.883622</ele>
        <time>2022-12-25T14:08:07.367Z</time>
      </trkpt>
      <trkpt lat="44.63723" lon="-1.12668">
        <ele>47.737181</ele>
        <time>2022-12-25T14:08:10.366Z</time>
      </trkpt>
      <trkpt lat="44.63722" lon="-1.12686">
        <ele>47.582245</ele>
        <time>2022-12-25T14:08:13.365Z</time>
      </trkpt>
      <trkpt lat="44.6372" lon="-1.12703">
        <ele>47.432989</ele>
        <time>2022-12-25T14:08:16.366Z</time>
      </trkpt>
      <trkpt lat="44.63719" lon="-1.12721">
        <ele>47.279003</ele>
        <time>2022-12-25T14:08:19.366Z</time>
      </trkpt>
      <trkpt lat="44.63718" lon="-1.12739">
        <ele>47.123475</ele>
        <time>2022-12-25T14:08:22.367Z</time>
      </trkpt>
      <trkpt lat="44.63717" lon="-1.12757">
        <ele>47.026602</ele>
        <time>2022-12-25T14:08:25.362Z</time>
      </trkpt>
      <trkpt lat="44.63716" lon="-1.12772">
        <ele>47.062696</ele>
        <time>2022-12-25T14:08:28.361Z</time>
      </trkpt>
      <trkpt lat="44.63715" lon="-1.12785">
        <ele>47.093212</ele>
        <time>2022-12-25T14:08:31.364Z</time>
      </trkpt>
      <trkpt lat="44.63714" lon="-1.12798">
        <ele>47.124899</ele>
        <time>2022-12-25T14:08:34.363Z</time>
      </trkpt>
      <trkpt lat="44.63714" lon="-1.12813">
        <ele>47.159328</ele>
        <time>2022-12-25T14:08:37.365Z</time>
      </trkpt>
      <trkpt lat="44.63713" lon="-1.12828">
        <ele>47.195372</ele>
        <time>2022-12-25T14:08:40.365Z</time>
      </trkpt>
      <trkpt lat="44.63713" lon="-1.12844">
        <ele>47.232104</ele>
        <time>2022-12-25T14:08:43.378Z</time>
      </trkpt>
      <trkpt lat="44.63712" lon="-1.12859">
        <ele>47.268848</ele>
        <time>2022-12-25T14:08:46.365Z</time>
      </trkpt>
      <trkpt lat="44.63705" lon="-1.12872">
        <ele>47.307228</ele>
        <time>2022-12-25T14:08:50.365Z</time>
      </trkpt>
      <trkpt lat="44.63698" lon="-1.12883">
        <ele>47.341856</ele>
        <time>2022-12-25T14:08:54.362Z</time>
      </trkpt>
      <trkpt lat="44.637" lon="-1.12898">
        <ele>47.375524</ele>
        <time>2022-12-25T14:08:59.365Z</time>
      </trkpt>
      <trkpt lat="44.63706" lon="-1.12909">
        <ele>47.409296</ele>
        <time>2022-12-25T14:09:03.374Z</time>
      </trkpt>
      <trkpt lat="44.63705" lon="-1.12923">
        <ele>47.44132</ele>
        <time>2022-12-25T14:09:06.364Z</time>
      </trkpt>
      <trkpt lat="44.63705" lon="-1.12938">
        <ele>47.475934</ele>
        <time>2022-12-25T14:09:09.363Z</time>
      </trkpt>
      <trkpt lat="44.63703" lon="-1.12954">
        <ele>47.5145</ele>
        <time>2022-12-25T14:09:12.366Z</time>
      </trkpt>
      <trkpt lat="44.637" lon="-1.12969">
        <ele>47.550164</ele>
        <time>2022-12-25T14:09:15.375Z</time>
      </trkpt>
      <trkpt lat="44.63698" lon="-1.12982">
        <ele>47.583837</ele>
        <time>2022-12-25T14:09:18.361Z</time>
      </trkpt>
      <trkpt lat="44.63695" lon="-1.12997">
        <ele>47.601215</ele>
        <time>2022-12-25T14:09:22.363Z</time>
      </trkpt>
      <trkpt lat="44.63692" lon="-1.1301">
        <ele>47.572544</ele>
        <time>2022-12-25T14:09:27.368Z</time>
      </trkpt>
      <trkpt lat="44.63686" lon="-1.13036">
        <ele>47.515933</ele>
        <time>2022-12-25T14:10:37.387Z</time>
      </trkpt>
      <trkpt lat="44.63682" lon="-1.13051">
        <ele>47.483232</ele>
        <time>2022-12-25T14:10:41.362Z</time>
      </trkpt>
      <trkpt lat="44.63678" lon="-1.13063">
        <ele>47.455224</ele>
        <time>2022-12-25T14:10:45.379Z</time>
      </trkpt>
      <trkpt lat="44.63672" lon="-1.13077">
        <ele>47.420278</ele>
        <time>2022-12-25T14:10:49.366Z</time>
      </trkpt>
      <trkpt lat="44.6367" lon="-1.13093">
        <ele>47.38596</ele>
        <time>2022-12-25T14:10:53.364Z</time>
      </trkpt>
      <trkpt lat="44.63667" lon="-1.13105">
        <ele>47.35928</ele>
        <time>2022-12-25T14:10:56.361Z</time>
      </trkpt>
      <trkpt lat="44.63663" lon="-1.13119">
        <ele>47.32913</ele>
        <time>2022-12-25T14:10:59.368Z</time>
      </trkpt>
      <trkpt lat="44.63657" lon="-1.13132">
        <ele>47.296351</ele>
        <time>2022-12-25T14:11:02.362Z</time>
      </trkpt>
      <trkpt lat="44.63651" lon="-1.13145">
        <ele>47.264502</ele>
        <time>2022-12-25T14:11:05.367Z</time>
      </trkpt>
      <trkpt lat="44.63644" lon="-1.13157">
        <ele>47.233</ele>
        <time>2022-12-25T14:11:08.365Z</time>
      </trkpt>
      <trkpt lat="44.6364" lon="-1.13168">
        <ele>47.206055</ele>
        <time>2022-12-25T14:11:11.363Z</time>
      </trkpt>
      <trkpt lat="44.63635" lon="-1.1318">
        <ele>47.17637</ele>
        <time>2022-12-25T14:11:14.366Z</time>
      </trkpt>
      <trkpt lat="44.63629" lon="-1.13194">
        <ele>47.143592</ele>
        <time>2022-12-25T14:11:17.362Z</time>
      </trkpt>
      <trkpt lat="44.63623" lon="-1.13206">
        <ele>47.111747</ele>
        <time>2022-12-25T14:11:20.363Z</time>
      </trkpt>
      <trkpt lat="44.63616" lon="-1.13218">
        <ele>47.083725</ele>
        <time>2022-12-25T14:11:23.382Z</time>
      </trkpt>
      <trkpt lat="44.6361" lon="-1.13231">
        <ele>47.115843</ele>
        <time>2022-12-25T14:11:26.370Z</time>
      </trkpt>
      <trkpt lat="44.63604" lon="-1.13244">
        <ele>47.150396</ele>
        <time>2022-12-25T14:11:29.374Z</time>
      </trkpt>
      <trkpt lat="44.63598" lon="-1.13257">
        <ele>47.18406</ele>
        <time>2022-12-25T14:11:32.372Z</time>
      </trkpt>
      <trkpt lat="44.63591" lon="-1.1327">
        <ele>47.217194</ele>
        <time>2022-12-25T14:11:35.368Z</time>
      </trkpt>
      <trkpt lat="44.63585" lon="-1.13283">
        <ele>47.250538</ele>
        <time>2022-12-25T14:11:38.364Z</time>
      </trkpt>
      <trkpt lat="44.6358" lon="-1.13297">
        <ele>47.284505</ele>
        <time>2022-12-25T14:11:41.375Z</time>
      </trkpt>
      <trkpt lat="44.63575" lon="-1.13311">
        <ele>47.318222</ele>
        <time>2022-12-25T14:11:44.363Z</time>
      </trkpt>
      <trkpt lat="44.63569" lon="-1.13325">
        <ele>47.352494</ele>
        <time>2022-12-25T14:11:47.371Z</time>
      </trkpt>
      <trkpt lat="44.63565" lon="-1.13339">
        <ele>47.385055</ele>
        <time>2022-12-25T14:11:50.366Z</time>
      </trkpt>
      <trkpt lat="44.63559" lon="-1.13353">
        <ele>47.420739</ele>
        <time>2022-12-25T14:11:53.366Z</time>
      </trkpt>
      <trkpt lat="44.63554" lon="-1.13368">
        <ele>47.455935</ele>
        <time>2022-12-25T14:11:56.371Z</time>
      </trkpt>
      <trkpt lat="44.63548" lon="-1.13383">
        <ele>47.49113</ele>
        <time>2022-12-25T14:11:59.364Z</time>
      </trkpt>
      <trkpt lat="44.63544" lon="-1.13397">
        <ele>47.525293</ele>
        <time>2022-12-25T14:12:02.367Z</time>
      </trkpt>
      <trkpt lat="44.63539" lon="-1.13412">
        <ele>47.559587</ele>
        <time>2022-12-25T14:12:05.365Z</time>
      </trkpt>
      <trkpt lat="44.63533" lon="-1.13423">
        <ele>47.589236</ele>
        <time>2022-12-25T14:12:08.372Z</time>
      </trkpt>
      <trkpt lat="44.63528" lon="-1.13436">
        <ele>47.62143</ele>
        <time>2022-12-25T14:12:11.374Z</time>
      </trkpt>
      <trkpt lat="44.63523" lon="-1.1345">
        <ele>47.71466</ele>
        <time>2022-12-25T14:12:14.365Z</time>
      </trkpt>
      <trkpt lat="44.63519" lon="-1.13465">
        <ele>47.811223</ele>
        <time>2022-12-25T14:12:17.367Z</time>
      </trkpt>
      <trkpt lat="44.63513" lon="-1.1348">
        <ele>47.91535</ele>
        <time>2022-12-25T14:12:20.367Z</time>
      </trkpt>
      <trkpt lat="44.63508" lon="-1.13495">
        <ele>48.017916</ele>
        <time>2022-12-25T14:12:23.363Z</time>
      </trkpt>
      <trkpt lat="44.63503" lon="-1.1351">
        <ele>48.119374</ele>
        <time>2022-12-25T14:12:26.381Z</time>
      </trkpt>
      <trkpt lat="44.63498" lon="-1.13523">
        <ele>48.207866</ele>
        <time>2022-12-25T14:12:29.377Z</time>
      </trkpt>
      <trkpt lat="44.63494" lon="-1.13535">
        <ele>48.295466</ele>
        <time>2022-12-25T14:12:32.371Z</time>
      </trkpt>
      <trkpt lat="44.63489" lon="-1.13549">
        <ele>48.387931</ele>
        <time>2022-12-25T14:12:35.369Z</time>
      </trkpt>
      <trkpt lat="44.63484" lon="-1.13561">
        <ele>48.477151</ele>
        <time>2022-12-25T14:12:38.377Z</time>
      </trkpt>
      <trkpt lat="44.63479" lon="-1.13575">
        <ele>48.56992</ele>
        <time>2022-12-25T14:12:41.366Z</time>
      </trkpt>
      <trkpt lat="44.63474" lon="-1.13589">
        <ele>48.669343</ele>
        <time>2022-12-25T14:12:44.361Z</time>
      </trkpt>
      <trkpt lat="44.6347" lon="-1.13605">
        <ele>48.768668</ele>
        <time>2022-12-25T14:12:47.364Z</time>
      </trkpt>
      <trkpt lat="44.63465" lon="-1.13619">
        <ele>48.868481</ele>
        <time>2022-12-25T14:12:50.358Z</time>
      </trkpt>
      <trkpt lat="44.63462" lon="-1.13632">
        <ele>48.950805</ele>
        <time>2022-12-25T14:12:53.370Z</time>
      </trkpt>
      <trkpt lat="44.63458" lon="-1.13645">
        <ele>49.04234</ele>
        <time>2022-12-25T14:12:56.374Z</time>
      </trkpt>
      <trkpt lat="44.63454" lon="-1.13662">
        <ele>49.14775</ele>
        <time>2022-12-25T14:12:59.374Z</time>
      </trkpt>
      <trkpt lat="44.63448" lon="-1.13677">
        <ele>49.154348</ele>
        <time>2022-12-25T14:13:02.364Z</time>
      </trkpt>
      <trkpt lat="44.63441" lon="-1.13691">
        <ele>49.125783</ele>
        <time>2022-12-25T14:13:05.376Z</time>
      </trkpt>
      <trkpt lat="44.63438" lon="-1.13707">
        <ele>49.097174</ele>
        <time>2022-12-25T14:13:08.360Z</time>
      </trkpt>
      <trkpt lat="44.63434" lon="-1.13723">
        <ele>49.068016</ele>
        <time>2022-12-25T14:13:11.366Z</time>
      </trkpt>
      <trkpt lat="44.6343" lon="-1.13738">
        <ele>49.04126</ele>
        <time>2022-12-25T14:13:14.383Z</time>
      </trkpt>
      <trkpt lat="44.63427" lon="-1.13752">
        <ele>49.016544</ele>
        <time>2022-12-25T14:13:17.363Z</time>
      </trkpt>
      <trkpt lat="44.63423" lon="-1.13765">
        <ele>48.991154</ele>
        <time>2022-12-25T14:13:20.374Z</time>
      </trkpt>
      <trkpt lat="44.63419" lon="-1.13779">
        <ele>48.965943</ele>
        <time>2022-12-25T14:13:23.364Z</time>
      </trkpt>
      <trkpt lat="44.63415" lon="-1.13794">
        <ele>48.937648</ele>
        <time>2022-12-25T14:13:26.364Z</time>
      </trkpt>
      <trkpt lat="44.63411" lon="-1.1381">
        <ele>48.909855</ele>
        <time>2022-12-25T14:13:29.373Z</time>
      </trkpt>
      <trkpt lat="44.63407" lon="-1.13827">
        <ele>48.879066</ele>
        <time>2022-12-25T14:13:32.384Z</time>
      </trkpt>
      <trkpt lat="44.63403" lon="-1.13843">
        <ele>48.848854</ele>
        <time>2022-12-25T14:13:35.376Z</time>
      </trkpt>
      <trkpt lat="44.63399" lon="-1.1386">
        <ele>48.819049</ele>
        <time>2022-12-25T14:13:38.363Z</time>
      </trkpt>
      <trkpt lat="44.63395" lon="-1.13877">
        <ele>48.787791</ele>
        <time>2022-12-25T14:13:41.376Z</time>
      </trkpt>
      <trkpt lat="44.63392" lon="-1.13892">
        <ele>48.760911</ele>
        <time>2022-12-25T14:13:44.365Z</time>
      </trkpt>
      <trkpt lat="44.63389" lon="-1.13906">
        <ele>48.737564</ele>
        <time>2022-12-25T14:13:47.364Z</time>
      </trkpt>
      <trkpt lat="44.63387" lon="-1.13919">
        <ele>48.716785</ele>
        <time>2022-12-25T14:13:50.374Z</time>
      </trkpt>
      <trkpt lat="44.63385" lon="-1.13934">
        <ele>48.694087</ele>
        <time>2022-12-25T14:13:53.370Z</time>
      </trkpt>
      <trkpt lat="44.63383" lon="-1.13949">
        <ele>48.669409</ele>
        <time>2022-12-25T14:13:56.364Z</time>
      </trkpt>
      <trkpt lat="44.6338" lon="-1.13965">
        <ele>48.644778</ele>
        <time>2022-12-25T14:13:59.366Z</time>
      </trkpt>
      <trkpt lat="44.63377" lon="-1.13982">
        <ele>48.618764</ele>
        <time>2022-12-25T14:14:02.364Z</time>
      </trkpt>
      <trkpt lat="44.63374" lon="-1.13999">
        <ele>48.591963</ele>
        <time>2022-12-25T14:14:05.366Z</time>
      </trkpt>
      <trkpt lat="44.63372" lon="-1.14016">
        <ele>48.565969</ele>
        <time>2022-12-25T14:14:08.364Z</time>
      </trkpt>
      <trkpt lat="44.6337" lon="-1.14031">
        <ele>48.541997</ele>
        <time>2022-12-25T14:14:11.367Z</time>
      </trkpt>
      <trkpt lat="44.63368" lon="-1.14045">
        <ele>48.520921</ele>
        <time>2022-12-25T14:14:14.365Z</time>
      </trkpt>
      <trkpt lat="44.63366" lon="-1.1406">
        <ele>48.497399</ele>
        <time>2022-12-25T14:14:17.372Z</time>
      </trkpt>
      <trkpt lat="44.63363" lon="-1.14076">
        <ele>48.472857</ele>
        <time>2022-12-25T14:14:20.364Z</time>
      </trkpt>
      <trkpt lat="44.63361" lon="-1.14092">
        <ele>48.44761</ele>
        <time>2022-12-25T14:14:23.363Z</time>
      </trkpt>
      <trkpt lat="44.63359" lon="-1.14109">
        <ele>48.421204</ele>
        <time>2022-12-25T14:14:26.371Z</time>
      </trkpt>
      <trkpt lat="44.63357" lon="-1.14126">
        <ele>48.394929</ele>
        <time>2022-12-25T14:14:29.370Z</time>
      </trkpt>
      <trkpt lat="44.63355" lon="-1.14143">
        <ele>48.368171</ele>
        <time>2022-12-25T14:14:32.366Z</time>
      </trkpt>
      <trkpt lat="44.63353" lon="-1.14161">
        <ele>48.361273</ele>
        <time>2022-12-25T14:14:35.366Z</time>
      </trkpt>
      <trkpt lat="44.6335" lon="-1.14179">
        <ele>48.365858</ele>
        <time>2022-12-25T14:14:38.361Z</time>
      </trkpt>
      <trkpt lat="44.63348" lon="-1.14197">
        <ele>48.37048</ele>
        <time>2022-12-25T14:14:41.366Z</time>
      </trkpt>
      <trkpt lat="44.63347" lon="-1.14214">
        <ele>48.374732</ele>
        <time>2022-12-25T14:14:44.367Z</time>
      </trkpt>
      <trkpt lat="44.63345" lon="-1.1423">
        <ele>48.379065</ele>
        <time>2022-12-25T14:14:47.368Z</time>
      </trkpt>
      <trkpt lat="44.63342" lon="-1.14245">
        <ele>48.38281</ele>
        <time>2022-12-25T14:14:50.371Z</time>
      </trkpt>
      <trkpt lat="44.63339" lon="-1.1426">
        <ele>48.3868</ele>
        <time>2022-12-25T14:14:53.374Z</time>
      </trkpt>
      <trkpt lat="44.63337" lon="-1.14276">
        <ele>48.390905</ele>
        <time>2022-12-25T14:14:56.368Z</time>
      </trkpt>
      <trkpt lat="44.63334" lon="-1.14294">
        <ele>48.395379</ele>
        <time>2022-12-25T14:14:59.376Z</time>
      </trkpt>
      <trkpt lat="44.63332" lon="-1.14312">
        <ele>48.400001</ele>
        <time>2022-12-25T14:15:02.371Z</time>
      </trkpt>
      <trkpt lat="44.63328" lon="-1.14329">
        <ele>48.404496</ele>
        <time>2022-12-25T14:15:05.370Z</time>
      </trkpt>
      <trkpt lat="44.63326" lon="-1.14344">
        <ele>48.408558</ele>
        <time>2022-12-25T14:15:08.364Z</time>
      </trkpt>
      <trkpt lat="44.63322" lon="-1.14361">
        <ele>48.412888</ele>
        <time>2022-12-25T14:15:11.370Z</time>
      </trkpt>
      <trkpt lat="44.6332" lon="-1.14377">
        <ele>48.41702</ele>
        <time>2022-12-25T14:15:14.369Z</time>
      </trkpt>
      <trkpt lat="44.63318" lon="-1.14393">
        <ele>48.421152</ele>
        <time>2022-12-25T14:15:17.365Z</time>
      </trkpt>
      <trkpt lat="44.63315" lon="-1.14408">
        <ele>48.384476</ele>
        <time>2022-12-25T14:15:20.372Z</time>
      </trkpt>
      <trkpt lat="44.63313" lon="-1.14421">
        <ele>48.342164</ele>
        <time>2022-12-25T14:15:23.367Z</time>
      </trkpt>
      <trkpt lat="44.63311" lon="-1.14436">
        <ele>48.296228</ele>
        <time>2022-12-25T14:15:26.380Z</time>
      </trkpt>
      <trkpt lat="44.63309" lon="-1.1445">
        <ele>48.248192</ele>
        <time>2022-12-25T14:15:29.371Z</time>
      </trkpt>
      <trkpt lat="44.63307" lon="-1.14465">
        <ele>48.199093</ele>
        <time>2022-12-25T14:15:32.366Z</time>
      </trkpt>
      <trkpt lat="44.63308" lon="-1.1448">
        <ele>48.1516</ele>
        <time>2022-12-25T14:15:35.375Z</time>
      </trkpt>
      <trkpt lat="44.63314" lon="-1.14493">
        <ele>48.10324</ele>
        <time>2022-12-25T14:15:38.398Z</time>
      </trkpt>
      <trkpt lat="44.63315" lon="-1.14506">
        <ele>48.060262</ele>
        <time>2022-12-25T14:15:41.379Z</time>
      </trkpt>
      <trkpt lat="44.63306" lon="-1.14515">
        <ele>48.012823</ele>
        <time>2022-12-25T14:15:44.380Z</time>
      </trkpt>
      <trkpt lat="44.63295" lon="-1.14517">
        <ele>47.960625</ele>
        <time>2022-12-25T14:15:47.371Z</time>
      </trkpt>
      <trkpt lat="44.63284" lon="-1.14519">
        <ele>47.912607</ele>
        <time>2022-12-25T14:15:50.381Z</time>
      </trkpt>
      <trkpt lat="44.63276" lon="-1.14528">
        <ele>47.865215</ele>
        <time>2022-12-25T14:15:53.377Z</time>
      </trkpt>
      <trkpt lat="44.63275" lon="-1.14543">
        <ele>47.817246</ele>
        <time>2022-12-25T14:15:56.375Z</time>
      </trkpt>
      <trkpt lat="44.63275" lon="-1.14559">
        <ele>47.767416</ele>
        <time>2022-12-25T14:15:59.373Z</time>
      </trkpt>
      <trkpt lat="44.63275" lon="-1.14572">
        <ele>47.725785</ele>
        <time>2022-12-25T14:16:02.372Z</time>
      </trkpt>
      <trkpt lat="44.63274" lon="-1.14586">
        <ele>47.682555</ele>
        <time>2022-12-25T14:16:05.368Z</time>
      </trkpt>
      <trkpt lat="44.63275" lon="-1.14601">
        <ele>47.634172</ele>
        <time>2022-12-25T14:16:08.371Z</time>
      </trkpt>
      <trkpt lat="44.63276" lon="-1.14617">
        <ele>47.723132</ele>
        <time>2022-12-25T14:16:11.363Z</time>
      </trkpt>
      <trkpt lat="44.63278" lon="-1.14635">
        <ele>47.875911</ele>
        <time>2022-12-25T14:16:14.385Z</time>
      </trkpt>
      <trkpt lat="44.6328" lon="-1.14651">
        <ele>48.016948</ele>
        <time>2022-12-25T14:16:17.379Z</time>
      </trkpt>
      <trkpt lat="44.63281" lon="-1.14668">
        <ele>48.156887</ele>
        <time>2022-12-25T14:16:20.372Z</time>
      </trkpt>
      <trkpt lat="44.63283" lon="-1.14683">
        <ele>48.289664</ele>
        <time>2022-12-25T14:16:23.373Z</time>
      </trkpt>
      <trkpt lat="44.63284" lon="-1.14697">
        <ele>48.404301</ele>
        <time>2022-12-25T14:16:26.358Z</time>
      </trkpt>
      <trkpt lat="44.63285" lon="-1.1471">
        <ele>48.514213</ele>
        <time>2022-12-25T14:16:29.362Z</time>
      </trkpt>
      <trkpt lat="44.63285" lon="-1.14722">
        <ele>48.623096</ele>
        <time>2022-12-25T14:16:32.365Z</time>
      </trkpt>
      <trkpt lat="44.63286" lon="-1.14738">
        <ele>48.754161</ele>
        <time>2022-12-25T14:16:35.373Z</time>
      </trkpt>
      <trkpt lat="44.63286" lon="-1.14752">
        <ele>48.873849</ele>
        <time>2022-12-25T14:16:38.378Z</time>
      </trkpt>
      <trkpt lat="44.63287" lon="-1.14765">
        <ele>48.9878</ele>
        <time>2022-12-25T14:16:41.378Z</time>
      </trkpt>
      <trkpt lat="44.63296" lon="-1.14773">
        <ele>49.112607</ele>
        <time>2022-12-25T14:16:45.371Z</time>
      </trkpt>
      <trkpt lat="44.63306" lon="-1.14767">
        <ele>49.234214</ele>
        <time>2022-12-25T14:16:48.363Z</time>
      </trkpt>
      <trkpt lat="44.63317" lon="-1.14762">
        <ele>49.372645</ele>
        <time>2022-12-25T14:16:51.365Z</time>
      </trkpt>
      <trkpt lat="44.6333" lon="-1.14759">
        <ele>49.529042</ele>
        <time>2022-12-25T14:16:54.377Z</time>
      </trkpt>
      <trkpt lat="44.63343" lon="-1.14754">
        <ele>49.693375</ele>
        <time>2022-12-25T14:16:57.368Z</time>
      </trkpt>
      <trkpt lat="44.63353" lon="-1.14752">
        <ele>49.725951</ele>
        <time>2022-12-25T14:16:59.378Z</time>
      </trkpt>
      <trkpt lat="44.63365" lon="-1.14747">
        <ele>49.578851</ele>
        <time>2022-12-25T14:17:02.377Z</time>
      </trkpt>
      <trkpt lat="44.63377" lon="-1.14745">
        <ele>49.43405</ele>
        <time>2022-12-25T14:17:05.384Z</time>
      </trkpt>
      <trkpt lat="44.6339" lon="-1.14743">
        <ele>49.290388</ele>
        <time>2022-12-25T14:17:08.383Z</time>
      </trkpt>
      <trkpt lat="44.63402" lon="-1.14741">
        <ele>49.155514</ele>
        <time>2022-12-25T14:17:11.370Z</time>
      </trkpt>
      <trkpt lat="44.63413" lon="-1.1474">
        <ele>49.027577</ele>
        <time>2022-12-25T14:17:14.363Z</time>
      </trkpt>
      <trkpt lat="44.63423" lon="-1.14737">
        <ele>48.902711</ele>
        <time>2022-12-25T14:17:17.376Z</time>
      </trkpt>
      <trkpt lat="44.63433" lon="-1.14735">
        <ele>48.786187</ele>
        <time>2022-12-25T14:17:20.363Z</time>
      </trkpt>
      <trkpt lat="44.63444" lon="-1.14732">
        <ele>48.663725</ele>
        <time>2022-12-25T14:17:23.381Z</time>
      </trkpt>
      <trkpt lat="44.63454" lon="-1.1473">
        <ele>48.547061</ele>
        <time>2022-12-25T14:17:26.365Z</time>
      </trkpt>
      <trkpt lat="44.63463" lon="-1.14728">
        <ele>48.441618</ele>
        <time>2022-12-25T14:17:29.360Z</time>
      </trkpt>
      <trkpt lat="44.63474" lon="-1.14726">
        <ele>48.316894</ele>
        <time>2022-12-25T14:17:32.364Z</time>
      </trkpt>
      <trkpt lat="44.63485" lon="-1.14725">
        <ele>48.185789</ele>
        <time>2022-12-25T14:17:35.366Z</time>
      </trkpt>
      <trkpt lat="44.63496" lon="-1.14724">
        <ele>48.056772</ele>
        <time>2022-12-25T14:17:38.367Z</time>
      </trkpt>
      <trkpt lat="44.63509" lon="-1.14726">
        <ele>47.911384</ele>
        <time>2022-12-25T14:17:41.364Z</time>
      </trkpt>
      <trkpt lat="44.63518" lon="-1.14729">
        <ele>47.801791</ele>
        <time>2022-12-25T14:17:43.369Z</time>
      </trkpt>
      <trkpt lat="44.63528" lon="-1.1473">
        <ele>47.691431</ele>
        <time>2022-12-25T14:17:45.365Z</time>
      </trkpt>
      <trkpt lat="44.63538" lon="-1.14733">
        <ele>47.611927</ele>
        <time>2022-12-25T14:17:47.362Z</time>
      </trkpt>
      <trkpt lat="44.63547" lon="-1.14736">
        <ele>47.53874</ele>
        <time>2022-12-25T14:17:49.367Z</time>
      </trkpt>
      <trkpt lat="44.63556" lon="-1.14741">
        <ele>47.467742</ele>
        <time>2022-12-25T14:17:51.386Z</time>
      </trkpt>
      <trkpt lat="44.63568" lon="-1.14745">
        <ele>47.371938</ele>
        <time>2022-12-25T14:17:54.360Z</time>
      </trkpt>
      <trkpt lat="44.6358" lon="-1.14752">
        <ele>47.278075</ele>
        <time>2022-12-25T14:17:57.370Z</time>
      </trkpt>
      <trkpt lat="44.63589" lon="-1.14759">
        <ele>47.191714</ele>
        <time>2022-12-25T14:18:00.368Z</time>
      </trkpt>
      <trkpt lat="44.636" lon="-1.14767">
        <ele>47.09779</ele>
        <time>2022-12-25T14:18:03.369Z</time>
      </trkpt>
      <trkpt lat="44.63609" lon="-1.14773">
        <ele>47.025187</ele>
        <time>2022-12-25T14:18:05.365Z</time>
      </trkpt>
      <trkpt lat="44.6362" lon="-1.14782">
        <ele>46.924113</ele>
        <time>2022-12-25T14:18:08.376Z</time>
      </trkpt>
      <trkpt lat="44.63631" lon="-1.14791">
        <ele>46.828526</ele>
        <time>2022-12-25T14:18:11.364Z</time>
      </trkpt>
      <trkpt lat="44.63641" lon="-1.14799">
        <ele>46.736622</ele>
        <time>2022-12-25T14:18:14.370Z</time>
      </trkpt>
      <trkpt lat="44.63651" lon="-1.14808">
        <ele>46.648478</ele>
        <time>2022-12-25T14:18:17.372Z</time>
      </trkpt>
      <trkpt lat="44.6366" lon="-1.14816">
        <ele>46.569586</ele>
        <time>2022-12-25T14:18:20.384Z</time>
      </trkpt>
      <trkpt lat="44.63657" lon="-1.14829">
        <ele>46.491036</ele>
        <time>2022-12-25T14:18:25.387Z</time>
      </trkpt>
      <trkpt lat="44.63653" lon="-1.14844">
        <ele>46.407335</ele>
        <time>2022-12-25T14:18:29.386Z</time>
      </trkpt>
      <trkpt lat="44.63651" lon="-1.14857">
        <ele>46.333059</ele>
        <time>2022-12-25T14:18:32.371Z</time>
      </trkpt>
      <trkpt lat="44.63649" lon="-1.1487">
        <ele>46.32709</ele>
        <time>2022-12-25T14:18:35.379Z</time>
      </trkpt>
      <trkpt lat="44.63646" lon="-1.14884">
        <ele>46.338658</ele>
        <time>2022-12-25T14:18:39.379Z</time>
      </trkpt>
      <trkpt lat="44.63652" lon="-1.14902">
        <ele>46.35457</ele>
        <time>2022-12-25T14:19:05.369Z</time>
      </trkpt>
      <trkpt lat="44.63661" lon="-1.14904">
        <ele>46.364788</ele>
        <time>2022-12-25T14:19:08.388Z</time>
      </trkpt>
      <trkpt lat="44.63672" lon="-1.14907">
        <ele>46.377915</ele>
        <time>2022-12-25T14:19:11.365Z</time>
      </trkpt>
      <trkpt lat="44.63685" lon="-1.1491">
        <ele>46.392286</ele>
        <time>2022-12-25T14:19:14.371Z</time>
      </trkpt>
      <trkpt lat="44.63697" lon="-1.14913">
        <ele>46.406658</ele>
        <time>2022-12-25T14:19:17.389Z</time>
      </trkpt>
      <trkpt lat="44.63709" lon="-1.14917">
        <ele>46.420806</ele>
        <time>2022-12-25T14:19:20.368Z</time>
      </trkpt>
      <trkpt lat="44.6372" lon="-1.1492">
        <ele>46.433485</ele>
        <time>2022-12-25T14:19:23.369Z</time>
      </trkpt>
      <trkpt lat="44.63728" lon="-1.14929">
        <ele>46.444766</ele>
        <time>2022-12-25T14:19:27.371Z</time>
      </trkpt>
      <trkpt lat="44.63726" lon="-1.14945">
        <ele>46.45839</ele>
        <time>2022-12-25T14:19:31.372Z</time>
      </trkpt>
      <trkpt lat="44.63725" lon="-1.14959">
        <ele>46.469462</ele>
        <time>2022-12-25T14:19:34.377Z</time>
      </trkpt>
      <trkpt lat="44.63723" lon="-1.14973">
        <ele>46.481351</ele>
        <time>2022-12-25T14:19:37.368Z</time>
      </trkpt>
      <trkpt lat="44.63721" lon="-1.14989">
        <ele>46.493999</ele>
        <time>2022-12-25T14:19:40.377Z</time>
      </trkpt>
      <trkpt lat="44.63718" lon="-1.15003">
        <ele>46.506439</ele>
        <time>2022-12-25T14:19:43.374Z</time>
      </trkpt>
      <trkpt lat="44.63714" lon="-1.15019">
        <ele>46.519206</ele>
        <time>2022-12-25T14:19:46.367Z</time>
      </trkpt>
      <trkpt lat="44.63712" lon="-1.15034">
        <ele>46.640121</ele>
        <time>2022-12-25T14:19:49.377Z</time>
      </trkpt>
      <trkpt lat="44.63708" lon="-1.15049">
        <ele>46.808006</ele>
        <time>2022-12-25T14:19:52.364Z</time>
      </trkpt>
      <trkpt lat="44.63705" lon="-1.15063">
        <ele>46.971133</ele>
        <time>2022-12-25T14:19:55.364Z</time>
      </trkpt>
      <trkpt lat="44.63703" lon="-1.15079">
        <ele>47.14281</ele>
        <time>2022-12-25T14:19:58.379Z</time>
      </trkpt>
      <trkpt lat="44.63702" lon="-1.15094">
        <ele>47.311845</ele>
        <time>2022-12-25T14:20:01.361Z</time>
      </trkpt>
      <trkpt lat="44.63703" lon="-1.15109">
        <ele>47.47462</ele>
        <time>2022-12-25T14:20:04.388Z</time>
      </trkpt>
      <trkpt lat="44.63706" lon="-1.15123">
        <ele>47.636298</ele>
        <time>2022-12-25T14:20:07.359Z</time>
      </trkpt>
      <trkpt lat="44.63712" lon="-1.15135">
        <ele>47.792493</ele>
        <time>2022-12-25T14:20:10.372Z</time>
      </trkpt>
      <trkpt lat="44.63718" lon="-1.15146">
        <ele>47.939959</ele>
        <time>2022-12-25T14:20:13.373Z</time>
      </trkpt>
      <trkpt lat="44.63725" lon="-1.15158">
        <ele>48.108744</ele>
        <time>2022-12-25T14:20:16.363Z</time>
      </trkpt>
      <trkpt lat="44.63732" lon="-1.15171">
        <ele>48.285686</ele>
        <time>2022-12-25T14:20:19.366Z</time>
      </trkpt>
      <trkpt lat="44.63741" lon="-1.15185">
        <ele>48.482794</ele>
        <time>2022-12-25T14:20:22.365Z</time>
      </trkpt>
      <trkpt lat="44.63749" lon="-1.152">
        <ele>48.685944</ele>
        <time>2022-12-25T14:20:25.363Z</time>
      </trkpt>
      <trkpt lat="44.63756" lon="-1.15215">
        <ele>48.885453</ele>
        <time>2022-12-25T14:20:28.361Z</time>
      </trkpt>
      <trkpt lat="44.63763" lon="-1.15228">
        <ele>49.067309</ele>
        <time>2022-12-25T14:20:31.367Z</time>
      </trkpt>
      <trkpt lat="44.6377" lon="-1.15241">
        <ele>49.23329</ele>
        <time>2022-12-25T14:20:34.364Z</time>
      </trkpt>
      <trkpt lat="44.63778" lon="-1.15253">
        <ele>49.225006</ele>
        <time>2022-12-25T14:20:37.368Z</time>
      </trkpt>
      <trkpt lat="44.63786" lon="-1.15266">
        <ele>49.182391</ele>
        <time>2022-12-25T14:20:40.363Z</time>
      </trkpt>
      <trkpt lat="44.63793" lon="-1.15278">
        <ele>49.144173</ele>
        <time>2022-12-25T14:20:43.372Z</time>
      </trkpt>
      <trkpt lat="44.638" lon="-1.15289">
        <ele>49.106257</ele>
        <time>2022-12-25T14:20:46.363Z</time>
      </trkpt>
      <trkpt lat="44.63806" lon="-1.15302">
        <ele>49.067772</ele>
        <time>2022-12-25T14:20:49.367Z</time>
      </trkpt>
      <trkpt lat="44.63807" lon="-1.15317">
        <ele>49.030157</ele>
        <time>2022-12-25T14:20:52.377Z</time>
      </trkpt>
      <trkpt lat="44.63808" lon="-1.15333">
        <ele>48.991044</ele>
        <time>2022-12-25T14:20:55.362Z</time>
      </trkpt>
      <trkpt lat="44.63813" lon="-1.15346">
        <ele>48.955361</ele>
        <time>2022-12-25T14:20:58.385Z</time>
      </trkpt>
      <trkpt lat="44.63822" lon="-1.15357">
        <ele>48.913603</ele>
        <time>2022-12-25T14:21:01.372Z</time>
      </trkpt>
      <trkpt lat="44.63831" lon="-1.15369">
        <ele>48.868823</ele>
        <time>2022-12-25T14:21:04.369Z</time>
      </trkpt>
      <trkpt lat="44.63843" lon="-1.15377">
        <ele>48.823141</ele>
        <time>2022-12-25T14:21:07.377Z</time>
      </trkpt>
      <trkpt lat="44.63855" lon="-1.15386">
        <ele>48.775492</ele>
        <time>2022-12-25T14:21:10.363Z</time>
      </trkpt>
      <trkpt lat="44.63863" lon="-1.15392">
        <ele>48.74306</ele>
        <time>2022-12-25T14:21:12.373Z</time>
      </trkpt>
      <trkpt lat="44.63872" lon="-1.15399">
        <ele>48.708853</ele>
        <time>2022-12-25T14:21:14.372Z</time>
      </trkpt>
      <trkpt lat="44.6388" lon="-1.15406">
        <ele>48.675031</ele>
        <time>2022-12-25T14:21:16.377Z</time>
      </trkpt>
      <trkpt lat="44.63888" lon="-1.15413">
        <ele>48.641549</ele>
        <time>2022-12-25T14:21:18.366Z</time>
      </trkpt>
      <trkpt lat="44.63896" lon="-1.15421">
        <ele>48.613148</ele>
        <time>2022-12-25T14:21:20.373Z</time>
      </trkpt>
      <trkpt lat="44.63907" lon="-1.15432">
        <ele>48.575804</ele>
        <time>2022-12-25T14:21:23.378Z</time>
      </trkpt>
      <trkpt lat="44.63917" lon="-1.15441">
        <ele>48.542554</ele>
        <time>2022-12-25T14:21:26.367Z</time>
      </trkpt>
      <trkpt lat="44.63927" lon="-1.15448">
        <ele>48.509452</ele>
        <time>2022-12-25T14:21:29.377Z</time>
      </trkpt>
      <trkpt lat="44.63935" lon="-1.15455">
        <ele>48.484271</ele>
        <time>2022-12-25T14:21:31.367Z</time>
      </trkpt>
      <trkpt lat="44.63943" lon="-1.15462">
        <ele>48.457286</ele>
        <time>2022-12-25T14:21:33.360Z</time>
      </trkpt>
      <trkpt lat="44.63951" lon="-1.15469">
        <ele>48.432149</ele>
        <time>2022-12-25T14:21:35.368Z</time>
      </trkpt>
      <trkpt lat="44.63959" lon="-1.15475">
        <ele>48.40613</ele>
        <time>2022-12-25T14:21:37.367Z</time>
      </trkpt>
      <trkpt lat="44.63967" lon="-1.15483">
        <ele>48.379818</ele>
        <time>2022-12-25T14:21:39.380Z</time>
      </trkpt>
      <trkpt lat="44.63975" lon="-1.1549">
        <ele>48.353219</ele>
        <time>2022-12-25T14:21:41.370Z</time>
      </trkpt>
      <trkpt lat="44.63984" lon="-1.15497">
        <ele>48.324592</ele>
        <time>2022-12-25T14:21:43.375Z</time>
      </trkpt>
      <trkpt lat="44.63993" lon="-1.15504">
        <ele>48.295626</ele>
        <time>2022-12-25T14:21:45.372Z</time>
      </trkpt>
      <trkpt lat="44.64002" lon="-1.15512">
        <ele>48.265724</ele>
        <time>2022-12-25T14:21:47.373Z</time>
      </trkpt>
      <trkpt lat="44.64011" lon="-1.1552">
        <ele>48.236119</ele>
        <time>2022-12-25T14:21:49.368Z</time>
      </trkpt>
      <trkpt lat="44.64021" lon="-1.15526">
        <ele>48.206128</ele>
        <time>2022-12-25T14:21:51.372Z</time>
      </trkpt>
      <trkpt lat="44.64029" lon="-1.15533">
        <ele>48.179588</ele>
        <time>2022-12-25T14:21:53.381Z</time>
      </trkpt>
      <trkpt lat="44.64038" lon="-1.1554">
        <ele>48.151551</ele>
        <time>2022-12-25T14:21:55.381Z</time>
      </trkpt>
      <trkpt lat="44.64049" lon="-1.1555">
        <ele>48.106325</ele>
        <time>2022-12-25T14:21:58.373Z</time>
      </trkpt>
      <trkpt lat="44.64059" lon="-1.15559">
        <ele>48.050298</ele>
        <time>2022-12-25T14:22:01.376Z</time>
      </trkpt>
      <trkpt lat="44.64071" lon="-1.15569">
        <ele>47.989206</ele>
        <time>2022-12-25T14:22:04.370Z</time>
      </trkpt>
      <trkpt lat="44.64082" lon="-1.15579">
        <ele>47.92704</ele>
        <time>2022-12-25T14:22:07.375Z</time>
      </trkpt>
      <trkpt lat="44.64093" lon="-1.15589">
        <ele>47.86742</ele>
        <time>2022-12-25T14:22:10.372Z</time>
      </trkpt>
      <trkpt lat="44.64103" lon="-1.15596">
        <ele>47.816284</ele>
        <time>2022-12-25T14:22:13.376Z</time>
      </trkpt>
      <trkpt lat="44.64114" lon="-1.156">
        <ele>47.765748</ele>
        <time>2022-12-25T14:22:18.376Z</time>
      </trkpt>
      <trkpt lat="44.64126" lon="-1.15602">
        <ele>47.710101</ele>
        <time>2022-12-25T14:22:22.390Z</time>
      </trkpt>
      <trkpt lat="44.64137" lon="-1.156">
        <ele>47.661895</ele>
        <time>2022-12-25T14:22:25.367Z</time>
      </trkpt>
      <trkpt lat="44.64148" lon="-1.15599">
        <ele>47.610998</ele>
        <time>2022-12-25T14:22:28.377Z</time>
      </trkpt>
      <trkpt lat="44.64158" lon="-1.15598">
        <ele>47.561494</ele>
        <time>2022-12-25T14:22:31.359Z</time>
      </trkpt>
      <trkpt lat="44.64168" lon="-1.15596">
        <ele>47.517987</ele>
        <time>2022-12-25T14:22:34.378Z</time>
      </trkpt>
      <trkpt lat="44.64178" lon="-1.15595">
        <ele>47.470723</ele>
        <time>2022-12-25T14:22:37.377Z</time>
      </trkpt>
      <trkpt lat="44.6419" lon="-1.15596">
        <ele>47.417099</ele>
        <time>2022-12-25T14:22:40.369Z</time>
      </trkpt>
      <trkpt lat="44.64202" lon="-1.15602">
        <ele>47.360682</ele>
        <time>2022-12-25T14:22:43.374Z</time>
      </trkpt>
      <trkpt lat="44.64211" lon="-1.15613">
        <ele>47.322245</ele>
        <time>2022-12-25T14:22:46.370Z</time>
      </trkpt>
      <trkpt lat="44.64218" lon="-1.15626">
        <ele>47.492775</ele>
        <time>2022-12-25T14:22:49.368Z</time>
      </trkpt>
      <trkpt lat="44.64221" lon="-1.1564">
        <ele>47.648317</ele>
        <time>2022-12-25T14:22:52.370Z</time>
      </trkpt>
      <trkpt lat="44.64224" lon="-1.15653">
        <ele>47.794702</ele>
        <time>2022-12-25T14:22:55.373Z</time>
      </trkpt>
      <trkpt lat="44.64226" lon="-1.15667">
        <ele>47.942136</ele>
        <time>2022-12-25T14:22:58.370Z</time>
      </trkpt>
      <trkpt lat="44.64231" lon="-1.15681">
        <ele>48.098828</ele>
        <time>2022-12-25T14:23:01.372Z</time>
      </trkpt>
      <trkpt lat="44.64238" lon="-1.15693">
        <ele>48.273573</ele>
        <time>2022-12-25T14:23:04.363Z</time>
      </trkpt>
      <trkpt lat="44.64249" lon="-1.15702">
        <ele>48.45863</ele>
        <time>2022-12-25T14:23:07.362Z</time>
      </trkpt>
      <trkpt lat="44.64261" lon="-1.15708">
        <ele>48.642643</ele>
        <time>2022-12-25T14:23:10.377Z</time>
      </trkpt>
      <trkpt lat="44.64272" lon="-1.15712">
        <ele>48.808818</ele>
        <time>2022-12-25T14:23:13.367Z</time>
      </trkpt>
      <trkpt lat="44.64283" lon="-1.15715">
        <ele>48.978521</ele>
        <time>2022-12-25T14:23:16.362Z</time>
      </trkpt>
      <trkpt lat="44.64295" lon="-1.15719">
        <ele>49.165819</ele>
        <time>2022-12-25T14:23:19.364Z</time>
      </trkpt>
      <trkpt lat="44.64308" lon="-1.15723">
        <ele>49.358919</ele>
        <time>2022-12-25T14:23:22.370Z</time>
      </trkpt>
      <trkpt lat="44.64316" lon="-1.15727">
        <ele>49.494769</ele>
        <time>2022-12-25T14:23:24.363Z</time>
      </trkpt>
      <trkpt lat="44.64326" lon="-1.1573">
        <ele>49.640387</ele>
        <time>2022-12-25T14:23:26.371Z</time>
      </trkpt>
      <trkpt lat="44.64336" lon="-1.15734">
        <ele>49.788252</ele>
        <time>2022-12-25T14:23:28.370Z</time>
      </trkpt>
      <trkpt lat="44.64345" lon="-1.15738">
        <ele>49.92815</ele>
        <time>2022-12-25T14:23:30.368Z</time>
      </trkpt>
      <trkpt lat="44.64354" lon="-1.15742">
        <ele>50.050225</ele>
        <time>2022-12-25T14:23:32.364Z</time>
      </trkpt>
      <trkpt lat="44.64364" lon="-1.15746">
        <ele>50.15309</ele>
        <time>2022-12-25T14:23:34.366Z</time>
      </trkpt>
      <trkpt lat="44.64376" lon="-1.1575">
        <ele>50.284571</ele>
        <time>2022-12-25T14:23:37.378Z</time>
      </trkpt>
      <trkpt lat="44.64388" lon="-1.15752">
        <ele>50.404619</ele>
        <time>2022-12-25T14:23:40.367Z</time>
      </trkpt>
      <trkpt lat="44.64399" lon="-1.15753">
        <ele>50.519581</ele>
        <time>2022-12-25T14:23:43.369Z</time>
      </trkpt>
      <trkpt lat="44.64411" lon="-1.15756">
        <ele>50.646647</ele>
        <time>2022-12-25T14:23:46.367Z</time>
      </trkpt>
      <trkpt lat="44.64424" lon="-1.15759">
        <ele>50.786202</ele>
        <time>2022-12-25T14:23:49.377Z</time>
      </trkpt>
      <trkpt lat="44.64433" lon="-1.15761">
        <ele>50.881214</ele>
        <time>2022-12-25T14:23:51.367Z</time>
      </trkpt>
      <trkpt lat="44.64445" lon="-1.15763">
        <ele>51.011674</ele>
        <time>2022-12-25T14:23:54.387Z</time>
      </trkpt>
      <trkpt lat="44.64457" lon="-1.15766">
        <ele>51.134813</ele>
        <time>2022-12-25T14:23:57.368Z</time>
      </trkpt>
      <trkpt lat="44.64468" lon="-1.15769">
        <ele>51.253553</ele>
        <time>2022-12-25T14:24:00.382Z</time>
      </trkpt>
      <trkpt lat="44.64479" lon="-1.1577">
        <ele>51.366505</ele>
        <time>2022-12-25T14:24:03.370Z</time>
      </trkpt>
      <trkpt lat="44.6449" lon="-1.15772">
        <ele>51.486855</ele>
        <time>2022-12-25T14:24:06.365Z</time>
      </trkpt>
      <trkpt lat="44.64502" lon="-1.15774">
        <ele>51.612984</ele>
        <time>2022-12-25T14:24:09.368Z</time>
      </trkpt>
      <trkpt lat="44.64513" lon="-1.15776">
        <ele>51.728696</ele>
        <time>2022-12-25T14:24:12.368Z</time>
      </trkpt>
      <trkpt lat="44.64523" lon="-1.15778">
        <ele>51.830692</ele>
        <time>2022-12-25T14:24:15.375Z</time>
      </trkpt>
      <trkpt lat="44.64533" lon="-1.1578">
        <ele>51.798126</ele>
        <time>2022-12-25T14:24:18.380Z</time>
      </trkpt>
      <trkpt lat="44.64545" lon="-1.15784">
        <ele>51.714402</ele>
        <time>2022-12-25T14:24:21.365Z</time>
      </trkpt>
      <trkpt lat="44.64558" lon="-1.15786">
        <ele>51.62443</ele>
        <time>2022-12-25T14:24:24.377Z</time>
      </trkpt>
      <trkpt lat="44.64568" lon="-1.15787">
        <ele>51.550746</ele>
        <time>2022-12-25T14:24:27.372Z</time>
      </trkpt>
      <trkpt lat="44.64578" lon="-1.15787">
        <ele>51.478454</ele>
        <time>2022-12-25T14:24:30.373Z</time>
      </trkpt>
      <trkpt lat="44.64588" lon="-1.15786">
        <ele>51.413137</ele>
        <time>2022-12-25T14:24:33.372Z</time>
      </trkpt>
      <trkpt lat="44.64597" lon="-1.15784">
        <ele>51.350047</ele>
        <time>2022-12-25T14:24:36.365Z</time>
      </trkpt>
      <trkpt lat="44.64607" lon="-1.15779">
        <ele>51.274518</ele>
        <time>2022-12-25T14:24:40.371Z</time>
      </trkpt>
      <trkpt lat="44.64617" lon="-1.15773">
        <ele>51.194043</ele>
        <time>2022-12-25T14:24:44.367Z</time>
      </trkpt>
      <trkpt lat="44.64625" lon="-1.15765">
        <ele>51.127068</ele>
        <time>2022-12-25T14:24:47.373Z</time>
      </trkpt>
      <trkpt lat="44.64633" lon="-1.15756">
        <ele>51.054627</ele>
        <time>2022-12-25T14:24:50.374Z</time>
      </trkpt>
      <trkpt lat="44.64642" lon="-1.15747">
        <ele>50.981015</ele>
        <time>2022-12-25T14:24:53.359Z</time>
      </trkpt>
      <trkpt lat="44.6465" lon="-1.1574">
        <ele>50.909323</ele>
        <time>2022-12-25T14:24:56.371Z</time>
      </trkpt>
      <trkpt lat="44.64659" lon="-1.15733">
        <ele>50.842662</ele>
        <time>2022-12-25T14:25:00.360Z</time>
      </trkpt>
      <trkpt lat="44.64668" lon="-1.15736">
        <ele>50.779467</ele>
        <time>2022-12-25T14:25:05.377Z</time>
      </trkpt>
      <trkpt lat="44.64668" lon="-1.1575">
        <ele>50.708584</ele>
        <time>2022-12-25T14:25:11.377Z</time>
      </trkpt>
      <trkpt lat="44.64672" lon="-1.15762">
        <ele>50.640432</ele>
        <time>2022-12-25T14:25:16.363Z</time>
      </trkpt>
      <trkpt lat="44.6468" lon="-1.15772">
        <ele>50.577691</ele>
        <time>2022-12-25T14:25:21.378Z</time>
      </trkpt>
      <trkpt lat="44.6469" lon="-1.1577">
        <ele>50.52742</ele>
        <time>2022-12-25T14:25:26.366Z</time>
      </trkpt>
      <trkpt lat="44.64699" lon="-1.15767">
        <ele>50.485303</ele>
        <time>2022-12-25T14:25:30.365Z</time>
      </trkpt>
      <trkpt lat="44.64708" lon="-1.15773">
        <ele>50.44111</ele>
        <time>2022-12-25T14:25:34.370Z</time>
      </trkpt>
      <trkpt lat="44.64711" lon="-1.15786">
        <ele>50.395474</ele>
        <time>2022-12-25T14:25:39.370Z</time>
      </trkpt>
      <trkpt lat="44.64715" lon="-1.15797">
        <ele>50.35335</ele>
        <time>2022-12-25T14:25:43.381Z</time>
      </trkpt>
      <trkpt lat="44.64723" lon="-1.15808">
        <ele>50.30309</ele>
        <time>2022-12-25T14:25:48.366Z</time>
      </trkpt>
      <trkpt lat="44.64722" lon="-1.15822">
        <ele>50.260058</ele>
        <time>2022-12-25T14:25:52.369Z</time>
      </trkpt>
      <trkpt lat="44.64718" lon="-1.15835">
        <ele>50.210595</ele>
        <time>2022-12-25T14:25:57.374Z</time>
      </trkpt>
      <trkpt lat="44.64709" lon="-1.15841">
        <ele>50.167814</ele>
        <time>2022-12-25T14:26:01.375Z</time>
      </trkpt>
      <trkpt lat="44.64701" lon="-1.15849">
        <ele>50.120423</ele>
        <time>2022-12-25T14:26:05.370Z</time>
      </trkpt>
      <trkpt lat="44.64694" lon="-1.1586">
        <ele>50.072578</ele>
        <time>2022-12-25T14:26:10.375Z</time>
      </trkpt>
      <trkpt lat="44.647" lon="-1.15871">
        <ele>50.029493</ele>
        <time>2022-12-25T14:26:28.377Z</time>
      </trkpt>
      <trkpt lat="44.6471" lon="-1.15872">
        <ele>49.980717</ele>
        <time>2022-12-25T14:26:32.372Z</time>
      </trkpt>
      <trkpt lat="44.6472" lon="-1.15873">
        <ele>49.93454</ele>
        <time>2022-12-25T14:26:36.375Z</time>
      </trkpt>
      <trkpt lat="44.6473" lon="-1.15871">
        <ele>49.889429</ele>
        <time>2022-12-25T14:26:40.377Z</time>
      </trkpt>
      <trkpt lat="44.6474" lon="-1.15868">
        <ele>49.843796</ele>
        <time>2022-12-25T14:26:44.363Z</time>
      </trkpt>
      <trkpt lat="44.64749" lon="-1.15867">
        <ele>49.800292</ele>
        <time>2022-12-25T14:26:48.378Z</time>
      </trkpt>
      <trkpt lat="44.64759" lon="-1.15869">
        <ele>49.83342</ele>
        <time>2022-12-25T14:26:53.374Z</time>
      </trkpt>
      <trkpt lat="44.6477" lon="-1.15866">
        <ele>50.592808</ele>
        <time>2022-12-25T14:26:58.374Z</time>
      </trkpt>
      <trkpt lat="44.64782" lon="-1.15863">
        <ele>51.364487</ele>
        <time>2022-12-25T14:27:02.369Z</time>
      </trkpt>
      <trkpt lat="44.64791" lon="-1.15862">
        <ele>51.958548</ele>
        <time>2022-12-25T14:27:05.373Z</time>
      </trkpt>
      <trkpt lat="44.64801" lon="-1.15858">
        <ele>52.61353</ele>
        <time>2022-12-25T14:27:09.368Z</time>
      </trkpt>
      <trkpt lat="44.64811" lon="-1.15856">
        <ele>53.309761</ele>
        <time>2022-12-25T14:27:14.364Z</time>
      </trkpt>
      <trkpt lat="44.64822" lon="-1.15854">
        <ele>53.999418</ele>
        <time>2022-12-25T14:27:20.388Z</time>
      </trkpt>
      <trkpt lat="44.64832" lon="-1.15854">
        <ele>54.627819</ele>
        <time>2022-12-25T14:27:26.376Z</time>
      </trkpt>
      <trkpt lat="44.64841" lon="-1.15851">
        <ele>55.262001</ele>
        <time>2022-12-25T14:27:32.384Z</time>
      </trkpt>
      <trkpt lat="44.64852" lon="-1.15851">
        <ele>55.942155</ele>
        <time>2022-12-25T14:27:38.365Z</time>
      </trkpt>
      <trkpt lat="44.6486" lon="-1.15856">
        <ele>56.533057</ele>
        <time>2022-12-25T14:27:42.367Z</time>
      </trkpt>
      <trkpt lat="44.64869" lon="-1.15863">
        <ele>57.16998</ele>
        <time>2022-12-25T14:27:48.382Z</time>
      </trkpt>
      <trkpt lat="44.64873" lon="-1.15875">
        <ele>57.77651</ele>
        <time>2022-12-25T14:27:54.363Z</time>
      </trkpt>
      <trkpt lat="44.64875" lon="-1.15887">
        <ele>58.359832</ele>
        <time>2022-12-25T14:28:00.367Z</time>
      </trkpt>
      <trkpt lat="44.64879" lon="-1.159">
        <ele>58.985566</ele>
        <time>2022-12-25T14:28:06.367Z</time>
      </trkpt>
      <trkpt lat="44.64882" lon="-1.15912">
        <ele>59.576073</ele>
        <time>2022-12-25T14:28:12.369Z</time>
      </trkpt>
      <trkpt lat="44.64885" lon="-1.15925">
        <ele>60.216668</ele>
        <time>2022-12-25T14:28:18.370Z</time>
      </trkpt>
      <trkpt lat="44.64885" lon="-1.15938">
        <ele>60.798227</ele>
        <time>2022-12-25T14:28:23.371Z</time>
      </trkpt>
      <trkpt lat="44.64888" lon="-1.15953">
        <ele>61.400363</ele>
        <time>2022-12-25T14:28:28.373Z</time>
      </trkpt>
      <trkpt lat="44.64894" lon="-1.15964">
        <ele>61.326035</ele>
        <time>2022-12-25T14:28:34.364Z</time>
      </trkpt>
      <trkpt lat="44.64902" lon="-1.15975">
        <ele>61.24187</ele>
        <time>2022-12-25T14:29:00.367Z</time>
      </trkpt>
      <trkpt lat="44.64902" lon="-1.15987">
        <ele>61.172496</ele>
        <time>2022-12-25T14:29:04.374Z</time>
      </trkpt>
      <trkpt lat="44.64904" lon="-1.16002">
        <ele>61.092341</ele>
        <time>2022-12-25T14:29:08.376Z</time>
      </trkpt>
      <trkpt lat="44.64908" lon="-1.16018">
        <ele>60.997644</ele>
        <time>2022-12-25T14:29:12.366Z</time>
      </trkpt>
      <trkpt lat="44.64909" lon="-1.16032">
        <ele>60.924039</ele>
        <time>2022-12-25T14:29:15.375Z</time>
      </trkpt>
      <trkpt lat="44.64913" lon="-1.16048">
        <ele>60.83472</ele>
        <time>2022-12-25T14:29:19.368Z</time>
      </trkpt>
      <trkpt lat="44.64911" lon="-1.16062">
        <ele>60.754409</ele>
        <time>2022-12-25T14:29:23.363Z</time>
      </trkpt>
      <trkpt lat="44.64908" lon="-1.16075">
        <ele>60.681918</ele>
        <time>2022-12-25T14:29:26.364Z</time>
      </trkpt>
      <trkpt lat="44.64905" lon="-1.16091">
        <ele>60.591654</ele>
        <time>2022-12-25T14:29:29.372Z</time>
      </trkpt>
      <trkpt lat="44.64909" lon="-1.16106">
        <ele>60.508199</ele>
        <time>2022-12-25T14:29:32.367Z</time>
      </trkpt>
      <trkpt lat="44.64913" lon="-1.16117">
        <ele>60.438842</ele>
        <time>2022-12-25T14:29:35.368Z</time>
      </trkpt>
      <trkpt lat="44.64917" lon="-1.1613">
        <ele>60.360194</ele>
        <time>2022-12-25T14:29:38.364Z</time>
      </trkpt>
      <trkpt lat="44.6492" lon="-1.16143">
        <ele>60.286678</ele>
        <time>2022-12-25T14:29:41.378Z</time>
      </trkpt>
      <trkpt lat="44.64924" lon="-1.16156">
        <ele>60.212047</ele>
        <time>2022-12-25T14:29:44.372Z</time>
      </trkpt>
      <trkpt lat="44.64927" lon="-1.1617">
        <ele>60.130844</ele>
        <time>2022-12-25T14:29:47.372Z</time>
      </trkpt>
      <trkpt lat="44.64931" lon="-1.16183">
        <ele>60.056077</ele>
        <time>2022-12-25T14:29:50.362Z</time>
      </trkpt>
      <trkpt lat="44.64935" lon="-1.16195">
        <ele>60.099806</ele>
        <time>2022-12-25T14:29:53.370Z</time>
      </trkpt>
      <trkpt lat="44.64937" lon="-1.16207">
        <ele>60.163019</ele>
        <time>2022-12-25T14:29:57.375Z</time>
      </trkpt>
      <trkpt lat="44.6494" lon="-1.1622">
        <ele>60.230424</ele>
        <time>2022-12-25T14:30:00.378Z</time>
      </trkpt>
      <trkpt lat="44.64942" lon="-1.16236">
        <ele>60.307672</ele>
        <time>2022-12-25T14:30:03.370Z</time>
      </trkpt>
      <trkpt lat="44.64944" lon="-1.16249">
        <ele>60.37878</ele>
        <time>2022-12-25T14:30:06.363Z</time>
      </trkpt>
      <trkpt lat="44.64946" lon="-1.16263">
        <ele>60.449079</ele>
        <time>2022-12-25T14:30:09.366Z</time>
      </trkpt>
      <trkpt lat="44.64949" lon="-1.16278">
        <ele>60.527353</ele>
        <time>2022-12-25T14:30:12.371Z</time>
      </trkpt>
      <trkpt lat="44.6495" lon="-1.16296">
        <ele>60.615264</ele>
        <time>2022-12-25T14:30:15.373Z</time>
      </trkpt>
      <trkpt lat="44.64954" lon="-1.16313">
        <ele>60.706191</ele>
        <time>2022-12-25T14:30:18.367Z</time>
      </trkpt>
      <trkpt lat="44.64957" lon="-1.16332">
        <ele>60.80238</ele>
        <time>2022-12-25T14:30:21.380Z</time>
      </trkpt>
      <trkpt lat="44.64962" lon="-1.1635">
        <ele>60.895773</ele>
        <time>2022-12-25T14:30:24.361Z</time>
      </trkpt>
      <trkpt lat="44.64964" lon="-1.16367">
        <ele>60.984426</ele>
        <time>2022-12-25T14:30:27.367Z</time>
      </trkpt>
      <trkpt lat="44.64968" lon="-1.16384">
        <ele>61.075326</ele>
        <time>2022-12-25T14:30:30.376Z</time>
      </trkpt>
      <trkpt lat="44.64974" lon="-1.16399">
        <ele>61.163026</ele>
        <time>2022-12-25T14:30:33.368Z</time>
      </trkpt>
      <trkpt lat="44.6498" lon="-1.16414">
        <ele>61.247705</ele>
        <time>2022-12-25T14:30:36.373Z</time>
      </trkpt>
      <trkpt lat="44.64985" lon="-1.16427">
        <ele>61.29229</ele>
        <time>2022-12-25T14:30:39.376Z</time>
      </trkpt>
      <trkpt lat="44.64988" lon="-1.1644">
        <ele>61.196675</ele>
        <time>2022-12-25T14:30:42.367Z</time>
      </trkpt>
      <trkpt lat="44.64992" lon="-1.16454">
        <ele>61.093122</ele>
        <time>2022-12-25T14:30:45.376Z</time>
      </trkpt>
      <trkpt lat="44.64997" lon="-1.16465">
        <ele>60.999094</ele>
        <time>2022-12-25T14:30:48.371Z</time>
      </trkpt>
      <trkpt lat="44.65002" lon="-1.1648">
        <ele>60.883383</ele>
        <time>2022-12-25T14:30:52.375Z</time>
      </trkpt>
      <trkpt lat="44.65006" lon="-1.16492">
        <ele>60.793544</ele>
        <time>2022-12-25T14:30:55.366Z</time>
      </trkpt>
      <trkpt lat="44.6501" lon="-1.16504">
        <ele>60.697637</ele>
        <time>2022-12-25T14:30:58.366Z</time>
      </trkpt>
      <trkpt lat="44.65015" lon="-1.16517">
        <ele>60.598359</ele>
        <time>2022-12-25T14:31:01.378Z</time>
      </trkpt>
      <trkpt lat="44.65014" lon="-1.16533">
        <ele>60.489173</ele>
        <time>2022-12-25T14:31:04.376Z</time>
      </trkpt>
      <trkpt lat="44.65014" lon="-1.1655">
        <ele>60.370192</ele>
        <time>2022-12-25T14:31:07.377Z</time>
      </trkpt>
      <trkpt lat="44.65018" lon="-1.16563">
        <ele>60.271264</ele>
        <time>2022-12-25T14:31:10.372Z</time>
      </trkpt>
      <trkpt lat="44.65023" lon="-1.16575">
        <ele>60.16966</ele>
        <time>2022-12-25T14:31:14.382Z</time>
      </trkpt>
      <trkpt lat="44.65028" lon="-1.16588">
        <ele>60.064911</ele>
        <time>2022-12-25T14:31:18.379Z</time>
      </trkpt>
      <trkpt lat="44.65035" lon="-1.16603">
        <ele>59.944449</ele>
        <time>2022-12-25T14:31:22.375Z</time>
      </trkpt>
      <trkpt lat="44.65041" lon="-1.16616">
        <ele>59.834951</ele>
        <time>2022-12-25T14:31:25.384Z</time>
      </trkpt>
      <trkpt lat="44.65048" lon="-1.16626">
        <ele>59.731023</ele>
        <time>2022-12-25T14:31:28.375Z</time>
      </trkpt>
      <trkpt lat="44.65055" lon="-1.16638">
        <ele>59.627221</ele>
        <time>2022-12-25T14:31:32.368Z</time>
      </trkpt>
      <trkpt lat="44.65062" lon="-1.1665">
        <ele>59.519516</ele>
        <time>2022-12-25T14:31:36.387Z</time>
      </trkpt>
      <trkpt lat="44.65068" lon="-1.16663">
        <ele>59.390264</ele>
        <time>2022-12-25T14:31:40.373Z</time>
      </trkpt>
      <trkpt lat="44.65073" lon="-1.16675">
        <ele>59.27777</ele>
        <time>2022-12-25T14:31:43.371Z</time>
      </trkpt>
      <trkpt lat="44.65079" lon="-1.16686">
        <ele>59.167621</ele>
        <time>2022-12-25T14:31:46.361Z</time>
      </trkpt>
      <trkpt lat="44.65086" lon="-1.16698">
        <ele>59.038938</ele>
        <time>2022-12-25T14:31:49.372Z</time>
      </trkpt>
      <trkpt lat="44.65093" lon="-1.16712">
        <ele>58.895898</ele>
        <time>2022-12-25T14:31:52.362Z</time>
      </trkpt>
      <trkpt lat="44.65098" lon="-1.16729">
        <ele>58.751567</ele>
        <time>2022-12-25T14:31:55.363Z</time>
      </trkpt>
      <trkpt lat="44.65103" lon="-1.16745">
        <ele>58.610183</ele>
        <time>2022-12-25T14:31:58.366Z</time>
      </trkpt>
      <trkpt lat="44.65108" lon="-1.16761">
        <ele>58.47298</ele>
        <time>2022-12-25T14:32:01.365Z</time>
      </trkpt>
      <trkpt lat="44.65112" lon="-1.16775">
        <ele>58.348583</ele>
        <time>2022-12-25T14:32:05.365Z</time>
      </trkpt>
      <trkpt lat="44.65115" lon="-1.16788">
        <ele>58.232717</ele>
        <time>2022-12-25T14:32:08.374Z</time>
      </trkpt>
      <trkpt lat="44.65119" lon="-1.16801">
        <ele>58.124806</ele>
        <time>2022-12-25T14:32:11.367Z</time>
      </trkpt>
      <trkpt lat="44.65122" lon="-1.16813">
        <ele>58.01957</ele>
        <time>2022-12-25T14:32:14.372Z</time>
      </trkpt>
      <trkpt lat="44.65125" lon="-1.16826">
        <ele>57.907127</ele>
        <time>2022-12-25T14:32:17.364Z</time>
      </trkpt>
      <trkpt lat="44.6513" lon="-1.16839">
        <ele>57.790674</ele>
        <time>2022-12-25T14:32:20.365Z</time>
      </trkpt>
      <trkpt lat="44.65134" lon="-1.16852">
        <ele>57.675359</ele>
        <time>2022-12-25T14:32:23.373Z</time>
      </trkpt>
      <trkpt lat="44.65138" lon="-1.16865">
        <ele>57.560856</ele>
        <time>2022-12-25T14:32:26.374Z</time>
      </trkpt>
      <trkpt lat="44.65143" lon="-1.16878">
        <ele>57.463868</ele>
        <time>2022-12-25T14:32:29.372Z</time>
      </trkpt>
      <trkpt lat="44.65146" lon="-1.1689">
        <ele>57.39381</ele>
        <time>2022-12-25T14:32:32.364Z</time>
      </trkpt>
      <trkpt lat="44.65151" lon="-1.16902">
        <ele>57.326866</ele>
        <time>2022-12-25T14:32:35.367Z</time>
      </trkpt>
      <trkpt lat="44.65156" lon="-1.16913">
        <ele>57.261157</ele>
        <time>2022-12-25T14:32:38.372Z</time>
      </trkpt>
      <trkpt lat="44.65161" lon="-1.16926">
        <ele>57.181086</ele>
        <time>2022-12-25T14:32:42.367Z</time>
      </trkpt>
      <trkpt lat="44.65165" lon="-1.16939">
        <ele>57.110723</ele>
        <time>2022-12-25T14:32:47.369Z</time>
      </trkpt>
      <trkpt lat="44.6517" lon="-1.16953">
        <ele>57.027961</ele>
        <time>2022-12-25T14:32:51.361Z</time>
      </trkpt>
      <trkpt lat="44.65175" lon="-1.16966">
        <ele>56.951411</ele>
        <time>2022-12-25T14:32:55.367Z</time>
      </trkpt>
      <trkpt lat="44.65181" lon="-1.16977">
        <ele>56.882365</ele>
        <time>2022-12-25T14:32:58.377Z</time>
      </trkpt>
      <trkpt lat="44.65187" lon="-1.16989">
        <ele>56.804903</ele>
        <time>2022-12-25T14:33:02.374Z</time>
      </trkpt>
      <trkpt lat="44.65193" lon="-1.17001">
        <ele>56.729195</ele>
        <time>2022-12-25T14:33:06.390Z</time>
      </trkpt>
      <trkpt lat="44.65199" lon="-1.17015">
        <ele>56.647807</ele>
        <time>2022-12-25T14:33:10.376Z</time>
      </trkpt>
      <trkpt lat="44.65204" lon="-1.17025">
        <ele>56.582973</ele>
        <time>2022-12-25T14:33:14.370Z</time>
      </trkpt>
      <trkpt lat="44.6521" lon="-1.17035">
        <ele>56.515275</ele>
        <time>2022-12-25T14:33:19.383Z</time>
      </trkpt>
      <trkpt lat="44.65217" lon="-1.17048">
        <ele>56.43156</ele>
        <time>2022-12-25T14:33:24.366Z</time>
      </trkpt>
      <trkpt lat="44.65225" lon="-1.17059">
        <ele>56.355034</ele>
        <time>2022-12-25T14:33:28.372Z</time>
      </trkpt>
      <trkpt lat="44.65233" lon="-1.17067">
        <ele>56.28241</ele>
        <time>2022-12-25T14:33:32.361Z</time>
      </trkpt>
      <trkpt lat="44.65241" lon="-1.17075">
        <ele>56.2089</ele>
        <time>2022-12-25T14:33:36.362Z</time>
      </trkpt>
      <trkpt lat="44.65249" lon="-1.17083">
        <ele>56.277938</ele>
        <time>2022-12-25T14:33:40.372Z</time>
      </trkpt>
      <trkpt lat="44.65256" lon="-1.17095">
        <ele>56.401573</ele>
        <time>2022-12-25T14:33:44.369Z</time>
      </trkpt>
      <trkpt lat="44.65264" lon="-1.17106">
        <ele>56.515236</ele>
        <time>2022-12-25T14:33:48.374Z</time>
      </trkpt>
      <trkpt lat="44.65273" lon="-1.17114">
        <ele>56.628793</ele>
        <time>2022-12-25T14:33:52.367Z</time>
      </trkpt>
      <trkpt lat="44.65281" lon="-1.17127">
        <ele>56.754686</ele>
        <time>2022-12-25T14:33:56.372Z</time>
      </trkpt>
      <trkpt lat="44.65283" lon="-1.17142">
        <ele>56.869847</ele>
        <time>2022-12-25T14:34:00.369Z</time>
      </trkpt>
      <trkpt lat="44.65287" lon="-1.17154">
        <ele>56.968424</ele>
        <time>2022-12-25T14:34:03.365Z</time>
      </trkpt>
      <trkpt lat="44.65292" lon="-1.17166">
        <ele>57.070002</ele>
        <time>2022-12-25T14:34:06.370Z</time>
      </trkpt>
      <trkpt lat="44.65296" lon="-1.17177">
        <ele>57.166176</ele>
        <time>2022-12-25T14:34:09.363Z</time>
      </trkpt>
      <trkpt lat="44.65302" lon="-1.17188">
        <ele>57.27136</ele>
        <time>2022-12-25T14:34:13.382Z</time>
      </trkpt>
      <trkpt lat="44.65306" lon="-1.172">
        <ele>57.369465</ele>
        <time>2022-12-25T14:34:17.370Z</time>
      </trkpt>
      <trkpt lat="44.6531" lon="-1.17212">
        <ele>57.468446</ele>
        <time>2022-12-25T14:34:24.377Z</time>
      </trkpt>
      <trkpt lat="44.65311" lon="-1.17225">
        <ele>57.571126</ele>
        <time>2022-12-25T14:35:52.377Z</time>
      </trkpt>
      <trkpt lat="44.65314" lon="-1.1724">
        <ele>57.686591</ele>
        <time>2022-12-25T14:35:57.380Z</time>
      </trkpt>
      <trkpt lat="44.65323" lon="-1.1725">
        <ele>57.801117</ele>
        <time>2022-12-25T14:36:01.373Z</time>
      </trkpt>
      <trkpt lat="44.6533" lon="-1.17258">
        <ele>57.902626</ele>
        <time>2022-12-25T14:36:04.373Z</time>
      </trkpt>
      <trkpt lat="44.65338" lon="-1.1727">
        <ele>58.025139</ele>
        <time>2022-12-25T14:36:08.375Z</time>
      </trkpt>
      <trkpt lat="44.65345" lon="-1.17283">
        <ele>58.086741</ele>
        <time>2022-12-25T14:36:12.373Z</time>
      </trkpt>
      <trkpt lat="44.6535" lon="-1.17295">
        <ele>58.046923</ele>
        <time>2022-12-25T14:36:16.386Z</time>
      </trkpt>
      <trkpt lat="44.65356" lon="-1.17306">
        <ele>58.008224</ele>
        <time>2022-12-25T14:36:20.367Z</time>
      </trkpt>
      <trkpt lat="44.65362" lon="-1.17321">
        <ele>57.959922</ele>
        <time>2022-12-25T14:36:24.381Z</time>
      </trkpt>
      <trkpt lat="44.65367" lon="-1.17333">
        <ele>57.923189</ele>
        <time>2022-12-25T14:36:27.364Z</time>
      </trkpt>
      <trkpt lat="44.65373" lon="-1.17342">
        <ele>57.887546</ele>
        <time>2022-12-25T14:36:30.368Z</time>
      </trkpt>
      <trkpt lat="44.65379" lon="-1.17352">
        <ele>57.852197</ele>
        <time>2022-12-25T14:36:33.364Z</time>
      </trkpt>
      <trkpt lat="44.65384" lon="-1.17365">
        <ele>57.811026</ele>
        <time>2022-12-25T14:36:37.362Z</time>
      </trkpt>
      <trkpt lat="44.65389" lon="-1.17377">
        <ele>57.772919</ele>
        <time>2022-12-25T14:36:41.361Z</time>
      </trkpt>
      <trkpt lat="44.65393" lon="-1.17391">
        <ele>57.731808</ele>
        <time>2022-12-25T14:36:45.366Z</time>
      </trkpt>
      <trkpt lat="44.65398" lon="-1.17403">
        <ele>57.692537</ele>
        <time>2022-12-25T14:36:49.360Z</time>
      </trkpt>
      <trkpt lat="44.65403" lon="-1.17415">
        <ele>57.654488</ele>
        <time>2022-12-25T14:36:53.379Z</time>
      </trkpt>
      <trkpt lat="44.65408" lon="-1.17426">
        <ele>57.61743</ele>
        <time>2022-12-25T14:36:57.371Z</time>
      </trkpt>
      <trkpt lat="44.65418" lon="-1.17436">
        <ele>57.570063</ele>
        <time>2022-12-25T14:37:02.373Z</time>
      </trkpt>
      <trkpt lat="44.65425" lon="-1.1745">
        <ele>57.522614</ele>
        <time>2022-12-25T14:37:05.391Z</time>
      </trkpt>
      <trkpt lat="44.65439" lon="-1.17475">
        <ele>57.435125</ele>
        <time>2022-12-25T14:37:50.374Z</time>
      </trkpt>
      <trkpt lat="44.65447" lon="-1.17486">
        <ele>57.428777</ele>
        <time>2022-12-25T14:37:53.372Z</time>
      </trkpt>
      <trkpt lat="44.65452" lon="-1.17501">
        <ele>57.557495</ele>
        <time>2022-12-25T14:37:56.377Z</time>
      </trkpt>
      <trkpt lat="44.65457" lon="-1.17515">
        <ele>57.676961</ele>
        <time>2022-12-25T14:37:59.378Z</time>
      </trkpt>
      <trkpt lat="44.65461" lon="-1.17528">
        <ele>57.787945</ele>
        <time>2022-12-25T14:38:03.360Z</time>
      </trkpt>
      <trkpt lat="44.65458" lon="-1.17541">
        <ele>57.889678</ele>
        <time>2022-12-25T14:38:08.367Z</time>
      </trkpt>
      <trkpt lat="44.65453" lon="-1.17552">
        <ele>57.994658</ele>
        <time>2022-12-25T14:38:18.364Z</time>
      </trkpt>
      <trkpt lat="44.65445" lon="-1.17561">
        <ele>58.098983</ele>
        <time>2022-12-25T14:38:29.370Z</time>
      </trkpt>
      <trkpt lat="44.65438" lon="-1.1757">
        <ele>58.19926</ele>
        <time>2022-12-25T14:38:38.370Z</time>
      </trkpt>
      <trkpt lat="44.65439" lon="-1.17584">
        <ele>58.30344</ele>
        <time>2022-12-25T14:38:54.376Z</time>
      </trkpt>
      <trkpt lat="44.65444" lon="-1.17594">
        <ele>58.399617</ele>
        <time>2022-12-25T14:38:58.376Z</time>
      </trkpt>
      <trkpt lat="44.65451" lon="-1.17602">
        <ele>58.496479</ele>
        <time>2022-12-25T14:39:02.379Z</time>
      </trkpt>
      <trkpt lat="44.65458" lon="-1.17615">
        <ele>58.623185</ele>
        <time>2022-12-25T14:39:06.369Z</time>
      </trkpt>
      <trkpt lat="44.65462" lon="-1.17629">
        <ele>58.7387</ele>
        <time>2022-12-25T14:39:10.366Z</time>
      </trkpt>
      <trkpt lat="44.65467" lon="-1.1764">
        <ele>58.838648</ele>
        <time>2022-12-25T14:39:13.364Z</time>
      </trkpt>
      <trkpt lat="44.65474" lon="-1.17652">
        <ele>58.957679</ele>
        <time>2022-12-25T14:39:17.377Z</time>
      </trkpt>
      <trkpt lat="44.65483" lon="-1.17665">
        <ele>59.093973</ele>
        <time>2022-12-25T14:39:22.369Z</time>
      </trkpt>
      <trkpt lat="44.65489" lon="-1.1768">
        <ele>59.225279</ele>
        <time>2022-12-25T14:39:25.382Z</time>
      </trkpt>
      <trkpt lat="44.65492" lon="-1.17692">
        <ele>59.327936</ele>
        <time>2022-12-25T14:39:27.365Z</time>
      </trkpt>
      <trkpt lat="44.65488" lon="-1.17709">
        <ele>59.308861</ele>
        <time>2022-12-25T14:39:30.364Z</time>
      </trkpt>
      <trkpt lat="44.65481" lon="-1.17719">
        <ele>59.283928</ele>
        <time>2022-12-25T14:39:33.508Z</time>
      </trkpt>
      <trkpt lat="44.65473" lon="-1.17727">
        <ele>59.259639</ele>
        <time>2022-12-25T14:39:37.364Z</time>
      </trkpt>
      <trkpt lat="44.65467" lon="-1.17736">
        <ele>59.236994</ele>
        <time>2022-12-25T14:39:41.366Z</time>
      </trkpt>
      <trkpt lat="44.65462" lon="-1.17748">
        <ele>59.21325</ele>
        <time>2022-12-25T14:39:45.374Z</time>
      </trkpt>
      <trkpt lat="44.65457" lon="-1.17759">
        <ele>59.189033</ele>
        <time>2022-12-25T14:39:49.367Z</time>
      </trkpt>
      <trkpt lat="44.65452" lon="-1.17773">
        <ele>59.162106</ele>
        <time>2022-12-25T14:39:54.376Z</time>
      </trkpt>
      <trkpt lat="44.65445" lon="-1.17785">
        <ele>59.134491</ele>
        <time>2022-12-25T14:39:59.389Z</time>
      </trkpt>
      <trkpt lat="44.65439" lon="-1.17796">
        <ele>59.110359</ele>
        <time>2022-12-25T14:40:03.387Z</time>
      </trkpt>
      <trkpt lat="44.65432" lon="-1.17807">
        <ele>59.084313</ele>
        <time>2022-12-25T14:40:07.374Z</time>
      </trkpt>
      <trkpt lat="44.65425" lon="-1.17818">
        <ele>59.058008</ele>
        <time>2022-12-25T14:40:11.383Z</time>
      </trkpt>
      <trkpt lat="44.65418" lon="-1.17831">
        <ele>59.029175</ele>
        <time>2022-12-25T14:40:15.381Z</time>
      </trkpt>
      <trkpt lat="44.65411" lon="-1.17843">
        <ele>59.001121</ele>
        <time>2022-12-25T14:40:19.372Z</time>
      </trkpt>
      <trkpt lat="44.65406" lon="-1.17853">
        <ele>58.978412</ele>
        <time>2022-12-25T14:40:22.380Z</time>
      </trkpt>
      <trkpt lat="44.65397" lon="-1.17871">
        <ele>58.94154</ele>
        <time>2022-12-25T14:40:25.379Z</time>
      </trkpt>
      <trkpt lat="44.65391" lon="-1.17881">
        <ele>58.918352</ele>
        <time>2022-12-25T14:40:28.381Z</time>
      </trkpt>
      <trkpt lat="44.65384" lon="-1.17893">
        <ele>58.890264</ele>
        <time>2022-12-25T14:40:31.374Z</time>
      </trkpt>
      <trkpt lat="44.65379" lon="-1.17904">
        <ele>58.63836</ele>
        <time>2022-12-25T14:40:34.379Z</time>
      </trkpt>
      <trkpt lat="44.65373" lon="-1.17914">
        <ele>58.362562</ele>
        <time>2022-12-25T14:40:37.374Z</time>
      </trkpt>
      <trkpt lat="44.65366" lon="-1.17926">
        <ele>58.056354</ele>
        <time>2022-12-25T14:40:40.372Z</time>
      </trkpt>
      <trkpt lat="44.6536" lon="-1.1794">
        <ele>57.70897</ele>
        <time>2022-12-25T14:40:43.368Z</time>
      </trkpt>
      <trkpt lat="44.65353" lon="-1.17956">
        <ele>57.33921</ele>
        <time>2022-12-25T14:40:46.378Z</time>
      </trkpt>
      <trkpt lat="44.65347" lon="-1.17966">
        <ele>57.074917</ele>
        <time>2022-12-25T14:40:48.369Z</time>
      </trkpt>
      <trkpt lat="44.65341" lon="-1.17978">
        <ele>56.768897</ele>
        <time>2022-12-25T14:40:50.368Z</time>
      </trkpt>
      <trkpt lat="44.65333" lon="-1.17993">
        <ele>56.39677</ele>
        <time>2022-12-25T14:40:52.369Z</time>
      </trkpt>
      <trkpt lat="44.65327" lon="-1.18008">
        <ele>56.041925</ele>
        <time>2022-12-25T14:40:54.368Z</time>
      </trkpt>
      <trkpt lat="44.6532" lon="-1.18022">
        <ele>55.692301</ele>
        <time>2022-12-25T14:40:56.370Z</time>
      </trkpt>
      <trkpt lat="44.65313" lon="-1.18038">
        <ele>55.306893</ele>
        <time>2022-12-25T14:40:58.368Z</time>
      </trkpt>
      <trkpt lat="44.65305" lon="-1.18054">
        <ele>54.902878</ele>
        <time>2022-12-25T14:41:00.361Z</time>
      </trkpt>
      <trkpt lat="44.65296" lon="-1.18066">
        <ele>54.550864</ele>
        <time>2022-12-25T14:41:02.379Z</time>
      </trkpt>
      <trkpt lat="44.6529" lon="-1.18079">
        <ele>54.245126</ele>
        <time>2022-12-25T14:41:04.364Z</time>
      </trkpt>
      <trkpt lat="44.65281" lon="-1.18089">
        <ele>53.917338</ele>
        <time>2022-12-25T14:41:07.386Z</time>
      </trkpt>
      <trkpt lat="44.65274" lon="-1.181">
        <ele>53.836092</ele>
        <time>2022-12-25T14:41:11.382Z</time>
      </trkpt>
      <trkpt lat="44.65266" lon="-1.18107">
        <ele>54.04075</ele>
        <time>2022-12-25T14:41:15.369Z</time>
      </trkpt>
      <trkpt lat="44.65256" lon="-1.18109">
        <ele>54.24992</ele>
        <time>2022-12-25T14:41:20.381Z</time>
      </trkpt>
      <trkpt lat="44.65251" lon="-1.18098">
        <ele>54.450463</ele>
        <time>2022-12-25T14:41:25.375Z</time>
      </trkpt>
      <trkpt lat="44.65248" lon="-1.18083">
        <ele>54.699727</ele>
        <time>2022-12-25T14:41:30.371Z</time>
      </trkpt>
      <trkpt lat="44.65246" lon="-1.18067">
        <ele>54.956603</ele>
        <time>2022-12-25T14:41:34.363Z</time>
      </trkpt>
      <trkpt lat="44.65242" lon="-1.18051">
        <ele>55.218247</ele>
        <time>2022-12-25T14:41:38.372Z</time>
      </trkpt>
      <trkpt lat="44.65241" lon="-1.18038">
        <ele>55.419398</ele>
        <time>2022-12-25T14:41:43.376Z</time>
      </trkpt>
      <trkpt lat="44.65238" lon="-1.18023">
        <ele>55.661137</ele>
        <time>2022-12-25T14:41:47.365Z</time>
      </trkpt>
      <trkpt lat="44.65235" lon="-1.1801">
        <ele>55.882641</ele>
        <time>2022-12-25T14:41:50.364Z</time>
      </trkpt>
      <trkpt lat="44.65233" lon="-1.17997">
        <ele>56.085903</ele>
        <time>2022-12-25T14:41:53.362Z</time>
      </trkpt>
      <trkpt lat="44.65232" lon="-1.17982">
        <ele>56.32666</ele>
        <time>2022-12-25T14:41:57.367Z</time>
      </trkpt>
      <trkpt lat="44.65229" lon="-1.17966">
        <ele>56.589925</ele>
        <time>2022-12-25T14:42:01.379Z</time>
      </trkpt>
      <trkpt lat="44.65226" lon="-1.17952">
        <ele>56.820809</ele>
        <time>2022-12-25T14:42:04.361Z</time>
      </trkpt>
      <trkpt lat="44.65223" lon="-1.17939">
        <ele>57.039316</ele>
        <time>2022-12-25T14:42:08.373Z</time>
      </trkpt>
      <trkpt lat="44.65223" lon="-1.17912">
        <ele>57.454822</ele>
        <time>2022-12-25T14:42:52.385Z</time>
      </trkpt>
      <trkpt lat="44.65222" lon="-1.17898">
        <ele>57.682261</ele>
        <time>2022-12-25T14:42:56.382Z</time>
      </trkpt>
      <trkpt lat="44.65219" lon="-1.17881">
        <ele>58.225956</ele>
        <time>2022-12-25T14:43:00.387Z</time>
      </trkpt>
      <trkpt lat="44.65217" lon="-1.17869">
        <ele>58.648796</ele>
        <time>2022-12-25T14:43:03.375Z</time>
      </trkpt>
      <trkpt lat="44.65215" lon="-1.17856">
        <ele>59.08055</ele>
        <time>2022-12-25T14:43:07.367Z</time>
      </trkpt>
      <trkpt lat="44.65215" lon="-1.17843">
        <ele>59.530622</ele>
        <time>2022-12-25T14:43:12.366Z</time>
      </trkpt>
      <trkpt lat="44.65213" lon="-1.17829">
        <ele>59.989194</ele>
        <time>2022-12-25T14:43:17.379Z</time>
      </trkpt>
      <trkpt lat="44.65211" lon="-1.17814">
        <ele>60.489272</ele>
        <time>2022-12-25T14:43:23.380Z</time>
      </trkpt>
      <trkpt lat="44.65208" lon="-1.17801">
        <ele>60.947761</ele>
        <time>2022-12-25T14:43:28.367Z</time>
      </trkpt>
      <trkpt lat="44.65208" lon="-1.17788">
        <ele>61.382092</ele>
        <time>2022-12-25T14:43:34.368Z</time>
      </trkpt>
      <trkpt lat="44.65205" lon="-1.17774">
        <ele>61.865295</ele>
        <time>2022-12-25T14:43:39.368Z</time>
      </trkpt>
      <trkpt lat="44.65202" lon="-1.17761">
        <ele>62.333738</ele>
        <time>2022-12-25T14:43:45.390Z</time>
      </trkpt>
      <trkpt lat="44.65199" lon="-1.17747">
        <ele>62.790524</ele>
        <time>2022-12-25T14:43:52.374Z</time>
      </trkpt>
      <trkpt lat="44.65197" lon="-1.17733">
        <ele>63.264497</ele>
        <time>2022-12-25T14:43:58.367Z</time>
      </trkpt>
      <trkpt lat="44.65197" lon="-1.17719">
        <ele>63.724612</ele>
        <time>2022-12-25T14:44:07.392Z</time>
      </trkpt>
      <trkpt lat="44.65194" lon="-1.17705">
        <ele>64.233345</ele>
        <time>2022-12-25T14:44:13.376Z</time>
      </trkpt>
      <trkpt lat="44.65192" lon="-1.17691">
        <ele>64.678694</ele>
        <time>2022-12-25T14:44:19.379Z</time>
      </trkpt>
      <trkpt lat="44.65188" lon="-1.17678">
        <ele>65.165025</ele>
        <time>2022-12-25T14:44:25.371Z</time>
      </trkpt>
      <trkpt lat="44.65185" lon="-1.17665">
        <ele>65.609274</ele>
        <time>2022-12-25T14:44:32.373Z</time>
      </trkpt>
      <trkpt lat="44.65183" lon="-1.17652">
        <ele>66.042877</ele>
        <time>2022-12-25T14:44:39.376Z</time>
      </trkpt>
      <trkpt lat="44.65182" lon="-1.17638">
        <ele>66.061352</ele>
        <time>2022-12-25T14:44:46.375Z</time>
      </trkpt>
      <trkpt lat="44.6518" lon="-1.17624">
        <ele>66.061352</ele>
        <time>2022-12-25T14:44:54.371Z</time>
      </trkpt>
      <trkpt lat="44.65177" lon="-1.1761">
        <ele>66.061352</ele>
        <time>2022-12-25T14:45:00.367Z</time>
      </trkpt>
      <trkpt lat="44.65174" lon="-1.17596">
        <ele>66.061352</ele>
        <time>2022-12-25T14:45:06.367Z</time>
      </trkpt>
      <trkpt lat="44.65171" lon="-1.17582">
        <ele>66.061352</ele>
        <time>2022-12-25T14:45:12.392Z</time>
      </trkpt>
      <trkpt lat="44.6517" lon="-1.17569">
        <ele>66.061352</ele>
        <time>2022-12-25T14:45:19.369Z</time>
      </trkpt>
      <trkpt lat="44.65167" lon="-1.17556">
        <ele>66.061352</ele>
        <time>2022-12-25T14:45:24.385Z</time>
      </trkpt>
      <trkpt lat="44.65164" lon="-1.17542">
        <ele>66.061352</ele>
        <time>2022-12-25T14:45:30.364Z</time>
      </trkpt>
      <trkpt lat="44.65161" lon="-1.1753">
        <ele>66.061352</ele>
        <time>2022-12-25T14:45:35.371Z</time>
      </trkpt>
      <trkpt lat="44.65159" lon="-1.17516">
        <ele>66.061352</ele>
        <time>2022-12-25T14:45:41.380Z</time>
      </trkpt>
      <trkpt lat="44.65158" lon="-1.17502">
        <ele>66.061352</ele>
        <time>2022-12-25T14:45:47.376Z</time>
      </trkpt>
      <trkpt lat="44.65156" lon="-1.17489">
        <ele>66.061352</ele>
        <time>2022-12-25T14:45:52.369Z</time>
      </trkpt>
      <trkpt lat="44.65154" lon="-1.17474">
        <ele>66.061352</ele>
        <time>2022-12-25T14:45:58.377Z</time>
      </trkpt>
      <trkpt lat="44.65151" lon="-1.1746">
        <ele>66.061352</ele>
        <time>2022-12-25T14:46:04.385Z</time>
      </trkpt>
      <trkpt lat="44.65149" lon="-1.17447">
        <ele>66.061352</ele>
        <time>2022-12-25T14:46:09.373Z</time>
      </trkpt>
      <trkpt lat="44.65146" lon="-1.17434">
        <ele>66.061352</ele>
        <time>2022-12-25T14:46:15.373Z</time>
      </trkpt>
      <trkpt lat="44.65145" lon="-1.17427">
        <ele>66.061352</ele>
        <time>2022-12-25T14:46:29.671Z</time>
        <extensions>
          <visugpx:TrkExtension xmlns:visugpx="https://www.visugpx.com/editgpx/">
            <visugpx:node>1</visugpx:node>
            </visugpx:TrkExtension>
        </extensions>
      </trkpt>
    </trkseg>
  </trk>
</gpx>